<?xml version="1.0" encoding="UTF-8" ?>
<gpx version="1.1" 
creator="Memory-Map 6.4.3.1278 https://memory-map.com"
 xmlns:xsi="http://www.w3.org/2001/XMLSchema-instance"
 xmlns="http://www.topografix.com/GPX/1/1"
 xmlns:xstyle="http://www.topografix.com/GPX/gpx_style/0/2"
 xmlns:xgarmin="http://www.garmin.com/xmlschemas/GpxExtensions/v3"
 xsi:schemaLocation="http://www.topografix.com/GPX/1/1 http://www.topografix.com/GPX/1/1/gpx.xsd http://www.topografix.com/GPX/gpx_style/0/2 http://www.topografix.com/GPX/gpx_style/0/2/gpx_style.xsd http://www.garmin.com/xmlschemas/GpxExtensions/v3 https://www8.garmin.com/xmlschemas/GpxExtensionsv3.xsd">
<trk>
<name>1458 Lecharra</name>
<src>mmid:5BFAC5534D5C43B8</src>
<type>Track</type>
<extensions> <xstyle:line>
<xstyle:color>0000ff</xstyle:color>
<xstyle:opacity>1.0</xstyle:opacity>
<xstyle:width>2.0</xstyle:width>
<xstyle:pattern>Solid</xstyle:pattern>
</xstyle:line></extensions>
<trkseg>
<trkpt lat="43.0971970000" lon="-0.9850320000"><ele>807</ele><time>2026-04-26T09:58:39Z</time></trkpt>
<trkpt lat="43.0971750000" lon="-0.9850220000"><ele>807</ele><time>2026-04-26T09:58:43Z</time></trkpt>
<trkpt lat="43.0971520000" lon="-0.9850270000"><ele>807</ele><time>2026-04-26T09:58:46Z</time></trkpt>
<trkpt lat="43.0971320000" lon="-0.9850170000"><ele>807</ele><time>2026-04-26T09:58:48Z</time></trkpt>
<trkpt lat="43.0971120000" lon="-0.9849950000"><ele>807</ele><time>2026-04-26T09:58:50Z</time></trkpt>
<trkpt lat="43.0970920000" lon="-0.9849820000"><ele>807</ele><time>2026-04-26T09:58:52Z</time></trkpt>
<trkpt lat="43.0970720000" lon="-0.9849820000"><ele>806</ele><time>2026-04-26T09:58:54Z</time></trkpt>
<trkpt lat="43.0970520000" lon="-0.9849820000"><ele>806</ele><time>2026-04-26T09:58:56Z</time></trkpt>
<trkpt lat="43.0970320000" lon="-0.9849900000"><ele>806</ele><time>2026-04-26T09:58:58Z</time></trkpt>
<trkpt lat="43.0970200000" lon="-0.9850070000"><ele>806</ele><time>2026-04-26T09:59:00Z</time></trkpt>
<trkpt lat="43.0970070000" lon="-0.9849830000"><ele>806</ele><time>2026-04-26T09:59:10Z</time></trkpt>
<trkpt lat="43.0969900000" lon="-0.9849830000"><ele>806</ele><time>2026-04-26T09:59:12Z</time></trkpt>
<trkpt lat="43.0969700000" lon="-0.9849970000"><ele>806</ele><time>2026-04-26T09:59:21Z</time></trkpt>
<trkpt lat="43.0969420000" lon="-0.9850020000"><ele>806</ele><time>2026-04-26T09:59:23Z</time></trkpt>
<trkpt lat="43.0969150000" lon="-0.9849970000"><ele>806</ele><time>2026-04-26T09:59:25Z</time></trkpt>
<trkpt lat="43.0968920000" lon="-0.9849830000"><ele>806</ele><time>2026-04-26T09:59:27Z</time></trkpt>
<trkpt lat="43.0968670000" lon="-0.9849800000"><ele>806</ele><time>2026-04-26T09:59:29Z</time></trkpt>
<trkpt lat="43.0968450000" lon="-0.9849830000"><ele>806</ele><time>2026-04-26T09:59:31Z</time></trkpt>
<trkpt lat="43.0968220000" lon="-0.9849830000"><ele>806</ele><time>2026-04-26T09:59:33Z</time></trkpt>
<trkpt lat="43.0968020000" lon="-0.9849950000"><ele>806</ele><time>2026-04-26T09:59:35Z</time></trkpt>
<trkpt lat="43.0967900000" lon="-0.9850120000"><ele>806</ele><time>2026-04-26T09:59:37Z</time></trkpt>
<trkpt lat="43.0967850000" lon="-0.9850470000"><ele>806</ele><time>2026-04-26T09:59:40Z</time></trkpt>
<trkpt lat="43.0967950000" lon="-0.9850820000"><ele>806</ele><time>2026-04-26T09:59:43Z</time></trkpt>
<trkpt lat="43.0968020000" lon="-0.9851070000"><ele>807</ele><time>2026-04-26T09:59:55Z</time></trkpt>
<trkpt lat="43.0967920000" lon="-0.9851420000"><ele>806</ele><time>2026-04-26T10:00:06Z</time></trkpt>
<trkpt lat="43.0967900000" lon="-0.9851720000"><ele>806</ele><time>2026-04-26T10:00:09Z</time></trkpt>
<trkpt lat="43.0967950000" lon="-0.9851270000"><ele>806</ele><time>2026-04-26T10:00:20Z</time></trkpt>
<trkpt lat="43.0967900000" lon="-0.9850980000"><ele>806</ele><time>2026-04-26T10:00:21Z</time></trkpt>
<trkpt lat="43.0967770000" lon="-0.9850570000"><ele>806</ele><time>2026-04-26T10:00:23Z</time></trkpt>
<trkpt lat="43.0967570000" lon="-0.9850280000"><ele>806</ele><time>2026-04-26T10:00:25Z</time></trkpt>
<trkpt lat="43.0967350000" lon="-0.9850320000"><ele>806</ele><time>2026-04-26T10:00:27Z</time></trkpt>
<trkpt lat="43.0967170000" lon="-0.9850420000"><ele>807</ele><time>2026-04-26T10:00:36Z</time></trkpt>
<trkpt lat="43.0966900000" lon="-0.9850600000"><ele>807</ele><time>2026-04-26T10:00:39Z</time></trkpt>
<trkpt lat="43.0966620000" lon="-0.9850720000"><ele>807</ele><time>2026-04-26T10:00:41Z</time></trkpt>
<trkpt lat="43.0966370000" lon="-0.9850780000"><ele>807</ele><time>2026-04-26T10:00:43Z</time></trkpt>
<trkpt lat="43.0966170000" lon="-0.9850870000"><ele>807</ele><time>2026-04-26T10:00:45Z</time></trkpt>
<trkpt lat="43.0966000000" lon="-0.9850900000"><ele>807</ele><time>2026-04-26T10:00:47Z</time></trkpt>
<trkpt lat="43.0965820000" lon="-0.9850950000"><ele>807</ele><time>2026-04-26T10:00:49Z</time></trkpt>
<trkpt lat="43.0965620000" lon="-0.9850970000"><ele>808</ele><time>2026-04-26T10:00:51Z</time></trkpt>
<trkpt lat="43.0965420000" lon="-0.9851020000"><ele>808</ele><time>2026-04-26T10:00:53Z</time></trkpt>
<trkpt lat="43.0965220000" lon="-0.9851050000"><ele>808</ele><time>2026-04-26T10:00:55Z</time></trkpt>
<trkpt lat="43.0965050000" lon="-0.9851120000"><ele>808</ele><time>2026-04-26T10:00:57Z</time></trkpt>
<trkpt lat="43.0964870000" lon="-0.9851150000"><ele>809</ele><time>2026-04-26T10:00:59Z</time></trkpt>
<trkpt lat="43.0964670000" lon="-0.9851170000"><ele>809</ele><time>2026-04-26T10:01:01Z</time></trkpt>
<trkpt lat="43.0964420000" lon="-0.9851170000"><ele>809</ele><time>2026-04-26T10:01:04Z</time></trkpt>
<trkpt lat="43.0964220000" lon="-0.9851350000"><ele>809</ele><time>2026-04-26T10:01:07Z</time></trkpt>
<trkpt lat="43.0964050000" lon="-0.9851420000"><ele>810</ele><time>2026-04-26T10:01:09Z</time></trkpt>
<trkpt lat="43.0963850000" lon="-0.9851570000"><ele>810</ele><time>2026-04-26T10:01:12Z</time></trkpt>
<trkpt lat="43.0963620000" lon="-0.9851670000"><ele>810</ele><time>2026-04-26T10:01:15Z</time></trkpt>
<trkpt lat="43.0963420000" lon="-0.9851700000"><ele>811</ele><time>2026-04-26T10:01:17Z</time></trkpt>
<trkpt lat="43.0963220000" lon="-0.9851720000"><ele>811</ele><time>2026-04-26T10:01:19Z</time></trkpt>
<trkpt lat="43.0963020000" lon="-0.9851720000"><ele>811</ele><time>2026-04-26T10:01:21Z</time></trkpt>
<trkpt lat="43.0962870000" lon="-0.9851970000"><ele>812</ele><time>2026-04-26T10:01:37Z</time></trkpt>
<trkpt lat="43.0962670000" lon="-0.9852120000"><ele>812</ele><time>2026-04-26T10:01:39Z</time></trkpt>
<trkpt lat="43.0962420000" lon="-0.9852320000"><ele>812</ele><time>2026-04-26T10:01:41Z</time></trkpt>
<trkpt lat="43.0962250000" lon="-0.9852470000"><ele>812</ele><time>2026-04-26T10:01:43Z</time></trkpt>
<trkpt lat="43.0962100000" lon="-0.9852650000"><ele>813</ele><time>2026-04-26T10:01:45Z</time></trkpt>
<trkpt lat="43.0961950000" lon="-0.9852800000"><ele>813</ele><time>2026-04-26T10:01:47Z</time></trkpt>
<trkpt lat="43.0961770000" lon="-0.9852980000"><ele>813</ele><time>2026-04-26T10:01:50Z</time></trkpt>
<trkpt lat="43.0961570000" lon="-0.9853180000"><ele>813</ele><time>2026-04-26T10:01:53Z</time></trkpt>
<trkpt lat="43.0961400000" lon="-0.9853370000"><ele>814</ele><time>2026-04-26T10:01:56Z</time></trkpt>
<trkpt lat="43.0961150000" lon="-0.9853470000"><ele>814</ele><time>2026-04-26T10:01:59Z</time></trkpt>
<trkpt lat="43.0960920000" lon="-0.9853620000"><ele>815</ele><time>2026-04-26T10:02:02Z</time></trkpt>
<trkpt lat="43.0960770000" lon="-0.9853750000"><ele>815</ele><time>2026-04-26T10:02:04Z</time></trkpt>
<trkpt lat="43.0960570000" lon="-0.9853920000"><ele>815</ele><time>2026-04-26T10:02:07Z</time></trkpt>
<trkpt lat="43.0960320000" lon="-0.9854020000"><ele>815</ele><time>2026-04-26T10:02:10Z</time></trkpt>
<trkpt lat="43.0960100000" lon="-0.9854170000"><ele>816</ele><time>2026-04-26T10:02:13Z</time></trkpt>
<trkpt lat="43.0959870000" lon="-0.9854300000"><ele>816</ele><time>2026-04-26T10:02:16Z</time></trkpt>
<trkpt lat="43.0959670000" lon="-0.9854470000"><ele>817</ele><time>2026-04-26T10:02:19Z</time></trkpt>
<trkpt lat="43.0959470000" lon="-0.9854700000"><ele>817</ele><time>2026-04-26T10:02:22Z</time></trkpt>
<trkpt lat="43.0959250000" lon="-0.9854900000"><ele>817</ele><time>2026-04-26T10:02:25Z</time></trkpt>
<trkpt lat="43.0959070000" lon="-0.9855120000"><ele>817</ele><time>2026-04-26T10:02:28Z</time></trkpt>
<trkpt lat="43.0958820000" lon="-0.9855270000"><ele>818</ele><time>2026-04-26T10:02:31Z</time></trkpt>
<trkpt lat="43.0958620000" lon="-0.9855370000"><ele>818</ele><time>2026-04-26T10:02:33Z</time></trkpt>
<trkpt lat="43.0958470000" lon="-0.9855520000"><ele>818</ele><time>2026-04-26T10:02:35Z</time></trkpt>
<trkpt lat="43.0958270000" lon="-0.9855670000"><ele>819</ele><time>2026-04-26T10:02:38Z</time></trkpt>
<trkpt lat="43.0958120000" lon="-0.9855870000"><ele>819</ele><time>2026-04-26T10:02:41Z</time></trkpt>
<trkpt lat="43.0957900000" lon="-0.9856050000"><ele>819</ele><time>2026-04-26T10:02:44Z</time></trkpt>
<trkpt lat="43.0957720000" lon="-0.9856250000"><ele>820</ele><time>2026-04-26T10:02:47Z</time></trkpt>
<trkpt lat="43.0957500000" lon="-0.9856420000"><ele>820</ele><time>2026-04-26T10:02:50Z</time></trkpt>
<trkpt lat="43.0957320000" lon="-0.9856670000"><ele>821</ele><time>2026-04-26T10:02:53Z</time></trkpt>
<trkpt lat="43.0957200000" lon="-0.9856850000"><ele>821</ele><time>2026-04-26T10:02:55Z</time></trkpt>
<trkpt lat="43.0957100000" lon="-0.9857120000"><ele>821</ele><time>2026-04-26T10:02:58Z</time></trkpt>
<trkpt lat="43.0957070000" lon="-0.9857370000"><ele>821</ele><time>2026-04-26T10:03:00Z</time></trkpt>
<trkpt lat="43.0957000000" lon="-0.9857700000"><ele>822</ele><time>2026-04-26T10:03:03Z</time></trkpt>
<trkpt lat="43.0956870000" lon="-0.9857900000"><ele>822</ele><time>2026-04-26T10:03:05Z</time></trkpt>
<trkpt lat="43.0956720000" lon="-0.9858170000"><ele>822</ele><time>2026-04-26T10:03:08Z</time></trkpt>
<trkpt lat="43.0956550000" lon="-0.9858420000"><ele>822</ele><time>2026-04-26T10:03:11Z</time></trkpt>
<trkpt lat="43.0956400000" lon="-0.9858670000"><ele>823</ele><time>2026-04-26T10:03:14Z</time></trkpt>
<trkpt lat="43.0956250000" lon="-0.9858920000"><ele>823</ele><time>2026-04-26T10:03:17Z</time></trkpt>
<trkpt lat="43.0956070000" lon="-0.9859170000"><ele>823</ele><time>2026-04-26T10:03:20Z</time></trkpt>
<trkpt lat="43.0955920000" lon="-0.9859420000"><ele>824</ele><time>2026-04-26T10:03:23Z</time></trkpt>
<trkpt lat="43.0955770000" lon="-0.9859670000"><ele>824</ele><time>2026-04-26T10:03:26Z</time></trkpt>
<trkpt lat="43.0955620000" lon="-0.9859900000"><ele>824</ele><time>2026-04-26T10:03:29Z</time></trkpt>
<trkpt lat="43.0955450000" lon="-0.9860130000"><ele>825</ele><time>2026-04-26T10:03:32Z</time></trkpt>
<trkpt lat="43.0955280000" lon="-0.9860470000"><ele>825</ele><time>2026-04-26T10:03:35Z</time></trkpt>
<trkpt lat="43.0955120000" lon="-0.9860570000"><ele>826</ele><time>2026-04-26T10:03:39Z</time></trkpt>
<trkpt lat="43.0954950000" lon="-0.9860800000"><ele>826</ele><time>2026-04-26T10:04:06Z</time></trkpt>
<trkpt lat="43.0954820000" lon="-0.9861020000"><ele>826</ele><time>2026-04-26T10:04:10Z</time></trkpt>
<trkpt lat="43.0954670000" lon="-0.9861270000"><ele>827</ele><time>2026-04-26T10:04:13Z</time></trkpt>
<trkpt lat="43.0954500000" lon="-0.9861480000"><ele>827</ele><time>2026-04-26T10:04:15Z</time></trkpt>
<trkpt lat="43.0954320000" lon="-0.9861670000"><ele>827</ele><time>2026-04-26T10:04:17Z</time></trkpt>
<trkpt lat="43.0954150000" lon="-0.9861900000"><ele>827</ele><time>2026-04-26T10:04:20Z</time></trkpt>
<trkpt lat="43.0954020000" lon="-0.9862070000"><ele>827</ele><time>2026-04-26T10:04:22Z</time></trkpt>
<trkpt lat="43.0953870000" lon="-0.9862370000"><ele>828</ele><time>2026-04-26T10:04:25Z</time></trkpt>
<trkpt lat="43.0953730000" lon="-0.9862570000"><ele>828</ele><time>2026-04-26T10:04:27Z</time></trkpt>
<trkpt lat="43.0953600000" lon="-0.9862750000"><ele>828</ele><time>2026-04-26T10:04:29Z</time></trkpt>
<trkpt lat="43.0953450000" lon="-0.9862920000"><ele>829</ele><time>2026-04-26T10:04:31Z</time></trkpt>
<trkpt lat="43.0953320000" lon="-0.9863100000"><ele>829</ele><time>2026-04-26T10:04:33Z</time></trkpt>
<trkpt lat="43.0953170000" lon="-0.9863320000"><ele>829</ele><time>2026-04-26T10:04:35Z</time></trkpt>
<trkpt lat="43.0952970000" lon="-0.9863570000"><ele>829</ele><time>2026-04-26T10:04:38Z</time></trkpt>
<trkpt lat="43.0952850000" lon="-0.9863770000"><ele>830</ele><time>2026-04-26T10:04:40Z</time></trkpt>
<trkpt lat="43.0952720000" lon="-0.9863950000"><ele>830</ele><time>2026-04-26T10:04:42Z</time></trkpt>
<trkpt lat="43.0952520000" lon="-0.9864180000"><ele>830</ele><time>2026-04-26T10:04:45Z</time></trkpt>
<trkpt lat="43.0952350000" lon="-0.9864470000"><ele>830</ele><time>2026-04-26T10:04:48Z</time></trkpt>
<trkpt lat="43.0952220000" lon="-0.9864720000"><ele>831</ele><time>2026-04-26T10:04:50Z</time></trkpt>
<trkpt lat="43.0952070000" lon="-0.9865050000"><ele>831</ele><time>2026-04-26T10:04:53Z</time></trkpt>
<trkpt lat="43.0952000000" lon="-0.9865300000"><ele>831</ele><time>2026-04-26T10:04:55Z</time></trkpt>
<trkpt lat="43.0951920000" lon="-0.9865570000"><ele>831</ele><time>2026-04-26T10:04:57Z</time></trkpt>
<trkpt lat="43.0951870000" lon="-0.9865820000"><ele>832</ele><time>2026-04-26T10:04:59Z</time></trkpt>
<trkpt lat="43.0951770000" lon="-0.9866120000"><ele>832</ele><time>2026-04-26T10:05:02Z</time></trkpt>
<trkpt lat="43.0951720000" lon="-0.9866370000"><ele>832</ele><time>2026-04-26T10:05:04Z</time></trkpt>
<trkpt lat="43.0951650000" lon="-0.9866720000"><ele>833</ele><time>2026-04-26T10:05:07Z</time></trkpt>
<trkpt lat="43.0951570000" lon="-0.9867070000"><ele>833</ele><time>2026-04-26T10:05:10Z</time></trkpt>
<trkpt lat="43.0951470000" lon="-0.9867320000"><ele>833</ele><time>2026-04-26T10:05:12Z</time></trkpt>
<trkpt lat="43.0951420000" lon="-0.9867580000"><ele>833</ele><time>2026-04-26T10:05:14Z</time></trkpt>
<trkpt lat="43.0951350000" lon="-0.9867900000"><ele>834</ele><time>2026-04-26T10:05:16Z</time></trkpt>
<trkpt lat="43.0951270000" lon="-0.9868150000"><ele>834</ele><time>2026-04-26T10:05:18Z</time></trkpt>
<trkpt lat="43.0951250000" lon="-0.9868400000"><ele>834</ele><time>2026-04-26T10:05:20Z</time></trkpt>
<trkpt lat="43.0951220000" lon="-0.9868670000"><ele>834</ele><time>2026-04-26T10:05:22Z</time></trkpt>
<trkpt lat="43.0951200000" lon="-0.9868920000"><ele>835</ele><time>2026-04-26T10:05:24Z</time></trkpt>
<trkpt lat="43.0951170000" lon="-0.9869200000"><ele>835</ele><time>2026-04-26T10:05:26Z</time></trkpt>
<trkpt lat="43.0951120000" lon="-0.9869450000"><ele>836</ele><time>2026-04-26T10:05:28Z</time></trkpt>
<trkpt lat="43.0951070000" lon="-0.9869700000"><ele>836</ele><time>2026-04-26T10:05:30Z</time></trkpt>
<trkpt lat="43.0951000000" lon="-0.9869920000"><ele>836</ele><time>2026-04-26T10:05:32Z</time></trkpt>
<trkpt lat="43.0950900000" lon="-0.9870250000"><ele>836</ele><time>2026-04-26T10:05:35Z</time></trkpt>
<trkpt lat="43.0950800000" lon="-0.9870480000"><ele>837</ele><time>2026-04-26T10:05:37Z</time></trkpt>
<trkpt lat="43.0950720000" lon="-0.9870820000"><ele>837</ele><time>2026-04-26T10:05:40Z</time></trkpt>
<trkpt lat="43.0950600000" lon="-0.9871120000"><ele>838</ele><time>2026-04-26T10:05:43Z</time></trkpt>
<trkpt lat="43.0950470000" lon="-0.9871350000"><ele>838</ele><time>2026-04-26T10:05:45Z</time></trkpt>
<trkpt lat="43.0950370000" lon="-0.9871670000"><ele>838</ele><time>2026-04-26T10:05:48Z</time></trkpt>
<trkpt lat="43.0950270000" lon="-0.9871970000"><ele>838</ele><time>2026-04-26T10:05:51Z</time></trkpt>
<trkpt lat="43.0950150000" lon="-0.9872320000"><ele>839</ele><time>2026-04-26T10:05:54Z</time></trkpt>
<trkpt lat="43.0950020000" lon="-0.9872620000"><ele>839</ele><time>2026-04-26T10:05:57Z</time></trkpt>
<trkpt lat="43.0949920000" lon="-0.9872820000"><ele>839</ele><time>2026-04-26T10:05:59Z</time></trkpt>
<trkpt lat="43.0949800000" lon="-0.9873150000"><ele>839</ele><time>2026-04-26T10:06:02Z</time></trkpt>
<trkpt lat="43.0949670000" lon="-0.9873450000"><ele>840</ele><time>2026-04-26T10:06:05Z</time></trkpt>
<trkpt lat="43.0949570000" lon="-0.9873750000"><ele>840</ele><time>2026-04-26T10:06:08Z</time></trkpt>
<trkpt lat="43.0949420000" lon="-0.9874050000"><ele>841</ele><time>2026-04-26T10:06:11Z</time></trkpt>
<trkpt lat="43.0949320000" lon="-0.9874370000"><ele>841</ele><time>2026-04-26T10:06:14Z</time></trkpt>
<trkpt lat="43.0949220000" lon="-0.9874620000"><ele>842</ele><time>2026-04-26T10:06:17Z</time></trkpt>
<trkpt lat="43.0949070000" lon="-0.9874920000"><ele>842</ele><time>2026-04-26T10:06:20Z</time></trkpt>
<trkpt lat="43.0948920000" lon="-0.9875220000"><ele>842</ele><time>2026-04-26T10:06:23Z</time></trkpt>
<trkpt lat="43.0948720000" lon="-0.9875420000"><ele>843</ele><time>2026-04-26T10:06:26Z</time></trkpt>
<trkpt lat="43.0948570000" lon="-0.9875650000"><ele>843</ele><time>2026-04-26T10:06:28Z</time></trkpt>
<trkpt lat="43.0948450000" lon="-0.9875920000"><ele>843</ele><time>2026-04-26T10:06:31Z</time></trkpt>
<trkpt lat="43.0948320000" lon="-0.9876200000"><ele>844</ele><time>2026-04-26T10:06:34Z</time></trkpt>
<trkpt lat="43.0948170000" lon="-0.9876450000"><ele>844</ele><time>2026-04-26T10:06:37Z</time></trkpt>
<trkpt lat="43.0947950000" lon="-0.9876600000"><ele>845</ele><time>2026-04-26T10:06:40Z</time></trkpt>
<trkpt lat="43.0947770000" lon="-0.9876800000"><ele>845</ele><time>2026-04-26T10:06:43Z</time></trkpt>
<trkpt lat="43.0947670000" lon="-0.9877070000"><ele>846</ele><time>2026-04-26T10:06:46Z</time></trkpt>
<trkpt lat="43.0947550000" lon="-0.9877320000"><ele>846</ele><time>2026-04-26T10:06:49Z</time></trkpt>
<trkpt lat="43.0947450000" lon="-0.9877570000"><ele>846</ele><time>2026-04-26T10:06:52Z</time></trkpt>
<trkpt lat="43.0947320000" lon="-0.9877770000"><ele>847</ele><time>2026-04-26T10:06:55Z</time></trkpt>
<trkpt lat="43.0947220000" lon="-0.9878020000"><ele>847</ele><time>2026-04-26T10:06:58Z</time></trkpt>
<trkpt lat="43.0947100000" lon="-0.9878220000"><ele>847</ele><time>2026-04-26T10:07:01Z</time></trkpt>
<trkpt lat="43.0946920000" lon="-0.9878450000"><ele>848</ele><time>2026-04-26T10:07:04Z</time></trkpt>
<trkpt lat="43.0946770000" lon="-0.9878650000"><ele>848</ele><time>2026-04-26T10:07:07Z</time></trkpt>
<trkpt lat="43.0946570000" lon="-0.9878820000"><ele>849</ele><time>2026-04-26T10:07:10Z</time></trkpt>
<trkpt lat="43.0946450000" lon="-0.9879070000"><ele>849</ele><time>2026-04-26T10:07:13Z</time></trkpt>
<trkpt lat="43.0946300000" lon="-0.9879300000"><ele>850</ele><time>2026-04-26T10:07:16Z</time></trkpt>
<trkpt lat="43.0946120000" lon="-0.9879520000"><ele>850</ele><time>2026-04-26T10:07:19Z</time></trkpt>
<trkpt lat="43.0946000000" lon="-0.9879720000"><ele>850</ele><time>2026-04-26T10:07:22Z</time></trkpt>
<trkpt lat="43.0945900000" lon="-0.9879920000"><ele>850</ele><time>2026-04-26T10:07:25Z</time></trkpt>
<trkpt lat="43.0945820000" lon="-0.9880170000"><ele>851</ele><time>2026-04-26T10:07:27Z</time></trkpt>
<trkpt lat="43.0945670000" lon="-0.9880420000"><ele>851</ele><time>2026-04-26T10:07:30Z</time></trkpt>
<trkpt lat="43.0945550000" lon="-0.9880600000"><ele>851</ele><time>2026-04-26T10:07:32Z</time></trkpt>
<trkpt lat="43.0945420000" lon="-0.9880820000"><ele>852</ele><time>2026-04-26T10:07:35Z</time></trkpt>
<trkpt lat="43.0945220000" lon="-0.9881000000"><ele>853</ele><time>2026-04-26T10:07:44Z</time></trkpt>
<trkpt lat="43.0945120000" lon="-0.9881320000"><ele>853</ele><time>2026-04-26T10:07:47Z</time></trkpt>
<trkpt lat="43.0945020000" lon="-0.9881570000"><ele>854</ele><time>2026-04-26T10:07:52Z</time></trkpt>
<trkpt lat="43.0944950000" lon="-0.9881870000"><ele>854</ele><time>2026-04-26T10:07:54Z</time></trkpt>
<trkpt lat="43.0944900000" lon="-0.9882200000"><ele>854</ele><time>2026-04-26T10:07:56Z</time></trkpt>
<trkpt lat="43.0944820000" lon="-0.9882500000"><ele>855</ele><time>2026-04-26T10:07:58Z</time></trkpt>
<trkpt lat="43.0944770000" lon="-0.9882750000"><ele>855</ele><time>2026-04-26T10:08:00Z</time></trkpt>
<trkpt lat="43.0944670000" lon="-0.9882970000"><ele>855</ele><time>2026-04-26T10:08:02Z</time></trkpt>
<trkpt lat="43.0944620000" lon="-0.9883270000"><ele>856</ele><time>2026-04-26T10:08:05Z</time></trkpt>
<trkpt lat="43.0944580000" lon="-0.9883520000"><ele>856</ele><time>2026-04-26T10:08:08Z</time></trkpt>
<trkpt lat="43.0944580000" lon="-0.9883850000"><ele>856</ele><time>2026-04-26T10:08:11Z</time></trkpt>
<trkpt lat="43.0944570000" lon="-0.9884170000"><ele>857</ele><time>2026-04-26T10:08:14Z</time></trkpt>
<trkpt lat="43.0944500000" lon="-0.9884470000"><ele>857</ele><time>2026-04-26T10:08:17Z</time></trkpt>
<trkpt lat="43.0944470000" lon="-0.9884770000"><ele>858</ele><time>2026-04-26T10:08:20Z</time></trkpt>
<trkpt lat="43.0944450000" lon="-0.9885120000"><ele>858</ele><time>2026-04-26T10:08:23Z</time></trkpt>
<trkpt lat="43.0944400000" lon="-0.9885420000"><ele>858</ele><time>2026-04-26T10:08:26Z</time></trkpt>
<trkpt lat="43.0944400000" lon="-0.9885730000"><ele>859</ele><time>2026-04-26T10:08:29Z</time></trkpt>
<trkpt lat="43.0944400000" lon="-0.9886050000"><ele>859</ele><time>2026-04-26T10:08:32Z</time></trkpt>
<trkpt lat="43.0944350000" lon="-0.9886320000"><ele>859</ele><time>2026-04-26T10:08:35Z</time></trkpt>
<trkpt lat="43.0944270000" lon="-0.9886650000"><ele>860</ele><time>2026-04-26T10:08:38Z</time></trkpt>
<trkpt lat="43.0944170000" lon="-0.9886970000"><ele>860</ele><time>2026-04-26T10:08:41Z</time></trkpt>
<trkpt lat="43.0944120000" lon="-0.9887270000"><ele>861</ele><time>2026-04-26T10:08:44Z</time></trkpt>
<trkpt lat="43.0944000000" lon="-0.9887570000"><ele>861</ele><time>2026-04-26T10:08:47Z</time></trkpt>
<trkpt lat="43.0943870000" lon="-0.9887900000"><ele>862</ele><time>2026-04-26T10:08:50Z</time></trkpt>
<trkpt lat="43.0943770000" lon="-0.9888150000"><ele>862</ele><time>2026-04-26T10:08:53Z</time></trkpt>
<trkpt lat="43.0943570000" lon="-0.9888400000"><ele>863</ele><time>2026-04-26T10:09:05Z</time></trkpt>
<trkpt lat="43.0943420000" lon="-0.9888720000"><ele>863</ele><time>2026-04-26T10:09:07Z</time></trkpt>
<trkpt lat="43.0943320000" lon="-0.9889000000"><ele>863</ele><time>2026-04-26T10:09:09Z</time></trkpt>
<trkpt lat="43.0943220000" lon="-0.9889250000"><ele>863</ele><time>2026-04-26T10:09:11Z</time></trkpt>
<trkpt lat="43.0943120000" lon="-0.9889470000"><ele>863</ele><time>2026-04-26T10:09:13Z</time></trkpt>
<trkpt lat="43.0943020000" lon="-0.9889750000"><ele>864</ele><time>2026-04-26T10:09:16Z</time></trkpt>
<trkpt lat="43.0942900000" lon="-0.9890050000"><ele>864</ele><time>2026-04-26T10:09:19Z</time></trkpt>
<trkpt lat="43.0942770000" lon="-0.9890220000"><ele>864</ele><time>2026-04-26T10:09:22Z</time></trkpt>
<trkpt lat="43.0942670000" lon="-0.9890470000"><ele>865</ele><time>2026-04-26T10:09:29Z</time></trkpt>
<trkpt lat="43.0942520000" lon="-0.9890770000"><ele>865</ele><time>2026-04-26T10:09:32Z</time></trkpt>
<trkpt lat="43.0942420000" lon="-0.9891070000"><ele>865</ele><time>2026-04-26T10:09:35Z</time></trkpt>
<trkpt lat="43.0942270000" lon="-0.9891420000"><ele>866</ele><time>2026-04-26T10:09:38Z</time></trkpt>
<trkpt lat="43.0942220000" lon="-0.9891750000"><ele>866</ele><time>2026-04-26T10:09:41Z</time></trkpt>
<trkpt lat="43.0942170000" lon="-0.9892070000"><ele>866</ele><time>2026-04-26T10:09:44Z</time></trkpt>
<trkpt lat="43.0942070000" lon="-0.9892320000"><ele>866</ele><time>2026-04-26T10:09:46Z</time></trkpt>
<trkpt lat="43.0941970000" lon="-0.9892570000"><ele>867</ele><time>2026-04-26T10:09:48Z</time></trkpt>
<trkpt lat="43.0941900000" lon="-0.9892820000"><ele>867</ele><time>2026-04-26T10:09:50Z</time></trkpt>
<trkpt lat="43.0941820000" lon="-0.9893070000"><ele>867</ele><time>2026-04-26T10:09:52Z</time></trkpt>
<trkpt lat="43.0941770000" lon="-0.9893320000"><ele>867</ele><time>2026-04-26T10:09:54Z</time></trkpt>
<trkpt lat="43.0941750000" lon="-0.9893570000"><ele>867</ele><time>2026-04-26T10:09:56Z</time></trkpt>
<trkpt lat="43.0941670000" lon="-0.9893950000"><ele>868</ele><time>2026-04-26T10:09:59Z</time></trkpt>
<trkpt lat="43.0941620000" lon="-0.9894200000"><ele>868</ele><time>2026-04-26T10:10:01Z</time></trkpt>
<trkpt lat="43.0941620000" lon="-0.9894500000"><ele>868</ele><time>2026-04-26T10:10:03Z</time></trkpt>
<trkpt lat="43.0941620000" lon="-0.9894770000"><ele>869</ele><time>2026-04-26T10:10:05Z</time></trkpt>
<trkpt lat="43.0941620000" lon="-0.9895120000"><ele>869</ele><time>2026-04-26T10:10:40Z</time></trkpt>
<trkpt lat="43.0941620000" lon="-0.9895580000"><ele>869</ele><time>2026-04-26T10:10:42Z</time></trkpt>
<trkpt lat="43.0941630000" lon="-0.9895870000"><ele>869</ele><time>2026-04-26T10:10:43Z</time></trkpt>
<trkpt lat="43.0941700000" lon="-0.9896120000"><ele>869</ele><time>2026-04-26T10:10:44Z</time></trkpt>
<trkpt lat="43.0941750000" lon="-0.9896500000"><ele>869</ele><time>2026-04-26T10:10:46Z</time></trkpt>
<trkpt lat="43.0941800000" lon="-0.9896800000"><ele>869</ele><time>2026-04-26T10:10:48Z</time></trkpt>
<trkpt lat="43.0941850000" lon="-0.9897070000"><ele>870</ele><time>2026-04-26T10:10:50Z</time></trkpt>
<trkpt lat="43.0941870000" lon="-0.9897320000"><ele>870</ele><time>2026-04-26T10:10:52Z</time></trkpt>
<trkpt lat="43.0941820000" lon="-0.9897580000"><ele>870</ele><time>2026-04-26T10:11:11Z</time></trkpt>
<trkpt lat="43.0941800000" lon="-0.9897920000"><ele>870</ele><time>2026-04-26T10:11:13Z</time></trkpt>
<trkpt lat="43.0941870000" lon="-0.9898220000"><ele>870</ele><time>2026-04-26T10:11:36Z</time></trkpt>
<trkpt lat="43.0941850000" lon="-0.9898520000"><ele>870</ele><time>2026-04-26T10:11:38Z</time></trkpt>
<trkpt lat="43.0941820000" lon="-0.9898970000"><ele>870</ele><time>2026-04-26T10:11:40Z</time></trkpt>
<trkpt lat="43.0941850000" lon="-0.9899370000"><ele>871</ele><time>2026-04-26T10:11:42Z</time></trkpt>
<trkpt lat="43.0941850000" lon="-0.9899770000"><ele>871</ele><time>2026-04-26T10:11:44Z</time></trkpt>
<trkpt lat="43.0941800000" lon="-0.9900070000"><ele>871</ele><time>2026-04-26T10:11:46Z</time></trkpt>
<trkpt lat="43.0941720000" lon="-0.9900400000"><ele>871</ele><time>2026-04-26T10:11:48Z</time></trkpt>
<trkpt lat="43.0941670000" lon="-0.9900700000"><ele>871</ele><time>2026-04-26T10:11:50Z</time></trkpt>
<trkpt lat="43.0941600000" lon="-0.9900970000"><ele>872</ele><time>2026-04-26T10:11:52Z</time></trkpt>
<trkpt lat="43.0941570000" lon="-0.9901250000"><ele>872</ele><time>2026-04-26T10:11:54Z</time></trkpt>
<trkpt lat="43.0941420000" lon="-0.9901400000"><ele>872</ele><time>2026-04-26T10:11:59Z</time></trkpt>
<trkpt lat="43.0941450000" lon="-0.9901750000"><ele>872</ele><time>2026-04-26T10:12:02Z</time></trkpt>
<trkpt lat="43.0941450000" lon="-0.9902070000"><ele>872</ele><time>2026-04-26T10:12:04Z</time></trkpt>
<trkpt lat="43.0941470000" lon="-0.9902420000"><ele>873</ele><time>2026-04-26T10:12:06Z</time></trkpt>
<trkpt lat="43.0941470000" lon="-0.9902720000"><ele>873</ele><time>2026-04-26T10:12:08Z</time></trkpt>
<trkpt lat="43.0941470000" lon="-0.9902970000"><ele>873</ele><time>2026-04-26T10:12:10Z</time></trkpt>
<trkpt lat="43.0941450000" lon="-0.9903300000"><ele>873</ele><time>2026-04-26T10:12:12Z</time></trkpt>
<trkpt lat="43.0941500000" lon="-0.9903620000"><ele>873</ele><time>2026-04-26T10:12:14Z</time></trkpt>
<trkpt lat="43.0941520000" lon="-0.9903880000"><ele>873</ele><time>2026-04-26T10:12:16Z</time></trkpt>
<trkpt lat="43.0941520000" lon="-0.9904220000"><ele>874</ele><time>2026-04-26T10:12:18Z</time></trkpt>
<trkpt lat="43.0941600000" lon="-0.9904470000"><ele>874</ele><time>2026-04-26T10:12:20Z</time></trkpt>
<trkpt lat="43.0941670000" lon="-0.9904820000"><ele>874</ele><time>2026-04-26T10:12:23Z</time></trkpt>
<trkpt lat="43.0941720000" lon="-0.9905070000"><ele>874</ele><time>2026-04-26T10:12:25Z</time></trkpt>
<trkpt lat="43.0941770000" lon="-0.9905400000"><ele>875</ele><time>2026-04-26T10:12:28Z</time></trkpt>
<trkpt lat="43.0941800000" lon="-0.9905670000"><ele>875</ele><time>2026-04-26T10:12:31Z</time></trkpt>
<trkpt lat="43.0941820000" lon="-0.9906000000"><ele>875</ele><time>2026-04-26T10:12:34Z</time></trkpt>
<trkpt lat="43.0941900000" lon="-0.9906320000"><ele>876</ele><time>2026-04-26T10:12:37Z</time></trkpt>
<trkpt lat="43.0942000000" lon="-0.9906570000"><ele>876</ele><time>2026-04-26T10:12:40Z</time></trkpt>
<trkpt lat="43.0941920000" lon="-0.9906920000"><ele>876</ele><time>2026-04-26T10:12:43Z</time></trkpt>
<trkpt lat="43.0941770000" lon="-0.9907220000"><ele>877</ele><time>2026-04-26T10:12:45Z</time></trkpt>
<trkpt lat="43.0941670000" lon="-0.9907470000"><ele>877</ele><time>2026-04-26T10:12:47Z</time></trkpt>
<trkpt lat="43.0941570000" lon="-0.9907730000"><ele>877</ele><time>2026-04-26T10:12:49Z</time></trkpt>
<trkpt lat="43.0941420000" lon="-0.9908120000"><ele>877</ele><time>2026-04-26T10:12:52Z</time></trkpt>
<trkpt lat="43.0941320000" lon="-0.9908450000"><ele>878</ele><time>2026-04-26T10:12:55Z</time></trkpt>
<trkpt lat="43.0941320000" lon="-0.9908750000"><ele>878</ele><time>2026-04-26T10:12:58Z</time></trkpt>
<trkpt lat="43.0941270000" lon="-0.9909020000"><ele>879</ele><time>2026-04-26T10:13:02Z</time></trkpt>
<trkpt lat="43.0941250000" lon="-0.9909350000"><ele>879</ele><time>2026-04-26T10:13:05Z</time></trkpt>
<trkpt lat="43.0941270000" lon="-0.9909620000"><ele>879</ele><time>2026-04-26T10:13:08Z</time></trkpt>
<trkpt lat="43.0941420000" lon="-0.9909850000"><ele>880</ele><time>2026-04-26T10:13:25Z</time></trkpt>
<trkpt lat="43.0941500000" lon="-0.9910270000"><ele>880</ele><time>2026-04-26T10:13:28Z</time></trkpt>
<trkpt lat="43.0941470000" lon="-0.9910670000"><ele>880</ele><time>2026-04-26T10:13:30Z</time></trkpt>
<trkpt lat="43.0941370000" lon="-0.9911000000"><ele>881</ele><time>2026-04-26T10:13:32Z</time></trkpt>
<trkpt lat="43.0941270000" lon="-0.9911320000"><ele>881</ele><time>2026-04-26T10:13:34Z</time></trkpt>
<trkpt lat="43.0941170000" lon="-0.9911620000"><ele>881</ele><time>2026-04-26T10:13:37Z</time></trkpt>
<trkpt lat="43.0941070000" lon="-0.9911870000"><ele>882</ele><time>2026-04-26T10:13:39Z</time></trkpt>
<trkpt lat="43.0940950000" lon="-0.9912070000"><ele>882</ele><time>2026-04-26T10:13:41Z</time></trkpt>
<trkpt lat="43.0940820000" lon="-0.9912370000"><ele>882</ele><time>2026-04-26T10:13:44Z</time></trkpt>
<trkpt lat="43.0940700000" lon="-0.9912620000"><ele>882</ele><time>2026-04-26T10:13:47Z</time></trkpt>
<trkpt lat="43.0940550000" lon="-0.9912800000"><ele>883</ele><time>2026-04-26T10:13:49Z</time></trkpt>
<trkpt lat="43.0940370000" lon="-0.9913020000"><ele>883</ele><time>2026-04-26T10:13:52Z</time></trkpt>
<trkpt lat="43.0940170000" lon="-0.9913300000"><ele>883</ele><time>2026-04-26T10:13:55Z</time></trkpt>
<trkpt lat="43.0939970000" lon="-0.9913470000"><ele>884</ele><time>2026-04-26T10:13:57Z</time></trkpt>
<trkpt lat="43.0939820000" lon="-0.9913600000"><ele>884</ele><time>2026-04-26T10:13:59Z</time></trkpt>
<trkpt lat="43.0939600000" lon="-0.9913770000"><ele>884</ele><time>2026-04-26T10:14:02Z</time></trkpt>
<trkpt lat="43.0939400000" lon="-0.9914020000"><ele>884</ele><time>2026-04-26T10:14:05Z</time></trkpt>
<trkpt lat="43.0939220000" lon="-0.9914220000"><ele>885</ele><time>2026-04-26T10:14:08Z</time></trkpt>
<trkpt lat="43.0939070000" lon="-0.9914400000"><ele>885</ele><time>2026-04-26T10:14:10Z</time></trkpt>
<trkpt lat="43.0938920000" lon="-0.9914570000"><ele>885</ele><time>2026-04-26T10:14:12Z</time></trkpt>
<trkpt lat="43.0938770000" lon="-0.9914670000"><ele>885</ele><time>2026-04-26T10:14:14Z</time></trkpt>
<trkpt lat="43.0938570000" lon="-0.9914820000"><ele>886</ele><time>2026-04-26T10:14:16Z</time></trkpt>
<trkpt lat="43.0938420000" lon="-0.9914970000"><ele>886</ele><time>2026-04-26T10:14:18Z</time></trkpt>
<trkpt lat="43.0938250000" lon="-0.9915120000"><ele>886</ele><time>2026-04-26T10:14:20Z</time></trkpt>
<trkpt lat="43.0938070000" lon="-0.9915300000"><ele>886</ele><time>2026-04-26T10:14:22Z</time></trkpt>
<trkpt lat="43.0937900000" lon="-0.9915420000"><ele>886</ele><time>2026-04-26T10:14:24Z</time></trkpt>
<trkpt lat="43.0937720000" lon="-0.9915530000"><ele>886</ele><time>2026-04-26T10:14:26Z</time></trkpt>
<trkpt lat="43.0937570000" lon="-0.9915700000"><ele>886</ele><time>2026-04-26T10:14:28Z</time></trkpt>
<trkpt lat="43.0937420000" lon="-0.9915870000"><ele>887</ele><time>2026-04-26T10:14:30Z</time></trkpt>
<trkpt lat="43.0937270000" lon="-0.9916030000"><ele>887</ele><time>2026-04-26T10:14:32Z</time></trkpt>
<trkpt lat="43.0937120000" lon="-0.9916270000"><ele>887</ele><time>2026-04-26T10:14:34Z</time></trkpt>
<trkpt lat="43.0936950000" lon="-0.9916420000"><ele>887</ele><time>2026-04-26T10:14:36Z</time></trkpt>
<trkpt lat="43.0936770000" lon="-0.9916620000"><ele>887</ele><time>2026-04-26T10:14:38Z</time></trkpt>
<trkpt lat="43.0936570000" lon="-0.9916770000"><ele>887</ele><time>2026-04-26T10:14:40Z</time></trkpt>
<trkpt lat="43.0936420000" lon="-0.9916920000"><ele>887</ele><time>2026-04-26T10:14:42Z</time></trkpt>
<trkpt lat="43.0936250000" lon="-0.9917070000"><ele>887</ele><time>2026-04-26T10:14:44Z</time></trkpt>
<trkpt lat="43.0936070000" lon="-0.9917270000"><ele>887</ele><time>2026-04-26T10:14:46Z</time></trkpt>
<trkpt lat="43.0935920000" lon="-0.9917450000"><ele>887</ele><time>2026-04-26T10:14:48Z</time></trkpt>
<trkpt lat="43.0935770000" lon="-0.9917580000"><ele>887</ele><time>2026-04-26T10:14:50Z</time></trkpt>
<trkpt lat="43.0935650000" lon="-0.9917820000"><ele>887</ele><time>2026-04-26T10:14:52Z</time></trkpt>
<trkpt lat="43.0935470000" lon="-0.9917970000"><ele>887</ele><time>2026-04-26T10:14:54Z</time></trkpt>
<trkpt lat="43.0935320000" lon="-0.9918220000"><ele>887</ele><time>2026-04-26T10:14:56Z</time></trkpt>
<trkpt lat="43.0935170000" lon="-0.9918370000"><ele>888</ele><time>2026-04-26T10:14:58Z</time></trkpt>
<trkpt lat="43.0935000000" lon="-0.9918550000"><ele>888</ele><time>2026-04-26T10:15:00Z</time></trkpt>
<trkpt lat="43.0934820000" lon="-0.9918720000"><ele>888</ele><time>2026-04-26T10:15:02Z</time></trkpt>
<trkpt lat="43.0934650000" lon="-0.9918870000"><ele>888</ele><time>2026-04-26T10:15:04Z</time></trkpt>
<trkpt lat="43.0934500000" lon="-0.9919050000"><ele>889</ele><time>2026-04-26T10:15:06Z</time></trkpt>
<trkpt lat="43.0934350000" lon="-0.9919250000"><ele>889</ele><time>2026-04-26T10:15:08Z</time></trkpt>
<trkpt lat="43.0934220000" lon="-0.9919420000"><ele>889</ele><time>2026-04-26T10:15:10Z</time></trkpt>
<trkpt lat="43.0934070000" lon="-0.9919620000"><ele>889</ele><time>2026-04-26T10:15:12Z</time></trkpt>
<trkpt lat="43.0933920000" lon="-0.9919870000"><ele>889</ele><time>2026-04-26T10:15:14Z</time></trkpt>
<trkpt lat="43.0933820000" lon="-0.9920120000"><ele>890</ele><time>2026-04-26T10:15:16Z</time></trkpt>
<trkpt lat="43.0933720000" lon="-0.9920370000"><ele>890</ele><time>2026-04-26T10:15:18Z</time></trkpt>
<trkpt lat="43.0933570000" lon="-0.9920620000"><ele>890</ele><time>2026-04-26T10:15:20Z</time></trkpt>
<trkpt lat="43.0933370000" lon="-0.9920870000"><ele>890</ele><time>2026-04-26T10:15:22Z</time></trkpt>
<trkpt lat="43.0933220000" lon="-0.9921100000"><ele>890</ele><time>2026-04-26T10:15:24Z</time></trkpt>
<trkpt lat="43.0933150000" lon="-0.9921350000"><ele>890</ele><time>2026-04-26T10:15:26Z</time></trkpt>
<trkpt lat="43.0933070000" lon="-0.9921620000"><ele>890</ele><time>2026-04-26T10:15:28Z</time></trkpt>
<trkpt lat="43.0932970000" lon="-0.9921830000"><ele>890</ele><time>2026-04-26T10:15:30Z</time></trkpt>
<trkpt lat="43.0932870000" lon="-0.9922030000"><ele>891</ele><time>2026-04-26T10:15:32Z</time></trkpt>
<trkpt lat="43.0932720000" lon="-0.9922280000"><ele>891</ele><time>2026-04-26T10:15:34Z</time></trkpt>
<trkpt lat="43.0932570000" lon="-0.9922520000"><ele>891</ele><time>2026-04-26T10:15:36Z</time></trkpt>
<trkpt lat="43.0932400000" lon="-0.9922720000"><ele>891</ele><time>2026-04-26T10:15:38Z</time></trkpt>
<trkpt lat="43.0932220000" lon="-0.9922870000"><ele>891</ele><time>2026-04-26T10:15:40Z</time></trkpt>
<trkpt lat="43.0932050000" lon="-0.9923100000"><ele>891</ele><time>2026-04-26T10:15:43Z</time></trkpt>
<trkpt lat="43.0931850000" lon="-0.9923370000"><ele>891</ele><time>2026-04-26T10:15:55Z</time></trkpt>
<trkpt lat="43.0931620000" lon="-0.9923600000"><ele>891</ele><time>2026-04-26T10:15:57Z</time></trkpt>
<trkpt lat="43.0931400000" lon="-0.9923770000"><ele>891</ele><time>2026-04-26T10:15:59Z</time></trkpt>
<trkpt lat="43.0931170000" lon="-0.9923920000"><ele>891</ele><time>2026-04-26T10:16:01Z</time></trkpt>
<trkpt lat="43.0931000000" lon="-0.9924050000"><ele>892</ele><time>2026-04-26T10:16:03Z</time></trkpt>
<trkpt lat="43.0930770000" lon="-0.9924150000"><ele>892</ele><time>2026-04-26T10:16:05Z</time></trkpt>
<trkpt lat="43.0930600000" lon="-0.9924270000"><ele>892</ele><time>2026-04-26T10:16:07Z</time></trkpt>
<trkpt lat="43.0930400000" lon="-0.9924370000"><ele>892</ele><time>2026-04-26T10:16:09Z</time></trkpt>
<trkpt lat="43.0930200000" lon="-0.9924450000"><ele>892</ele><time>2026-04-26T10:16:11Z</time></trkpt>
<trkpt lat="43.0930020000" lon="-0.9924530000"><ele>892</ele><time>2026-04-26T10:16:13Z</time></trkpt>
<trkpt lat="43.0929750000" lon="-0.9924670000"><ele>892</ele><time>2026-04-26T10:16:16Z</time></trkpt>
<trkpt lat="43.0929550000" lon="-0.9924730000"><ele>892</ele><time>2026-04-26T10:16:18Z</time></trkpt>
<trkpt lat="43.0929370000" lon="-0.9924770000"><ele>892</ele><time>2026-04-26T10:16:20Z</time></trkpt>
<trkpt lat="43.0929170000" lon="-0.9924820000"><ele>893</ele><time>2026-04-26T10:16:22Z</time></trkpt>
<trkpt lat="43.0928970000" lon="-0.9924920000"><ele>893</ele><time>2026-04-26T10:16:25Z</time></trkpt>
<trkpt lat="43.0928750000" lon="-0.9925050000"><ele>893</ele><time>2026-04-26T10:16:28Z</time></trkpt>
<trkpt lat="43.0928500000" lon="-0.9925220000"><ele>894</ele><time>2026-04-26T10:16:31Z</time></trkpt>
<trkpt lat="43.0928220000" lon="-0.9925320000"><ele>894</ele><time>2026-04-26T10:16:33Z</time></trkpt>
<trkpt lat="43.0928020000" lon="-0.9925420000"><ele>894</ele><time>2026-04-26T10:16:35Z</time></trkpt>
<trkpt lat="43.0927850000" lon="-0.9925600000"><ele>894</ele><time>2026-04-26T10:16:37Z</time></trkpt>
<trkpt lat="43.0927670000" lon="-0.9925720000"><ele>895</ele><time>2026-04-26T10:16:39Z</time></trkpt>
<trkpt lat="43.0927470000" lon="-0.9925770000"><ele>895</ele><time>2026-04-26T10:16:41Z</time></trkpt>
<trkpt lat="43.0927270000" lon="-0.9925820000"><ele>895</ele><time>2026-04-26T10:16:43Z</time></trkpt>
<trkpt lat="43.0927070000" lon="-0.9925920000"><ele>895</ele><time>2026-04-26T10:16:45Z</time></trkpt>
<trkpt lat="43.0926850000" lon="-0.9926000000"><ele>895</ele><time>2026-04-26T10:16:47Z</time></trkpt>
<trkpt lat="43.0926650000" lon="-0.9926020000"><ele>895</ele><time>2026-04-26T10:16:49Z</time></trkpt>
<trkpt lat="43.0926430000" lon="-0.9926120000"><ele>896</ele><time>2026-04-26T10:16:51Z</time></trkpt>
<trkpt lat="43.0926250000" lon="-0.9926120000"><ele>896</ele><time>2026-04-26T10:16:53Z</time></trkpt>
<trkpt lat="43.0926070000" lon="-0.9926120000"><ele>896</ele><time>2026-04-26T10:16:55Z</time></trkpt>
<trkpt lat="43.0925850000" lon="-0.9926120000"><ele>896</ele><time>2026-04-26T10:16:58Z</time></trkpt>
<trkpt lat="43.0925670000" lon="-0.9926020000"><ele>897</ele><time>2026-04-26T10:17:01Z</time></trkpt>
<trkpt lat="43.0925470000" lon="-0.9926000000"><ele>897</ele><time>2026-04-26T10:17:05Z</time></trkpt>
<trkpt lat="43.0925350000" lon="-0.9925820000"><ele>898</ele><time>2026-04-26T10:17:08Z</time></trkpt>
<trkpt lat="43.0925200000" lon="-0.9925570000"><ele>898</ele><time>2026-04-26T10:17:11Z</time></trkpt>
<trkpt lat="43.0924970000" lon="-0.9925320000"><ele>899</ele><time>2026-04-26T10:17:14Z</time></trkpt>
<trkpt lat="43.0924770000" lon="-0.9925170000"><ele>899</ele><time>2026-04-26T10:17:18Z</time></trkpt>
<trkpt lat="43.0924620000" lon="-0.9924970000"><ele>900</ele><time>2026-04-26T10:17:21Z</time></trkpt>
<trkpt lat="43.0924450000" lon="-0.9924870000"><ele>900</ele><time>2026-04-26T10:17:24Z</time></trkpt>
<trkpt lat="43.0924250000" lon="-0.9924730000"><ele>901</ele><time>2026-04-26T10:17:27Z</time></trkpt>
<trkpt lat="43.0924070000" lon="-0.9924620000"><ele>901</ele><time>2026-04-26T10:17:30Z</time></trkpt>
<trkpt lat="43.0923870000" lon="-0.9924470000"><ele>902</ele><time>2026-04-26T10:19:10Z</time></trkpt>
<trkpt lat="43.0923700000" lon="-0.9924050000"><ele>902</ele><time>2026-04-26T10:19:12Z</time></trkpt>
<trkpt lat="43.0923570000" lon="-0.9923820000"><ele>902</ele><time>2026-04-26T10:19:13Z</time></trkpt>
<trkpt lat="43.0923450000" lon="-0.9923650000"><ele>903</ele><time>2026-04-26T10:19:14Z</time></trkpt>
<trkpt lat="43.0923250000" lon="-0.9923320000"><ele>903</ele><time>2026-04-26T10:19:16Z</time></trkpt>
<trkpt lat="43.0923170000" lon="-0.9923070000"><ele>903</ele><time>2026-04-26T10:19:18Z</time></trkpt>
<trkpt lat="43.0923020000" lon="-0.9922850000"><ele>903</ele><time>2026-04-26T10:19:21Z</time></trkpt>
<trkpt lat="43.0922870000" lon="-0.9922570000"><ele>903</ele><time>2026-04-26T10:19:24Z</time></trkpt>
<trkpt lat="43.0922770000" lon="-0.9922270000"><ele>904</ele><time>2026-04-26T10:19:27Z</time></trkpt>
<trkpt lat="43.0922620000" lon="-0.9921970000"><ele>904</ele><time>2026-04-26T10:19:30Z</time></trkpt>
<trkpt lat="43.0922550000" lon="-0.9921670000"><ele>904</ele><time>2026-04-26T10:19:33Z</time></trkpt>
<trkpt lat="43.0922570000" lon="-0.9921420000"><ele>905</ele><time>2026-04-26T10:19:36Z</time></trkpt>
<trkpt lat="43.0922570000" lon="-0.9921070000"><ele>905</ele><time>2026-04-26T10:19:39Z</time></trkpt>
<trkpt lat="43.0922500000" lon="-0.9920770000"><ele>905</ele><time>2026-04-26T10:19:42Z</time></trkpt>
<trkpt lat="43.0922420000" lon="-0.9920550000"><ele>905</ele><time>2026-04-26T10:19:44Z</time></trkpt>
<trkpt lat="43.0922270000" lon="-0.9920320000"><ele>906</ele><time>2026-04-26T10:19:47Z</time></trkpt>
<trkpt lat="43.0922170000" lon="-0.9920070000"><ele>906</ele><time>2026-04-26T10:19:50Z</time></trkpt>
<trkpt lat="43.0922100000" lon="-0.9919820000"><ele>906</ele><time>2026-04-26T10:19:52Z</time></trkpt>
<trkpt lat="43.0922000000" lon="-0.9919520000"><ele>907</ele><time>2026-04-26T10:19:55Z</time></trkpt>
<trkpt lat="43.0922020000" lon="-0.9919270000"><ele>907</ele><time>2026-04-26T10:19:57Z</time></trkpt>
<trkpt lat="43.0922020000" lon="-0.9918930000"><ele>907</ele><time>2026-04-26T10:20:00Z</time></trkpt>
<trkpt lat="43.0921970000" lon="-0.9918670000"><ele>908</ele><time>2026-04-26T10:20:03Z</time></trkpt>
<trkpt lat="43.0921800000" lon="-0.9918420000"><ele>908</ele><time>2026-04-26T10:20:06Z</time></trkpt>
<trkpt lat="43.0921650000" lon="-0.9918170000"><ele>908</ele><time>2026-04-26T10:20:09Z</time></trkpt>
<trkpt lat="43.0921470000" lon="-0.9917920000"><ele>908</ele><time>2026-04-26T10:20:12Z</time></trkpt>
<trkpt lat="43.0921300000" lon="-0.9917770000"><ele>909</ele><time>2026-04-26T10:20:15Z</time></trkpt>
<trkpt lat="43.0921120000" lon="-0.9917620000"><ele>909</ele><time>2026-04-26T10:20:18Z</time></trkpt>
<trkpt lat="43.0920970000" lon="-0.9917380000"><ele>909</ele><time>2026-04-26T10:20:21Z</time></trkpt>
<trkpt lat="43.0920870000" lon="-0.9917120000"><ele>909</ele><time>2026-04-26T10:20:23Z</time></trkpt>
<trkpt lat="43.0920900000" lon="-0.9916820000"><ele>910</ele><time>2026-04-26T10:20:25Z</time></trkpt>
<trkpt lat="43.0920870000" lon="-0.9916570000"><ele>910</ele><time>2026-04-26T10:20:27Z</time></trkpt>
<trkpt lat="43.0920870000" lon="-0.9916270000"><ele>910</ele><time>2026-04-26T10:20:29Z</time></trkpt>
<trkpt lat="43.0920870000" lon="-0.9916020000"><ele>910</ele><time>2026-04-26T10:20:31Z</time></trkpt>
<trkpt lat="43.0920870000" lon="-0.9915770000"><ele>910</ele><time>2026-04-26T10:20:33Z</time></trkpt>
<trkpt lat="43.0920870000" lon="-0.9915470000"><ele>911</ele><time>2026-04-26T10:20:36Z</time></trkpt>
<trkpt lat="43.0920900000" lon="-0.9915220000"><ele>911</ele><time>2026-04-26T10:20:39Z</time></trkpt>
<trkpt lat="43.0920870000" lon="-0.9914970000"><ele>911</ele><time>2026-04-26T10:20:42Z</time></trkpt>
<trkpt lat="43.0920870000" lon="-0.9914680000"><ele>912</ele><time>2026-04-26T10:20:45Z</time></trkpt>
<trkpt lat="43.0921020000" lon="-0.9914370000"><ele>912</ele><time>2026-04-26T10:20:48Z</time></trkpt>
<trkpt lat="43.0921070000" lon="-0.9914120000"><ele>913</ele><time>2026-04-26T10:20:51Z</time></trkpt>
<trkpt lat="43.0921050000" lon="-0.9913820000"><ele>913</ele><time>2026-04-26T10:20:54Z</time></trkpt>
<trkpt lat="43.0921020000" lon="-0.9913500000"><ele>913</ele><time>2026-04-26T10:20:57Z</time></trkpt>
<trkpt lat="43.0920950000" lon="-0.9913170000"><ele>914</ele><time>2026-04-26T10:21:01Z</time></trkpt>
<trkpt lat="43.0920900000" lon="-0.9912920000"><ele>914</ele><time>2026-04-26T10:21:04Z</time></trkpt>
<trkpt lat="43.0920850000" lon="-0.9912670000"><ele>915</ele><time>2026-04-26T10:21:07Z</time></trkpt>
<trkpt lat="43.0920800000" lon="-0.9912420000"><ele>915</ele><time>2026-04-26T10:21:10Z</time></trkpt>
<trkpt lat="43.0920750000" lon="-0.9912170000"><ele>916</ele><time>2026-04-26T10:21:13Z</time></trkpt>
<trkpt lat="43.0920720000" lon="-0.9911870000"><ele>916</ele><time>2026-04-26T10:21:17Z</time></trkpt>
<trkpt lat="43.0920700000" lon="-0.9911570000"><ele>917</ele><time>2026-04-26T10:21:20Z</time></trkpt>
<trkpt lat="43.0920670000" lon="-0.9911280000"><ele>917</ele><time>2026-04-26T10:21:23Z</time></trkpt>
<trkpt lat="43.0920650000" lon="-0.9911000000"><ele>918</ele><time>2026-04-26T10:21:27Z</time></trkpt>
<trkpt lat="43.0920620000" lon="-0.9910700000"><ele>918</ele><time>2026-04-26T10:21:31Z</time></trkpt>
<trkpt lat="43.0920570000" lon="-0.9910370000"><ele>919</ele><time>2026-04-26T10:21:35Z</time></trkpt>
<trkpt lat="43.0920600000" lon="-0.9910100000"><ele>919</ele><time>2026-04-26T10:21:37Z</time></trkpt>
<trkpt lat="43.0920600000" lon="-0.9909820000"><ele>919</ele><time>2026-04-26T10:21:39Z</time></trkpt>
<trkpt lat="43.0920570000" lon="-0.9909520000"><ele>920</ele><time>2026-04-26T10:21:42Z</time></trkpt>
<trkpt lat="43.0920520000" lon="-0.9909270000"><ele>920</ele><time>2026-04-26T10:21:45Z</time></trkpt>
<trkpt lat="43.0920380000" lon="-0.9909000000"><ele>920</ele><time>2026-04-26T10:21:49Z</time></trkpt>
<trkpt lat="43.0920270000" lon="-0.9908770000"><ele>921</ele><time>2026-04-26T10:21:54Z</time></trkpt>
<trkpt lat="43.0920170000" lon="-0.9908470000"><ele>922</ele><time>2026-04-26T10:21:59Z</time></trkpt>
<trkpt lat="43.0920100000" lon="-0.9908200000"><ele>922</ele><time>2026-04-26T10:22:04Z</time></trkpt>
<trkpt lat="43.0920070000" lon="-0.9907920000"><ele>923</ele><time>2026-04-26T10:22:09Z</time></trkpt>
<trkpt lat="43.0920020000" lon="-0.9907670000"><ele>923</ele><time>2026-04-26T10:22:12Z</time></trkpt>
<trkpt lat="43.0919970000" lon="-0.9907420000"><ele>924</ele><time>2026-04-26T10:22:15Z</time></trkpt>
<trkpt lat="43.0919970000" lon="-0.9907150000"><ele>924</ele><time>2026-04-26T10:22:18Z</time></trkpt>
<trkpt lat="43.0919970000" lon="-0.9906870000"><ele>924</ele><time>2026-04-26T10:22:21Z</time></trkpt>
<trkpt lat="43.0919970000" lon="-0.9906570000"><ele>924</ele><time>2026-04-26T10:22:23Z</time></trkpt>
<trkpt lat="43.0919970000" lon="-0.9906270000"><ele>925</ele><time>2026-04-26T10:22:26Z</time></trkpt>
<trkpt lat="43.0919920000" lon="-0.9906000000"><ele>925</ele><time>2026-04-26T10:22:29Z</time></trkpt>
<trkpt lat="43.0919850000" lon="-0.9905750000"><ele>926</ele><time>2026-04-26T10:22:50Z</time></trkpt>
<trkpt lat="43.0919820000" lon="-0.9905420000"><ele>926</ele><time>2026-04-26T10:22:53Z</time></trkpt>
<trkpt lat="43.0919750000" lon="-0.9905120000"><ele>926</ele><time>2026-04-26T10:22:55Z</time></trkpt>
<trkpt lat="43.0919650000" lon="-0.9904920000"><ele>927</ele><time>2026-04-26T10:22:57Z</time></trkpt>
<trkpt lat="43.0919520000" lon="-0.9904670000"><ele>927</ele><time>2026-04-26T10:23:00Z</time></trkpt>
<trkpt lat="43.0919400000" lon="-0.9904450000"><ele>927</ele><time>2026-04-26T10:23:03Z</time></trkpt>
<trkpt lat="43.0919270000" lon="-0.9904250000"><ele>928</ele><time>2026-04-26T10:23:05Z</time></trkpt>
<trkpt lat="43.0919070000" lon="-0.9904020000"><ele>928</ele><time>2026-04-26T10:23:08Z</time></trkpt>
<trkpt lat="43.0918920000" lon="-0.9903770000"><ele>928</ele><time>2026-04-26T10:23:11Z</time></trkpt>
<trkpt lat="43.0918750000" lon="-0.9903480000"><ele>929</ele><time>2026-04-26T10:23:14Z</time></trkpt>
<trkpt lat="43.0918620000" lon="-0.9903300000"><ele>929</ele><time>2026-04-26T10:23:16Z</time></trkpt>
<trkpt lat="43.0918500000" lon="-0.9903020000"><ele>929</ele><time>2026-04-26T10:23:19Z</time></trkpt>
<trkpt lat="43.0918370000" lon="-0.9902820000"><ele>930</ele><time>2026-04-26T10:23:21Z</time></trkpt>
<trkpt lat="43.0918220000" lon="-0.9902520000"><ele>930</ele><time>2026-04-26T10:23:24Z</time></trkpt>
<trkpt lat="43.0918120000" lon="-0.9902270000"><ele>930</ele><time>2026-04-26T10:23:26Z</time></trkpt>
<trkpt lat="43.0917970000" lon="-0.9902020000"><ele>930</ele><time>2026-04-26T10:23:29Z</time></trkpt>
<trkpt lat="43.0917870000" lon="-0.9901770000"><ele>931</ele><time>2026-04-26T10:23:32Z</time></trkpt>
<trkpt lat="43.0917750000" lon="-0.9901420000"><ele>931</ele><time>2026-04-26T10:23:35Z</time></trkpt>
<trkpt lat="43.0917620000" lon="-0.9901150000"><ele>931</ele><time>2026-04-26T10:23:38Z</time></trkpt>
<trkpt lat="43.0917500000" lon="-0.9900870000"><ele>931</ele><time>2026-04-26T10:23:41Z</time></trkpt>
<trkpt lat="43.0917370000" lon="-0.9900570000"><ele>932</ele><time>2026-04-26T10:23:44Z</time></trkpt>
<trkpt lat="43.0917320000" lon="-0.9900320000"><ele>932</ele><time>2026-04-26T10:23:47Z</time></trkpt>
<trkpt lat="43.0917350000" lon="-0.9900070000"><ele>933</ele><time>2026-04-26T10:23:50Z</time></trkpt>
<trkpt lat="43.0917320000" lon="-0.9899820000"><ele>933</ele><time>2026-04-26T10:23:58Z</time></trkpt>
<trkpt lat="43.0917120000" lon="-0.9899520000"><ele>933</ele><time>2026-04-26T10:24:01Z</time></trkpt>
<trkpt lat="43.0917000000" lon="-0.9899220000"><ele>933</ele><time>2026-04-26T10:24:05Z</time></trkpt>
<trkpt lat="43.0916950000" lon="-0.9898920000"><ele>934</ele><time>2026-04-26T10:24:09Z</time></trkpt>
<trkpt lat="43.0916920000" lon="-0.9898620000"><ele>934</ele><time>2026-04-26T10:24:11Z</time></trkpt>
<trkpt lat="43.0916920000" lon="-0.9898370000"><ele>934</ele><time>2026-04-26T10:24:13Z</time></trkpt>
<trkpt lat="43.0916870000" lon="-0.9898050000"><ele>935</ele><time>2026-04-26T10:24:16Z</time></trkpt>
<trkpt lat="43.0916870000" lon="-0.9897720000"><ele>935</ele><time>2026-04-26T10:24:19Z</time></trkpt>
<trkpt lat="43.0916800000" lon="-0.9897370000"><ele>936</ele><time>2026-04-26T10:24:23Z</time></trkpt>
<trkpt lat="43.0916750000" lon="-0.9897100000"><ele>936</ele><time>2026-04-26T10:24:26Z</time></trkpt>
<trkpt lat="43.0916720000" lon="-0.9896820000"><ele>937</ele><time>2026-04-26T10:24:29Z</time></trkpt>
<trkpt lat="43.0916670000" lon="-0.9896500000"><ele>937</ele><time>2026-04-26T10:24:33Z</time></trkpt>
<trkpt lat="43.0916670000" lon="-0.9896150000"><ele>938</ele><time>2026-04-26T10:24:36Z</time></trkpt>
<trkpt lat="43.0916650000" lon="-0.9895900000"><ele>938</ele><time>2026-04-26T10:24:39Z</time></trkpt>
<trkpt lat="43.0916580000" lon="-0.9895580000"><ele>938</ele><time>2026-04-26T10:24:42Z</time></trkpt>
<trkpt lat="43.0916570000" lon="-0.9895320000"><ele>939</ele><time>2026-04-26T10:24:45Z</time></trkpt>
<trkpt lat="43.0916520000" lon="-0.9895050000"><ele>939</ele><time>2026-04-26T10:24:49Z</time></trkpt>
<trkpt lat="43.0916470000" lon="-0.9894800000"><ele>940</ele><time>2026-04-26T10:24:53Z</time></trkpt>
<trkpt lat="43.0916450000" lon="-0.9894550000"><ele>940</ele><time>2026-04-26T10:24:56Z</time></trkpt>
<trkpt lat="43.0916420000" lon="-0.9894220000"><ele>941</ele><time>2026-04-26T10:25:00Z</time></trkpt>
<trkpt lat="43.0916370000" lon="-0.9893920000"><ele>941</ele><time>2026-04-26T10:25:04Z</time></trkpt>
<trkpt lat="43.0916320000" lon="-0.9893600000"><ele>942</ele><time>2026-04-26T10:25:08Z</time></trkpt>
<trkpt lat="43.0916320000" lon="-0.9893270000"><ele>943</ele><time>2026-04-26T10:25:12Z</time></trkpt>
<trkpt lat="43.0916320000" lon="-0.9892950000"><ele>943</ele><time>2026-04-26T10:25:16Z</time></trkpt>
<trkpt lat="43.0916320000" lon="-0.9892620000"><ele>943</ele><time>2026-04-26T10:25:19Z</time></trkpt>
<trkpt lat="43.0916350000" lon="-0.9892320000"><ele>944</ele><time>2026-04-26T10:25:22Z</time></trkpt>
<trkpt lat="43.0916350000" lon="-0.9892050000"><ele>945</ele><time>2026-04-26T10:25:25Z</time></trkpt>
<trkpt lat="43.0916370000" lon="-0.9891720000"><ele>945</ele><time>2026-04-26T10:25:28Z</time></trkpt>
<trkpt lat="43.0916420000" lon="-0.9891470000"><ele>945</ele><time>2026-04-26T10:25:31Z</time></trkpt>
<trkpt lat="43.0916400000" lon="-0.9891220000"><ele>945</ele><time>2026-04-26T10:25:34Z</time></trkpt>
<trkpt lat="43.0916420000" lon="-0.9890930000"><ele>946</ele><time>2026-04-26T10:25:38Z</time></trkpt>
<trkpt lat="43.0916550000" lon="-0.9890700000"><ele>947</ele><time>2026-04-26T10:25:43Z</time></trkpt>
<trkpt lat="43.0916670000" lon="-0.9890420000"><ele>948</ele><time>2026-04-26T10:25:47Z</time></trkpt>
<trkpt lat="43.0916770000" lon="-0.9890170000"><ele>948</ele><time>2026-04-26T10:25:51Z</time></trkpt>
<trkpt lat="43.0916920000" lon="-0.9889970000"><ele>949</ele><time>2026-04-26T10:25:56Z</time></trkpt>
<trkpt lat="43.0917070000" lon="-0.9889820000"><ele>950</ele><time>2026-04-26T10:26:00Z</time></trkpt>
<trkpt lat="43.0917280000" lon="-0.9889720000"><ele>951</ele><time>2026-04-26T10:26:40Z</time></trkpt>
<trkpt lat="43.0917500000" lon="-0.9889670000"><ele>951</ele><time>2026-04-26T10:26:42Z</time></trkpt>
<trkpt lat="43.0917720000" lon="-0.9889520000"><ele>952</ele><time>2026-04-26T10:26:45Z</time></trkpt>
<trkpt lat="43.0917950000" lon="-0.9889420000"><ele>952</ele><time>2026-04-26T10:26:48Z</time></trkpt>
<trkpt lat="43.0918170000" lon="-0.9889320000"><ele>953</ele><time>2026-04-26T10:26:52Z</time></trkpt>
<trkpt lat="43.0918350000" lon="-0.9889250000"><ele>953</ele><time>2026-04-26T10:26:56Z</time></trkpt>
<trkpt lat="43.0918570000" lon="-0.9889120000"><ele>954</ele><time>2026-04-26T10:26:59Z</time></trkpt>
<trkpt lat="43.0918720000" lon="-0.9888950000"><ele>955</ele><time>2026-04-26T10:27:03Z</time></trkpt>
<trkpt lat="43.0918830000" lon="-0.9888720000"><ele>955</ele><time>2026-04-26T10:27:07Z</time></trkpt>
<trkpt lat="43.0919020000" lon="-0.9888520000"><ele>955</ele><time>2026-04-26T10:27:10Z</time></trkpt>
<trkpt lat="43.0919020000" lon="-0.9888220000"><ele>956</ele><time>2026-04-26T10:27:14Z</time></trkpt>
<trkpt lat="43.0919000000" lon="-0.9887970000"><ele>957</ele><time>2026-04-26T10:27:19Z</time></trkpt>
<trkpt lat="43.0919020000" lon="-0.9887720000"><ele>958</ele><time>2026-04-26T10:27:24Z</time></trkpt>
<trkpt lat="43.0919070000" lon="-0.9887420000"><ele>958</ele><time>2026-04-26T10:27:28Z</time></trkpt>
<trkpt lat="43.0919100000" lon="-0.9887150000"><ele>959</ele><time>2026-04-26T10:27:31Z</time></trkpt>
<trkpt lat="43.0919070000" lon="-0.9886880000"><ele>959</ele><time>2026-04-26T10:27:34Z</time></trkpt>
<trkpt lat="43.0919170000" lon="-0.9886670000"><ele>960</ele><time>2026-04-26T10:27:56Z</time></trkpt>
<trkpt lat="43.0919120000" lon="-0.9886420000"><ele>960</ele><time>2026-04-26T10:27:58Z</time></trkpt>
<trkpt lat="43.0918970000" lon="-0.9886220000"><ele>960</ele><time>2026-04-26T10:28:00Z</time></trkpt>
<trkpt lat="43.0918820000" lon="-0.9886000000"><ele>961</ele><time>2026-04-26T10:28:03Z</time></trkpt>
<trkpt lat="43.0918700000" lon="-0.9885730000"><ele>961</ele><time>2026-04-26T10:28:07Z</time></trkpt>
<trkpt lat="43.0918600000" lon="-0.9885520000"><ele>961</ele><time>2026-04-26T10:28:11Z</time></trkpt>
<trkpt lat="43.0918570000" lon="-0.9885270000"><ele>962</ele><time>2026-04-26T10:28:14Z</time></trkpt>
<trkpt lat="43.0918620000" lon="-0.9885020000"><ele>962</ele><time>2026-04-26T10:28:17Z</time></trkpt>
<trkpt lat="43.0918620000" lon="-0.9884770000"><ele>963</ele><time>2026-04-26T10:28:20Z</time></trkpt>
<trkpt lat="43.0918600000" lon="-0.9884500000"><ele>963</ele><time>2026-04-26T10:28:23Z</time></trkpt>
<trkpt lat="43.0918450000" lon="-0.9884220000"><ele>963</ele><time>2026-04-26T10:28:27Z</time></trkpt>
<trkpt lat="43.0918370000" lon="-0.9883950000"><ele>964</ele><time>2026-04-26T10:28:31Z</time></trkpt>
<trkpt lat="43.0918300000" lon="-0.9883670000"><ele>964</ele><time>2026-04-26T10:28:34Z</time></trkpt>
<trkpt lat="43.0918200000" lon="-0.9883470000"><ele>965</ele><time>2026-04-26T10:28:37Z</time></trkpt>
<trkpt lat="43.0918120000" lon="-0.9883200000"><ele>965</ele><time>2026-04-26T10:28:40Z</time></trkpt>
<trkpt lat="43.0918000000" lon="-0.9882970000"><ele>966</ele><time>2026-04-26T10:28:43Z</time></trkpt>
<trkpt lat="43.0917850000" lon="-0.9882720000"><ele>966</ele><time>2026-04-26T10:28:46Z</time></trkpt>
<trkpt lat="43.0917670000" lon="-0.9882420000"><ele>966</ele><time>2026-04-26T10:28:49Z</time></trkpt>
<trkpt lat="43.0917600000" lon="-0.9882120000"><ele>967</ele><time>2026-04-26T10:28:52Z</time></trkpt>
<trkpt lat="43.0917520000" lon="-0.9881850000"><ele>967</ele><time>2026-04-26T10:28:55Z</time></trkpt>
<trkpt lat="43.0917420000" lon="-0.9881480000"><ele>967</ele><time>2026-04-26T10:28:58Z</time></trkpt>
<trkpt lat="43.0917320000" lon="-0.9881250000"><ele>967</ele><time>2026-04-26T10:29:01Z</time></trkpt>
<trkpt lat="43.0917220000" lon="-0.9881050000"><ele>967</ele><time>2026-04-26T10:29:03Z</time></trkpt>
<trkpt lat="43.0917070000" lon="-0.9880820000"><ele>968</ele><time>2026-04-26T10:29:06Z</time></trkpt>
<trkpt lat="43.0917020000" lon="-0.9880520000"><ele>968</ele><time>2026-04-26T10:29:10Z</time></trkpt>
<trkpt lat="43.0916950000" lon="-0.9880270000"><ele>968</ele><time>2026-04-26T10:29:13Z</time></trkpt>
<trkpt lat="43.0917150000" lon="-0.9880320000"><ele>969</ele><time>2026-04-26T10:29:17Z</time></trkpt>
<trkpt lat="43.0917280000" lon="-0.9880170000"><ele>969</ele><time>2026-04-26T10:29:20Z</time></trkpt>
<trkpt lat="43.0917250000" lon="-0.9879800000"><ele>970</ele><time>2026-04-26T10:29:26Z</time></trkpt>
<trkpt lat="43.0917170000" lon="-0.9879520000"><ele>970</ele><time>2026-04-26T10:29:29Z</time></trkpt>
<trkpt lat="43.0917070000" lon="-0.9879270000"><ele>970</ele><time>2026-04-26T10:29:31Z</time></trkpt>
<trkpt lat="43.0917000000" lon="-0.9879050000"><ele>971</ele><time>2026-04-26T10:29:33Z</time></trkpt>
<trkpt lat="43.0916950000" lon="-0.9878770000"><ele>971</ele><time>2026-04-26T10:29:36Z</time></trkpt>
<trkpt lat="43.0916870000" lon="-0.9878520000"><ele>971</ele><time>2026-04-26T10:29:39Z</time></trkpt>
<trkpt lat="43.0916820000" lon="-0.9878170000"><ele>972</ele><time>2026-04-26T10:29:43Z</time></trkpt>
<trkpt lat="43.0916720000" lon="-0.9877880000"><ele>973</ele><time>2026-04-26T10:29:59Z</time></trkpt>
<trkpt lat="43.0916620000" lon="-0.9877630000"><ele>973</ele><time>2026-04-26T10:30:01Z</time></trkpt>
<trkpt lat="43.0916570000" lon="-0.9877370000"><ele>974</ele><time>2026-04-26T10:30:03Z</time></trkpt>
<trkpt lat="43.0916420000" lon="-0.9877070000"><ele>974</ele><time>2026-04-26T10:30:06Z</time></trkpt>
<trkpt lat="43.0916270000" lon="-0.9876820000"><ele>974</ele><time>2026-04-26T10:30:09Z</time></trkpt>
<trkpt lat="43.0916120000" lon="-0.9876570000"><ele>974</ele><time>2026-04-26T10:30:12Z</time></trkpt>
<trkpt lat="43.0916000000" lon="-0.9876370000"><ele>974</ele><time>2026-04-26T10:30:14Z</time></trkpt>
<trkpt lat="43.0915870000" lon="-0.9876080000"><ele>975</ele><time>2026-04-26T10:30:17Z</time></trkpt>
<trkpt lat="43.0915820000" lon="-0.9875820000"><ele>975</ele><time>2026-04-26T10:30:20Z</time></trkpt>
<trkpt lat="43.0915700000" lon="-0.9875520000"><ele>975</ele><time>2026-04-26T10:30:23Z</time></trkpt>
<trkpt lat="43.0915670000" lon="-0.9875170000"><ele>976</ele><time>2026-04-26T10:30:26Z</time></trkpt>
<trkpt lat="43.0915650000" lon="-0.9874920000"><ele>976</ele><time>2026-04-26T10:30:28Z</time></trkpt>
<trkpt lat="43.0915670000" lon="-0.9874570000"><ele>976</ele><time>2026-04-26T10:30:31Z</time></trkpt>
<trkpt lat="43.0915620000" lon="-0.9874320000"><ele>977</ele><time>2026-04-26T10:30:33Z</time></trkpt>
<trkpt lat="43.0915500000" lon="-0.9874100000"><ele>977</ele><time>2026-04-26T10:30:35Z</time></trkpt>
<trkpt lat="43.0915420000" lon="-0.9873820000"><ele>977</ele><time>2026-04-26T10:30:38Z</time></trkpt>
<trkpt lat="43.0915320000" lon="-0.9873600000"><ele>977</ele><time>2026-04-26T10:30:41Z</time></trkpt>
<trkpt lat="43.0915120000" lon="-0.9873450000"><ele>977</ele><time>2026-04-26T10:30:45Z</time></trkpt>
<trkpt lat="43.0915120000" lon="-0.9873170000"><ele>978</ele><time>2026-04-26T10:30:51Z</time></trkpt>
<trkpt lat="43.0915100000" lon="-0.9872820000"><ele>982</ele><time>2026-04-26T10:31:39Z</time></trkpt>
<trkpt lat="43.0915220000" lon="-0.9872650000"><ele>982</ele><time>2026-04-26T10:31:41Z</time></trkpt>
<trkpt lat="43.0915420000" lon="-0.9872520000"><ele>982</ele><time>2026-04-26T10:31:43Z</time></trkpt>
<trkpt lat="43.0915600000" lon="-0.9872570000"><ele>982</ele><time>2026-04-26T10:31:45Z</time></trkpt>
<trkpt lat="43.0915800000" lon="-0.9872600000"><ele>983</ele><time>2026-04-26T10:31:47Z</time></trkpt>
<trkpt lat="43.0916020000" lon="-0.9872450000"><ele>983</ele><time>2026-04-26T10:31:50Z</time></trkpt>
<trkpt lat="43.0916120000" lon="-0.9872200000"><ele>984</ele><time>2026-04-26T10:31:53Z</time></trkpt>
<trkpt lat="43.0916120000" lon="-0.9871870000"><ele>984</ele><time>2026-04-26T10:31:56Z</time></trkpt>
<trkpt lat="43.0916020000" lon="-0.9871600000"><ele>985</ele><time>2026-04-26T10:31:59Z</time></trkpt>
<trkpt lat="43.0915970000" lon="-0.9871270000"><ele>985</ele><time>2026-04-26T10:32:03Z</time></trkpt>
<trkpt lat="43.0915920000" lon="-0.9871020000"><ele>986</ele><time>2026-04-26T10:32:06Z</time></trkpt>
<trkpt lat="43.0915850000" lon="-0.9870800000"><ele>986</ele><time>2026-04-26T10:32:09Z</time></trkpt>
<trkpt lat="43.0915870000" lon="-0.9870550000"><ele>987</ele><time>2026-04-26T10:32:12Z</time></trkpt>
<trkpt lat="43.0915920000" lon="-0.9870220000"><ele>987</ele><time>2026-04-26T10:32:16Z</time></trkpt>
<trkpt lat="43.0915870000" lon="-0.9869970000"><ele>988</ele><time>2026-04-26T10:32:19Z</time></trkpt>
<trkpt lat="43.0915820000" lon="-0.9869670000"><ele>989</ele><time>2026-04-26T10:32:23Z</time></trkpt>
<trkpt lat="43.0915850000" lon="-0.9869370000"><ele>989</ele><time>2026-04-26T10:32:27Z</time></trkpt>
<trkpt lat="43.0915770000" lon="-0.9869120000"><ele>990</ele><time>2026-04-26T10:32:30Z</time></trkpt>
<trkpt lat="43.0915650000" lon="-0.9868930000"><ele>990</ele><time>2026-04-26T10:32:33Z</time></trkpt>
<trkpt lat="43.0915450000" lon="-0.9868770000"><ele>991</ele><time>2026-04-26T10:32:36Z</time></trkpt>
<trkpt lat="43.0915270000" lon="-0.9868570000"><ele>991</ele><time>2026-04-26T10:32:39Z</time></trkpt>
<trkpt lat="43.0915170000" lon="-0.9868350000"><ele>991</ele><time>2026-04-26T10:32:41Z</time></trkpt>
<trkpt lat="43.0915020000" lon="-0.9868070000"><ele>991</ele><time>2026-04-26T10:32:44Z</time></trkpt>
<trkpt lat="43.0914850000" lon="-0.9867870000"><ele>991</ele><time>2026-04-26T10:32:47Z</time></trkpt>
<trkpt lat="43.0914770000" lon="-0.9867570000"><ele>991</ele><time>2026-04-26T10:32:50Z</time></trkpt>
<trkpt lat="43.0914670000" lon="-0.9867320000"><ele>992</ele><time>2026-04-26T10:32:53Z</time></trkpt>
<trkpt lat="43.0914670000" lon="-0.9867070000"><ele>992</ele><time>2026-04-26T10:32:55Z</time></trkpt>
<trkpt lat="43.0914700000" lon="-0.9866820000"><ele>992</ele><time>2026-04-26T10:32:57Z</time></trkpt>
<trkpt lat="43.0914650000" lon="-0.9866570000"><ele>992</ele><time>2026-04-26T10:32:59Z</time></trkpt>
<trkpt lat="43.0914620000" lon="-0.9866320000"><ele>992</ele><time>2026-04-26T10:33:23Z</time></trkpt>
<trkpt lat="43.0914520000" lon="-0.9865970000"><ele>993</ele><time>2026-04-26T10:33:26Z</time></trkpt>
<trkpt lat="43.0914450000" lon="-0.9865670000"><ele>993</ele><time>2026-04-26T10:33:28Z</time></trkpt>
<trkpt lat="43.0914420000" lon="-0.9865400000"><ele>993</ele><time>2026-04-26T10:33:31Z</time></trkpt>
<trkpt lat="43.0914370000" lon="-0.9865070000"><ele>994</ele><time>2026-04-26T10:33:35Z</time></trkpt>
<trkpt lat="43.0914330000" lon="-0.9864770000"><ele>994</ele><time>2026-04-26T10:33:38Z</time></trkpt>
<trkpt lat="43.0914330000" lon="-0.9864520000"><ele>995</ele><time>2026-04-26T10:33:41Z</time></trkpt>
<trkpt lat="43.0914320000" lon="-0.9864220000"><ele>995</ele><time>2026-04-26T10:33:44Z</time></trkpt>
<trkpt lat="43.0914270000" lon="-0.9863950000"><ele>995</ele><time>2026-04-26T10:33:47Z</time></trkpt>
<trkpt lat="43.0914220000" lon="-0.9863670000"><ele>996</ele><time>2026-04-26T10:33:50Z</time></trkpt>
<trkpt lat="43.0914370000" lon="-0.9863470000"><ele>996</ele><time>2026-04-26T10:33:54Z</time></trkpt>
<trkpt lat="43.0914550000" lon="-0.9863420000"><ele>997</ele><time>2026-04-26T10:33:57Z</time></trkpt>
<trkpt lat="43.0914550000" lon="-0.9863170000"><ele>997</ele><time>2026-04-26T10:34:01Z</time></trkpt>
<trkpt lat="43.0914520000" lon="-0.9862870000"><ele>998</ele><time>2026-04-26T10:34:05Z</time></trkpt>
<trkpt lat="43.0914420000" lon="-0.9862620000"><ele>999</ele><time>2026-04-26T10:34:08Z</time></trkpt>
<trkpt lat="43.0914320000" lon="-0.9862350000"><ele>999</ele><time>2026-04-26T10:34:11Z</time></trkpt>
<trkpt lat="43.0914200000" lon="-0.9862150000"><ele>999</ele><time>2026-04-26T10:34:14Z</time></trkpt>
<trkpt lat="43.0914250000" lon="-0.9861850000"><ele>1000</ele><time>2026-04-26T10:34:20Z</time></trkpt>
<trkpt lat="43.0914220000" lon="-0.9861520000"><ele>1000</ele><time>2026-04-26T10:34:23Z</time></trkpt>
<trkpt lat="43.0914250000" lon="-0.9861250000"><ele>1002</ele><time>2026-04-26T10:34:34Z</time></trkpt>
<trkpt lat="43.0914170000" lon="-0.9860920000"><ele>1003</ele><time>2026-04-26T10:34:42Z</time></trkpt>
<trkpt lat="43.0914150000" lon="-0.9860570000"><ele>1003</ele><time>2026-04-26T10:34:44Z</time></trkpt>
<trkpt lat="43.0914100000" lon="-0.9860270000"><ele>1003</ele><time>2026-04-26T10:34:46Z</time></trkpt>
<trkpt lat="43.0914020000" lon="-0.9860000000"><ele>1004</ele><time>2026-04-26T10:34:49Z</time></trkpt>
<trkpt lat="43.0914070000" lon="-0.9859720000"><ele>1004</ele><time>2026-04-26T10:34:53Z</time></trkpt>
<trkpt lat="43.0914270000" lon="-0.9859750000"><ele>1005</ele><time>2026-04-26T10:34:58Z</time></trkpt>
<trkpt lat="43.0914520000" lon="-0.9859770000"><ele>1008</ele><time>2026-04-26T10:35:16Z</time></trkpt>
<trkpt lat="43.0914700000" lon="-0.9859470000"><ele>1008</ele><time>2026-04-26T10:35:18Z</time></trkpt>
<trkpt lat="43.0914870000" lon="-0.9859120000"><ele>1009</ele><time>2026-04-26T10:35:20Z</time></trkpt>
<trkpt lat="43.0915030000" lon="-0.9858920000"><ele>1009</ele><time>2026-04-26T10:35:22Z</time></trkpt>
<trkpt lat="43.0915220000" lon="-0.9858820000"><ele>1009</ele><time>2026-04-26T10:35:24Z</time></trkpt>
<trkpt lat="43.0915400000" lon="-0.9858650000"><ele>1010</ele><time>2026-04-26T10:35:28Z</time></trkpt>
<trkpt lat="43.0915570000" lon="-0.9858520000"><ele>1010</ele><time>2026-04-26T10:35:32Z</time></trkpt>
<trkpt lat="43.0915750000" lon="-0.9858450000"><ele>1011</ele><time>2026-04-26T10:35:35Z</time></trkpt>
<trkpt lat="43.0915870000" lon="-0.9858270000"><ele>1012</ele><time>2026-04-26T10:35:39Z</time></trkpt>
<trkpt lat="43.0915970000" lon="-0.9858020000"><ele>1012</ele><time>2026-04-26T10:35:43Z</time></trkpt>
<trkpt lat="43.0915880000" lon="-0.9857720000"><ele>1013</ele><time>2026-04-26T10:36:09Z</time></trkpt>
<trkpt lat="43.0915770000" lon="-0.9857450000"><ele>1013</ele><time>2026-04-26T10:36:11Z</time></trkpt>
<trkpt lat="43.0915670000" lon="-0.9857170000"><ele>1013</ele><time>2026-04-26T10:36:13Z</time></trkpt>
<trkpt lat="43.0915700000" lon="-0.9856820000"><ele>1014</ele><time>2026-04-26T10:36:16Z</time></trkpt>
<trkpt lat="43.0915650000" lon="-0.9856450000"><ele>1014</ele><time>2026-04-26T10:36:19Z</time></trkpt>
<trkpt lat="43.0915520000" lon="-0.9856170000"><ele>1015</ele><time>2026-04-26T10:36:22Z</time></trkpt>
<trkpt lat="43.0915420000" lon="-0.9855870000"><ele>1015</ele><time>2026-04-26T10:36:25Z</time></trkpt>
<trkpt lat="43.0915370000" lon="-0.9855570000"><ele>1016</ele><time>2026-04-26T10:36:28Z</time></trkpt>
<trkpt lat="43.0915370000" lon="-0.9855270000"><ele>1016</ele><time>2026-04-26T10:36:31Z</time></trkpt>
<trkpt lat="43.0915350000" lon="-0.9854920000"><ele>1017</ele><time>2026-04-26T10:36:34Z</time></trkpt>
<trkpt lat="43.0915300000" lon="-0.9854650000"><ele>1017</ele><time>2026-04-26T10:36:37Z</time></trkpt>
<trkpt lat="43.0915170000" lon="-0.9854320000"><ele>1017</ele><time>2026-04-26T10:36:40Z</time></trkpt>
<trkpt lat="43.0915070000" lon="-0.9854000000"><ele>1018</ele><time>2026-04-26T10:36:43Z</time></trkpt>
<trkpt lat="43.0915000000" lon="-0.9853650000"><ele>1018</ele><time>2026-04-26T10:36:46Z</time></trkpt>
<trkpt lat="43.0915070000" lon="-0.9853400000"><ele>1018</ele><time>2026-04-26T10:36:48Z</time></trkpt>
<trkpt lat="43.0915120000" lon="-0.9853100000"><ele>1019</ele><time>2026-04-26T10:36:50Z</time></trkpt>
<trkpt lat="43.0915070000" lon="-0.9852800000"><ele>1019</ele><time>2026-04-26T10:36:52Z</time></trkpt>
<trkpt lat="43.0915020000" lon="-0.9852530000"><ele>1019</ele><time>2026-04-26T10:36:54Z</time></trkpt>
<trkpt lat="43.0914920000" lon="-0.9852320000"><ele>1020</ele><time>2026-04-26T10:36:56Z</time></trkpt>
<trkpt lat="43.0914820000" lon="-0.9852020000"><ele>1020</ele><time>2026-04-26T10:36:59Z</time></trkpt>
<trkpt lat="43.0914700000" lon="-0.9851720000"><ele>1021</ele><time>2026-04-26T10:37:02Z</time></trkpt>
<trkpt lat="43.0914620000" lon="-0.9851470000"><ele>1021</ele><time>2026-04-26T10:37:04Z</time></trkpt>
<trkpt lat="43.0914570000" lon="-0.9851170000"><ele>1021</ele><time>2026-04-26T10:37:07Z</time></trkpt>
<trkpt lat="43.0914470000" lon="-0.9850820000"><ele>1022</ele><time>2026-04-26T10:37:10Z</time></trkpt>
<trkpt lat="43.0914370000" lon="-0.9850550000"><ele>1022</ele><time>2026-04-26T10:37:13Z</time></trkpt>
<trkpt lat="43.0914320000" lon="-0.9850270000"><ele>1022</ele><time>2026-04-26T10:37:16Z</time></trkpt>
<trkpt lat="43.0914200000" lon="-0.9849970000"><ele>1023</ele><time>2026-04-26T10:37:19Z</time></trkpt>
<trkpt lat="43.0914070000" lon="-0.9849700000"><ele>1023</ele><time>2026-04-26T10:37:22Z</time></trkpt>
<trkpt lat="43.0914020000" lon="-0.9849350000"><ele>1024</ele><time>2026-04-26T10:37:25Z</time></trkpt>
<trkpt lat="43.0914070000" lon="-0.9849020000"><ele>1024</ele><time>2026-04-26T10:37:29Z</time></trkpt>
<trkpt lat="43.0914120000" lon="-0.9848720000"><ele>1024</ele><time>2026-04-26T10:37:32Z</time></trkpt>
<trkpt lat="43.0914070000" lon="-0.9848450000"><ele>1025</ele><time>2026-04-26T10:37:35Z</time></trkpt>
<trkpt lat="43.0914200000" lon="-0.9848120000"><ele>1026</ele><time>2026-04-26T10:37:39Z</time></trkpt>
<trkpt lat="43.0914120000" lon="-0.9847870000"><ele>1026</ele><time>2026-04-26T10:37:42Z</time></trkpt>
<trkpt lat="43.0914070000" lon="-0.9847620000"><ele>1026</ele><time>2026-04-26T10:37:45Z</time></trkpt>
<trkpt lat="43.0914000000" lon="-0.9847320000"><ele>1027</ele><time>2026-04-26T10:37:48Z</time></trkpt>
<trkpt lat="43.0914020000" lon="-0.9847070000"><ele>1027</ele><time>2026-04-26T10:37:51Z</time></trkpt>
<trkpt lat="43.0913950000" lon="-0.9846820000"><ele>1027</ele><time>2026-04-26T10:37:54Z</time></trkpt>
<trkpt lat="43.0913850000" lon="-0.9846570000"><ele>1028</ele><time>2026-04-26T10:37:57Z</time></trkpt>
<trkpt lat="43.0913800000" lon="-0.9846230000"><ele>1028</ele><time>2026-04-26T10:38:00Z</time></trkpt>
<trkpt lat="43.0913850000" lon="-0.9845970000"><ele>1028</ele><time>2026-04-26T10:38:02Z</time></trkpt>
<trkpt lat="43.0913850000" lon="-0.9845670000"><ele>1028</ele><time>2026-04-26T10:38:04Z</time></trkpt>
<trkpt lat="43.0913800000" lon="-0.9845350000"><ele>1029</ele><time>2026-04-26T10:38:07Z</time></trkpt>
<trkpt lat="43.0913770000" lon="-0.9845070000"><ele>1029</ele><time>2026-04-26T10:38:10Z</time></trkpt>
<trkpt lat="43.0913670000" lon="-0.9844770000"><ele>1029</ele><time>2026-04-26T10:38:13Z</time></trkpt>
<trkpt lat="43.0913570000" lon="-0.9844470000"><ele>1030</ele><time>2026-04-26T10:38:16Z</time></trkpt>
<trkpt lat="43.0913480000" lon="-0.9844150000"><ele>1030</ele><time>2026-04-26T10:38:19Z</time></trkpt>
<trkpt lat="43.0913450000" lon="-0.9843800000"><ele>1031</ele><time>2026-04-26T10:38:22Z</time></trkpt>
<trkpt lat="43.0913350000" lon="-0.9843470000"><ele>1031</ele><time>2026-04-26T10:38:25Z</time></trkpt>
<trkpt lat="43.0913250000" lon="-0.9843120000"><ele>1031</ele><time>2026-04-26T10:38:28Z</time></trkpt>
<trkpt lat="43.0913170000" lon="-0.9842880000"><ele>1031</ele><time>2026-04-26T10:38:30Z</time></trkpt>
<trkpt lat="43.0913120000" lon="-0.9842650000"><ele>1032</ele><time>2026-04-26T10:38:32Z</time></trkpt>
<trkpt lat="43.0913070000" lon="-0.9842400000"><ele>1032</ele><time>2026-04-26T10:38:35Z</time></trkpt>
<trkpt lat="43.0912870000" lon="-0.9842200000"><ele>1033</ele><time>2026-04-26T10:38:47Z</time></trkpt>
<trkpt lat="43.0912720000" lon="-0.9841950000"><ele>1033</ele><time>2026-04-26T10:38:49Z</time></trkpt>
<trkpt lat="43.0912620000" lon="-0.9841670000"><ele>1033</ele><time>2026-04-26T10:38:51Z</time></trkpt>
<trkpt lat="43.0912520000" lon="-0.9841400000"><ele>1033</ele><time>2026-04-26T10:38:53Z</time></trkpt>
<trkpt lat="43.0912420000" lon="-0.9841100000"><ele>1033</ele><time>2026-04-26T10:38:56Z</time></trkpt>
<trkpt lat="43.0912370000" lon="-0.9840850000"><ele>1033</ele><time>2026-04-26T10:38:58Z</time></trkpt>
<trkpt lat="43.0912270000" lon="-0.9840570000"><ele>1033</ele><time>2026-04-26T10:39:01Z</time></trkpt>
<trkpt lat="43.0912070000" lon="-0.9840470000"><ele>1034</ele><time>2026-04-26T10:39:09Z</time></trkpt>
<trkpt lat="43.0911950000" lon="-0.9840300000"><ele>1034</ele><time>2026-04-26T10:39:28Z</time></trkpt>
<trkpt lat="43.0911750000" lon="-0.9840250000"><ele>1034</ele><time>2026-04-26T10:39:31Z</time></trkpt>
<trkpt lat="43.0911870000" lon="-0.9840500000"><ele>1034</ele><time>2026-04-26T10:39:34Z</time></trkpt>
<trkpt lat="43.0912070000" lon="-0.9840620000"><ele>1035</ele><time>2026-04-26T10:43:08Z</time></trkpt>
<trkpt lat="43.0912000000" lon="-0.9840270000"><ele>1035</ele><time>2026-04-26T10:43:11Z</time></trkpt>
<trkpt lat="43.0911820000" lon="-0.9840070000"><ele>1035</ele><time>2026-04-26T10:43:13Z</time></trkpt>
<trkpt lat="43.0911670000" lon="-0.9839970000"><ele>1035</ele><time>2026-04-26T10:43:15Z</time></trkpt>
<trkpt lat="43.0911470000" lon="-0.9839870000"><ele>1035</ele><time>2026-04-26T10:43:18Z</time></trkpt>
<trkpt lat="43.0911220000" lon="-0.9839900000"><ele>1035</ele><time>2026-04-26T10:43:21Z</time></trkpt>
<trkpt lat="43.0911150000" lon="-0.9840150000"><ele>1035</ele><time>2026-04-26T10:43:23Z</time></trkpt>
<trkpt lat="43.0911020000" lon="-0.9840470000"><ele>1035</ele><time>2026-04-26T10:43:26Z</time></trkpt>
<trkpt lat="43.0910820000" lon="-0.9840600000"><ele>1035</ele><time>2026-04-26T10:43:29Z</time></trkpt>
<trkpt lat="43.0910600000" lon="-0.9840550000"><ele>1034</ele><time>2026-04-26T10:43:32Z</time></trkpt>
<trkpt lat="43.0910350000" lon="-0.9840470000"><ele>1034</ele><time>2026-04-26T10:43:35Z</time></trkpt>
<trkpt lat="43.0910120000" lon="-0.9840370000"><ele>1033</ele><time>2026-04-26T10:43:38Z</time></trkpt>
<trkpt lat="43.0909920000" lon="-0.9840220000"><ele>1033</ele><time>2026-04-26T10:43:53Z</time></trkpt>
<trkpt lat="43.0909700000" lon="-0.9840070000"><ele>1033</ele><time>2026-04-26T10:43:55Z</time></trkpt>
<trkpt lat="43.0909450000" lon="-0.9839970000"><ele>1033</ele><time>2026-04-26T10:43:57Z</time></trkpt>
<trkpt lat="43.0909220000" lon="-0.9839920000"><ele>1033</ele><time>2026-04-26T10:43:59Z</time></trkpt>
<trkpt lat="43.0909020000" lon="-0.9839900000"><ele>1033</ele><time>2026-04-26T10:44:01Z</time></trkpt>
<trkpt lat="43.0908820000" lon="-0.9839820000"><ele>1032</ele><time>2026-04-26T10:44:04Z</time></trkpt>
<trkpt lat="43.0908620000" lon="-0.9839620000"><ele>1032</ele><time>2026-04-26T10:44:07Z</time></trkpt>
<trkpt lat="43.0908470000" lon="-0.9839350000"><ele>1032</ele><time>2026-04-26T10:44:10Z</time></trkpt>
<trkpt lat="43.0908320000" lon="-0.9839120000"><ele>1032</ele><time>2026-04-26T10:44:13Z</time></trkpt>
<trkpt lat="43.0908100000" lon="-0.9839070000"><ele>1032</ele><time>2026-04-26T10:44:16Z</time></trkpt>
<trkpt lat="43.0907900000" lon="-0.9839020000"><ele>1031</ele><time>2026-04-26T10:44:19Z</time></trkpt>
<trkpt lat="43.0907670000" lon="-0.9838870000"><ele>1030</ele><time>2026-04-26T10:44:22Z</time></trkpt>
<trkpt lat="43.0907600000" lon="-0.9838620000"><ele>1030</ele><time>2026-04-26T10:44:24Z</time></trkpt>
<trkpt lat="43.0907470000" lon="-0.9838320000"><ele>1029</ele><time>2026-04-26T10:44:27Z</time></trkpt>
<trkpt lat="43.0907250000" lon="-0.9838200000"><ele>1029</ele><time>2026-04-26T10:44:31Z</time></trkpt>
<trkpt lat="43.0907070000" lon="-0.9838050000"><ele>1028</ele><time>2026-04-26T10:44:33Z</time></trkpt>
<trkpt lat="43.0906900000" lon="-0.9837850000"><ele>1028</ele><time>2026-04-26T10:44:35Z</time></trkpt>
<trkpt lat="43.0906720000" lon="-0.9837670000"><ele>1028</ele><time>2026-04-26T10:44:37Z</time></trkpt>
<trkpt lat="43.0906520000" lon="-0.9837480000"><ele>1027</ele><time>2026-04-26T10:44:40Z</time></trkpt>
<trkpt lat="43.0906350000" lon="-0.9837320000"><ele>1027</ele><time>2026-04-26T10:44:43Z</time></trkpt>
<trkpt lat="43.0906170000" lon="-0.9837070000"><ele>1026</ele><time>2026-04-26T10:44:46Z</time></trkpt>
<trkpt lat="43.0906030000" lon="-0.9836770000"><ele>1026</ele><time>2026-04-26T10:44:49Z</time></trkpt>
<trkpt lat="43.0905870000" lon="-0.9836500000"><ele>1025</ele><time>2026-04-26T10:44:52Z</time></trkpt>
<trkpt lat="43.0905670000" lon="-0.9836320000"><ele>1025</ele><time>2026-04-26T10:44:55Z</time></trkpt>
<trkpt lat="43.0905470000" lon="-0.9836220000"><ele>1025</ele><time>2026-04-26T10:44:58Z</time></trkpt>
<trkpt lat="43.0905350000" lon="-0.9835970000"><ele>1024</ele><time>2026-04-26T10:45:02Z</time></trkpt>
<trkpt lat="43.0905150000" lon="-0.9835730000"><ele>1024</ele><time>2026-04-26T10:45:05Z</time></trkpt>
<trkpt lat="43.0905020000" lon="-0.9835530000"><ele>1024</ele><time>2026-04-26T10:45:07Z</time></trkpt>
<trkpt lat="43.0904870000" lon="-0.9835320000"><ele>1023</ele><time>2026-04-26T10:45:10Z</time></trkpt>
<trkpt lat="43.0904720000" lon="-0.9835020000"><ele>1023</ele><time>2026-04-26T10:45:13Z</time></trkpt>
<trkpt lat="43.0904620000" lon="-0.9834720000"><ele>1022</ele><time>2026-04-26T10:45:16Z</time></trkpt>
<trkpt lat="43.0904570000" lon="-0.9834470000"><ele>1022</ele><time>2026-04-26T10:45:19Z</time></trkpt>
<trkpt lat="43.0904650000" lon="-0.9834220000"><ele>1022</ele><time>2026-04-26T10:45:21Z</time></trkpt>
<trkpt lat="43.0904620000" lon="-0.9833950000"><ele>1022</ele><time>2026-04-26T10:45:23Z</time></trkpt>
<trkpt lat="43.0904570000" lon="-0.9833670000"><ele>1022</ele><time>2026-04-26T10:45:25Z</time></trkpt>
<trkpt lat="43.0904480000" lon="-0.9833420000"><ele>1022</ele><time>2026-04-26T10:45:27Z</time></trkpt>
<trkpt lat="43.0904470000" lon="-0.9833170000"><ele>1022</ele><time>2026-04-26T10:45:29Z</time></trkpt>
<trkpt lat="43.0904420000" lon="-0.9832870000"><ele>1022</ele><time>2026-04-26T10:45:31Z</time></trkpt>
<trkpt lat="43.0904370000" lon="-0.9832620000"><ele>1022</ele><time>2026-04-26T10:45:33Z</time></trkpt>
<trkpt lat="43.0904270000" lon="-0.9832370000"><ele>1022</ele><time>2026-04-26T10:45:35Z</time></trkpt>
<trkpt lat="43.0904120000" lon="-0.9832170000"><ele>1022</ele><time>2026-04-26T10:45:38Z</time></trkpt>
<trkpt lat="43.0903950000" lon="-0.9831870000"><ele>1023</ele><time>2026-04-26T10:45:47Z</time></trkpt>
<trkpt lat="43.0903850000" lon="-0.9831470000"><ele>1023</ele><time>2026-04-26T10:45:49Z</time></trkpt>
<trkpt lat="43.0903720000" lon="-0.9831170000"><ele>1023</ele><time>2026-04-26T10:45:51Z</time></trkpt>
<trkpt lat="43.0903550000" lon="-0.9830970000"><ele>1023</ele><time>2026-04-26T10:45:53Z</time></trkpt>
<trkpt lat="43.0903370000" lon="-0.9830820000"><ele>1023</ele><time>2026-04-26T10:45:55Z</time></trkpt>
<trkpt lat="43.0903200000" lon="-0.9830670000"><ele>1023</ele><time>2026-04-26T10:45:57Z</time></trkpt>
<trkpt lat="43.0902970000" lon="-0.9830450000"><ele>1023</ele><time>2026-04-26T10:46:00Z</time></trkpt>
<trkpt lat="43.0902870000" lon="-0.9830250000"><ele>1023</ele><time>2026-04-26T10:46:02Z</time></trkpt>
<trkpt lat="43.0902750000" lon="-0.9830000000"><ele>1023</ele><time>2026-04-26T10:46:04Z</time></trkpt>
<trkpt lat="43.0902570000" lon="-0.9829820000"><ele>1023</ele><time>2026-04-26T10:46:06Z</time></trkpt>
<trkpt lat="43.0902400000" lon="-0.9829700000"><ele>1023</ele><time>2026-04-26T10:46:08Z</time></trkpt>
<trkpt lat="43.0902200000" lon="-0.9829620000"><ele>1023</ele><time>2026-04-26T10:46:10Z</time></trkpt>
<trkpt lat="43.0901970000" lon="-0.9829520000"><ele>1023</ele><time>2026-04-26T10:46:12Z</time></trkpt>
<trkpt lat="43.0901800000" lon="-0.9829470000"><ele>1023</ele><time>2026-04-26T10:46:14Z</time></trkpt>
<trkpt lat="43.0901620000" lon="-0.9829350000"><ele>1024</ele><time>2026-04-26T10:46:16Z</time></trkpt>
<trkpt lat="43.0901450000" lon="-0.9829220000"><ele>1024</ele><time>2026-04-26T10:46:18Z</time></trkpt>
<trkpt lat="43.0901270000" lon="-0.9829100000"><ele>1024</ele><time>2026-04-26T10:46:20Z</time></trkpt>
<trkpt lat="43.0901020000" lon="-0.9829020000"><ele>1024</ele><time>2026-04-26T10:46:23Z</time></trkpt>
<trkpt lat="43.0900770000" lon="-0.9828920000"><ele>1025</ele><time>2026-04-26T10:46:26Z</time></trkpt>
<trkpt lat="43.0900570000" lon="-0.9828770000"><ele>1025</ele><time>2026-04-26T10:46:29Z</time></trkpt>
<trkpt lat="43.0900420000" lon="-0.9828580000"><ele>1025</ele><time>2026-04-26T10:46:31Z</time></trkpt>
<trkpt lat="43.0900270000" lon="-0.9828450000"><ele>1025</ele><time>2026-04-26T10:46:33Z</time></trkpt>
<trkpt lat="43.0900120000" lon="-0.9828320000"><ele>1025</ele><time>2026-04-26T10:46:35Z</time></trkpt>
<trkpt lat="43.0899950000" lon="-0.9828220000"><ele>1026</ele><time>2026-04-26T10:46:37Z</time></trkpt>
<trkpt lat="43.0899770000" lon="-0.9828120000"><ele>1026</ele><time>2026-04-26T10:46:39Z</time></trkpt>
<trkpt lat="43.0899670000" lon="-0.9827870000"><ele>1026</ele><time>2026-04-26T10:46:42Z</time></trkpt>
<trkpt lat="43.0899520000" lon="-0.9827670000"><ele>1027</ele><time>2026-04-26T10:46:44Z</time></trkpt>
<trkpt lat="43.0899370000" lon="-0.9827420000"><ele>1027</ele><time>2026-04-26T10:46:47Z</time></trkpt>
<trkpt lat="43.0899170000" lon="-0.9827220000"><ele>1027</ele><time>2026-04-26T10:46:50Z</time></trkpt>
<trkpt lat="43.0899000000" lon="-0.9827120000"><ele>1028</ele><time>2026-04-26T10:46:57Z</time></trkpt>
<trkpt lat="43.0898900000" lon="-0.9826900000"><ele>1027</ele><time>2026-04-26T10:47:21Z</time></trkpt>
<trkpt lat="43.0898800000" lon="-0.9826620000"><ele>1027</ele><time>2026-04-26T10:47:28Z</time></trkpt>
<trkpt lat="43.0898720000" lon="-0.9826270000"><ele>1026</ele><time>2026-04-26T10:47:32Z</time></trkpt>
<trkpt lat="43.0898570000" lon="-0.9826050000"><ele>1026</ele><time>2026-04-26T10:47:34Z</time></trkpt>
<trkpt lat="43.0898370000" lon="-0.9825920000"><ele>1026</ele><time>2026-04-26T10:47:36Z</time></trkpt>
<trkpt lat="43.0898150000" lon="-0.9825750000"><ele>1025</ele><time>2026-04-26T10:47:39Z</time></trkpt>
<trkpt lat="43.0898000000" lon="-0.9825520000"><ele>1025</ele><time>2026-04-26T10:47:41Z</time></trkpt>
<trkpt lat="43.0897870000" lon="-0.9825250000"><ele>1025</ele><time>2026-04-26T10:47:43Z</time></trkpt>
<trkpt lat="43.0897820000" lon="-0.9825000000"><ele>1024</ele><time>2026-04-26T10:47:45Z</time></trkpt>
<trkpt lat="43.0897720000" lon="-0.9824650000"><ele>1024</ele><time>2026-04-26T10:47:48Z</time></trkpt>
<trkpt lat="43.0897670000" lon="-0.9824420000"><ele>1024</ele><time>2026-04-26T10:47:50Z</time></trkpt>
<trkpt lat="43.0897620000" lon="-0.9824170000"><ele>1024</ele><time>2026-04-26T10:47:52Z</time></trkpt>
<trkpt lat="43.0897520000" lon="-0.9823920000"><ele>1024</ele><time>2026-04-26T10:47:54Z</time></trkpt>
<trkpt lat="43.0897450000" lon="-0.9823670000"><ele>1024</ele><time>2026-04-26T10:47:56Z</time></trkpt>
<trkpt lat="43.0897350000" lon="-0.9823370000"><ele>1024</ele><time>2026-04-26T10:47:59Z</time></trkpt>
<trkpt lat="43.0897250000" lon="-0.9823070000"><ele>1024</ele><time>2026-04-26T10:48:02Z</time></trkpt>
<trkpt lat="43.0897120000" lon="-0.9822850000"><ele>1024</ele><time>2026-04-26T10:48:04Z</time></trkpt>
<trkpt lat="43.0897020000" lon="-0.9822620000"><ele>1024</ele><time>2026-04-26T10:48:06Z</time></trkpt>
<trkpt lat="43.0896880000" lon="-0.9822420000"><ele>1024</ele><time>2026-04-26T10:48:09Z</time></trkpt>
<trkpt lat="43.0896770000" lon="-0.9822220000"><ele>1025</ele><time>2026-04-26T10:48:12Z</time></trkpt>
<trkpt lat="43.0896620000" lon="-0.9822020000"><ele>1025</ele><time>2026-04-26T10:48:14Z</time></trkpt>
<trkpt lat="43.0896600000" lon="-0.9822270000"><ele>1026</ele><time>2026-04-26T10:49:41Z</time></trkpt>
<trkpt lat="43.0896820000" lon="-0.9822620000"><ele>1026</ele><time>2026-04-26T10:49:43Z</time></trkpt>
<trkpt lat="43.0896950000" lon="-0.9822920000"><ele>1025</ele><time>2026-04-26T10:49:44Z</time></trkpt>
<trkpt lat="43.0897070000" lon="-0.9823170000"><ele>1025</ele><time>2026-04-26T10:49:45Z</time></trkpt>
<trkpt lat="43.0897200000" lon="-0.9823420000"><ele>1025</ele><time>2026-04-26T10:49:46Z</time></trkpt>
<trkpt lat="43.0897370000" lon="-0.9823770000"><ele>1025</ele><time>2026-04-26T10:49:48Z</time></trkpt>
<trkpt lat="43.0897470000" lon="-0.9824020000"><ele>1025</ele><time>2026-04-26T10:49:50Z</time></trkpt>
<trkpt lat="43.0897580000" lon="-0.9824270000"><ele>1024</ele><time>2026-04-26T10:49:52Z</time></trkpt>
<trkpt lat="43.0897720000" lon="-0.9824530000"><ele>1024</ele><time>2026-04-26T10:49:54Z</time></trkpt>
<trkpt lat="43.0897800000" lon="-0.9824820000"><ele>1024</ele><time>2026-04-26T10:49:56Z</time></trkpt>
<trkpt lat="43.0897870000" lon="-0.9825070000"><ele>1023</ele><time>2026-04-26T10:49:58Z</time></trkpt>
<trkpt lat="43.0897970000" lon="-0.9825320000"><ele>1023</ele><time>2026-04-26T10:50:00Z</time></trkpt>
<trkpt lat="43.0898070000" lon="-0.9825620000"><ele>1023</ele><time>2026-04-26T10:50:03Z</time></trkpt>
<trkpt lat="43.0898250000" lon="-0.9825880000"><ele>1023</ele><time>2026-04-26T10:50:06Z</time></trkpt>
<trkpt lat="43.0898370000" lon="-0.9826170000"><ele>1024</ele><time>2026-04-26T10:50:09Z</time></trkpt>
<trkpt lat="43.0898570000" lon="-0.9826320000"><ele>1024</ele><time>2026-04-26T10:50:12Z</time></trkpt>
<trkpt lat="43.0898800000" lon="-0.9826450000"><ele>1025</ele><time>2026-04-26T10:50:15Z</time></trkpt>
<trkpt lat="43.0898970000" lon="-0.9826600000"><ele>1025</ele><time>2026-04-26T10:50:17Z</time></trkpt>
<trkpt lat="43.0899170000" lon="-0.9826720000"><ele>1025</ele><time>2026-04-26T10:50:20Z</time></trkpt>
<trkpt lat="43.0899320000" lon="-0.9826900000"><ele>1026</ele><time>2026-04-26T10:50:26Z</time></trkpt>
<trkpt lat="43.0899270000" lon="-0.9827220000"><ele>1026</ele><time>2026-04-26T10:50:30Z</time></trkpt>
<trkpt lat="43.0899370000" lon="-0.9827500000"><ele>1027</ele><time>2026-04-26T10:50:34Z</time></trkpt>
<trkpt lat="43.0899500000" lon="-0.9827720000"><ele>1027</ele><time>2026-04-26T10:50:37Z</time></trkpt>
<trkpt lat="43.0899670000" lon="-0.9827970000"><ele>1027</ele><time>2026-04-26T10:50:39Z</time></trkpt>
<trkpt lat="43.0899820000" lon="-0.9828170000"><ele>1027</ele><time>2026-04-26T10:50:41Z</time></trkpt>
<trkpt lat="43.0899900000" lon="-0.9828470000"><ele>1027</ele><time>2026-04-26T10:50:45Z</time></trkpt>
<trkpt lat="43.0899970000" lon="-0.9828720000"><ele>1027</ele><time>2026-04-26T10:50:47Z</time></trkpt>
<trkpt lat="43.0900020000" lon="-0.9828970000"><ele>1027</ele><time>2026-04-26T10:50:49Z</time></trkpt>
<trkpt lat="43.0900070000" lon="-0.9829270000"><ele>1027</ele><time>2026-04-26T10:50:51Z</time></trkpt>
<trkpt lat="43.0900170000" lon="-0.9829500000"><ele>1027</ele><time>2026-04-26T10:50:53Z</time></trkpt>
<trkpt lat="43.0900250000" lon="-0.9829750000"><ele>1026</ele><time>2026-04-26T10:50:55Z</time></trkpt>
<trkpt lat="43.0900370000" lon="-0.9829970000"><ele>1026</ele><time>2026-04-26T10:50:57Z</time></trkpt>
<trkpt lat="43.0900550000" lon="-0.9830170000"><ele>1026</ele><time>2026-04-26T10:51:00Z</time></trkpt>
<trkpt lat="43.0900670000" lon="-0.9830520000"><ele>1026</ele><time>2026-04-26T10:51:03Z</time></trkpt>
<trkpt lat="43.0900820000" lon="-0.9830720000"><ele>1025</ele><time>2026-04-26T10:51:05Z</time></trkpt>
<trkpt lat="43.0901020000" lon="-0.9830920000"><ele>1025</ele><time>2026-04-26T10:51:08Z</time></trkpt>
<trkpt lat="43.0901200000" lon="-0.9831050000"><ele>1025</ele><time>2026-04-26T10:51:10Z</time></trkpt>
<trkpt lat="43.0901370000" lon="-0.9831170000"><ele>1025</ele><time>2026-04-26T10:51:12Z</time></trkpt>
<trkpt lat="43.0901620000" lon="-0.9831200000"><ele>1024</ele><time>2026-04-26T10:51:14Z</time></trkpt>
<trkpt lat="43.0901820000" lon="-0.9831270000"><ele>1024</ele><time>2026-04-26T10:51:16Z</time></trkpt>
<trkpt lat="43.0902000000" lon="-0.9831420000"><ele>1024</ele><time>2026-04-26T10:51:19Z</time></trkpt>
<trkpt lat="43.0902170000" lon="-0.9831570000"><ele>1023</ele><time>2026-04-26T10:51:43Z</time></trkpt>
<trkpt lat="43.0902370000" lon="-0.9831680000"><ele>1023</ele><time>2026-04-26T10:51:45Z</time></trkpt>
<trkpt lat="43.0902650000" lon="-0.9831880000"><ele>1023</ele><time>2026-04-26T10:51:47Z</time></trkpt>
<trkpt lat="43.0902870000" lon="-0.9832120000"><ele>1023</ele><time>2026-04-26T10:51:49Z</time></trkpt>
<trkpt lat="43.0903070000" lon="-0.9832330000"><ele>1023</ele><time>2026-04-26T10:51:51Z</time></trkpt>
<trkpt lat="43.0903250000" lon="-0.9832520000"><ele>1022</ele><time>2026-04-26T10:51:53Z</time></trkpt>
<trkpt lat="43.0903450000" lon="-0.9832670000"><ele>1022</ele><time>2026-04-26T10:51:55Z</time></trkpt>
<trkpt lat="43.0903620000" lon="-0.9832870000"><ele>1022</ele><time>2026-04-26T10:51:57Z</time></trkpt>
<trkpt lat="43.0903770000" lon="-0.9833150000"><ele>1022</ele><time>2026-04-26T10:51:59Z</time></trkpt>
<trkpt lat="43.0903900000" lon="-0.9833370000"><ele>1022</ele><time>2026-04-26T10:52:01Z</time></trkpt>
<trkpt lat="43.0904070000" lon="-0.9833620000"><ele>1022</ele><time>2026-04-26T10:52:03Z</time></trkpt>
<trkpt lat="43.0904200000" lon="-0.9833900000"><ele>1022</ele><time>2026-04-26T10:52:05Z</time></trkpt>
<trkpt lat="43.0904350000" lon="-0.9834100000"><ele>1022</ele><time>2026-04-26T10:52:07Z</time></trkpt>
<trkpt lat="43.0904480000" lon="-0.9834270000"><ele>1022</ele><time>2026-04-26T10:52:09Z</time></trkpt>
<trkpt lat="43.0904670000" lon="-0.9834470000"><ele>1022</ele><time>2026-04-26T10:52:11Z</time></trkpt>
<trkpt lat="43.0904770000" lon="-0.9834720000"><ele>1021</ele><time>2026-04-26T10:52:13Z</time></trkpt>
<trkpt lat="43.0904920000" lon="-0.9834920000"><ele>1021</ele><time>2026-04-26T10:52:15Z</time></trkpt>
<trkpt lat="43.0905050000" lon="-0.9835150000"><ele>1021</ele><time>2026-04-26T10:52:18Z</time></trkpt>
<trkpt lat="43.0905100000" lon="-0.9835400000"><ele>1021</ele><time>2026-04-26T10:52:20Z</time></trkpt>
<trkpt lat="43.0905150000" lon="-0.9835650000"><ele>1022</ele><time>2026-04-26T10:52:22Z</time></trkpt>
<trkpt lat="43.0905270000" lon="-0.9835930000"><ele>1022</ele><time>2026-04-26T10:52:25Z</time></trkpt>
<trkpt lat="43.0905420000" lon="-0.9836120000"><ele>1022</ele><time>2026-04-26T10:52:28Z</time></trkpt>
<trkpt lat="43.0905620000" lon="-0.9836300000"><ele>1023</ele><time>2026-04-26T10:52:31Z</time></trkpt>
<trkpt lat="43.0905770000" lon="-0.9836420000"><ele>1023</ele><time>2026-04-26T10:52:34Z</time></trkpt>
<trkpt lat="43.0905920000" lon="-0.9836570000"><ele>1023</ele><time>2026-04-26T10:52:36Z</time></trkpt>
<trkpt lat="43.0906100000" lon="-0.9836720000"><ele>1024</ele><time>2026-04-26T10:52:39Z</time></trkpt>
<trkpt lat="43.0906250000" lon="-0.9837020000"><ele>1024</ele><time>2026-04-26T10:52:42Z</time></trkpt>
<trkpt lat="43.0906370000" lon="-0.9837280000"><ele>1024</ele><time>2026-04-26T10:52:45Z</time></trkpt>
<trkpt lat="43.0906500000" lon="-0.9837470000"><ele>1024</ele><time>2026-04-26T10:52:47Z</time></trkpt>
<trkpt lat="43.0906700000" lon="-0.9837800000"><ele>1029</ele><time>2026-04-26T10:53:41Z</time></trkpt>
<trkpt lat="43.0907020000" lon="-0.9838050000"><ele>1029</ele><time>2026-04-26T10:53:42Z</time></trkpt>
<trkpt lat="43.0907420000" lon="-0.9838350000"><ele>1029</ele><time>2026-04-26T10:53:43Z</time></trkpt>
<trkpt lat="43.0907820000" lon="-0.9838630000"><ele>1029</ele><time>2026-04-26T10:53:44Z</time></trkpt>
<trkpt lat="43.0908170000" lon="-0.9838920000"><ele>1029</ele><time>2026-04-26T10:53:45Z</time></trkpt>
<trkpt lat="43.0908350000" lon="-0.9839120000"><ele>1030</ele><time>2026-04-26T10:53:46Z</time></trkpt>
<trkpt lat="43.0908520000" lon="-0.9839370000"><ele>1030</ele><time>2026-04-26T10:53:48Z</time></trkpt>
<trkpt lat="43.0908670000" lon="-0.9839580000"><ele>1030</ele><time>2026-04-26T10:53:51Z</time></trkpt>
<trkpt lat="43.0908820000" lon="-0.9839770000"><ele>1030</ele><time>2026-04-26T10:53:53Z</time></trkpt>
<trkpt lat="43.0908970000" lon="-0.9840050000"><ele>1031</ele><time>2026-04-26T10:54:12Z</time></trkpt>
<trkpt lat="43.0909150000" lon="-0.9840220000"><ele>1031</ele><time>2026-04-26T10:54:14Z</time></trkpt>
<trkpt lat="43.0909350000" lon="-0.9840400000"><ele>1031</ele><time>2026-04-26T10:54:16Z</time></trkpt>
<trkpt lat="43.0909520000" lon="-0.9840620000"><ele>1031</ele><time>2026-04-26T10:54:18Z</time></trkpt>
<trkpt lat="43.0909650000" lon="-0.9840820000"><ele>1031</ele><time>2026-04-26T10:54:20Z</time></trkpt>
<trkpt lat="43.0909770000" lon="-0.9841120000"><ele>1031</ele><time>2026-04-26T10:54:23Z</time></trkpt>
<trkpt lat="43.0909870000" lon="-0.9841370000"><ele>1031</ele><time>2026-04-26T10:54:25Z</time></trkpt>
<trkpt lat="43.0909970000" lon="-0.9841570000"><ele>1031</ele><time>2026-04-26T10:54:27Z</time></trkpt>
<trkpt lat="43.0910100000" lon="-0.9841770000"><ele>1031</ele><time>2026-04-26T10:54:29Z</time></trkpt>
<trkpt lat="43.0910250000" lon="-0.9842070000"><ele>1031</ele><time>2026-04-26T10:54:43Z</time></trkpt>
<trkpt lat="43.0910320000" lon="-0.9842470000"><ele>1031</ele><time>2026-04-26T10:54:45Z</time></trkpt>
<trkpt lat="43.0910450000" lon="-0.9842870000"><ele>1031</ele><time>2026-04-26T10:54:47Z</time></trkpt>
<trkpt lat="43.0910570000" lon="-0.9843120000"><ele>1031</ele><time>2026-04-26T10:54:49Z</time></trkpt>
<trkpt lat="43.0910700000" lon="-0.9843330000"><ele>1031</ele><time>2026-04-26T10:54:51Z</time></trkpt>
<trkpt lat="43.0910820000" lon="-0.9843570000"><ele>1030</ele><time>2026-04-26T10:54:53Z</time></trkpt>
<trkpt lat="43.0910970000" lon="-0.9843870000"><ele>1030</ele><time>2026-04-26T10:54:56Z</time></trkpt>
<trkpt lat="43.0911120000" lon="-0.9844170000"><ele>1030</ele><time>2026-04-26T10:54:59Z</time></trkpt>
<trkpt lat="43.0911220000" lon="-0.9844500000"><ele>1030</ele><time>2026-04-26T10:55:02Z</time></trkpt>
<trkpt lat="43.0911300000" lon="-0.9844820000"><ele>1030</ele><time>2026-04-26T10:55:05Z</time></trkpt>
<trkpt lat="43.0911420000" lon="-0.9845170000"><ele>1029</ele><time>2026-04-26T10:55:08Z</time></trkpt>
<trkpt lat="43.0911570000" lon="-0.9845420000"><ele>1029</ele><time>2026-04-26T10:55:10Z</time></trkpt>
<trkpt lat="43.0911650000" lon="-0.9845670000"><ele>1029</ele><time>2026-04-26T10:55:12Z</time></trkpt>
<trkpt lat="43.0911770000" lon="-0.9845870000"><ele>1029</ele><time>2026-04-26T10:55:14Z</time></trkpt>
<trkpt lat="43.0911900000" lon="-0.9846070000"><ele>1029</ele><time>2026-04-26T10:55:16Z</time></trkpt>
<trkpt lat="43.0912020000" lon="-0.9846300000"><ele>1028</ele><time>2026-04-26T10:55:18Z</time></trkpt>
<trkpt lat="43.0912120000" lon="-0.9846570000"><ele>1028</ele><time>2026-04-26T10:55:20Z</time></trkpt>
<trkpt lat="43.0912220000" lon="-0.9846800000"><ele>1028</ele><time>2026-04-26T10:55:22Z</time></trkpt>
<trkpt lat="43.0912320000" lon="-0.9847020000"><ele>1028</ele><time>2026-04-26T10:55:24Z</time></trkpt>
<trkpt lat="43.0912420000" lon="-0.9847270000"><ele>1028</ele><time>2026-04-26T10:55:26Z</time></trkpt>
<trkpt lat="43.0912470000" lon="-0.9847500000"><ele>1028</ele><time>2026-04-26T10:55:28Z</time></trkpt>
<trkpt lat="43.0912520000" lon="-0.9847750000"><ele>1027</ele><time>2026-04-26T10:55:30Z</time></trkpt>
<trkpt lat="43.0912720000" lon="-0.9847970000"><ele>1027</ele><time>2026-04-26T10:55:33Z</time></trkpt>
<trkpt lat="43.0912850000" lon="-0.9848150000"><ele>1027</ele><time>2026-04-26T10:55:35Z</time></trkpt>
<trkpt lat="43.0912950000" lon="-0.9848370000"><ele>1027</ele><time>2026-04-26T10:55:37Z</time></trkpt>
<trkpt lat="43.0913050000" lon="-0.9848670000"><ele>1026</ele><time>2026-04-26T10:55:40Z</time></trkpt>
<trkpt lat="43.0913120000" lon="-0.9848920000"><ele>1026</ele><time>2026-04-26T10:55:42Z</time></trkpt>
<trkpt lat="43.0913170000" lon="-0.9849170000"><ele>1026</ele><time>2026-04-26T10:55:44Z</time></trkpt>
<trkpt lat="43.0913250000" lon="-0.9849420000"><ele>1025</ele><time>2026-04-26T10:55:46Z</time></trkpt>
<trkpt lat="43.0913350000" lon="-0.9849630000"><ele>1025</ele><time>2026-04-26T10:55:48Z</time></trkpt>
<trkpt lat="43.0913480000" lon="-0.9849800000"><ele>1025</ele><time>2026-04-26T10:55:50Z</time></trkpt>
<trkpt lat="43.0913650000" lon="-0.9849950000"><ele>1024</ele><time>2026-04-26T10:55:52Z</time></trkpt>
<trkpt lat="43.0913820000" lon="-0.9850070000"><ele>1024</ele><time>2026-04-26T10:55:54Z</time></trkpt>
<trkpt lat="43.0913950000" lon="-0.9850270000"><ele>1024</ele><time>2026-04-26T10:55:56Z</time></trkpt>
<trkpt lat="43.0914020000" lon="-0.9850520000"><ele>1024</ele><time>2026-04-26T10:55:58Z</time></trkpt>
<trkpt lat="43.0914050000" lon="-0.9850820000"><ele>1024</ele><time>2026-04-26T10:56:00Z</time></trkpt>
<trkpt lat="43.0914100000" lon="-0.9851070000"><ele>1024</ele><time>2026-04-26T10:56:02Z</time></trkpt>
<trkpt lat="43.0914220000" lon="-0.9851320000"><ele>1023</ele><time>2026-04-26T10:56:04Z</time></trkpt>
<trkpt lat="43.0914370000" lon="-0.9851550000"><ele>1023</ele><time>2026-04-26T10:56:06Z</time></trkpt>
<trkpt lat="43.0914450000" lon="-0.9851820000"><ele>1023</ele><time>2026-04-26T10:56:08Z</time></trkpt>
<trkpt lat="43.0914570000" lon="-0.9852020000"><ele>1023</ele><time>2026-04-26T10:56:10Z</time></trkpt>
<trkpt lat="43.0914670000" lon="-0.9852250000"><ele>1022</ele><time>2026-04-26T10:56:12Z</time></trkpt>
<trkpt lat="43.0914750000" lon="-0.9852470000"><ele>1022</ele><time>2026-04-26T10:56:14Z</time></trkpt>
<trkpt lat="43.0914850000" lon="-0.9852700000"><ele>1022</ele><time>2026-04-26T10:56:16Z</time></trkpt>
<trkpt lat="43.0914920000" lon="-0.9852970000"><ele>1022</ele><time>2026-04-26T10:56:18Z</time></trkpt>
<trkpt lat="43.0915020000" lon="-0.9853300000"><ele>1021</ele><time>2026-04-26T10:56:21Z</time></trkpt>
<trkpt lat="43.0915070000" lon="-0.9853570000"><ele>1021</ele><time>2026-04-26T10:56:23Z</time></trkpt>
<trkpt lat="43.0915170000" lon="-0.9853820000"><ele>1021</ele><time>2026-04-26T10:56:25Z</time></trkpt>
<trkpt lat="43.0915220000" lon="-0.9854070000"><ele>1020</ele><time>2026-04-26T10:56:27Z</time></trkpt>
<trkpt lat="43.0915250000" lon="-0.9854320000"><ele>1020</ele><time>2026-04-26T10:56:29Z</time></trkpt>
<trkpt lat="43.0915320000" lon="-0.9854570000"><ele>1020</ele><time>2026-04-26T10:56:31Z</time></trkpt>
<trkpt lat="43.0915420000" lon="-0.9854820000"><ele>1019</ele><time>2026-04-26T10:56:33Z</time></trkpt>
<trkpt lat="43.0915520000" lon="-0.9855030000"><ele>1019</ele><time>2026-04-26T10:56:36Z</time></trkpt>
<trkpt lat="43.0915570000" lon="-0.9855320000"><ele>1018</ele><time>2026-04-26T10:56:40Z</time></trkpt>
<trkpt lat="43.0915700000" lon="-0.9855570000"><ele>1018</ele><time>2026-04-26T10:56:42Z</time></trkpt>
<trkpt lat="43.0915770000" lon="-0.9855820000"><ele>1018</ele><time>2026-04-26T10:56:44Z</time></trkpt>
<trkpt lat="43.0915820000" lon="-0.9856070000"><ele>1017</ele><time>2026-04-26T10:56:46Z</time></trkpt>
<trkpt lat="43.0915970000" lon="-0.9856380000"><ele>1017</ele><time>2026-04-26T10:56:49Z</time></trkpt>
<trkpt lat="43.0916050000" lon="-0.9856650000"><ele>1017</ele><time>2026-04-26T10:56:51Z</time></trkpt>
<trkpt lat="43.0916150000" lon="-0.9857000000"><ele>1016</ele><time>2026-04-26T10:56:54Z</time></trkpt>
<trkpt lat="43.0916170000" lon="-0.9857270000"><ele>1016</ele><time>2026-04-26T10:56:56Z</time></trkpt>
<trkpt lat="43.0916170000" lon="-0.9857550000"><ele>1015</ele><time>2026-04-26T10:56:58Z</time></trkpt>
<trkpt lat="43.0916220000" lon="-0.9857820000"><ele>1015</ele><time>2026-04-26T10:57:00Z</time></trkpt>
<trkpt lat="43.0916250000" lon="-0.9858100000"><ele>1015</ele><time>2026-04-26T10:57:02Z</time></trkpt>
<trkpt lat="43.0916300000" lon="-0.9858450000"><ele>1014</ele><time>2026-04-26T10:57:05Z</time></trkpt>
<trkpt lat="43.0916270000" lon="-0.9858720000"><ele>1014</ele><time>2026-04-26T10:57:07Z</time></trkpt>
<trkpt lat="43.0916250000" lon="-0.9859000000"><ele>1013</ele><time>2026-04-26T10:57:09Z</time></trkpt>
<trkpt lat="43.0916250000" lon="-0.9859320000"><ele>1013</ele><time>2026-04-26T10:57:11Z</time></trkpt>
<trkpt lat="43.0916270000" lon="-0.9859600000"><ele>1013</ele><time>2026-04-26T10:57:13Z</time></trkpt>
<trkpt lat="43.0916300000" lon="-0.9859870000"><ele>1013</ele><time>2026-04-26T10:57:15Z</time></trkpt>
<trkpt lat="43.0916370000" lon="-0.9860220000"><ele>1012</ele><time>2026-04-26T10:57:18Z</time></trkpt>
<trkpt lat="43.0916420000" lon="-0.9860470000"><ele>1012</ele><time>2026-04-26T10:57:20Z</time></trkpt>
<trkpt lat="43.0916520000" lon="-0.9860750000"><ele>1012</ele><time>2026-04-26T10:57:22Z</time></trkpt>
<trkpt lat="43.0916670000" lon="-0.9860970000"><ele>1011</ele><time>2026-04-26T10:57:24Z</time></trkpt>
<trkpt lat="43.0916800000" lon="-0.9861170000"><ele>1011</ele><time>2026-04-26T10:57:26Z</time></trkpt>
<trkpt lat="43.0916970000" lon="-0.9861320000"><ele>1010</ele><time>2026-04-26T10:57:31Z</time></trkpt>
<trkpt lat="43.0917170000" lon="-0.9861420000"><ele>1009</ele><time>2026-04-26T10:57:34Z</time></trkpt>
<trkpt lat="43.0917270000" lon="-0.9861750000"><ele>1009</ele><time>2026-04-26T10:57:37Z</time></trkpt>
<trkpt lat="43.0917370000" lon="-0.9862020000"><ele>1009</ele><time>2026-04-26T10:57:40Z</time></trkpt>
<trkpt lat="43.0917450000" lon="-0.9862320000"><ele>1008</ele><time>2026-04-26T10:57:43Z</time></trkpt>
<trkpt lat="43.0917520000" lon="-0.9862570000"><ele>1008</ele><time>2026-04-26T10:57:45Z</time></trkpt>
<trkpt lat="43.0917600000" lon="-0.9862820000"><ele>1008</ele><time>2026-04-26T10:57:47Z</time></trkpt>
<trkpt lat="43.0917700000" lon="-0.9863070000"><ele>1007</ele><time>2026-04-26T10:57:49Z</time></trkpt>
<trkpt lat="43.0917770000" lon="-0.9863400000"><ele>1006</ele><time>2026-04-26T10:57:52Z</time></trkpt>
<trkpt lat="43.0917820000" lon="-0.9863700000"><ele>1005</ele><time>2026-04-26T10:57:55Z</time></trkpt>
<trkpt lat="43.0917900000" lon="-0.9864000000"><ele>1005</ele><time>2026-04-26T10:57:58Z</time></trkpt>
<trkpt lat="43.0918020000" lon="-0.9864270000"><ele>1004</ele><time>2026-04-26T10:58:01Z</time></trkpt>
<trkpt lat="43.0918120000" lon="-0.9864550000"><ele>1004</ele><time>2026-04-26T10:58:04Z</time></trkpt>
<trkpt lat="43.0918300000" lon="-0.9864770000"><ele>1003</ele><time>2026-04-26T10:58:08Z</time></trkpt>
<trkpt lat="43.0918320000" lon="-0.9865080000"><ele>1003</ele><time>2026-04-26T10:58:11Z</time></trkpt>
<trkpt lat="43.0918370000" lon="-0.9865370000"><ele>1002</ele><time>2026-04-26T10:58:14Z</time></trkpt>
<trkpt lat="43.0918420000" lon="-0.9865670000"><ele>1002</ele><time>2026-04-26T10:58:19Z</time></trkpt>
<trkpt lat="43.0918520000" lon="-0.9865900000"><ele>1001</ele><time>2026-04-26T10:58:21Z</time></trkpt>
<trkpt lat="43.0918620000" lon="-0.9866200000"><ele>1001</ele><time>2026-04-26T10:58:25Z</time></trkpt>
<trkpt lat="43.0918700000" lon="-0.9866550000"><ele>1001</ele><time>2026-04-26T10:58:28Z</time></trkpt>
<trkpt lat="43.0918720000" lon="-0.9866850000"><ele>1000</ele><time>2026-04-26T10:58:30Z</time></trkpt>
<trkpt lat="43.0918720000" lon="-0.9867170000"><ele>1000</ele><time>2026-04-26T10:58:33Z</time></trkpt>
<trkpt lat="43.0919020000" lon="-0.9867000000"><ele>999</ele><time>2026-04-26T10:58:36Z</time></trkpt>
<trkpt lat="43.0919220000" lon="-0.9866970000"><ele>998</ele><time>2026-04-26T10:58:39Z</time></trkpt>
<trkpt lat="43.0919300000" lon="-0.9867220000"><ele>997</ele><time>2026-04-26T10:58:42Z</time></trkpt>
<trkpt lat="43.0919370000" lon="-0.9867550000"><ele>995</ele><time>2026-04-26T10:59:19Z</time></trkpt>
<trkpt lat="43.0919400000" lon="-0.9867870000"><ele>995</ele><time>2026-04-26T10:59:21Z</time></trkpt>
<trkpt lat="43.0919470000" lon="-0.9868200000"><ele>995</ele><time>2026-04-26T10:59:23Z</time></trkpt>
<trkpt lat="43.0919500000" lon="-0.9868430000"><ele>995</ele><time>2026-04-26T10:59:25Z</time></trkpt>
<trkpt lat="43.0919570000" lon="-0.9868770000"><ele>995</ele><time>2026-04-26T10:59:28Z</time></trkpt>
<trkpt lat="43.0919670000" lon="-0.9868970000"><ele>994</ele><time>2026-04-26T10:59:32Z</time></trkpt>
<trkpt lat="43.0919820000" lon="-0.9869220000"><ele>993</ele><time>2026-04-26T10:59:36Z</time></trkpt>
<trkpt lat="43.0919870000" lon="-0.9869520000"><ele>992</ele><time>2026-04-26T10:59:40Z</time></trkpt>
<trkpt lat="43.0919920000" lon="-0.9869820000"><ele>992</ele><time>2026-04-26T10:59:44Z</time></trkpt>
<trkpt lat="43.0919900000" lon="-0.9870120000"><ele>989</ele><time>2026-04-26T11:00:05Z</time></trkpt>
<trkpt lat="43.0919970000" lon="-0.9870450000"><ele>989</ele><time>2026-04-26T11:00:07Z</time></trkpt>
<trkpt lat="43.0920070000" lon="-0.9870800000"><ele>989</ele><time>2026-04-26T11:00:09Z</time></trkpt>
<trkpt lat="43.0920170000" lon="-0.9871120000"><ele>989</ele><time>2026-04-26T11:00:11Z</time></trkpt>
<trkpt lat="43.0920170000" lon="-0.9871420000"><ele>988</ele><time>2026-04-26T11:00:13Z</time></trkpt>
<trkpt lat="43.0920300000" lon="-0.9871750000"><ele>988</ele><time>2026-04-26T11:00:16Z</time></trkpt>
<trkpt lat="43.0920370000" lon="-0.9872030000"><ele>988</ele><time>2026-04-26T11:00:18Z</time></trkpt>
<trkpt lat="43.0920450000" lon="-0.9872300000"><ele>987</ele><time>2026-04-26T11:00:20Z</time></trkpt>
<trkpt lat="43.0920520000" lon="-0.9872620000"><ele>986</ele><time>2026-04-26T11:00:23Z</time></trkpt>
<trkpt lat="43.0920600000" lon="-0.9872920000"><ele>986</ele><time>2026-04-26T11:00:26Z</time></trkpt>
<trkpt lat="43.0920620000" lon="-0.9873170000"><ele>985</ele><time>2026-04-26T11:00:28Z</time></trkpt>
<trkpt lat="43.0920670000" lon="-0.9873470000"><ele>985</ele><time>2026-04-26T11:00:31Z</time></trkpt>
<trkpt lat="43.0920800000" lon="-0.9873670000"><ele>984</ele><time>2026-04-26T11:00:35Z</time></trkpt>
<trkpt lat="43.0920850000" lon="-0.9873970000"><ele>984</ele><time>2026-04-26T11:00:39Z</time></trkpt>
<trkpt lat="43.0920920000" lon="-0.9874320000"><ele>983</ele><time>2026-04-26T11:00:42Z</time></trkpt>
<trkpt lat="43.0921070000" lon="-0.9874570000"><ele>983</ele><time>2026-04-26T11:00:45Z</time></trkpt>
<trkpt lat="43.0921120000" lon="-0.9874870000"><ele>982</ele><time>2026-04-26T11:00:49Z</time></trkpt>
<trkpt lat="43.0921170000" lon="-0.9875120000"><ele>982</ele><time>2026-04-26T11:00:51Z</time></trkpt>
<trkpt lat="43.0921150000" lon="-0.9875420000"><ele>981</ele><time>2026-04-26T11:00:55Z</time></trkpt>
<trkpt lat="43.0921270000" lon="-0.9875620000"><ele>979</ele><time>2026-04-26T11:01:06Z</time></trkpt>
<trkpt lat="43.0921320000" lon="-0.9875880000"><ele>979</ele><time>2026-04-26T11:01:14Z</time></trkpt>
<trkpt lat="43.0921320000" lon="-0.9876150000"><ele>978</ele><time>2026-04-26T11:01:24Z</time></trkpt>
<trkpt lat="43.0921300000" lon="-0.9876420000"><ele>978</ele><time>2026-04-26T11:01:26Z</time></trkpt>
<trkpt lat="43.0921250000" lon="-0.9876820000"><ele>978</ele><time>2026-04-26T11:01:28Z</time></trkpt>
<trkpt lat="43.0921220000" lon="-0.9877170000"><ele>978</ele><time>2026-04-26T11:01:30Z</time></trkpt>
<trkpt lat="43.0921220000" lon="-0.9877500000"><ele>977</ele><time>2026-04-26T11:01:33Z</time></trkpt>
<trkpt lat="43.0921250000" lon="-0.9877750000"><ele>977</ele><time>2026-04-26T11:01:35Z</time></trkpt>
<trkpt lat="43.0921250000" lon="-0.9878020000"><ele>977</ele><time>2026-04-26T11:01:37Z</time></trkpt>
<trkpt lat="43.0921170000" lon="-0.9878320000"><ele>976</ele><time>2026-04-26T11:01:40Z</time></trkpt>
<trkpt lat="43.0921080000" lon="-0.9878620000"><ele>976</ele><time>2026-04-26T11:01:43Z</time></trkpt>
<trkpt lat="43.0921150000" lon="-0.9878900000"><ele>976</ele><time>2026-04-26T11:01:46Z</time></trkpt>
<trkpt lat="43.0921070000" lon="-0.9879220000"><ele>975</ele><time>2026-04-26T11:01:49Z</time></trkpt>
<trkpt lat="43.0921000000" lon="-0.9879550000"><ele>975</ele><time>2026-04-26T11:01:52Z</time></trkpt>
<trkpt lat="43.0920870000" lon="-0.9879750000"><ele>974</ele><time>2026-04-26T11:01:54Z</time></trkpt>
<trkpt lat="43.0920820000" lon="-0.9879970000"><ele>974</ele><time>2026-04-26T11:01:56Z</time></trkpt>
<trkpt lat="43.0920800000" lon="-0.9880320000"><ele>974</ele><time>2026-04-26T11:01:59Z</time></trkpt>
<trkpt lat="43.0920720000" lon="-0.9880570000"><ele>973</ele><time>2026-04-26T11:02:01Z</time></trkpt>
<trkpt lat="43.0920620000" lon="-0.9880900000"><ele>973</ele><time>2026-04-26T11:02:04Z</time></trkpt>
<trkpt lat="43.0920470000" lon="-0.9881120000"><ele>972</ele><time>2026-04-26T11:02:07Z</time></trkpt>
<trkpt lat="43.0920420000" lon="-0.9881420000"><ele>971</ele><time>2026-04-26T11:02:10Z</time></trkpt>
<trkpt lat="43.0920320000" lon="-0.9881670000"><ele>971</ele><time>2026-04-26T11:02:14Z</time></trkpt>
<trkpt lat="43.0920170000" lon="-0.9881870000"><ele>970</ele><time>2026-04-26T11:02:16Z</time></trkpt>
<trkpt lat="43.0920020000" lon="-0.9882050000"><ele>970</ele><time>2026-04-26T11:02:18Z</time></trkpt>
<trkpt lat="43.0919850000" lon="-0.9882170000"><ele>970</ele><time>2026-04-26T11:02:20Z</time></trkpt>
<trkpt lat="43.0919720000" lon="-0.9882420000"><ele>969</ele><time>2026-04-26T11:02:24Z</time></trkpt>
<trkpt lat="43.0919870000" lon="-0.9882620000"><ele>969</ele><time>2026-04-26T11:02:28Z</time></trkpt>
<trkpt lat="43.0919720000" lon="-0.9882770000"><ele>968</ele><time>2026-04-26T11:02:32Z</time></trkpt>
<trkpt lat="43.0919600000" lon="-0.9882950000"><ele>968</ele><time>2026-04-26T11:02:34Z</time></trkpt>
<trkpt lat="43.0919470000" lon="-0.9883170000"><ele>968</ele><time>2026-04-26T11:02:36Z</time></trkpt>
<trkpt lat="43.0919420000" lon="-0.9883480000"><ele>967</ele><time>2026-04-26T11:02:39Z</time></trkpt>
<trkpt lat="43.0919620000" lon="-0.9883680000"><ele>967</ele><time>2026-04-26T11:03:00Z</time></trkpt>
<trkpt lat="43.0919700000" lon="-0.9884070000"><ele>967</ele><time>2026-04-26T11:03:02Z</time></trkpt>
<trkpt lat="43.0919750000" lon="-0.9884470000"><ele>966</ele><time>2026-04-26T11:03:04Z</time></trkpt>
<trkpt lat="43.0919800000" lon="-0.9884770000"><ele>966</ele><time>2026-04-26T11:03:06Z</time></trkpt>
<trkpt lat="43.0919900000" lon="-0.9885020000"><ele>966</ele><time>2026-04-26T11:03:08Z</time></trkpt>
<trkpt lat="43.0920020000" lon="-0.9885220000"><ele>965</ele><time>2026-04-26T11:03:10Z</time></trkpt>
<trkpt lat="43.0920170000" lon="-0.9885450000"><ele>965</ele><time>2026-04-26T11:03:12Z</time></trkpt>
<trkpt lat="43.0920350000" lon="-0.9885700000"><ele>965</ele><time>2026-04-26T11:03:14Z</time></trkpt>
<trkpt lat="43.0920470000" lon="-0.9885870000"><ele>964</ele><time>2026-04-26T11:03:16Z</time></trkpt>
<trkpt lat="43.0920600000" lon="-0.9886120000"><ele>964</ele><time>2026-04-26T11:03:18Z</time></trkpt>
<trkpt lat="43.0920770000" lon="-0.9886270000"><ele>964</ele><time>2026-04-26T11:03:20Z</time></trkpt>
<trkpt lat="43.0920970000" lon="-0.9886520000"><ele>964</ele><time>2026-04-26T11:03:23Z</time></trkpt>
<trkpt lat="43.0921200000" lon="-0.9886670000"><ele>963</ele><time>2026-04-26T11:03:27Z</time></trkpt>
<trkpt lat="43.0921370000" lon="-0.9886770000"><ele>963</ele><time>2026-04-26T11:03:30Z</time></trkpt>
<trkpt lat="43.0921520000" lon="-0.9886620000"><ele>963</ele><time>2026-04-26T11:03:32Z</time></trkpt>
<trkpt lat="43.0921720000" lon="-0.9886720000"><ele>963</ele><time>2026-04-26T11:03:34Z</time></trkpt>
<trkpt lat="43.0921870000" lon="-0.9886870000"><ele>963</ele><time>2026-04-26T11:03:36Z</time></trkpt>
<trkpt lat="43.0922070000" lon="-0.9886920000"><ele>962</ele><time>2026-04-26T11:03:38Z</time></trkpt>
<trkpt lat="43.0922170000" lon="-0.9886700000"><ele>961</ele><time>2026-04-26T11:03:43Z</time></trkpt>
<trkpt lat="43.0922270000" lon="-0.9887020000"><ele>960</ele><time>2026-04-26T11:04:27Z</time></trkpt>
<trkpt lat="43.0922350000" lon="-0.9887450000"><ele>960</ele><time>2026-04-26T11:04:29Z</time></trkpt>
<trkpt lat="43.0922320000" lon="-0.9887820000"><ele>959</ele><time>2026-04-26T11:04:31Z</time></trkpt>
<trkpt lat="43.0922320000" lon="-0.9888120000"><ele>959</ele><time>2026-04-26T11:04:33Z</time></trkpt>
<trkpt lat="43.0922300000" lon="-0.9888400000"><ele>958</ele><time>2026-04-26T11:04:35Z</time></trkpt>
<trkpt lat="43.0922250000" lon="-0.9888750000"><ele>958</ele><time>2026-04-26T11:04:38Z</time></trkpt>
<trkpt lat="43.0922420000" lon="-0.9888950000"><ele>957</ele><time>2026-04-26T11:04:41Z</time></trkpt>
<trkpt lat="43.0922620000" lon="-0.9889070000"><ele>957</ele><time>2026-04-26T11:04:44Z</time></trkpt>
<trkpt lat="43.0922700000" lon="-0.9889320000"><ele>956</ele><time>2026-04-26T11:04:46Z</time></trkpt>
<trkpt lat="43.0922620000" lon="-0.9889580000"><ele>956</ele><time>2026-04-26T11:04:48Z</time></trkpt>
<trkpt lat="43.0922570000" lon="-0.9889920000"><ele>956</ele><time>2026-04-26T11:04:50Z</time></trkpt>
<trkpt lat="43.0922570000" lon="-0.9890220000"><ele>955</ele><time>2026-04-26T11:04:52Z</time></trkpt>
<trkpt lat="43.0922570000" lon="-0.9890570000"><ele>955</ele><time>2026-04-26T11:04:55Z</time></trkpt>
<trkpt lat="43.0922570000" lon="-0.9890930000"><ele>954</ele><time>2026-04-26T11:04:58Z</time></trkpt>
<trkpt lat="43.0922570000" lon="-0.9891220000"><ele>954</ele><time>2026-04-26T11:05:00Z</time></trkpt>
<trkpt lat="43.0922470000" lon="-0.9891570000"><ele>953</ele><time>2026-04-26T11:05:03Z</time></trkpt>
<trkpt lat="43.0922420000" lon="-0.9891870000"><ele>953</ele><time>2026-04-26T11:05:06Z</time></trkpt>
<trkpt lat="43.0922270000" lon="-0.9892120000"><ele>952</ele><time>2026-04-26T11:05:10Z</time></trkpt>
<trkpt lat="43.0922070000" lon="-0.9892300000"><ele>952</ele><time>2026-04-26T11:05:13Z</time></trkpt>
<trkpt lat="43.0921870000" lon="-0.9892420000"><ele>952</ele><time>2026-04-26T11:05:16Z</time></trkpt>
<trkpt lat="43.0921700000" lon="-0.9892550000"><ele>951</ele><time>2026-04-26T11:05:18Z</time></trkpt>
<trkpt lat="43.0921570000" lon="-0.9892770000"><ele>951</ele><time>2026-04-26T11:05:20Z</time></trkpt>
<trkpt lat="43.0921550000" lon="-0.9893020000"><ele>951</ele><time>2026-04-26T11:05:22Z</time></trkpt>
<trkpt lat="43.0921670000" lon="-0.9893330000"><ele>951</ele><time>2026-04-26T11:05:25Z</time></trkpt>
<trkpt lat="43.0921520000" lon="-0.9893670000"><ele>951</ele><time>2026-04-26T11:05:28Z</time></trkpt>
<trkpt lat="43.0921320000" lon="-0.9893830000"><ele>950</ele><time>2026-04-26T11:05:31Z</time></trkpt>
<trkpt lat="43.0921150000" lon="-0.9893900000"><ele>950</ele><time>2026-04-26T11:05:33Z</time></trkpt>
<trkpt lat="43.0920970000" lon="-0.9894020000"><ele>949</ele><time>2026-04-26T11:05:35Z</time></trkpt>
<trkpt lat="43.0920870000" lon="-0.9894270000"><ele>949</ele><time>2026-04-26T11:05:37Z</time></trkpt>
<trkpt lat="43.0920900000" lon="-0.9894520000"><ele>949</ele><time>2026-04-26T11:05:39Z</time></trkpt>
<trkpt lat="43.0920870000" lon="-0.9894800000"><ele>948</ele><time>2026-04-26T11:05:41Z</time></trkpt>
<trkpt lat="43.0920970000" lon="-0.9895070000"><ele>948</ele><time>2026-04-26T11:05:43Z</time></trkpt>
<trkpt lat="43.0920770000" lon="-0.9895020000"><ele>947</ele><time>2026-04-26T11:05:51Z</time></trkpt>
<trkpt lat="43.0920670000" lon="-0.9895250000"><ele>945</ele><time>2026-04-26T11:06:53Z</time></trkpt>
<trkpt lat="43.0920800000" lon="-0.9895670000"><ele>944</ele><time>2026-04-26T11:06:55Z</time></trkpt>
<trkpt lat="43.0920850000" lon="-0.9895920000"><ele>944</ele><time>2026-04-26T11:06:56Z</time></trkpt>
<trkpt lat="43.0920920000" lon="-0.9896350000"><ele>944</ele><time>2026-04-26T11:06:58Z</time></trkpt>
<trkpt lat="43.0920970000" lon="-0.9896670000"><ele>944</ele><time>2026-04-26T11:07:00Z</time></trkpt>
<trkpt lat="43.0921000000" lon="-0.9896970000"><ele>944</ele><time>2026-04-26T11:07:02Z</time></trkpt>
<trkpt lat="43.0920970000" lon="-0.9897220000"><ele>944</ele><time>2026-04-26T11:07:04Z</time></trkpt>
<trkpt lat="43.0921070000" lon="-0.9897450000"><ele>942</ele><time>2026-04-26T11:07:25Z</time></trkpt>
<trkpt lat="43.0921120000" lon="-0.9897800000"><ele>942</ele><time>2026-04-26T11:07:27Z</time></trkpt>
<trkpt lat="43.0921080000" lon="-0.9898220000"><ele>942</ele><time>2026-04-26T11:07:29Z</time></trkpt>
<trkpt lat="43.0921080000" lon="-0.9898620000"><ele>942</ele><time>2026-04-26T11:07:31Z</time></trkpt>
<trkpt lat="43.0921120000" lon="-0.9898930000"><ele>942</ele><time>2026-04-26T11:07:33Z</time></trkpt>
<trkpt lat="43.0921220000" lon="-0.9899220000"><ele>941</ele><time>2026-04-26T11:07:35Z</time></trkpt>
<trkpt lat="43.0921320000" lon="-0.9899470000"><ele>941</ele><time>2026-04-26T11:07:37Z</time></trkpt>
<trkpt lat="43.0921400000" lon="-0.9899720000"><ele>940</ele><time>2026-04-26T11:07:40Z</time></trkpt>
<trkpt lat="43.0921450000" lon="-0.9899970000"><ele>940</ele><time>2026-04-26T11:07:42Z</time></trkpt>
<trkpt lat="43.0921550000" lon="-0.9900280000"><ele>939</ele><time>2026-04-26T11:07:45Z</time></trkpt>
<trkpt lat="43.0921620000" lon="-0.9900570000"><ele>939</ele><time>2026-04-26T11:07:47Z</time></trkpt>
<trkpt lat="43.0921700000" lon="-0.9900780000"><ele>939</ele><time>2026-04-26T11:07:49Z</time></trkpt>
<trkpt lat="43.0921750000" lon="-0.9901120000"><ele>938</ele><time>2026-04-26T11:07:52Z</time></trkpt>
<trkpt lat="43.0921720000" lon="-0.9901420000"><ele>937</ele><time>2026-04-26T11:07:54Z</time></trkpt>
<trkpt lat="43.0921700000" lon="-0.9901720000"><ele>937</ele><time>2026-04-26T11:07:56Z</time></trkpt>
<trkpt lat="43.0921700000" lon="-0.9901970000"><ele>936</ele><time>2026-04-26T11:07:58Z</time></trkpt>
<trkpt lat="43.0921720000" lon="-0.9902250000"><ele>936</ele><time>2026-04-26T11:08:00Z</time></trkpt>
<trkpt lat="43.0921650000" lon="-0.9902570000"><ele>935</ele><time>2026-04-26T11:08:03Z</time></trkpt>
<trkpt lat="43.0921600000" lon="-0.9902850000"><ele>935</ele><time>2026-04-26T11:08:05Z</time></trkpt>
<trkpt lat="43.0921470000" lon="-0.9903170000"><ele>934</ele><time>2026-04-26T11:08:08Z</time></trkpt>
<trkpt lat="43.0921420000" lon="-0.9903400000"><ele>933</ele><time>2026-04-26T11:08:10Z</time></trkpt>
<trkpt lat="43.0921520000" lon="-0.9903720000"><ele>933</ele><time>2026-04-26T11:08:13Z</time></trkpt>
<trkpt lat="43.0921650000" lon="-0.9903970000"><ele>932</ele><time>2026-04-26T11:08:16Z</time></trkpt>
<trkpt lat="43.0921670000" lon="-0.9904250000"><ele>932</ele><time>2026-04-26T11:08:18Z</time></trkpt>
<trkpt lat="43.0921820000" lon="-0.9904520000"><ele>931</ele><time>2026-04-26T11:08:21Z</time></trkpt>
<trkpt lat="43.0921770000" lon="-0.9904830000"><ele>931</ele><time>2026-04-26T11:08:25Z</time></trkpt>
<trkpt lat="43.0921820000" lon="-0.9905150000"><ele>930</ele><time>2026-04-26T11:08:28Z</time></trkpt>
<trkpt lat="43.0921770000" lon="-0.9905420000"><ele>930</ele><time>2026-04-26T11:08:31Z</time></trkpt>
<trkpt lat="43.0921770000" lon="-0.9905670000"><ele>930</ele><time>2026-04-26T11:08:33Z</time></trkpt>
<trkpt lat="43.0921850000" lon="-0.9905920000"><ele>929</ele><time>2026-04-26T11:08:35Z</time></trkpt>
<trkpt lat="43.0921900000" lon="-0.9906170000"><ele>929</ele><time>2026-04-26T11:08:37Z</time></trkpt>
<trkpt lat="43.0921970000" lon="-0.9906420000"><ele>929</ele><time>2026-04-26T11:08:39Z</time></trkpt>
<trkpt lat="43.0922000000" lon="-0.9906770000"><ele>928</ele><time>2026-04-26T11:08:41Z</time></trkpt>
<trkpt lat="43.0921970000" lon="-0.9907030000"><ele>928</ele><time>2026-04-26T11:08:43Z</time></trkpt>
<trkpt lat="43.0921920000" lon="-0.9907350000"><ele>927</ele><time>2026-04-26T11:08:45Z</time></trkpt>
<trkpt lat="43.0921920000" lon="-0.9907600000"><ele>927</ele><time>2026-04-26T11:08:47Z</time></trkpt>
<trkpt lat="43.0921920000" lon="-0.9907930000"><ele>926</ele><time>2026-04-26T11:08:50Z</time></trkpt>
<trkpt lat="43.0921870000" lon="-0.9908300000"><ele>926</ele><time>2026-04-26T11:08:53Z</time></trkpt>
<trkpt lat="43.0921870000" lon="-0.9908580000"><ele>925</ele><time>2026-04-26T11:08:55Z</time></trkpt>
<trkpt lat="43.0921920000" lon="-0.9908870000"><ele>925</ele><time>2026-04-26T11:08:57Z</time></trkpt>
<trkpt lat="43.0922020000" lon="-0.9909120000"><ele>924</ele><time>2026-04-26T11:08:59Z</time></trkpt>
<trkpt lat="43.0922120000" lon="-0.9909320000"><ele>924</ele><time>2026-04-26T11:09:01Z</time></trkpt>
<trkpt lat="43.0922300000" lon="-0.9909650000"><ele>923</ele><time>2026-04-26T11:09:04Z</time></trkpt>
<trkpt lat="43.0922420000" lon="-0.9909820000"><ele>923</ele><time>2026-04-26T11:09:06Z</time></trkpt>
<trkpt lat="43.0922600000" lon="-0.9910020000"><ele>923</ele><time>2026-04-26T11:09:08Z</time></trkpt>
<trkpt lat="43.0922820000" lon="-0.9910270000"><ele>922</ele><time>2026-04-26T11:09:11Z</time></trkpt>
<trkpt lat="43.0922970000" lon="-0.9910500000"><ele>921</ele><time>2026-04-26T11:09:14Z</time></trkpt>
<trkpt lat="43.0923070000" lon="-0.9910820000"><ele>921</ele><time>2026-04-26T11:09:17Z</time></trkpt>
<trkpt lat="43.0923020000" lon="-0.9911070000"><ele>921</ele><time>2026-04-26T11:09:19Z</time></trkpt>
<trkpt lat="43.0923050000" lon="-0.9911370000"><ele>920</ele><time>2026-04-26T11:09:21Z</time></trkpt>
<trkpt lat="43.0923050000" lon="-0.9911620000"><ele>920</ele><time>2026-04-26T11:09:23Z</time></trkpt>
<trkpt lat="43.0923070000" lon="-0.9911920000"><ele>920</ele><time>2026-04-26T11:09:25Z</time></trkpt>
<trkpt lat="43.0923100000" lon="-0.9912180000"><ele>920</ele><time>2026-04-26T11:09:27Z</time></trkpt>
<trkpt lat="43.0923120000" lon="-0.9912570000"><ele>919</ele><time>2026-04-26T11:09:30Z</time></trkpt>
<trkpt lat="43.0923120000" lon="-0.9912820000"><ele>919</ele><time>2026-04-26T11:09:32Z</time></trkpt>
<trkpt lat="43.0922970000" lon="-0.9913120000"><ele>918</ele><time>2026-04-26T11:09:35Z</time></trkpt>
<trkpt lat="43.0922870000" lon="-0.9913320000"><ele>918</ele><time>2026-04-26T11:09:37Z</time></trkpt>
<trkpt lat="43.0922800000" lon="-0.9913570000"><ele>917</ele><time>2026-04-26T11:09:39Z</time></trkpt>
<trkpt lat="43.0922720000" lon="-0.9913820000"><ele>917</ele><time>2026-04-26T11:09:41Z</time></trkpt>
<trkpt lat="43.0922620000" lon="-0.9914150000"><ele>917</ele><time>2026-04-26T11:09:44Z</time></trkpt>
<trkpt lat="43.0922550000" lon="-0.9914400000"><ele>916</ele><time>2026-04-26T11:09:46Z</time></trkpt>
<trkpt lat="43.0922600000" lon="-0.9914670000"><ele>916</ele><time>2026-04-26T11:09:48Z</time></trkpt>
<trkpt lat="43.0922620000" lon="-0.9914970000"><ele>916</ele><time>2026-04-26T11:09:50Z</time></trkpt>
<trkpt lat="43.0922620000" lon="-0.9915220000"><ele>915</ele><time>2026-04-26T11:09:52Z</time></trkpt>
<trkpt lat="43.0922570000" lon="-0.9915500000"><ele>915</ele><time>2026-04-26T11:09:54Z</time></trkpt>
<trkpt lat="43.0922550000" lon="-0.9915800000"><ele>914</ele><time>2026-04-26T11:09:56Z</time></trkpt>
<trkpt lat="43.0922520000" lon="-0.9916100000"><ele>914</ele><time>2026-04-26T11:09:58Z</time></trkpt>
<trkpt lat="43.0922520000" lon="-0.9916370000"><ele>914</ele><time>2026-04-26T11:10:00Z</time></trkpt>
<trkpt lat="43.0922520000" lon="-0.9916750000"><ele>913</ele><time>2026-04-26T11:10:03Z</time></trkpt>
<trkpt lat="43.0922470000" lon="-0.9917100000"><ele>913</ele><time>2026-04-26T11:10:05Z</time></trkpt>
<trkpt lat="43.0922470000" lon="-0.9917500000"><ele>913</ele><time>2026-04-26T11:10:07Z</time></trkpt>
<trkpt lat="43.0922500000" lon="-0.9917820000"><ele>912</ele><time>2026-04-26T11:10:09Z</time></trkpt>
<trkpt lat="43.0922570000" lon="-0.9918070000"><ele>912</ele><time>2026-04-26T11:10:11Z</time></trkpt>
<trkpt lat="43.0922550000" lon="-0.9918350000"><ele>912</ele><time>2026-04-26T11:10:14Z</time></trkpt>
<trkpt lat="43.0922620000" lon="-0.9918720000"><ele>911</ele><time>2026-04-26T11:10:17Z</time></trkpt>
<trkpt lat="43.0922620000" lon="-0.9919070000"><ele>911</ele><time>2026-04-26T11:10:20Z</time></trkpt>
<trkpt lat="43.0922600000" lon="-0.9919330000"><ele>910</ele><time>2026-04-26T11:10:22Z</time></trkpt>
<trkpt lat="43.0922620000" lon="-0.9919580000"><ele>910</ele><time>2026-04-26T11:10:24Z</time></trkpt>
<trkpt lat="43.0922700000" lon="-0.9919850000"><ele>910</ele><time>2026-04-26T11:10:26Z</time></trkpt>
<trkpt lat="43.0922770000" lon="-0.9920120000"><ele>910</ele><time>2026-04-26T11:10:28Z</time></trkpt>
<trkpt lat="43.0922800000" lon="-0.9920370000"><ele>909</ele><time>2026-04-26T11:10:30Z</time></trkpt>
<trkpt lat="43.0922820000" lon="-0.9920620000"><ele>909</ele><time>2026-04-26T11:10:32Z</time></trkpt>
<trkpt lat="43.0922820000" lon="-0.9920870000"><ele>909</ele><time>2026-04-26T11:10:34Z</time></trkpt>
<trkpt lat="43.0922770000" lon="-0.9921220000"><ele>908</ele><time>2026-04-26T11:10:37Z</time></trkpt>
<trkpt lat="43.0922820000" lon="-0.9921500000"><ele>908</ele><time>2026-04-26T11:10:39Z</time></trkpt>
<trkpt lat="43.0922900000" lon="-0.9921770000"><ele>908</ele><time>2026-04-26T11:10:41Z</time></trkpt>
<trkpt lat="43.0922870000" lon="-0.9922020000"><ele>907</ele><time>2026-04-26T11:10:43Z</time></trkpt>
<trkpt lat="43.0922900000" lon="-0.9922320000"><ele>907</ele><time>2026-04-26T11:10:45Z</time></trkpt>
<trkpt lat="43.0922920000" lon="-0.9922620000"><ele>907</ele><time>2026-04-26T11:10:47Z</time></trkpt>
<trkpt lat="43.0922950000" lon="-0.9922870000"><ele>906</ele><time>2026-04-26T11:10:49Z</time></trkpt>
<trkpt lat="43.0922870000" lon="-0.9923100000"><ele>906</ele><time>2026-04-26T11:10:51Z</time></trkpt>
<trkpt lat="43.0922750000" lon="-0.9923350000"><ele>906</ele><time>2026-04-26T11:10:53Z</time></trkpt>
<trkpt lat="43.0922620000" lon="-0.9923570000"><ele>906</ele><time>2026-04-26T11:10:55Z</time></trkpt>
<trkpt lat="43.0922520000" lon="-0.9923820000"><ele>906</ele><time>2026-04-26T11:10:57Z</time></trkpt>
<trkpt lat="43.0922470000" lon="-0.9924100000"><ele>905</ele><time>2026-04-26T11:10:59Z</time></trkpt>
<trkpt lat="43.0922420000" lon="-0.9924370000"><ele>905</ele><time>2026-04-26T11:11:01Z</time></trkpt>
<trkpt lat="43.0922320000" lon="-0.9924650000"><ele>905</ele><time>2026-04-26T11:11:03Z</time></trkpt>
<trkpt lat="43.0922270000" lon="-0.9924920000"><ele>905</ele><time>2026-04-26T11:11:05Z</time></trkpt>
<trkpt lat="43.0922220000" lon="-0.9925170000"><ele>905</ele><time>2026-04-26T11:11:07Z</time></trkpt>
<trkpt lat="43.0922250000" lon="-0.9925450000"><ele>905</ele><time>2026-04-26T11:11:09Z</time></trkpt>
<trkpt lat="43.0922400000" lon="-0.9925720000"><ele>904</ele><time>2026-04-26T11:11:12Z</time></trkpt>
<trkpt lat="43.0922570000" lon="-0.9926000000"><ele>904</ele><time>2026-04-26T11:11:15Z</time></trkpt>
<trkpt lat="43.0922670000" lon="-0.9926270000"><ele>904</ele><time>2026-04-26T11:11:17Z</time></trkpt>
<trkpt lat="43.0922720000" lon="-0.9926670000"><ele>904</ele><time>2026-04-26T11:11:19Z</time></trkpt>
<trkpt lat="43.0922720000" lon="-0.9927070000"><ele>904</ele><time>2026-04-26T11:11:21Z</time></trkpt>
<trkpt lat="43.0922770000" lon="-0.9927420000"><ele>904</ele><time>2026-04-26T11:11:23Z</time></trkpt>
<trkpt lat="43.0922850000" lon="-0.9927720000"><ele>903</ele><time>2026-04-26T11:11:25Z</time></trkpt>
<trkpt lat="43.0922920000" lon="-0.9928020000"><ele>903</ele><time>2026-04-26T11:11:27Z</time></trkpt>
<trkpt lat="43.0923020000" lon="-0.9928270000"><ele>903</ele><time>2026-04-26T11:11:29Z</time></trkpt>
<trkpt lat="43.0923120000" lon="-0.9928520000"><ele>903</ele><time>2026-04-26T11:11:31Z</time></trkpt>
<trkpt lat="43.0923220000" lon="-0.9928820000"><ele>903</ele><time>2026-04-26T11:11:33Z</time></trkpt>
<trkpt lat="43.0923400000" lon="-0.9929070000"><ele>903</ele><time>2026-04-26T11:11:35Z</time></trkpt>
<trkpt lat="43.0923570000" lon="-0.9929230000"><ele>903</ele><time>2026-04-26T11:11:37Z</time></trkpt>
<trkpt lat="43.0923720000" lon="-0.9929470000"><ele>903</ele><time>2026-04-26T11:11:39Z</time></trkpt>
<trkpt lat="43.0923870000" lon="-0.9929650000"><ele>903</ele><time>2026-04-26T11:11:41Z</time></trkpt>
<trkpt lat="43.0923970000" lon="-0.9929870000"><ele>903</ele><time>2026-04-26T11:11:43Z</time></trkpt>
<trkpt lat="43.0924120000" lon="-0.9930120000"><ele>903</ele><time>2026-04-26T11:11:46Z</time></trkpt>
<trkpt lat="43.0924250000" lon="-0.9930300000"><ele>902</ele><time>2026-04-26T11:12:42Z</time></trkpt>
<trkpt lat="43.0924300000" lon="-0.9930570000"><ele>902</ele><time>2026-04-26T11:12:48Z</time></trkpt>
<trkpt lat="43.0924320000" lon="-0.9930870000"><ele>902</ele><time>2026-04-26T11:12:54Z</time></trkpt>
<trkpt lat="43.0924500000" lon="-0.9931120000"><ele>902</ele><time>2026-04-26T11:12:56Z</time></trkpt>
<trkpt lat="43.0924820000" lon="-0.9931170000"><ele>902</ele><time>2026-04-26T11:13:08Z</time></trkpt>
<trkpt lat="43.0925120000" lon="-0.9931170000"><ele>902</ele><time>2026-04-26T11:13:10Z</time></trkpt>
<trkpt lat="43.0925320000" lon="-0.9931070000"><ele>902</ele><time>2026-04-26T11:13:12Z</time></trkpt>
<trkpt lat="43.0925470000" lon="-0.9930900000"><ele>902</ele><time>2026-04-26T11:13:15Z</time></trkpt>
<trkpt lat="43.0925570000" lon="-0.9930670000"><ele>902</ele><time>2026-04-26T11:13:18Z</time></trkpt>
<trkpt lat="43.0925620000" lon="-0.9930420000"><ele>902</ele><time>2026-04-26T11:13:21Z</time></trkpt>
<trkpt lat="43.0925850000" lon="-0.9930300000"><ele>902</ele><time>2026-04-26T11:13:25Z</time></trkpt>
<trkpt lat="43.0925600000" lon="-0.9930500000"><ele>902</ele><time>2026-04-26T11:13:48Z</time></trkpt>
<trkpt lat="43.0925400000" lon="-0.9930670000"><ele>902</ele><time>2026-04-26T11:13:49Z</time></trkpt>
<trkpt lat="43.0925200000" lon="-0.9930850000"><ele>902</ele><time>2026-04-26T11:13:50Z</time></trkpt>
<trkpt lat="43.0925020000" lon="-0.9931020000"><ele>902</ele><time>2026-04-26T11:13:51Z</time></trkpt>
<trkpt lat="43.0924870000" lon="-0.9931170000"><ele>902</ele><time>2026-04-26T11:13:52Z</time></trkpt>
<trkpt lat="43.0924720000" lon="-0.9931450000"><ele>902</ele><time>2026-04-26T11:13:54Z</time></trkpt>
<trkpt lat="43.0924620000" lon="-0.9931720000"><ele>902</ele><time>2026-04-26T11:13:56Z</time></trkpt>
<trkpt lat="43.0924450000" lon="-0.9931920000"><ele>902</ele><time>2026-04-26T11:13:59Z</time></trkpt>
<trkpt lat="43.0924320000" lon="-0.9932130000"><ele>902</ele><time>2026-04-26T11:14:01Z</time></trkpt>
<trkpt lat="43.0924180000" lon="-0.9932420000"><ele>902</ele><time>2026-04-26T11:14:04Z</time></trkpt>
<trkpt lat="43.0924100000" lon="-0.9932620000"><ele>902</ele><time>2026-04-26T11:14:06Z</time></trkpt>
<trkpt lat="43.0923950000" lon="-0.9932900000"><ele>902</ele><time>2026-04-26T11:14:09Z</time></trkpt>
<trkpt lat="43.0923820000" lon="-0.9933100000"><ele>901</ele><time>2026-04-26T11:14:11Z</time></trkpt>
<trkpt lat="43.0923700000" lon="-0.9933320000"><ele>901</ele><time>2026-04-26T11:14:13Z</time></trkpt>
<trkpt lat="43.0923600000" lon="-0.9933620000"><ele>901</ele><time>2026-04-26T11:14:16Z</time></trkpt>
<trkpt lat="43.0923520000" lon="-0.9933920000"><ele>901</ele><time>2026-04-26T11:14:19Z</time></trkpt>
<trkpt lat="43.0923370000" lon="-0.9934120000"><ele>901</ele><time>2026-04-26T11:14:23Z</time></trkpt>
<trkpt lat="43.0923100000" lon="-0.9934250000"><ele>901</ele><time>2026-04-26T11:14:27Z</time></trkpt>
<trkpt lat="43.0923000000" lon="-0.9934500000"><ele>901</ele><time>2026-04-26T11:14:30Z</time></trkpt>
<trkpt lat="43.0922900000" lon="-0.9934770000"><ele>900</ele><time>2026-04-26T11:14:33Z</time></trkpt>
<trkpt lat="43.0922820000" lon="-0.9935070000"><ele>900</ele><time>2026-04-26T11:14:36Z</time></trkpt>
<trkpt lat="43.0922850000" lon="-0.9935420000"><ele>899</ele><time>2026-04-26T11:14:39Z</time></trkpt>
<trkpt lat="43.0922970000" lon="-0.9935720000"><ele>899</ele><time>2026-04-26T11:14:42Z</time></trkpt>
<trkpt lat="43.0923120000" lon="-0.9935930000"><ele>899</ele><time>2026-04-26T11:14:45Z</time></trkpt>
<trkpt lat="43.0923320000" lon="-0.9936150000"><ele>899</ele><time>2026-04-26T11:14:48Z</time></trkpt>
<trkpt lat="43.0923520000" lon="-0.9936320000"><ele>899</ele><time>2026-04-26T11:14:51Z</time></trkpt>
<trkpt lat="43.0923700000" lon="-0.9936520000"><ele>899</ele><time>2026-04-26T11:14:55Z</time></trkpt>
<trkpt lat="43.0923850000" lon="-0.9936800000"><ele>899</ele><time>2026-04-26T11:14:58Z</time></trkpt>
<trkpt lat="43.0923920000" lon="-0.9937170000"><ele>900</ele><time>2026-04-26T11:15:01Z</time></trkpt>
<trkpt lat="43.0923970000" lon="-0.9937420000"><ele>900</ele><time>2026-04-26T11:15:03Z</time></trkpt>
<trkpt lat="43.0924100000" lon="-0.9937700000"><ele>900</ele><time>2026-04-26T11:15:05Z</time></trkpt>
<trkpt lat="43.0924250000" lon="-0.9937920000"><ele>900</ele><time>2026-04-26T11:15:08Z</time></trkpt>
<trkpt lat="43.0924400000" lon="-0.9938070000"><ele>901</ele><time>2026-04-26T11:15:11Z</time></trkpt>
<trkpt lat="43.0924570000" lon="-0.9938170000"><ele>901</ele><time>2026-04-26T11:15:15Z</time></trkpt>
<trkpt lat="43.0924670000" lon="-0.9938400000"><ele>901</ele><time>2026-04-26T11:15:18Z</time></trkpt>
<trkpt lat="43.0924770000" lon="-0.9938620000"><ele>902</ele><time>2026-04-26T11:15:21Z</time></trkpt>
<trkpt lat="43.0924850000" lon="-0.9938970000"><ele>902</ele><time>2026-04-26T11:15:24Z</time></trkpt>
<trkpt lat="43.0924920000" lon="-0.9939200000"><ele>902</ele><time>2026-04-26T11:15:27Z</time></trkpt>
<trkpt lat="43.0925070000" lon="-0.9939450000"><ele>902</ele><time>2026-04-26T11:15:30Z</time></trkpt>
<trkpt lat="43.0925250000" lon="-0.9939700000"><ele>902</ele><time>2026-04-26T11:15:34Z</time></trkpt>
<trkpt lat="43.0925470000" lon="-0.9939780000"><ele>906</ele><time>2026-04-26T11:16:14Z</time></trkpt>
<trkpt lat="43.0925700000" lon="-0.9939870000"><ele>906</ele><time>2026-04-26T11:16:15Z</time></trkpt>
<trkpt lat="43.0925970000" lon="-0.9939920000"><ele>906</ele><time>2026-04-26T11:16:16Z</time></trkpt>
<trkpt lat="43.0926270000" lon="-0.9939950000"><ele>906</ele><time>2026-04-26T11:16:17Z</time></trkpt>
<trkpt lat="43.0926520000" lon="-0.9939950000"><ele>906</ele><time>2026-04-26T11:16:18Z</time></trkpt>
<trkpt lat="43.0926700000" lon="-0.9939920000"><ele>906</ele><time>2026-04-26T11:16:19Z</time></trkpt>
<trkpt lat="43.0926870000" lon="-0.9939920000"><ele>907</ele><time>2026-04-26T11:16:21Z</time></trkpt>
<trkpt lat="43.0927120000" lon="-0.9939950000"><ele>907</ele><time>2026-04-26T11:16:24Z</time></trkpt>
<trkpt lat="43.0927300000" lon="-0.9939720000"><ele>907</ele><time>2026-04-26T11:16:27Z</time></trkpt>
<trkpt lat="43.0927470000" lon="-0.9939520000"><ele>908</ele><time>2026-04-26T11:16:31Z</time></trkpt>
<trkpt lat="43.0927720000" lon="-0.9939470000"><ele>908</ele><time>2026-04-26T11:16:35Z</time></trkpt>
<trkpt lat="43.0927920000" lon="-0.9939550000"><ele>908</ele><time>2026-04-26T11:16:38Z</time></trkpt>
<trkpt lat="43.0928120000" lon="-0.9939720000"><ele>908</ele><time>2026-04-26T11:16:42Z</time></trkpt>
<trkpt lat="43.0928270000" lon="-0.9939870000"><ele>909</ele><time>2026-04-26T11:16:45Z</time></trkpt>
<trkpt lat="43.0928420000" lon="-0.9940070000"><ele>909</ele><time>2026-04-26T11:16:48Z</time></trkpt>
<trkpt lat="43.0928570000" lon="-0.9940220000"><ele>910</ele><time>2026-04-26T11:16:51Z</time></trkpt>
<trkpt lat="43.0928720000" lon="-0.9940470000"><ele>910</ele><time>2026-04-26T11:16:54Z</time></trkpt>
<trkpt lat="43.0928900000" lon="-0.9940600000"><ele>910</ele><time>2026-04-26T11:16:57Z</time></trkpt>
<trkpt lat="43.0929070000" lon="-0.9940700000"><ele>911</ele><time>2026-04-26T11:17:00Z</time></trkpt>
<trkpt lat="43.0929220000" lon="-0.9940850000"><ele>911</ele><time>2026-04-26T11:17:03Z</time></trkpt>
<trkpt lat="43.0929370000" lon="-0.9940970000"><ele>911</ele><time>2026-04-26T11:17:06Z</time></trkpt>
<trkpt lat="43.0929570000" lon="-0.9941070000"><ele>912</ele><time>2026-04-26T11:17:09Z</time></trkpt>
<trkpt lat="43.0929770000" lon="-0.9941270000"><ele>913</ele><time>2026-04-26T11:17:40Z</time></trkpt>
<trkpt lat="43.0930070000" lon="-0.9941470000"><ele>913</ele><time>2026-04-26T11:17:42Z</time></trkpt>
<trkpt lat="43.0930270000" lon="-0.9941670000"><ele>913</ele><time>2026-04-26T11:17:44Z</time></trkpt>
<trkpt lat="43.0930470000" lon="-0.9941770000"><ele>914</ele><time>2026-04-26T11:17:47Z</time></trkpt>
<trkpt lat="43.0930620000" lon="-0.9941920000"><ele>914</ele><time>2026-04-26T11:17:51Z</time></trkpt>
<trkpt lat="43.0930820000" lon="-0.9942020000"><ele>915</ele><time>2026-04-26T11:17:55Z</time></trkpt>
<trkpt lat="43.0931020000" lon="-0.9942170000"><ele>915</ele><time>2026-04-26T11:18:00Z</time></trkpt>
<trkpt lat="43.0931170000" lon="-0.9942370000"><ele>916</ele><time>2026-04-26T11:18:04Z</time></trkpt>
<trkpt lat="43.0931300000" lon="-0.9942570000"><ele>916</ele><time>2026-04-26T11:18:08Z</time></trkpt>
<trkpt lat="43.0931450000" lon="-0.9942720000"><ele>917</ele><time>2026-04-26T11:18:11Z</time></trkpt>
<trkpt lat="43.0931570000" lon="-0.9942970000"><ele>917</ele><time>2026-04-26T11:18:14Z</time></trkpt>
<trkpt lat="43.0931720000" lon="-0.9943200000"><ele>918</ele><time>2026-04-26T11:18:18Z</time></trkpt>
<trkpt lat="43.0931900000" lon="-0.9943330000"><ele>918</ele><time>2026-04-26T11:18:22Z</time></trkpt>
<trkpt lat="43.0932050000" lon="-0.9943520000"><ele>919</ele><time>2026-04-26T11:18:26Z</time></trkpt>
<trkpt lat="43.0932250000" lon="-0.9943620000"><ele>919</ele><time>2026-04-26T11:18:30Z</time></trkpt>
<trkpt lat="43.0932370000" lon="-0.9943820000"><ele>920</ele><time>2026-04-26T11:18:34Z</time></trkpt>
<trkpt lat="43.0932520000" lon="-0.9944030000"><ele>920</ele><time>2026-04-26T11:18:38Z</time></trkpt>
<trkpt lat="43.0932700000" lon="-0.9944150000"><ele>920</ele><time>2026-04-26T11:18:42Z</time></trkpt>
<trkpt lat="43.0932920000" lon="-0.9944120000"><ele>921</ele><time>2026-04-26T11:18:46Z</time></trkpt>
<trkpt lat="43.0933120000" lon="-0.9944070000"><ele>921</ele><time>2026-04-26T11:18:49Z</time></trkpt>
<trkpt lat="43.0933220000" lon="-0.9944300000"><ele>921</ele><time>2026-04-26T11:18:52Z</time></trkpt>
<trkpt lat="43.0933300000" lon="-0.9944520000"><ele>922</ele><time>2026-04-26T11:18:54Z</time></trkpt>
<trkpt lat="43.0933420000" lon="-0.9944720000"><ele>922</ele><time>2026-04-26T11:18:57Z</time></trkpt>
<trkpt lat="43.0933600000" lon="-0.9944870000"><ele>923</ele><time>2026-04-26T11:19:02Z</time></trkpt>
<trkpt lat="43.0933820000" lon="-0.9944920000"><ele>924</ele><time>2026-04-26T11:19:07Z</time></trkpt>
<trkpt lat="43.0933950000" lon="-0.9945070000"><ele>924</ele><time>2026-04-26T11:19:10Z</time></trkpt>
<trkpt lat="43.0934070000" lon="-0.9945370000"><ele>924</ele><time>2026-04-26T11:19:15Z</time></trkpt>
<trkpt lat="43.0934270000" lon="-0.9945470000"><ele>925</ele><time>2026-04-26T11:19:19Z</time></trkpt>
<trkpt lat="43.0934470000" lon="-0.9945420000"><ele>925</ele><time>2026-04-26T11:19:23Z</time></trkpt>
<trkpt lat="43.0934670000" lon="-0.9945300000"><ele>926</ele><time>2026-04-26T11:19:27Z</time></trkpt>
<trkpt lat="43.0934870000" lon="-0.9945220000"><ele>926</ele><time>2026-04-26T11:19:31Z</time></trkpt>
<trkpt lat="43.0935050000" lon="-0.9945170000"><ele>926</ele><time>2026-04-26T11:19:36Z</time></trkpt>
<trkpt lat="43.0935220000" lon="-0.9945350000"><ele>927</ele><time>2026-04-26T11:19:40Z</time></trkpt>
<trkpt lat="43.0935420000" lon="-0.9945420000"><ele>927</ele><time>2026-04-26T11:19:44Z</time></trkpt>
<trkpt lat="43.0935620000" lon="-0.9945380000"><ele>927</ele><time>2026-04-26T11:19:49Z</time></trkpt>
<trkpt lat="43.0935850000" lon="-0.9945350000"><ele>928</ele><time>2026-04-26T11:19:53Z</time></trkpt>
<trkpt lat="43.0936050000" lon="-0.9945320000"><ele>928</ele><time>2026-04-26T11:19:57Z</time></trkpt>
<trkpt lat="43.0936220000" lon="-0.9945500000"><ele>929</ele><time>2026-04-26T11:20:01Z</time></trkpt>
<trkpt lat="43.0936450000" lon="-0.9945550000"><ele>929</ele><time>2026-04-26T11:20:05Z</time></trkpt>
<trkpt lat="43.0936650000" lon="-0.9945570000"><ele>930</ele><time>2026-04-26T11:20:08Z</time></trkpt>
<trkpt lat="43.0936820000" lon="-0.9945570000"><ele>930</ele><time>2026-04-26T11:20:11Z</time></trkpt>
<trkpt lat="43.0937020000" lon="-0.9945570000"><ele>930</ele><time>2026-04-26T11:20:15Z</time></trkpt>
<trkpt lat="43.0937070000" lon="-0.9945870000"><ele>931</ele><time>2026-04-26T11:20:17Z</time></trkpt>
<trkpt lat="43.0937070000" lon="-0.9946120000"><ele>931</ele><time>2026-04-26T11:20:19Z</time></trkpt>
<trkpt lat="43.0937150000" lon="-0.9946370000"><ele>931</ele><time>2026-04-26T11:20:22Z</time></trkpt>
<trkpt lat="43.0937220000" lon="-0.9946670000"><ele>931</ele><time>2026-04-26T11:20:25Z</time></trkpt>
<trkpt lat="43.0937420000" lon="-0.9946730000"><ele>932</ele><time>2026-04-26T11:20:30Z</time></trkpt>
<trkpt lat="43.0937570000" lon="-0.9946920000"><ele>932</ele><time>2026-04-26T11:20:35Z</time></trkpt>
<trkpt lat="43.0937770000" lon="-0.9946920000"><ele>933</ele><time>2026-04-26T11:21:00Z</time></trkpt>
<trkpt lat="43.0938000000" lon="-0.9947020000"><ele>934</ele><time>2026-04-26T11:21:02Z</time></trkpt>
<trkpt lat="43.0938220000" lon="-0.9947120000"><ele>934</ele><time>2026-04-26T11:21:04Z</time></trkpt>
<trkpt lat="43.0938420000" lon="-0.9947220000"><ele>934</ele><time>2026-04-26T11:21:06Z</time></trkpt>
<trkpt lat="43.0938600000" lon="-0.9947470000"><ele>935</ele><time>2026-04-26T11:21:11Z</time></trkpt>
<trkpt lat="43.0938850000" lon="-0.9947520000"><ele>935</ele><time>2026-04-26T11:21:15Z</time></trkpt>
<trkpt lat="43.0939070000" lon="-0.9947470000"><ele>936</ele><time>2026-04-26T11:21:18Z</time></trkpt>
<trkpt lat="43.0939270000" lon="-0.9947600000"><ele>936</ele><time>2026-04-26T11:21:22Z</time></trkpt>
<trkpt lat="43.0939420000" lon="-0.9947770000"><ele>937</ele><time>2026-04-26T11:21:25Z</time></trkpt>
<trkpt lat="43.0939550000" lon="-0.9948050000"><ele>937</ele><time>2026-04-26T11:21:29Z</time></trkpt>
<trkpt lat="43.0939670000" lon="-0.9948270000"><ele>937</ele><time>2026-04-26T11:21:32Z</time></trkpt>
<trkpt lat="43.0939870000" lon="-0.9948350000"><ele>938</ele><time>2026-04-26T11:21:36Z</time></trkpt>
<trkpt lat="43.0939970000" lon="-0.9948550000"><ele>938</ele><time>2026-04-26T11:21:40Z</time></trkpt>
<trkpt lat="43.0940020000" lon="-0.9948820000"><ele>939</ele><time>2026-04-26T11:21:44Z</time></trkpt>
<trkpt lat="43.0940050000" lon="-0.9949120000"><ele>939</ele><time>2026-04-26T11:21:48Z</time></trkpt>
<trkpt lat="43.0940120000" lon="-0.9949420000"><ele>940</ele><time>2026-04-26T11:21:52Z</time></trkpt>
<trkpt lat="43.0940120000" lon="-0.9949720000"><ele>940</ele><time>2026-04-26T11:21:56Z</time></trkpt>
<trkpt lat="43.0940250000" lon="-0.9949970000"><ele>941</ele><time>2026-04-26T11:22:01Z</time></trkpt>
<trkpt lat="43.0940320000" lon="-0.9950250000"><ele>942</ele><time>2026-04-26T11:22:05Z</time></trkpt>
<trkpt lat="43.0940370000" lon="-0.9950500000"><ele>942</ele><time>2026-04-26T11:22:08Z</time></trkpt>
<trkpt lat="43.0940320000" lon="-0.9950770000"><ele>942</ele><time>2026-04-26T11:22:11Z</time></trkpt>
<trkpt lat="43.0940470000" lon="-0.9951020000"><ele>943</ele><time>2026-04-26T11:22:15Z</time></trkpt>
<trkpt lat="43.0940650000" lon="-0.9951250000"><ele>943</ele><time>2026-04-26T11:22:19Z</time></trkpt>
<trkpt lat="43.0940820000" lon="-0.9951270000"><ele>944</ele><time>2026-04-26T11:22:22Z</time></trkpt>
<trkpt lat="43.0941020000" lon="-0.9951420000"><ele>944</ele><time>2026-04-26T11:22:26Z</time></trkpt>
<trkpt lat="43.0941220000" lon="-0.9951420000"><ele>945</ele><time>2026-04-26T11:22:29Z</time></trkpt>
<trkpt lat="43.0941450000" lon="-0.9951630000"><ele>947</ele><time>2026-04-26T11:23:10Z</time></trkpt>
<trkpt lat="43.0941620000" lon="-0.9951900000"><ele>947</ele><time>2026-04-26T11:23:11Z</time></trkpt>
<trkpt lat="43.0941820000" lon="-0.9952130000"><ele>948</ele><time>2026-04-26T11:23:12Z</time></trkpt>
<trkpt lat="43.0941970000" lon="-0.9952370000"><ele>948</ele><time>2026-04-26T11:23:13Z</time></trkpt>
<trkpt lat="43.0942170000" lon="-0.9952650000"><ele>948</ele><time>2026-04-26T11:23:15Z</time></trkpt>
<trkpt lat="43.0942300000" lon="-0.9952850000"><ele>948</ele><time>2026-04-26T11:23:18Z</time></trkpt>
<trkpt lat="43.0942420000" lon="-0.9953050000"><ele>949</ele><time>2026-04-26T11:23:22Z</time></trkpt>
<trkpt lat="43.0942620000" lon="-0.9953220000"><ele>950</ele><time>2026-04-26T11:23:26Z</time></trkpt>
<trkpt lat="43.0942800000" lon="-0.9953400000"><ele>950</ele><time>2026-04-26T11:23:30Z</time></trkpt>
<trkpt lat="43.0942970000" lon="-0.9953600000"><ele>951</ele><time>2026-04-26T11:23:34Z</time></trkpt>
<trkpt lat="43.0943120000" lon="-0.9953770000"><ele>951</ele><time>2026-04-26T11:23:38Z</time></trkpt>
<trkpt lat="43.0943320000" lon="-0.9953880000"><ele>952</ele><time>2026-04-26T11:23:42Z</time></trkpt>
<trkpt lat="43.0943520000" lon="-0.9953870000"><ele>952</ele><time>2026-04-26T11:23:46Z</time></trkpt>
<trkpt lat="43.0943700000" lon="-0.9953970000"><ele>953</ele><time>2026-04-26T11:23:50Z</time></trkpt>
<trkpt lat="43.0943770000" lon="-0.9954220000"><ele>953</ele><time>2026-04-26T11:23:53Z</time></trkpt>
<trkpt lat="43.0943820000" lon="-0.9954470000"><ele>953</ele><time>2026-04-26T11:23:55Z</time></trkpt>
<trkpt lat="43.0943850000" lon="-0.9954750000"><ele>954</ele><time>2026-04-26T11:23:57Z</time></trkpt>
<trkpt lat="43.0943920000" lon="-0.9955000000"><ele>954</ele><time>2026-04-26T11:24:00Z</time></trkpt>
<trkpt lat="43.0944020000" lon="-0.9955220000"><ele>955</ele><time>2026-04-26T11:24:04Z</time></trkpt>
<trkpt lat="43.0944270000" lon="-0.9955370000"><ele>957</ele><time>2026-04-26T11:24:45Z</time></trkpt>
<trkpt lat="43.0944620000" lon="-0.9955470000"><ele>957</ele><time>2026-04-26T11:24:47Z</time></trkpt>
<trkpt lat="43.0944920000" lon="-0.9955620000"><ele>957</ele><time>2026-04-26T11:24:49Z</time></trkpt>
<trkpt lat="43.0945100000" lon="-0.9955770000"><ele>957</ele><time>2026-04-26T11:24:51Z</time></trkpt>
<trkpt lat="43.0945270000" lon="-0.9955820000"><ele>958</ele><time>2026-04-26T11:24:54Z</time></trkpt>
<trkpt lat="43.0945470000" lon="-0.9955870000"><ele>958</ele><time>2026-04-26T11:24:57Z</time></trkpt>
<trkpt lat="43.0945650000" lon="-0.9955970000"><ele>959</ele><time>2026-04-26T11:25:00Z</time></trkpt>
<trkpt lat="43.0945770000" lon="-0.9956180000"><ele>959</ele><time>2026-04-26T11:25:03Z</time></trkpt>
<trkpt lat="43.0945920000" lon="-0.9956420000"><ele>960</ele><time>2026-04-26T11:25:07Z</time></trkpt>
<trkpt lat="43.0946100000" lon="-0.9956620000"><ele>960</ele><time>2026-04-26T11:25:11Z</time></trkpt>
<trkpt lat="43.0946250000" lon="-0.9956850000"><ele>961</ele><time>2026-04-26T11:25:15Z</time></trkpt>
<trkpt lat="43.0946220000" lon="-0.9957100000"><ele>961</ele><time>2026-04-26T11:25:17Z</time></trkpt>
<trkpt lat="43.0946200000" lon="-0.9957400000"><ele>961</ele><time>2026-04-26T11:25:19Z</time></trkpt>
<trkpt lat="43.0946120000" lon="-0.9957720000"><ele>961</ele><time>2026-04-26T11:25:21Z</time></trkpt>
<trkpt lat="43.0946100000" lon="-0.9958020000"><ele>962</ele><time>2026-04-26T11:25:23Z</time></trkpt>
<trkpt lat="43.0946070000" lon="-0.9958270000"><ele>962</ele><time>2026-04-26T11:25:25Z</time></trkpt>
<trkpt lat="43.0946100000" lon="-0.9958570000"><ele>962</ele><time>2026-04-26T11:25:28Z</time></trkpt>
<trkpt lat="43.0946220000" lon="-0.9958720000"><ele>963</ele><time>2026-04-26T11:25:31Z</time></trkpt>
<trkpt lat="43.0946420000" lon="-0.9958820000"><ele>963</ele><time>2026-04-26T11:25:34Z</time></trkpt>
<trkpt lat="43.0946670000" lon="-0.9958850000"><ele>964</ele><time>2026-04-26T11:25:37Z</time></trkpt>
<trkpt lat="43.0946870000" lon="-0.9958970000"><ele>964</ele><time>2026-04-26T11:25:41Z</time></trkpt>
<trkpt lat="43.0947000000" lon="-0.9959270000"><ele>965</ele><time>2026-04-26T11:25:45Z</time></trkpt>
<trkpt lat="43.0947150000" lon="-0.9959520000"><ele>965</ele><time>2026-04-26T11:25:49Z</time></trkpt>
<trkpt lat="43.0947270000" lon="-0.9959720000"><ele>966</ele><time>2026-04-26T11:25:52Z</time></trkpt>
<trkpt lat="43.0947420000" lon="-0.9959930000"><ele>966</ele><time>2026-04-26T11:25:55Z</time></trkpt>
<trkpt lat="43.0947520000" lon="-0.9960150000"><ele>966</ele><time>2026-04-26T11:25:58Z</time></trkpt>
<trkpt lat="43.0947720000" lon="-0.9960270000"><ele>967</ele><time>2026-04-26T11:26:01Z</time></trkpt>
<trkpt lat="43.0947870000" lon="-0.9960520000"><ele>967</ele><time>2026-04-26T11:26:05Z</time></trkpt>
<trkpt lat="43.0947950000" lon="-0.9960800000"><ele>967</ele><time>2026-04-26T11:26:08Z</time></trkpt>
<trkpt lat="43.0948020000" lon="-0.9961070000"><ele>968</ele><time>2026-04-26T11:26:11Z</time></trkpt>
<trkpt lat="43.0948170000" lon="-0.9961220000"><ele>968</ele><time>2026-04-26T11:26:14Z</time></trkpt>
<trkpt lat="43.0948350000" lon="-0.9961320000"><ele>968</ele><time>2026-04-26T11:26:17Z</time></trkpt>
<trkpt lat="43.0948520000" lon="-0.9961450000"><ele>969</ele><time>2026-04-26T11:26:21Z</time></trkpt>
<trkpt lat="43.0948720000" lon="-0.9961570000"><ele>969</ele><time>2026-04-26T11:26:24Z</time></trkpt>
<trkpt lat="43.0948850000" lon="-0.9961870000"><ele>970</ele><time>2026-04-26T11:26:27Z</time></trkpt>
<trkpt lat="43.0948870000" lon="-0.9962120000"><ele>970</ele><time>2026-04-26T11:26:29Z</time></trkpt>
<trkpt lat="43.0948950000" lon="-0.9962350000"><ele>970</ele><time>2026-04-26T11:26:31Z</time></trkpt>
<trkpt lat="43.0949070000" lon="-0.9962620000"><ele>970</ele><time>2026-04-26T11:26:34Z</time></trkpt>
<trkpt lat="43.0949200000" lon="-0.9962820000"><ele>971</ele><time>2026-04-26T11:26:37Z</time></trkpt>
<trkpt lat="43.0949300000" lon="-0.9963020000"><ele>971</ele><time>2026-04-26T11:26:40Z</time></trkpt>
<trkpt lat="43.0949400000" lon="-0.9963320000"><ele>971</ele><time>2026-04-26T11:26:43Z</time></trkpt>
<trkpt lat="43.0949470000" lon="-0.9963650000"><ele>972</ele><time>2026-04-26T11:26:46Z</time></trkpt>
<trkpt lat="43.0949570000" lon="-0.9963920000"><ele>972</ele><time>2026-04-26T11:26:49Z</time></trkpt>
<trkpt lat="43.0949720000" lon="-0.9964170000"><ele>973</ele><time>2026-04-26T11:26:52Z</time></trkpt>
<trkpt lat="43.0949870000" lon="-0.9964420000"><ele>973</ele><time>2026-04-26T11:26:55Z</time></trkpt>
<trkpt lat="43.0950000000" lon="-0.9964650000"><ele>973</ele><time>2026-04-26T11:26:58Z</time></trkpt>
<trkpt lat="43.0950120000" lon="-0.9964870000"><ele>973</ele><time>2026-04-26T11:27:01Z</time></trkpt>
<trkpt lat="43.0950270000" lon="-0.9965070000"><ele>974</ele><time>2026-04-26T11:27:04Z</time></trkpt>
<trkpt lat="43.0950470000" lon="-0.9965320000"><ele>974</ele><time>2026-04-26T11:27:07Z</time></trkpt>
<trkpt lat="43.0950620000" lon="-0.9965530000"><ele>975</ele><time>2026-04-26T11:27:10Z</time></trkpt>
<trkpt lat="43.0950770000" lon="-0.9965770000"><ele>975</ele><time>2026-04-26T11:27:13Z</time></trkpt>
<trkpt lat="43.0950900000" lon="-0.9966020000"><ele>976</ele><time>2026-04-26T11:27:16Z</time></trkpt>
<trkpt lat="43.0951020000" lon="-0.9966230000"><ele>976</ele><time>2026-04-26T11:27:19Z</time></trkpt>
<trkpt lat="43.0951150000" lon="-0.9966470000"><ele>976</ele><time>2026-04-26T11:27:22Z</time></trkpt>
<trkpt lat="43.0951270000" lon="-0.9966680000"><ele>977</ele><time>2026-04-26T11:27:25Z</time></trkpt>
<trkpt lat="43.0951370000" lon="-0.9966970000"><ele>977</ele><time>2026-04-26T11:27:28Z</time></trkpt>
<trkpt lat="43.0951450000" lon="-0.9967300000"><ele>977</ele><time>2026-04-26T11:27:31Z</time></trkpt>
<trkpt lat="43.0951520000" lon="-0.9967580000"><ele>977</ele><time>2026-04-26T11:27:34Z</time></trkpt>
<trkpt lat="43.0951600000" lon="-0.9967870000"><ele>978</ele><time>2026-04-26T11:27:37Z</time></trkpt>
<trkpt lat="43.0951620000" lon="-0.9968150000"><ele>979</ele><time>2026-04-26T11:28:08Z</time></trkpt>
<trkpt lat="43.0951820000" lon="-0.9968420000"><ele>979</ele><time>2026-04-26T11:28:11Z</time></trkpt>
<trkpt lat="43.0951920000" lon="-0.9968620000"><ele>979</ele><time>2026-04-26T11:28:13Z</time></trkpt>
<trkpt lat="43.0952050000" lon="-0.9968970000"><ele>979</ele><time>2026-04-26T11:28:16Z</time></trkpt>
<trkpt lat="43.0952120000" lon="-0.9969270000"><ele>980</ele><time>2026-04-26T11:28:19Z</time></trkpt>
<trkpt lat="43.0952220000" lon="-0.9969520000"><ele>980</ele><time>2026-04-26T11:28:22Z</time></trkpt>
<trkpt lat="43.0952420000" lon="-0.9969700000"><ele>981</ele><time>2026-04-26T11:28:25Z</time></trkpt>
<trkpt lat="43.0952550000" lon="-0.9969970000"><ele>981</ele><time>2026-04-26T11:28:28Z</time></trkpt>
<trkpt lat="43.0952620000" lon="-0.9970220000"><ele>981</ele><time>2026-04-26T11:28:30Z</time></trkpt>
<trkpt lat="43.0952720000" lon="-0.9970520000"><ele>982</ele><time>2026-04-26T11:28:33Z</time></trkpt>
<trkpt lat="43.0952770000" lon="-0.9970770000"><ele>982</ele><time>2026-04-26T11:28:36Z</time></trkpt>
<trkpt lat="43.0952850000" lon="-0.9971050000"><ele>982</ele><time>2026-04-26T11:28:39Z</time></trkpt>
<trkpt lat="43.0952870000" lon="-0.9971320000"><ele>983</ele><time>2026-04-26T11:28:42Z</time></trkpt>
<trkpt lat="43.0952970000" lon="-0.9971570000"><ele>983</ele><time>2026-04-26T11:28:46Z</time></trkpt>
<trkpt lat="43.0953070000" lon="-0.9971820000"><ele>983</ele><time>2026-04-26T11:28:49Z</time></trkpt>
<trkpt lat="43.0953120000" lon="-0.9972070000"><ele>984</ele><time>2026-04-26T11:28:51Z</time></trkpt>
<trkpt lat="43.0953220000" lon="-0.9972400000"><ele>984</ele><time>2026-04-26T11:28:54Z</time></trkpt>
<trkpt lat="43.0953300000" lon="-0.9972720000"><ele>984</ele><time>2026-04-26T11:28:56Z</time></trkpt>
<trkpt lat="43.0953350000" lon="-0.9973020000"><ele>984</ele><time>2026-04-26T11:28:58Z</time></trkpt>
<trkpt lat="43.0953450000" lon="-0.9973300000"><ele>985</ele><time>2026-04-26T11:29:00Z</time></trkpt>
<trkpt lat="43.0953470000" lon="-0.9973550000"><ele>985</ele><time>2026-04-26T11:29:02Z</time></trkpt>
<trkpt lat="43.0953470000" lon="-0.9973800000"><ele>985</ele><time>2026-04-26T11:29:04Z</time></trkpt>
<trkpt lat="43.0953520000" lon="-0.9974120000"><ele>986</ele><time>2026-04-26T11:29:07Z</time></trkpt>
<trkpt lat="43.0953600000" lon="-0.9974330000"><ele>986</ele><time>2026-04-26T11:29:10Z</time></trkpt>
<trkpt lat="43.0953670000" lon="-0.9974650000"><ele>987</ele><time>2026-04-26T11:29:13Z</time></trkpt>
<trkpt lat="43.0953820000" lon="-0.9974920000"><ele>987</ele><time>2026-04-26T11:29:16Z</time></trkpt>
<trkpt lat="43.0953920000" lon="-0.9975220000"><ele>988</ele><time>2026-04-26T11:29:19Z</time></trkpt>
<trkpt lat="43.0954020000" lon="-0.9975520000"><ele>988</ele><time>2026-04-26T11:29:22Z</time></trkpt>
<trkpt lat="43.0954150000" lon="-0.9975720000"><ele>988</ele><time>2026-04-26T11:29:24Z</time></trkpt>
<trkpt lat="43.0954250000" lon="-0.9976050000"><ele>989</ele><time>2026-04-26T11:29:27Z</time></trkpt>
<trkpt lat="43.0954320000" lon="-0.9976300000"><ele>989</ele><time>2026-04-26T11:29:29Z</time></trkpt>
<trkpt lat="43.0954370000" lon="-0.9976530000"><ele>989</ele><time>2026-04-26T11:29:31Z</time></trkpt>
<trkpt lat="43.0954420000" lon="-0.9976920000"><ele>989</ele><time>2026-04-26T11:29:34Z</time></trkpt>
<trkpt lat="43.0954470000" lon="-0.9977150000"><ele>990</ele><time>2026-04-26T11:29:36Z</time></trkpt>
<trkpt lat="43.0954520000" lon="-0.9977400000"><ele>990</ele><time>2026-04-26T11:29:38Z</time></trkpt>
<trkpt lat="43.0954570000" lon="-0.9977750000"><ele>990</ele><time>2026-04-26T11:29:41Z</time></trkpt>
<trkpt lat="43.0954720000" lon="-0.9978020000"><ele>991</ele><time>2026-04-26T11:29:44Z</time></trkpt>
<trkpt lat="43.0954800000" lon="-0.9978300000"><ele>991</ele><time>2026-04-26T11:29:47Z</time></trkpt>
<trkpt lat="43.0954900000" lon="-0.9978620000"><ele>991</ele><time>2026-04-26T11:29:50Z</time></trkpt>
<trkpt lat="43.0954970000" lon="-0.9978920000"><ele>991</ele><time>2026-04-26T11:29:53Z</time></trkpt>
<trkpt lat="43.0955020000" lon="-0.9979270000"><ele>992</ele><time>2026-04-26T11:29:56Z</time></trkpt>
<trkpt lat="43.0955070000" lon="-0.9979520000"><ele>992</ele><time>2026-04-26T11:29:58Z</time></trkpt>
<trkpt lat="43.0955200000" lon="-0.9979720000"><ele>993</ele><time>2026-04-26T11:30:20Z</time></trkpt>
<trkpt lat="43.0955270000" lon="-0.9980100000"><ele>993</ele><time>2026-04-26T11:30:22Z</time></trkpt>
<trkpt lat="43.0955320000" lon="-0.9980500000"><ele>993</ele><time>2026-04-26T11:30:24Z</time></trkpt>
<trkpt lat="43.0955400000" lon="-0.9980770000"><ele>993</ele><time>2026-04-26T11:30:26Z</time></trkpt>
<trkpt lat="43.0955500000" lon="-0.9981120000"><ele>993</ele><time>2026-04-26T11:30:29Z</time></trkpt>
<trkpt lat="43.0955550000" lon="-0.9981420000"><ele>994</ele><time>2026-04-26T11:30:31Z</time></trkpt>
<trkpt lat="43.0955620000" lon="-0.9981670000"><ele>994</ele><time>2026-04-26T11:30:33Z</time></trkpt>
<trkpt lat="43.0955670000" lon="-0.9981920000"><ele>994</ele><time>2026-04-26T11:30:35Z</time></trkpt>
<trkpt lat="43.0955750000" lon="-0.9982170000"><ele>994</ele><time>2026-04-26T11:30:37Z</time></trkpt>
<trkpt lat="43.0955820000" lon="-0.9982420000"><ele>994</ele><time>2026-04-26T11:30:39Z</time></trkpt>
<trkpt lat="43.0955900000" lon="-0.9982670000"><ele>994</ele><time>2026-04-26T11:30:41Z</time></trkpt>
<trkpt lat="43.0955970000" lon="-0.9983020000"><ele>995</ele><time>2026-04-26T11:30:44Z</time></trkpt>
<trkpt lat="43.0956020000" lon="-0.9983320000"><ele>995</ele><time>2026-04-26T11:30:46Z</time></trkpt>
<trkpt lat="43.0956120000" lon="-0.9983570000"><ele>995</ele><time>2026-04-26T11:30:48Z</time></trkpt>
<trkpt lat="43.0956170000" lon="-0.9983850000"><ele>995</ele><time>2026-04-26T11:30:50Z</time></trkpt>
<trkpt lat="43.0956220000" lon="-0.9984120000"><ele>995</ele><time>2026-04-26T11:30:52Z</time></trkpt>
<trkpt lat="43.0956300000" lon="-0.9984420000"><ele>995</ele><time>2026-04-26T11:30:54Z</time></trkpt>
<trkpt lat="43.0956350000" lon="-0.9984670000"><ele>995</ele><time>2026-04-26T11:30:56Z</time></trkpt>
<trkpt lat="43.0956370000" lon="-0.9984970000"><ele>995</ele><time>2026-04-26T11:30:58Z</time></trkpt>
<trkpt lat="43.0956420000" lon="-0.9985250000"><ele>995</ele><time>2026-04-26T11:31:00Z</time></trkpt>
<trkpt lat="43.0956450000" lon="-0.9985520000"><ele>995</ele><time>2026-04-26T11:31:02Z</time></trkpt>
<trkpt lat="43.0956470000" lon="-0.9985770000"><ele>995</ele><time>2026-04-26T11:31:04Z</time></trkpt>
<trkpt lat="43.0956420000" lon="-0.9986070000"><ele>995</ele><time>2026-04-26T11:31:06Z</time></trkpt>
<trkpt lat="43.0956470000" lon="-0.9986320000"><ele>995</ele><time>2026-04-26T11:31:08Z</time></trkpt>
<trkpt lat="43.0956520000" lon="-0.9986670000"><ele>995</ele><time>2026-04-26T11:31:11Z</time></trkpt>
<trkpt lat="43.0956520000" lon="-0.9986970000"><ele>995</ele><time>2026-04-26T11:31:13Z</time></trkpt>
<trkpt lat="43.0956570000" lon="-0.9987280000"><ele>996</ele><time>2026-04-26T11:31:15Z</time></trkpt>
<trkpt lat="43.0956620000" lon="-0.9987530000"><ele>996</ele><time>2026-04-26T11:31:17Z</time></trkpt>
<trkpt lat="43.0956670000" lon="-0.9987870000"><ele>996</ele><time>2026-04-26T11:31:26Z</time></trkpt>
<trkpt lat="43.0956720000" lon="-0.9988220000"><ele>995</ele><time>2026-04-26T11:31:28Z</time></trkpt>
<trkpt lat="43.0956770000" lon="-0.9988570000"><ele>995</ele><time>2026-04-26T11:31:30Z</time></trkpt>
<trkpt lat="43.0956770000" lon="-0.9988920000"><ele>996</ele><time>2026-04-26T11:31:32Z</time></trkpt>
<trkpt lat="43.0956820000" lon="-0.9989320000"><ele>996</ele><time>2026-04-26T11:31:34Z</time></trkpt>
<trkpt lat="43.0956870000" lon="-0.9989620000"><ele>996</ele><time>2026-04-26T11:31:36Z</time></trkpt>
<trkpt lat="43.0956820000" lon="-0.9989870000"><ele>996</ele><time>2026-04-26T11:31:38Z</time></trkpt>
<trkpt lat="43.0956770000" lon="-0.9990250000"><ele>996</ele><time>2026-04-26T11:31:41Z</time></trkpt>
<trkpt lat="43.0956800000" lon="-0.9990520000"><ele>995</ele><time>2026-04-26T11:31:43Z</time></trkpt>
<trkpt lat="43.0956850000" lon="-0.9990770000"><ele>995</ele><time>2026-04-26T11:31:45Z</time></trkpt>
<trkpt lat="43.0956900000" lon="-0.9991020000"><ele>995</ele><time>2026-04-26T11:31:47Z</time></trkpt>
<trkpt lat="43.0956920000" lon="-0.9991330000"><ele>995</ele><time>2026-04-26T11:31:49Z</time></trkpt>
<trkpt lat="43.0956970000" lon="-0.9991620000"><ele>995</ele><time>2026-04-26T11:31:51Z</time></trkpt>
<trkpt lat="43.0957020000" lon="-0.9991870000"><ele>995</ele><time>2026-04-26T11:31:53Z</time></trkpt>
<trkpt lat="43.0957120000" lon="-0.9992120000"><ele>995</ele><time>2026-04-26T11:31:55Z</time></trkpt>
<trkpt lat="43.0957220000" lon="-0.9992350000"><ele>995</ele><time>2026-04-26T11:31:57Z</time></trkpt>
<trkpt lat="43.0957300000" lon="-0.9992620000"><ele>995</ele><time>2026-04-26T11:31:59Z</time></trkpt>
<trkpt lat="43.0957320000" lon="-0.9992920000"><ele>995</ele><time>2026-04-26T11:32:01Z</time></trkpt>
<trkpt lat="43.0957370000" lon="-0.9993270000"><ele>995</ele><time>2026-04-26T11:32:03Z</time></trkpt>
<trkpt lat="43.0957420000" lon="-0.9993550000"><ele>995</ele><time>2026-04-26T11:32:05Z</time></trkpt>
<trkpt lat="43.0957450000" lon="-0.9993800000"><ele>995</ele><time>2026-04-26T11:32:07Z</time></trkpt>
<trkpt lat="43.0957470000" lon="-0.9994070000"><ele>995</ele><time>2026-04-26T11:32:09Z</time></trkpt>
<trkpt lat="43.0957470000" lon="-0.9994350000"><ele>995</ele><time>2026-04-26T11:32:11Z</time></trkpt>
<trkpt lat="43.0957520000" lon="-0.9994600000"><ele>995</ele><time>2026-04-26T11:32:13Z</time></trkpt>
<trkpt lat="43.0957520000" lon="-0.9994920000"><ele>995</ele><time>2026-04-26T11:32:15Z</time></trkpt>
<trkpt lat="43.0957520000" lon="-0.9995220000"><ele>995</ele><time>2026-04-26T11:32:17Z</time></trkpt>
<trkpt lat="43.0957520000" lon="-0.9995500000"><ele>995</ele><time>2026-04-26T11:32:19Z</time></trkpt>
<trkpt lat="43.0957620000" lon="-0.9995800000"><ele>995</ele><time>2026-04-26T11:32:21Z</time></trkpt>
<trkpt lat="43.0957670000" lon="-0.9996070000"><ele>995</ele><time>2026-04-26T11:32:23Z</time></trkpt>
<trkpt lat="43.0957720000" lon="-0.9996370000"><ele>995</ele><time>2026-04-26T11:32:25Z</time></trkpt>
<trkpt lat="43.0957770000" lon="-0.9996670000"><ele>995</ele><time>2026-04-26T11:32:27Z</time></trkpt>
<trkpt lat="43.0957800000" lon="-0.9996970000"><ele>995</ele><time>2026-04-26T11:32:29Z</time></trkpt>
<trkpt lat="43.0957820000" lon="-0.9997220000"><ele>995</ele><time>2026-04-26T11:32:31Z</time></trkpt>
<trkpt lat="43.0957900000" lon="-0.9997500000"><ele>995</ele><time>2026-04-26T11:32:33Z</time></trkpt>
<trkpt lat="43.0957970000" lon="-0.9997770000"><ele>995</ele><time>2026-04-26T11:32:35Z</time></trkpt>
<trkpt lat="43.0957970000" lon="-0.9998120000"><ele>995</ele><time>2026-04-26T11:32:37Z</time></trkpt>
<trkpt lat="43.0957970000" lon="-0.9998420000"><ele>995</ele><time>2026-04-26T11:32:39Z</time></trkpt>
<trkpt lat="43.0958050000" lon="-0.9998670000"><ele>995</ele><time>2026-04-26T11:32:41Z</time></trkpt>
<trkpt lat="43.0958020000" lon="-0.9998970000"><ele>995</ele><time>2026-04-26T11:32:43Z</time></trkpt>
<trkpt lat="43.0957920000" lon="-0.9999370000"><ele>995</ele><time>2026-04-26T11:32:45Z</time></trkpt>
<trkpt lat="43.0957850000" lon="-0.9999770000"><ele>995</ele><time>2026-04-26T11:32:47Z</time></trkpt>
<trkpt lat="43.0957800000" lon="-1.0000120000"><ele>995</ele><time>2026-04-26T11:32:49Z</time></trkpt>
<trkpt lat="43.0957800000" lon="-1.0000420000"><ele>995</ele><time>2026-04-26T11:32:51Z</time></trkpt>
<trkpt lat="43.0957820000" lon="-1.0000700000"><ele>995</ele><time>2026-04-26T11:32:53Z</time></trkpt>
<trkpt lat="43.0957920000" lon="-1.0001000000"><ele>995</ele><time>2026-04-26T11:32:56Z</time></trkpt>
<trkpt lat="43.0957950000" lon="-1.0001270000"><ele>995</ele><time>2026-04-26T11:32:58Z</time></trkpt>
<trkpt lat="43.0958000000" lon="-1.0001570000"><ele>995</ele><time>2026-04-26T11:33:00Z</time></trkpt>
<trkpt lat="43.0958020000" lon="-1.0001820000"><ele>995</ele><time>2026-04-26T11:33:02Z</time></trkpt>
<trkpt lat="43.0958070000" lon="-1.0002200000"><ele>995</ele><time>2026-04-26T11:33:05Z</time></trkpt>
<trkpt lat="43.0958120000" lon="-1.0002470000"><ele>995</ele><time>2026-04-26T11:33:07Z</time></trkpt>
<trkpt lat="43.0958120000" lon="-1.0002770000"><ele>995</ele><time>2026-04-26T11:33:09Z</time></trkpt>
<trkpt lat="43.0958120000" lon="-1.0003050000"><ele>995</ele><time>2026-04-26T11:33:11Z</time></trkpt>
<trkpt lat="43.0958120000" lon="-1.0003320000"><ele>996</ele><time>2026-04-26T11:33:13Z</time></trkpt>
<trkpt lat="43.0958120000" lon="-1.0003600000"><ele>996</ele><time>2026-04-26T11:33:15Z</time></trkpt>
<trkpt lat="43.0958120000" lon="-1.0003870000"><ele>996</ele><time>2026-04-26T11:33:17Z</time></trkpt>
<trkpt lat="43.0958170000" lon="-1.0004200000"><ele>996</ele><time>2026-04-26T11:33:19Z</time></trkpt>
<trkpt lat="43.0958170000" lon="-1.0004520000"><ele>996</ele><time>2026-04-26T11:33:21Z</time></trkpt>
<trkpt lat="43.0958220000" lon="-1.0004820000"><ele>996</ele><time>2026-04-26T11:33:23Z</time></trkpt>
<trkpt lat="43.0958220000" lon="-1.0005070000"><ele>996</ele><time>2026-04-26T11:33:25Z</time></trkpt>
<trkpt lat="43.0958320000" lon="-1.0005320000"><ele>996</ele><time>2026-04-26T11:33:27Z</time></trkpt>
<trkpt lat="43.0958350000" lon="-1.0005580000"><ele>996</ele><time>2026-04-26T11:33:29Z</time></trkpt>
<trkpt lat="43.0958400000" lon="-1.0005920000"><ele>996</ele><time>2026-04-26T11:33:31Z</time></trkpt>
<trkpt lat="43.0958450000" lon="-1.0006200000"><ele>996</ele><time>2026-04-26T11:33:33Z</time></trkpt>
<trkpt lat="43.0958470000" lon="-1.0006470000"><ele>996</ele><time>2026-04-26T11:33:35Z</time></trkpt>
<trkpt lat="43.0958600000" lon="-1.0006720000"><ele>997</ele><time>2026-04-26T11:33:38Z</time></trkpt>
<trkpt lat="43.0958670000" lon="-1.0007050000"><ele>997</ele><time>2026-04-26T11:33:55Z</time></trkpt>
<trkpt lat="43.0958570000" lon="-1.0007550000"><ele>997</ele><time>2026-04-26T11:33:57Z</time></trkpt>
<trkpt lat="43.0958570000" lon="-1.0007820000"><ele>997</ele><time>2026-04-26T11:33:58Z</time></trkpt>
<trkpt lat="43.0958620000" lon="-1.0008070000"><ele>997</ele><time>2026-04-26T11:34:00Z</time></trkpt>
<trkpt lat="43.0958720000" lon="-1.0008330000"><ele>997</ele><time>2026-04-26T11:34:09Z</time></trkpt>
<trkpt lat="43.0958850000" lon="-1.0008680000"><ele>997</ele><time>2026-04-26T11:34:11Z</time></trkpt>
<trkpt lat="43.0958970000" lon="-1.0009020000"><ele>998</ele><time>2026-04-26T11:34:13Z</time></trkpt>
<trkpt lat="43.0959020000" lon="-1.0009270000"><ele>998</ele><time>2026-04-26T11:34:15Z</time></trkpt>
<trkpt lat="43.0959070000" lon="-1.0009670000"><ele>998</ele><time>2026-04-26T11:34:28Z</time></trkpt>
<trkpt lat="43.0959120000" lon="-1.0010070000"><ele>998</ele><time>2026-04-26T11:34:30Z</time></trkpt>
<trkpt lat="43.0959200000" lon="-1.0010420000"><ele>998</ele><time>2026-04-26T11:34:32Z</time></trkpt>
<trkpt lat="43.0959250000" lon="-1.0010720000"><ele>998</ele><time>2026-04-26T11:34:34Z</time></trkpt>
<trkpt lat="43.0959300000" lon="-1.0010970000"><ele>998</ele><time>2026-04-26T11:34:36Z</time></trkpt>
<trkpt lat="43.0959320000" lon="-1.0011250000"><ele>998</ele><time>2026-04-26T11:34:38Z</time></trkpt>
<trkpt lat="43.0959400000" lon="-1.0011470000"><ele>999</ele><time>2026-04-26T11:34:40Z</time></trkpt>
<trkpt lat="43.0959450000" lon="-1.0011720000"><ele>999</ele><time>2026-04-26T11:34:42Z</time></trkpt>
<trkpt lat="43.0959520000" lon="-1.0012070000"><ele>999</ele><time>2026-04-26T11:34:45Z</time></trkpt>
<trkpt lat="43.0959570000" lon="-1.0012370000"><ele>999</ele><time>2026-04-26T11:34:47Z</time></trkpt>
<trkpt lat="43.0959650000" lon="-1.0012620000"><ele>999</ele><time>2026-04-26T11:34:50Z</time></trkpt>
<trkpt lat="43.0959700000" lon="-1.0012870000"><ele>1000</ele><time>2026-04-26T11:35:04Z</time></trkpt>
<trkpt lat="43.0959820000" lon="-1.0013220000"><ele>1000</ele><time>2026-04-26T11:35:10Z</time></trkpt>
<trkpt lat="43.0959950000" lon="-1.0013570000"><ele>1001</ele><time>2026-04-26T11:35:12Z</time></trkpt>
<trkpt lat="43.0960020000" lon="-1.0013920000"><ele>1001</ele><time>2026-04-26T11:35:14Z</time></trkpt>
<trkpt lat="43.0960070000" lon="-1.0014170000"><ele>1001</ele><time>2026-04-26T11:35:16Z</time></trkpt>
<trkpt lat="43.0960070000" lon="-1.0014520000"><ele>1001</ele><time>2026-04-26T11:35:19Z</time></trkpt>
<trkpt lat="43.0960070000" lon="-1.0014820000"><ele>1001</ele><time>2026-04-26T11:35:21Z</time></trkpt>
<trkpt lat="43.0960070000" lon="-1.0015150000"><ele>1001</ele><time>2026-04-26T11:35:23Z</time></trkpt>
<trkpt lat="43.0960120000" lon="-1.0015420000"><ele>1001</ele><time>2026-04-26T11:35:25Z</time></trkpt>
<trkpt lat="43.0960150000" lon="-1.0015700000"><ele>1002</ele><time>2026-04-26T11:35:27Z</time></trkpt>
<trkpt lat="43.0960150000" lon="-1.0016000000"><ele>1002</ele><time>2026-04-26T11:35:29Z</time></trkpt>
<trkpt lat="43.0960150000" lon="-1.0016280000"><ele>1002</ele><time>2026-04-26T11:35:31Z</time></trkpt>
<trkpt lat="43.0960200000" lon="-1.0016600000"><ele>1002</ele><time>2026-04-26T11:35:33Z</time></trkpt>
<trkpt lat="43.0960220000" lon="-1.0016830000"><ele>1002</ele><time>2026-04-26T11:35:35Z</time></trkpt>
<trkpt lat="43.0960270000" lon="-1.0017120000"><ele>1002</ele><time>2026-04-26T11:35:37Z</time></trkpt>
<trkpt lat="43.0960320000" lon="-1.0017420000"><ele>1002</ele><time>2026-04-26T11:35:39Z</time></trkpt>
<trkpt lat="43.0960400000" lon="-1.0017670000"><ele>1002</ele><time>2026-04-26T11:35:41Z</time></trkpt>
<trkpt lat="43.0960470000" lon="-1.0017920000"><ele>1003</ele><time>2026-04-26T11:35:43Z</time></trkpt>
<trkpt lat="43.0960520000" lon="-1.0018170000"><ele>1003</ele><time>2026-04-26T11:35:45Z</time></trkpt>
<trkpt lat="43.0960570000" lon="-1.0018420000"><ele>1003</ele><time>2026-04-26T11:35:47Z</time></trkpt>
<trkpt lat="43.0960670000" lon="-1.0018700000"><ele>1003</ele><time>2026-04-26T11:35:49Z</time></trkpt>
<trkpt lat="43.0960700000" lon="-1.0018970000"><ele>1003</ele><time>2026-04-26T11:35:51Z</time></trkpt>
<trkpt lat="43.0960770000" lon="-1.0019220000"><ele>1003</ele><time>2026-04-26T11:35:53Z</time></trkpt>
<trkpt lat="43.0960820000" lon="-1.0019480000"><ele>1003</ele><time>2026-04-26T11:35:55Z</time></trkpt>
<trkpt lat="43.0960900000" lon="-1.0019770000"><ele>1003</ele><time>2026-04-26T11:35:57Z</time></trkpt>
<trkpt lat="43.0960970000" lon="-1.0020100000"><ele>1004</ele><time>2026-04-26T11:35:59Z</time></trkpt>
<trkpt lat="43.0961070000" lon="-1.0020400000"><ele>1004</ele><time>2026-04-26T11:36:01Z</time></trkpt>
<trkpt lat="43.0961100000" lon="-1.0020720000"><ele>1004</ele><time>2026-04-26T11:36:03Z</time></trkpt>
<trkpt lat="43.0961120000" lon="-1.0021000000"><ele>1004</ele><time>2026-04-26T11:36:05Z</time></trkpt>
<trkpt lat="43.0961120000" lon="-1.0021280000"><ele>1004</ele><time>2026-04-26T11:36:07Z</time></trkpt>
<trkpt lat="43.0961120000" lon="-1.0021570000"><ele>1004</ele><time>2026-04-26T11:36:09Z</time></trkpt>
<trkpt lat="43.0961170000" lon="-1.0021870000"><ele>1004</ele><time>2026-04-26T11:36:11Z</time></trkpt>
<trkpt lat="43.0961220000" lon="-1.0022150000"><ele>1004</ele><time>2026-04-26T11:36:13Z</time></trkpt>
<trkpt lat="43.0961250000" lon="-1.0022420000"><ele>1004</ele><time>2026-04-26T11:36:15Z</time></trkpt>
<trkpt lat="43.0961220000" lon="-1.0022750000"><ele>1004</ele><time>2026-04-26T11:36:17Z</time></trkpt>
<trkpt lat="43.0961220000" lon="-1.0023070000"><ele>1005</ele><time>2026-04-26T11:36:19Z</time></trkpt>
<trkpt lat="43.0961270000" lon="-1.0023370000"><ele>1005</ele><time>2026-04-26T11:36:21Z</time></trkpt>
<trkpt lat="43.0961330000" lon="-1.0023620000"><ele>1005</ele><time>2026-04-26T11:36:23Z</time></trkpt>
<trkpt lat="43.0961370000" lon="-1.0023880000"><ele>1005</ele><time>2026-04-26T11:36:25Z</time></trkpt>
<trkpt lat="43.0961420000" lon="-1.0024170000"><ele>1005</ele><time>2026-04-26T11:36:27Z</time></trkpt>
<trkpt lat="43.0961470000" lon="-1.0024470000"><ele>1005</ele><time>2026-04-26T11:36:29Z</time></trkpt>
<trkpt lat="43.0961520000" lon="-1.0024770000"><ele>1005</ele><time>2026-04-26T11:36:31Z</time></trkpt>
<trkpt lat="43.0961520000" lon="-1.0025120000"><ele>1005</ele><time>2026-04-26T11:36:33Z</time></trkpt>
<trkpt lat="43.0961520000" lon="-1.0025470000"><ele>1005</ele><time>2026-04-26T11:36:35Z</time></trkpt>
<trkpt lat="43.0961520000" lon="-1.0025820000"><ele>1006</ele><time>2026-04-26T11:36:37Z</time></trkpt>
<trkpt lat="43.0961520000" lon="-1.0026100000"><ele>1006</ele><time>2026-04-26T11:36:39Z</time></trkpt>
<trkpt lat="43.0961520000" lon="-1.0026400000"><ele>1006</ele><time>2026-04-26T11:36:41Z</time></trkpt>
<trkpt lat="43.0961550000" lon="-1.0026680000"><ele>1006</ele><time>2026-04-26T11:36:43Z</time></trkpt>
<trkpt lat="43.0961570000" lon="-1.0026970000"><ele>1006</ele><time>2026-04-26T11:36:45Z</time></trkpt>
<trkpt lat="43.0961600000" lon="-1.0027220000"><ele>1006</ele><time>2026-04-26T11:36:47Z</time></trkpt>
<trkpt lat="43.0961570000" lon="-1.0027520000"><ele>1006</ele><time>2026-04-26T11:36:49Z</time></trkpt>
<trkpt lat="43.0961570000" lon="-1.0027820000"><ele>1006</ele><time>2026-04-26T11:36:51Z</time></trkpt>
<trkpt lat="43.0961600000" lon="-1.0028120000"><ele>1006</ele><time>2026-04-26T11:36:53Z</time></trkpt>
<trkpt lat="43.0961600000" lon="-1.0028420000"><ele>1006</ele><time>2026-04-26T11:36:55Z</time></trkpt>
<trkpt lat="43.0961600000" lon="-1.0028720000"><ele>1006</ele><time>2026-04-26T11:36:57Z</time></trkpt>
<trkpt lat="43.0961570000" lon="-1.0028980000"><ele>1006</ele><time>2026-04-26T11:36:59Z</time></trkpt>
<trkpt lat="43.0961550000" lon="-1.0029250000"><ele>1007</ele><time>2026-04-26T11:37:01Z</time></trkpt>
<trkpt lat="43.0961570000" lon="-1.0029550000"><ele>1007</ele><time>2026-04-26T11:37:03Z</time></trkpt>
<trkpt lat="43.0961570000" lon="-1.0029820000"><ele>1006</ele><time>2026-04-26T11:37:05Z</time></trkpt>
<trkpt lat="43.0961600000" lon="-1.0030170000"><ele>1007</ele><time>2026-04-26T11:37:07Z</time></trkpt>
<trkpt lat="43.0961620000" lon="-1.0030420000"><ele>1007</ele><time>2026-04-26T11:37:09Z</time></trkpt>
<trkpt lat="43.0961650000" lon="-1.0030720000"><ele>1007</ele><time>2026-04-26T11:37:12Z</time></trkpt>
<trkpt lat="43.0961800000" lon="-1.0030950000"><ele>1007</ele><time>2026-04-26T11:37:45Z</time></trkpt>
<trkpt lat="43.0961720000" lon="-1.0031250000"><ele>1007</ele><time>2026-04-26T11:37:49Z</time></trkpt>
<trkpt lat="43.0961770000" lon="-1.0031520000"><ele>1007</ele><time>2026-04-26T11:37:57Z</time></trkpt>
<trkpt lat="43.0961820000" lon="-1.0031870000"><ele>1007</ele><time>2026-04-26T11:37:59Z</time></trkpt>
<trkpt lat="43.0961870000" lon="-1.0032250000"><ele>1007</ele><time>2026-04-26T11:38:01Z</time></trkpt>
<trkpt lat="43.0961950000" lon="-1.0032520000"><ele>1007</ele><time>2026-04-26T11:38:03Z</time></trkpt>
<trkpt lat="43.0962020000" lon="-1.0032770000"><ele>1007</ele><time>2026-04-26T11:38:05Z</time></trkpt>
<trkpt lat="43.0962070000" lon="-1.0033000000"><ele>1007</ele><time>2026-04-26T11:38:07Z</time></trkpt>
<trkpt lat="43.0961970000" lon="-1.0033220000"><ele>1006</ele><time>2026-04-26T11:38:09Z</time></trkpt>
<trkpt lat="43.0961870000" lon="-1.0033430000"><ele>1006</ele><time>2026-04-26T11:38:12Z</time></trkpt>
<trkpt lat="43.0961770000" lon="-1.0033670000"><ele>1006</ele><time>2026-04-26T11:39:32Z</time></trkpt>
<trkpt lat="43.0961750000" lon="-1.0033420000"><ele>1008</ele><time>2026-04-26T11:51:40Z</time></trkpt>
<trkpt lat="43.0961920000" lon="-1.0033700000"><ele>1009</ele><time>2026-04-26T11:52:01Z</time></trkpt>
<trkpt lat="43.0962070000" lon="-1.0034120000"><ele>1009</ele><time>2026-04-26T11:52:03Z</time></trkpt>
<trkpt lat="43.0962150000" lon="-1.0034520000"><ele>1009</ele><time>2026-04-26T11:52:05Z</time></trkpt>
<trkpt lat="43.0962220000" lon="-1.0034870000"><ele>1008</ele><time>2026-04-26T11:52:07Z</time></trkpt>
<trkpt lat="43.0962270000" lon="-1.0035120000"><ele>1008</ele><time>2026-04-26T11:52:09Z</time></trkpt>
<trkpt lat="43.0962320000" lon="-1.0035500000"><ele>1008</ele><time>2026-04-26T11:52:12Z</time></trkpt>
<trkpt lat="43.0962320000" lon="-1.0035770000"><ele>1008</ele><time>2026-04-26T11:52:14Z</time></trkpt>
<trkpt lat="43.0962350000" lon="-1.0036050000"><ele>1008</ele><time>2026-04-26T11:52:16Z</time></trkpt>
<trkpt lat="43.0962400000" lon="-1.0036300000"><ele>1007</ele><time>2026-04-26T11:52:18Z</time></trkpt>
<trkpt lat="43.0962420000" lon="-1.0036600000"><ele>1007</ele><time>2026-04-26T11:52:20Z</time></trkpt>
<trkpt lat="43.0962470000" lon="-1.0036930000"><ele>1007</ele><time>2026-04-26T11:52:23Z</time></trkpt>
<trkpt lat="43.0962520000" lon="-1.0037200000"><ele>1007</ele><time>2026-04-26T11:52:25Z</time></trkpt>
<trkpt lat="43.0962550000" lon="-1.0037570000"><ele>1006</ele><time>2026-04-26T11:52:28Z</time></trkpt>
<trkpt lat="43.0962550000" lon="-1.0037820000"><ele>1006</ele><time>2026-04-26T11:52:30Z</time></trkpt>
<trkpt lat="43.0962600000" lon="-1.0038070000"><ele>1006</ele><time>2026-04-26T11:52:32Z</time></trkpt>
<trkpt lat="43.0962570000" lon="-1.0038350000"><ele>1006</ele><time>2026-04-26T11:52:34Z</time></trkpt>
<trkpt lat="43.0962520000" lon="-1.0038620000"><ele>1005</ele><time>2026-04-26T11:52:36Z</time></trkpt>
<trkpt lat="43.0962500000" lon="-1.0038920000"><ele>1005</ele><time>2026-04-26T11:52:38Z</time></trkpt>
<trkpt lat="43.0962520000" lon="-1.0039170000"><ele>1005</ele><time>2026-04-26T11:52:40Z</time></trkpt>
<trkpt lat="43.0962570000" lon="-1.0039450000"><ele>1005</ele><time>2026-04-26T11:52:42Z</time></trkpt>
<trkpt lat="43.0962600000" lon="-1.0039720000"><ele>1005</ele><time>2026-04-26T11:52:44Z</time></trkpt>
<trkpt lat="43.0962600000" lon="-1.0040020000"><ele>1004</ele><time>2026-04-26T11:52:46Z</time></trkpt>
<trkpt lat="43.0962600000" lon="-1.0040320000"><ele>1004</ele><time>2026-04-26T11:52:48Z</time></trkpt>
<trkpt lat="43.0962620000" lon="-1.0040570000"><ele>1004</ele><time>2026-04-26T11:52:50Z</time></trkpt>
<trkpt lat="43.0962620000" lon="-1.0040820000"><ele>1004</ele><time>2026-04-26T11:52:52Z</time></trkpt>
<trkpt lat="43.0962550000" lon="-1.0041150000"><ele>1003</ele><time>2026-04-26T11:52:54Z</time></trkpt>
<trkpt lat="43.0962520000" lon="-1.0041470000"><ele>1003</ele><time>2026-04-26T11:52:56Z</time></trkpt>
<trkpt lat="43.0962520000" lon="-1.0041720000"><ele>1003</ele><time>2026-04-26T11:52:58Z</time></trkpt>
<trkpt lat="43.0962470000" lon="-1.0041970000"><ele>1003</ele><time>2026-04-26T11:53:00Z</time></trkpt>
<trkpt lat="43.0962420000" lon="-1.0042250000"><ele>1002</ele><time>2026-04-26T11:53:02Z</time></trkpt>
<trkpt lat="43.0962320000" lon="-1.0042550000"><ele>1002</ele><time>2026-04-26T11:53:04Z</time></trkpt>
<trkpt lat="43.0962270000" lon="-1.0042820000"><ele>1002</ele><time>2026-04-26T11:53:06Z</time></trkpt>
<trkpt lat="43.0962220000" lon="-1.0043120000"><ele>1002</ele><time>2026-04-26T11:53:08Z</time></trkpt>
<trkpt lat="43.0962200000" lon="-1.0043370000"><ele>1001</ele><time>2026-04-26T11:53:10Z</time></trkpt>
<trkpt lat="43.0962150000" lon="-1.0043620000"><ele>1001</ele><time>2026-04-26T11:53:12Z</time></trkpt>
<trkpt lat="43.0962070000" lon="-1.0043870000"><ele>1001</ele><time>2026-04-26T11:53:14Z</time></trkpt>
<trkpt lat="43.0962000000" lon="-1.0044150000"><ele>1001</ele><time>2026-04-26T11:53:16Z</time></trkpt>
<trkpt lat="43.0961900000" lon="-1.0044420000"><ele>1001</ele><time>2026-04-26T11:53:18Z</time></trkpt>
<trkpt lat="43.0961870000" lon="-1.0044700000"><ele>1001</ele><time>2026-04-26T11:53:20Z</time></trkpt>
<trkpt lat="43.0961820000" lon="-1.0044980000"><ele>1001</ele><time>2026-04-26T11:53:22Z</time></trkpt>
<trkpt lat="43.0961820000" lon="-1.0045270000"><ele>1000</ele><time>2026-04-26T11:53:24Z</time></trkpt>
<trkpt lat="43.0961870000" lon="-1.0045550000"><ele>1000</ele><time>2026-04-26T11:53:26Z</time></trkpt>
<trkpt lat="43.0961970000" lon="-1.0045800000"><ele>1000</ele><time>2026-04-26T11:53:28Z</time></trkpt>
<trkpt lat="43.0962100000" lon="-1.0045980000"><ele>1000</ele><time>2026-04-26T11:53:30Z</time></trkpt>
<trkpt lat="43.0962200000" lon="-1.0046320000"><ele>999</ele><time>2026-04-26T11:53:33Z</time></trkpt>
<trkpt lat="43.0962220000" lon="-1.0046570000"><ele>999</ele><time>2026-04-26T11:53:35Z</time></trkpt>
<trkpt lat="43.0962300000" lon="-1.0046920000"><ele>998</ele><time>2026-04-26T11:53:38Z</time></trkpt>
<trkpt lat="43.0962370000" lon="-1.0047270000"><ele>998</ele><time>2026-04-26T11:53:41Z</time></trkpt>
<trkpt lat="43.0962450000" lon="-1.0047570000"><ele>997</ele><time>2026-04-26T11:53:44Z</time></trkpt>
<trkpt lat="43.0962500000" lon="-1.0047900000"><ele>996</ele><time>2026-04-26T11:53:48Z</time></trkpt>
<trkpt lat="43.0962470000" lon="-1.0048170000"><ele>996</ele><time>2026-04-26T11:53:50Z</time></trkpt>
<trkpt lat="43.0962400000" lon="-1.0048420000"><ele>995</ele><time>2026-04-26T11:53:52Z</time></trkpt>
<trkpt lat="43.0962270000" lon="-1.0048630000"><ele>995</ele><time>2026-04-26T11:53:54Z</time></trkpt>
<trkpt lat="43.0962120000" lon="-1.0048820000"><ele>995</ele><time>2026-04-26T11:53:56Z</time></trkpt>
<trkpt lat="43.0962020000" lon="-1.0049080000"><ele>995</ele><time>2026-04-26T11:53:58Z</time></trkpt>
<trkpt lat="43.0961920000" lon="-1.0049420000"><ele>995</ele><time>2026-04-26T11:54:01Z</time></trkpt>
<trkpt lat="43.0961820000" lon="-1.0049670000"><ele>994</ele><time>2026-04-26T11:54:03Z</time></trkpt>
<trkpt lat="43.0961750000" lon="-1.0049920000"><ele>994</ele><time>2026-04-26T11:54:05Z</time></trkpt>
<trkpt lat="43.0961600000" lon="-1.0050100000"><ele>994</ele><time>2026-04-26T11:54:07Z</time></trkpt>
<trkpt lat="43.0961550000" lon="-1.0050420000"><ele>994</ele><time>2026-04-26T11:54:10Z</time></trkpt>
<trkpt lat="43.0961570000" lon="-1.0050720000"><ele>994</ele><time>2026-04-26T11:54:12Z</time></trkpt>
<trkpt lat="43.0961520000" lon="-1.0050950000"><ele>994</ele><time>2026-04-26T11:54:14Z</time></trkpt>
<trkpt lat="43.0961450000" lon="-1.0051200000"><ele>994</ele><time>2026-04-26T11:54:16Z</time></trkpt>
<trkpt lat="43.0961320000" lon="-1.0051470000"><ele>994</ele><time>2026-04-26T11:54:19Z</time></trkpt>
<trkpt lat="43.0961170000" lon="-1.0051650000"><ele>994</ele><time>2026-04-26T11:54:21Z</time></trkpt>
<trkpt lat="43.0960970000" lon="-1.0051780000"><ele>993</ele><time>2026-04-26T11:54:23Z</time></trkpt>
<trkpt lat="43.0960820000" lon="-1.0051950000"><ele>994</ele><time>2026-04-26T11:54:25Z</time></trkpt>
<trkpt lat="43.0960650000" lon="-1.0052180000"><ele>994</ele><time>2026-04-26T11:54:28Z</time></trkpt>
<trkpt lat="43.0960470000" lon="-1.0052370000"><ele>994</ele><time>2026-04-26T11:54:31Z</time></trkpt>
<trkpt lat="43.0960650000" lon="-1.0052370000"><ele>994</ele><time>2026-04-26T11:54:35Z</time></trkpt>
<trkpt lat="43.0960820000" lon="-1.0052170000"><ele>994</ele><time>2026-04-26T11:54:38Z</time></trkpt>
<trkpt lat="43.0961020000" lon="-1.0052120000"><ele>994</ele><time>2026-04-26T11:54:42Z</time></trkpt>
<trkpt lat="43.0961270000" lon="-1.0052370000"><ele>991</ele><time>2026-04-26T11:55:05Z</time></trkpt>
<trkpt lat="43.0961450000" lon="-1.0052570000"><ele>991</ele><time>2026-04-26T11:55:06Z</time></trkpt>
<trkpt lat="43.0961620000" lon="-1.0052800000"><ele>991</ele><time>2026-04-26T11:55:07Z</time></trkpt>
<trkpt lat="43.0961750000" lon="-1.0053020000"><ele>991</ele><time>2026-04-26T11:55:08Z</time></trkpt>
<trkpt lat="43.0961900000" lon="-1.0053420000"><ele>990</ele><time>2026-04-26T11:55:10Z</time></trkpt>
<trkpt lat="43.0961870000" lon="-1.0053720000"><ele>990</ele><time>2026-04-26T11:55:12Z</time></trkpt>
<trkpt lat="43.0961820000" lon="-1.0054050000"><ele>990</ele><time>2026-04-26T11:55:14Z</time></trkpt>
<trkpt lat="43.0961820000" lon="-1.0054300000"><ele>990</ele><time>2026-04-26T11:55:16Z</time></trkpt>
<trkpt lat="43.0961770000" lon="-1.0054620000"><ele>989</ele><time>2026-04-26T11:55:18Z</time></trkpt>
<trkpt lat="43.0961670000" lon="-1.0054950000"><ele>989</ele><time>2026-04-26T11:55:20Z</time></trkpt>
<trkpt lat="43.0961570000" lon="-1.0055220000"><ele>989</ele><time>2026-04-26T11:55:22Z</time></trkpt>
<trkpt lat="43.0961520000" lon="-1.0055550000"><ele>989</ele><time>2026-04-26T11:55:24Z</time></trkpt>
<trkpt lat="43.0961400000" lon="-1.0055780000"><ele>989</ele><time>2026-04-26T11:55:26Z</time></trkpt>
<trkpt lat="43.0961300000" lon="-1.0056070000"><ele>988</ele><time>2026-04-26T11:55:28Z</time></trkpt>
<trkpt lat="43.0961200000" lon="-1.0056350000"><ele>988</ele><time>2026-04-26T11:55:30Z</time></trkpt>
<trkpt lat="43.0961070000" lon="-1.0056600000"><ele>988</ele><time>2026-04-26T11:55:32Z</time></trkpt>
<trkpt lat="43.0960970000" lon="-1.0056870000"><ele>987</ele><time>2026-04-26T11:55:34Z</time></trkpt>
<trkpt lat="43.0960870000" lon="-1.0057130000"><ele>987</ele><time>2026-04-26T11:55:36Z</time></trkpt>
<trkpt lat="43.0960800000" lon="-1.0057370000"><ele>987</ele><time>2026-04-26T11:55:38Z</time></trkpt>
<trkpt lat="43.0960720000" lon="-1.0057720000"><ele>987</ele><time>2026-04-26T11:55:40Z</time></trkpt>
<trkpt lat="43.0960670000" lon="-1.0058020000"><ele>987</ele><time>2026-04-26T11:55:42Z</time></trkpt>
<trkpt lat="43.0960600000" lon="-1.0058270000"><ele>987</ele><time>2026-04-26T11:55:44Z</time></trkpt>
<trkpt lat="43.0960520000" lon="-1.0058570000"><ele>987</ele><time>2026-04-26T11:55:46Z</time></trkpt>
<trkpt lat="43.0960470000" lon="-1.0058870000"><ele>987</ele><time>2026-04-26T11:55:48Z</time></trkpt>
<trkpt lat="43.0960370000" lon="-1.0059120000"><ele>987</ele><time>2026-04-26T11:55:50Z</time></trkpt>
<trkpt lat="43.0960320000" lon="-1.0059420000"><ele>987</ele><time>2026-04-26T11:55:52Z</time></trkpt>
<trkpt lat="43.0960270000" lon="-1.0059700000"><ele>987</ele><time>2026-04-26T11:55:54Z</time></trkpt>
<trkpt lat="43.0960250000" lon="-1.0059970000"><ele>987</ele><time>2026-04-26T11:55:56Z</time></trkpt>
<trkpt lat="43.0960170000" lon="-1.0060280000"><ele>987</ele><time>2026-04-26T11:55:58Z</time></trkpt>
<trkpt lat="43.0960120000" lon="-1.0060620000"><ele>987</ele><time>2026-04-26T11:56:00Z</time></trkpt>
<trkpt lat="43.0960100000" lon="-1.0060920000"><ele>987</ele><time>2026-04-26T11:56:02Z</time></trkpt>
<trkpt lat="43.0960050000" lon="-1.0061220000"><ele>987</ele><time>2026-04-26T11:56:04Z</time></trkpt>
<trkpt lat="43.0960020000" lon="-1.0061470000"><ele>987</ele><time>2026-04-26T11:56:06Z</time></trkpt>
<trkpt lat="43.0959970000" lon="-1.0061800000"><ele>987</ele><time>2026-04-26T11:56:08Z</time></trkpt>
<trkpt lat="43.0959920000" lon="-1.0062120000"><ele>986</ele><time>2026-04-26T11:56:10Z</time></trkpt>
<trkpt lat="43.0959870000" lon="-1.0062450000"><ele>986</ele><time>2026-04-26T11:56:12Z</time></trkpt>
<trkpt lat="43.0959770000" lon="-1.0062770000"><ele>986</ele><time>2026-04-26T11:56:14Z</time></trkpt>
<trkpt lat="43.0959670000" lon="-1.0063070000"><ele>986</ele><time>2026-04-26T11:56:16Z</time></trkpt>
<trkpt lat="43.0959570000" lon="-1.0063350000"><ele>986</ele><time>2026-04-26T11:56:18Z</time></trkpt>
<trkpt lat="43.0959470000" lon="-1.0063620000"><ele>986</ele><time>2026-04-26T11:56:20Z</time></trkpt>
<trkpt lat="43.0959420000" lon="-1.0063920000"><ele>986</ele><time>2026-04-26T11:56:22Z</time></trkpt>
<trkpt lat="43.0959420000" lon="-1.0064220000"><ele>985</ele><time>2026-04-26T11:56:24Z</time></trkpt>
<trkpt lat="43.0959320000" lon="-1.0064470000"><ele>985</ele><time>2026-04-26T11:56:26Z</time></trkpt>
<trkpt lat="43.0959220000" lon="-1.0064720000"><ele>985</ele><time>2026-04-26T11:56:28Z</time></trkpt>
<trkpt lat="43.0959100000" lon="-1.0064970000"><ele>984</ele><time>2026-04-26T11:56:30Z</time></trkpt>
<trkpt lat="43.0958920000" lon="-1.0065170000"><ele>984</ele><time>2026-04-26T11:56:32Z</time></trkpt>
<trkpt lat="43.0958800000" lon="-1.0065420000"><ele>984</ele><time>2026-04-26T11:56:34Z</time></trkpt>
<trkpt lat="43.0958670000" lon="-1.0065630000"><ele>984</ele><time>2026-04-26T11:56:36Z</time></trkpt>
<trkpt lat="43.0958520000" lon="-1.0065900000"><ele>984</ele><time>2026-04-26T11:56:38Z</time></trkpt>
<trkpt lat="43.0958450000" lon="-1.0066170000"><ele>983</ele><time>2026-04-26T11:56:40Z</time></trkpt>
<trkpt lat="43.0958270000" lon="-1.0066420000"><ele>983</ele><time>2026-04-26T11:56:42Z</time></trkpt>
<trkpt lat="43.0958170000" lon="-1.0066670000"><ele>983</ele><time>2026-04-26T11:56:44Z</time></trkpt>
<trkpt lat="43.0958070000" lon="-1.0066930000"><ele>982</ele><time>2026-04-26T11:56:46Z</time></trkpt>
<trkpt lat="43.0957970000" lon="-1.0067220000"><ele>982</ele><time>2026-04-26T11:56:48Z</time></trkpt>
<trkpt lat="43.0957870000" lon="-1.0067520000"><ele>982</ele><time>2026-04-26T11:56:50Z</time></trkpt>
<trkpt lat="43.0957800000" lon="-1.0067820000"><ele>982</ele><time>2026-04-26T11:56:52Z</time></trkpt>
<trkpt lat="43.0957720000" lon="-1.0068120000"><ele>982</ele><time>2026-04-26T11:56:54Z</time></trkpt>
<trkpt lat="43.0957620000" lon="-1.0068370000"><ele>982</ele><time>2026-04-26T11:56:56Z</time></trkpt>
<trkpt lat="43.0957520000" lon="-1.0068620000"><ele>981</ele><time>2026-04-26T11:56:58Z</time></trkpt>
<trkpt lat="43.0957400000" lon="-1.0068920000"><ele>981</ele><time>2026-04-26T11:57:00Z</time></trkpt>
<trkpt lat="43.0957320000" lon="-1.0069220000"><ele>981</ele><time>2026-04-26T11:57:02Z</time></trkpt>
<trkpt lat="43.0957250000" lon="-1.0069550000"><ele>981</ele><time>2026-04-26T11:57:04Z</time></trkpt>
<trkpt lat="43.0957170000" lon="-1.0069850000"><ele>980</ele><time>2026-04-26T11:57:06Z</time></trkpt>
<trkpt lat="43.0957070000" lon="-1.0070120000"><ele>980</ele><time>2026-04-26T11:57:08Z</time></trkpt>
<trkpt lat="43.0956970000" lon="-1.0070420000"><ele>980</ele><time>2026-04-26T11:57:10Z</time></trkpt>
<trkpt lat="43.0956870000" lon="-1.0070720000"><ele>980</ele><time>2026-04-26T11:57:12Z</time></trkpt>
<trkpt lat="43.0956770000" lon="-1.0071000000"><ele>980</ele><time>2026-04-26T11:57:14Z</time></trkpt>
<trkpt lat="43.0956670000" lon="-1.0071270000"><ele>980</ele><time>2026-04-26T11:57:16Z</time></trkpt>
<trkpt lat="43.0956570000" lon="-1.0071570000"><ele>980</ele><time>2026-04-26T11:57:18Z</time></trkpt>
<trkpt lat="43.0956470000" lon="-1.0071870000"><ele>980</ele><time>2026-04-26T11:57:20Z</time></trkpt>
<trkpt lat="43.0956400000" lon="-1.0072170000"><ele>979</ele><time>2026-04-26T11:57:22Z</time></trkpt>
<trkpt lat="43.0956320000" lon="-1.0072470000"><ele>979</ele><time>2026-04-26T11:57:24Z</time></trkpt>
<trkpt lat="43.0956250000" lon="-1.0072770000"><ele>979</ele><time>2026-04-26T11:57:26Z</time></trkpt>
<trkpt lat="43.0956170000" lon="-1.0073070000"><ele>979</ele><time>2026-04-26T11:57:28Z</time></trkpt>
<trkpt lat="43.0956050000" lon="-1.0073350000"><ele>979</ele><time>2026-04-26T11:57:30Z</time></trkpt>
<trkpt lat="43.0955950000" lon="-1.0073670000"><ele>979</ele><time>2026-04-26T11:57:32Z</time></trkpt>
<trkpt lat="43.0955820000" lon="-1.0073970000"><ele>979</ele><time>2026-04-26T11:57:34Z</time></trkpt>
<trkpt lat="43.0955770000" lon="-1.0074270000"><ele>979</ele><time>2026-04-26T11:57:36Z</time></trkpt>
<trkpt lat="43.0955650000" lon="-1.0074570000"><ele>979</ele><time>2026-04-26T11:57:38Z</time></trkpt>
<trkpt lat="43.0955550000" lon="-1.0074870000"><ele>979</ele><time>2026-04-26T11:57:40Z</time></trkpt>
<trkpt lat="43.0955420000" lon="-1.0075170000"><ele>979</ele><time>2026-04-26T11:57:42Z</time></trkpt>
<trkpt lat="43.0955320000" lon="-1.0075470000"><ele>979</ele><time>2026-04-26T11:57:44Z</time></trkpt>
<trkpt lat="43.0955250000" lon="-1.0075720000"><ele>979</ele><time>2026-04-26T11:57:46Z</time></trkpt>
<trkpt lat="43.0955150000" lon="-1.0076020000"><ele>979</ele><time>2026-04-26T11:57:48Z</time></trkpt>
<trkpt lat="43.0955070000" lon="-1.0076300000"><ele>979</ele><time>2026-04-26T11:57:50Z</time></trkpt>
<trkpt lat="43.0955000000" lon="-1.0076600000"><ele>979</ele><time>2026-04-26T11:57:52Z</time></trkpt>
<trkpt lat="43.0954870000" lon="-1.0076870000"><ele>979</ele><time>2026-04-26T11:57:54Z</time></trkpt>
<trkpt lat="43.0954800000" lon="-1.0077170000"><ele>979</ele><time>2026-04-26T11:57:56Z</time></trkpt>
<trkpt lat="43.0954720000" lon="-1.0077470000"><ele>980</ele><time>2026-04-26T11:57:58Z</time></trkpt>
<trkpt lat="43.0954670000" lon="-1.0077780000"><ele>980</ele><time>2026-04-26T11:58:00Z</time></trkpt>
<trkpt lat="43.0954650000" lon="-1.0078100000"><ele>980</ele><time>2026-04-26T11:58:02Z</time></trkpt>
<trkpt lat="43.0954600000" lon="-1.0078370000"><ele>980</ele><time>2026-04-26T11:58:04Z</time></trkpt>
<trkpt lat="43.0954600000" lon="-1.0078630000"><ele>980</ele><time>2026-04-26T11:58:06Z</time></trkpt>
<trkpt lat="43.0954570000" lon="-1.0078920000"><ele>981</ele><time>2026-04-26T11:58:08Z</time></trkpt>
<trkpt lat="43.0954520000" lon="-1.0079270000"><ele>981</ele><time>2026-04-26T11:58:10Z</time></trkpt>
<trkpt lat="43.0954550000" lon="-1.0079570000"><ele>981</ele><time>2026-04-26T11:58:12Z</time></trkpt>
<trkpt lat="43.0954570000" lon="-1.0079870000"><ele>981</ele><time>2026-04-26T11:58:14Z</time></trkpt>
<trkpt lat="43.0954600000" lon="-1.0080150000"><ele>981</ele><time>2026-04-26T11:58:16Z</time></trkpt>
<trkpt lat="43.0954600000" lon="-1.0080420000"><ele>981</ele><time>2026-04-26T11:58:18Z</time></trkpt>
<trkpt lat="43.0954600000" lon="-1.0080720000"><ele>981</ele><time>2026-04-26T11:58:20Z</time></trkpt>
<trkpt lat="43.0954520000" lon="-1.0081000000"><ele>981</ele><time>2026-04-26T11:58:22Z</time></trkpt>
<trkpt lat="43.0954430000" lon="-1.0081280000"><ele>981</ele><time>2026-04-26T11:58:24Z</time></trkpt>
<trkpt lat="43.0954420000" lon="-1.0081570000"><ele>981</ele><time>2026-04-26T11:58:26Z</time></trkpt>
<trkpt lat="43.0954400000" lon="-1.0081850000"><ele>980</ele><time>2026-04-26T11:58:28Z</time></trkpt>
<trkpt lat="43.0954400000" lon="-1.0082170000"><ele>980</ele><time>2026-04-26T11:58:30Z</time></trkpt>
<trkpt lat="43.0954470000" lon="-1.0082470000"><ele>980</ele><time>2026-04-26T11:58:32Z</time></trkpt>
<trkpt lat="43.0954500000" lon="-1.0082770000"><ele>980</ele><time>2026-04-26T11:58:34Z</time></trkpt>
<trkpt lat="43.0954520000" lon="-1.0083020000"><ele>980</ele><time>2026-04-26T11:58:36Z</time></trkpt>
<trkpt lat="43.0954550000" lon="-1.0083320000"><ele>980</ele><time>2026-04-26T11:58:38Z</time></trkpt>
<trkpt lat="43.0954570000" lon="-1.0083570000"><ele>979</ele><time>2026-04-26T11:58:40Z</time></trkpt>
<trkpt lat="43.0954620000" lon="-1.0083970000"><ele>979</ele><time>2026-04-26T11:58:43Z</time></trkpt>
<trkpt lat="43.0954670000" lon="-1.0084270000"><ele>979</ele><time>2026-04-26T11:58:45Z</time></trkpt>
<trkpt lat="43.0954600000" lon="-1.0084570000"><ele>978</ele><time>2026-04-26T11:58:47Z</time></trkpt>
<trkpt lat="43.0954570000" lon="-1.0084820000"><ele>978</ele><time>2026-04-26T11:58:49Z</time></trkpt>
<trkpt lat="43.0954600000" lon="-1.0085120000"><ele>978</ele><time>2026-04-26T11:58:51Z</time></trkpt>
<trkpt lat="43.0954670000" lon="-1.0085370000"><ele>978</ele><time>2026-04-26T11:58:53Z</time></trkpt>
<trkpt lat="43.0954720000" lon="-1.0085650000"><ele>977</ele><time>2026-04-26T11:58:55Z</time></trkpt>
<trkpt lat="43.0954720000" lon="-1.0085930000"><ele>977</ele><time>2026-04-26T11:58:57Z</time></trkpt>
<trkpt lat="43.0954700000" lon="-1.0086270000"><ele>976</ele><time>2026-04-26T11:58:59Z</time></trkpt>
<trkpt lat="43.0954670000" lon="-1.0086570000"><ele>976</ele><time>2026-04-26T11:59:01Z</time></trkpt>
<trkpt lat="43.0954670000" lon="-1.0086820000"><ele>976</ele><time>2026-04-26T11:59:03Z</time></trkpt>
<trkpt lat="43.0954670000" lon="-1.0087120000"><ele>976</ele><time>2026-04-26T11:59:05Z</time></trkpt>
<trkpt lat="43.0954600000" lon="-1.0087470000"><ele>975</ele><time>2026-04-26T11:59:07Z</time></trkpt>
<trkpt lat="43.0954520000" lon="-1.0087770000"><ele>975</ele><time>2026-04-26T11:59:09Z</time></trkpt>
<trkpt lat="43.0954470000" lon="-1.0088070000"><ele>975</ele><time>2026-04-26T11:59:11Z</time></trkpt>
<trkpt lat="43.0954420000" lon="-1.0088370000"><ele>975</ele><time>2026-04-26T11:59:13Z</time></trkpt>
<trkpt lat="43.0954420000" lon="-1.0088700000"><ele>975</ele><time>2026-04-26T11:59:15Z</time></trkpt>
<trkpt lat="43.0954370000" lon="-1.0089020000"><ele>975</ele><time>2026-04-26T11:59:17Z</time></trkpt>
<trkpt lat="43.0954320000" lon="-1.0089300000"><ele>975</ele><time>2026-04-26T11:59:19Z</time></trkpt>
<trkpt lat="43.0954270000" lon="-1.0089600000"><ele>974</ele><time>2026-04-26T11:59:21Z</time></trkpt>
<trkpt lat="43.0954200000" lon="-1.0089900000"><ele>974</ele><time>2026-04-26T11:59:23Z</time></trkpt>
<trkpt lat="43.0954100000" lon="-1.0090170000"><ele>974</ele><time>2026-04-26T11:59:25Z</time></trkpt>
<trkpt lat="43.0953970000" lon="-1.0090500000"><ele>974</ele><time>2026-04-26T11:59:27Z</time></trkpt>
<trkpt lat="43.0953920000" lon="-1.0090770000"><ele>974</ele><time>2026-04-26T11:59:29Z</time></trkpt>
<trkpt lat="43.0953850000" lon="-1.0091100000"><ele>973</ele><time>2026-04-26T11:59:31Z</time></trkpt>
<trkpt lat="43.0953770000" lon="-1.0091370000"><ele>973</ele><time>2026-04-26T11:59:33Z</time></trkpt>
<trkpt lat="43.0953720000" lon="-1.0091670000"><ele>973</ele><time>2026-04-26T11:59:35Z</time></trkpt>
<trkpt lat="43.0953670000" lon="-1.0092020000"><ele>973</ele><time>2026-04-26T11:59:37Z</time></trkpt>
<trkpt lat="43.0953570000" lon="-1.0092320000"><ele>973</ele><time>2026-04-26T11:59:39Z</time></trkpt>
<trkpt lat="43.0953470000" lon="-1.0092600000"><ele>973</ele><time>2026-04-26T11:59:41Z</time></trkpt>
<trkpt lat="43.0953370000" lon="-1.0092870000"><ele>973</ele><time>2026-04-26T11:59:43Z</time></trkpt>
<trkpt lat="43.0953300000" lon="-1.0093200000"><ele>973</ele><time>2026-04-26T11:59:45Z</time></trkpt>
<trkpt lat="43.0953220000" lon="-1.0093480000"><ele>972</ele><time>2026-04-26T11:59:47Z</time></trkpt>
<trkpt lat="43.0953120000" lon="-1.0093800000"><ele>972</ele><time>2026-04-26T11:59:49Z</time></trkpt>
<trkpt lat="43.0953050000" lon="-1.0094100000"><ele>972</ele><time>2026-04-26T11:59:51Z</time></trkpt>
<trkpt lat="43.0952970000" lon="-1.0094420000"><ele>972</ele><time>2026-04-26T11:59:53Z</time></trkpt>
<trkpt lat="43.0952920000" lon="-1.0094730000"><ele>972</ele><time>2026-04-26T11:59:55Z</time></trkpt>
<trkpt lat="43.0952870000" lon="-1.0095050000"><ele>972</ele><time>2026-04-26T11:59:57Z</time></trkpt>
<trkpt lat="43.0952800000" lon="-1.0095400000"><ele>972</ele><time>2026-04-26T11:59:59Z</time></trkpt>
<trkpt lat="43.0952720000" lon="-1.0095720000"><ele>972</ele><time>2026-04-26T12:00:01Z</time></trkpt>
<trkpt lat="43.0952650000" lon="-1.0096050000"><ele>971</ele><time>2026-04-26T12:00:03Z</time></trkpt>
<trkpt lat="43.0952550000" lon="-1.0096350000"><ele>971</ele><time>2026-04-26T12:00:05Z</time></trkpt>
<trkpt lat="43.0952470000" lon="-1.0096650000"><ele>971</ele><time>2026-04-26T12:00:07Z</time></trkpt>
<trkpt lat="43.0952400000" lon="-1.0096950000"><ele>971</ele><time>2026-04-26T12:00:09Z</time></trkpt>
<trkpt lat="43.0952350000" lon="-1.0097250000"><ele>971</ele><time>2026-04-26T12:00:11Z</time></trkpt>
<trkpt lat="43.0952300000" lon="-1.0097570000"><ele>971</ele><time>2026-04-26T12:00:13Z</time></trkpt>
<trkpt lat="43.0952220000" lon="-1.0097880000"><ele>971</ele><time>2026-04-26T12:00:15Z</time></trkpt>
<trkpt lat="43.0952170000" lon="-1.0098200000"><ele>971</ele><time>2026-04-26T12:00:17Z</time></trkpt>
<trkpt lat="43.0952070000" lon="-1.0098520000"><ele>971</ele><time>2026-04-26T12:00:19Z</time></trkpt>
<trkpt lat="43.0951920000" lon="-1.0098830000"><ele>971</ele><time>2026-04-26T12:00:21Z</time></trkpt>
<trkpt lat="43.0951820000" lon="-1.0099170000"><ele>971</ele><time>2026-04-26T12:00:23Z</time></trkpt>
<trkpt lat="43.0951720000" lon="-1.0099450000"><ele>971</ele><time>2026-04-26T12:00:25Z</time></trkpt>
<trkpt lat="43.0951620000" lon="-1.0099720000"><ele>971</ele><time>2026-04-26T12:00:27Z</time></trkpt>
<trkpt lat="43.0951520000" lon="-1.0100050000"><ele>971</ele><time>2026-04-26T12:00:29Z</time></trkpt>
<trkpt lat="43.0951400000" lon="-1.0100400000"><ele>971</ele><time>2026-04-26T12:00:31Z</time></trkpt>
<trkpt lat="43.0951350000" lon="-1.0100770000"><ele>971</ele><time>2026-04-26T12:00:33Z</time></trkpt>
<trkpt lat="43.0951400000" lon="-1.0101070000"><ele>971</ele><time>2026-04-26T12:00:35Z</time></trkpt>
<trkpt lat="43.0951420000" lon="-1.0101400000"><ele>971</ele><time>2026-04-26T12:00:37Z</time></trkpt>
<trkpt lat="43.0951520000" lon="-1.0101670000"><ele>971</ele><time>2026-04-26T12:00:39Z</time></trkpt>
<trkpt lat="43.0951550000" lon="-1.0101930000"><ele>971</ele><time>2026-04-26T12:00:41Z</time></trkpt>
<trkpt lat="43.0951570000" lon="-1.0102250000"><ele>971</ele><time>2026-04-26T12:00:43Z</time></trkpt>
<trkpt lat="43.0951550000" lon="-1.0102570000"><ele>971</ele><time>2026-04-26T12:00:45Z</time></trkpt>
<trkpt lat="43.0951520000" lon="-1.0102870000"><ele>971</ele><time>2026-04-26T12:00:47Z</time></trkpt>
<trkpt lat="43.0951520000" lon="-1.0103200000"><ele>971</ele><time>2026-04-26T12:00:49Z</time></trkpt>
<trkpt lat="43.0951570000" lon="-1.0103520000"><ele>971</ele><time>2026-04-26T12:00:51Z</time></trkpt>
<trkpt lat="43.0951620000" lon="-1.0103820000"><ele>971</ele><time>2026-04-26T12:00:53Z</time></trkpt>
<trkpt lat="43.0951620000" lon="-1.0104120000"><ele>971</ele><time>2026-04-26T12:00:55Z</time></trkpt>
<trkpt lat="43.0951600000" lon="-1.0104450000"><ele>971</ele><time>2026-04-26T12:00:57Z</time></trkpt>
<trkpt lat="43.0951570000" lon="-1.0104770000"><ele>971</ele><time>2026-04-26T12:00:59Z</time></trkpt>
<trkpt lat="43.0951600000" lon="-1.0105080000"><ele>971</ele><time>2026-04-26T12:01:01Z</time></trkpt>
<trkpt lat="43.0951600000" lon="-1.0105420000"><ele>971</ele><time>2026-04-26T12:01:03Z</time></trkpt>
<trkpt lat="43.0951620000" lon="-1.0105720000"><ele>971</ele><time>2026-04-26T12:01:05Z</time></trkpt>
<trkpt lat="43.0951600000" lon="-1.0106020000"><ele>971</ele><time>2026-04-26T12:01:07Z</time></trkpt>
<trkpt lat="43.0951620000" lon="-1.0106370000"><ele>971</ele><time>2026-04-26T12:01:09Z</time></trkpt>
<trkpt lat="43.0951670000" lon="-1.0106720000"><ele>971</ele><time>2026-04-26T12:01:11Z</time></trkpt>
<trkpt lat="43.0951670000" lon="-1.0107020000"><ele>971</ele><time>2026-04-26T12:01:13Z</time></trkpt>
<trkpt lat="43.0951700000" lon="-1.0107320000"><ele>971</ele><time>2026-04-26T12:01:15Z</time></trkpt>
<trkpt lat="43.0951670000" lon="-1.0107620000"><ele>971</ele><time>2026-04-26T12:01:17Z</time></trkpt>
<trkpt lat="43.0951650000" lon="-1.0107950000"><ele>971</ele><time>2026-04-26T12:01:19Z</time></trkpt>
<trkpt lat="43.0951600000" lon="-1.0108250000"><ele>971</ele><time>2026-04-26T12:01:21Z</time></trkpt>
<trkpt lat="43.0951600000" lon="-1.0108570000"><ele>971</ele><time>2026-04-26T12:01:23Z</time></trkpt>
<trkpt lat="43.0951620000" lon="-1.0108820000"><ele>970</ele><time>2026-04-26T12:01:25Z</time></trkpt>
<trkpt lat="43.0951670000" lon="-1.0109170000"><ele>970</ele><time>2026-04-26T12:01:27Z</time></trkpt>
<trkpt lat="43.0951700000" lon="-1.0109500000"><ele>970</ele><time>2026-04-26T12:01:29Z</time></trkpt>
<trkpt lat="43.0951720000" lon="-1.0109820000"><ele>970</ele><time>2026-04-26T12:01:31Z</time></trkpt>
<trkpt lat="43.0951770000" lon="-1.0110080000"><ele>970</ele><time>2026-04-26T12:01:33Z</time></trkpt>
<trkpt lat="43.0951770000" lon="-1.0110370000"><ele>970</ele><time>2026-04-26T12:01:35Z</time></trkpt>
<trkpt lat="43.0951770000" lon="-1.0110620000"><ele>970</ele><time>2026-04-26T12:01:37Z</time></trkpt>
<trkpt lat="43.0951750000" lon="-1.0110880000"><ele>970</ele><time>2026-04-26T12:01:39Z</time></trkpt>
<trkpt lat="43.0951670000" lon="-1.0111200000"><ele>969</ele><time>2026-04-26T12:01:41Z</time></trkpt>
<trkpt lat="43.0951550000" lon="-1.0111520000"><ele>969</ele><time>2026-04-26T12:01:43Z</time></trkpt>
<trkpt lat="43.0951520000" lon="-1.0111830000"><ele>969</ele><time>2026-04-26T12:01:45Z</time></trkpt>
<trkpt lat="43.0951480000" lon="-1.0112150000"><ele>969</ele><time>2026-04-26T12:01:47Z</time></trkpt>
<trkpt lat="43.0951520000" lon="-1.0112450000"><ele>969</ele><time>2026-04-26T12:01:49Z</time></trkpt>
<trkpt lat="43.0951520000" lon="-1.0112720000"><ele>969</ele><time>2026-04-26T12:01:51Z</time></trkpt>
<trkpt lat="43.0951520000" lon="-1.0113020000"><ele>969</ele><time>2026-04-26T12:01:53Z</time></trkpt>
<trkpt lat="43.0951470000" lon="-1.0113300000"><ele>969</ele><time>2026-04-26T12:01:55Z</time></trkpt>
<trkpt lat="43.0951420000" lon="-1.0113620000"><ele>969</ele><time>2026-04-26T12:01:57Z</time></trkpt>
<trkpt lat="43.0951320000" lon="-1.0113970000"><ele>968</ele><time>2026-04-26T12:01:59Z</time></trkpt>
<trkpt lat="43.0951250000" lon="-1.0114270000"><ele>968</ele><time>2026-04-26T12:02:01Z</time></trkpt>
<trkpt lat="43.0951200000" lon="-1.0114620000"><ele>968</ele><time>2026-04-26T12:02:03Z</time></trkpt>
<trkpt lat="43.0951220000" lon="-1.0114970000"><ele>968</ele><time>2026-04-26T12:02:05Z</time></trkpt>
<trkpt lat="43.0951170000" lon="-1.0115220000"><ele>968</ele><time>2026-04-26T12:02:07Z</time></trkpt>
<trkpt lat="43.0951120000" lon="-1.0115570000"><ele>968</ele><time>2026-04-26T12:02:09Z</time></trkpt>
<trkpt lat="43.0951070000" lon="-1.0115870000"><ele>967</ele><time>2026-04-26T12:02:11Z</time></trkpt>
<trkpt lat="43.0951020000" lon="-1.0116170000"><ele>967</ele><time>2026-04-26T12:02:13Z</time></trkpt>
<trkpt lat="43.0950970000" lon="-1.0116470000"><ele>967</ele><time>2026-04-26T12:02:15Z</time></trkpt>
<trkpt lat="43.0950920000" lon="-1.0116770000"><ele>967</ele><time>2026-04-26T12:02:17Z</time></trkpt>
<trkpt lat="43.0950870000" lon="-1.0117100000"><ele>967</ele><time>2026-04-26T12:02:19Z</time></trkpt>
<trkpt lat="43.0950820000" lon="-1.0117420000"><ele>967</ele><time>2026-04-26T12:02:21Z</time></trkpt>
<trkpt lat="43.0950800000" lon="-1.0117720000"><ele>967</ele><time>2026-04-26T12:02:23Z</time></trkpt>
<trkpt lat="43.0950770000" lon="-1.0118020000"><ele>967</ele><time>2026-04-26T12:02:25Z</time></trkpt>
<trkpt lat="43.0950720000" lon="-1.0118320000"><ele>967</ele><time>2026-04-26T12:02:27Z</time></trkpt>
<trkpt lat="43.0950570000" lon="-1.0118620000"><ele>967</ele><time>2026-04-26T12:02:29Z</time></trkpt>
<trkpt lat="43.0950500000" lon="-1.0118970000"><ele>967</ele><time>2026-04-26T12:02:31Z</time></trkpt>
<trkpt lat="43.0950420000" lon="-1.0119270000"><ele>967</ele><time>2026-04-26T12:02:33Z</time></trkpt>
<trkpt lat="43.0950370000" lon="-1.0119570000"><ele>967</ele><time>2026-04-26T12:02:35Z</time></trkpt>
<trkpt lat="43.0950300000" lon="-1.0119870000"><ele>967</ele><time>2026-04-26T12:02:37Z</time></trkpt>
<trkpt lat="43.0950270000" lon="-1.0120150000"><ele>967</ele><time>2026-04-26T12:02:39Z</time></trkpt>
<trkpt lat="43.0950200000" lon="-1.0120470000"><ele>967</ele><time>2026-04-26T12:02:41Z</time></trkpt>
<trkpt lat="43.0950100000" lon="-1.0120770000"><ele>967</ele><time>2026-04-26T12:02:43Z</time></trkpt>
<trkpt lat="43.0950050000" lon="-1.0121050000"><ele>967</ele><time>2026-04-26T12:02:45Z</time></trkpt>
<trkpt lat="43.0950070000" lon="-1.0121350000"><ele>967</ele><time>2026-04-26T12:02:47Z</time></trkpt>
<trkpt lat="43.0950120000" lon="-1.0121620000"><ele>967</ele><time>2026-04-26T12:02:49Z</time></trkpt>
<trkpt lat="43.0950120000" lon="-1.0121920000"><ele>967</ele><time>2026-04-26T12:02:51Z</time></trkpt>
<trkpt lat="43.0950120000" lon="-1.0122170000"><ele>967</ele><time>2026-04-26T12:02:53Z</time></trkpt>
<trkpt lat="43.0950100000" lon="-1.0122520000"><ele>967</ele><time>2026-04-26T12:02:55Z</time></trkpt>
<trkpt lat="43.0950020000" lon="-1.0122900000"><ele>968</ele><time>2026-04-26T12:02:57Z</time></trkpt>
<trkpt lat="43.0949970000" lon="-1.0123200000"><ele>968</ele><time>2026-04-26T12:02:59Z</time></trkpt>
<trkpt lat="43.0949900000" lon="-1.0123500000"><ele>968</ele><time>2026-04-26T12:03:01Z</time></trkpt>
<trkpt lat="43.0949870000" lon="-1.0123850000"><ele>968</ele><time>2026-04-26T12:03:03Z</time></trkpt>
<trkpt lat="43.0949870000" lon="-1.0124170000"><ele>968</ele><time>2026-04-26T12:03:05Z</time></trkpt>
<trkpt lat="43.0949820000" lon="-1.0124420000"><ele>968</ele><time>2026-04-26T12:03:07Z</time></trkpt>
<trkpt lat="43.0949820000" lon="-1.0124720000"><ele>968</ele><time>2026-04-26T12:03:09Z</time></trkpt>
<trkpt lat="43.0949800000" lon="-1.0125050000"><ele>968</ele><time>2026-04-26T12:03:11Z</time></trkpt>
<trkpt lat="43.0949800000" lon="-1.0125370000"><ele>968</ele><time>2026-04-26T12:03:13Z</time></trkpt>
<trkpt lat="43.0949770000" lon="-1.0125720000"><ele>968</ele><time>2026-04-26T12:03:15Z</time></trkpt>
<trkpt lat="43.0949770000" lon="-1.0126020000"><ele>968</ele><time>2026-04-26T12:03:17Z</time></trkpt>
<trkpt lat="43.0949720000" lon="-1.0126370000"><ele>968</ele><time>2026-04-26T12:03:19Z</time></trkpt>
<trkpt lat="43.0949650000" lon="-1.0126670000"><ele>968</ele><time>2026-04-26T12:03:21Z</time></trkpt>
<trkpt lat="43.0949550000" lon="-1.0126970000"><ele>968</ele><time>2026-04-26T12:03:23Z</time></trkpt>
<trkpt lat="43.0949470000" lon="-1.0127270000"><ele>968</ele><time>2026-04-26T12:03:25Z</time></trkpt>
<trkpt lat="43.0949420000" lon="-1.0127600000"><ele>968</ele><time>2026-04-26T12:03:27Z</time></trkpt>
<trkpt lat="43.0949370000" lon="-1.0127920000"><ele>968</ele><time>2026-04-26T12:03:29Z</time></trkpt>
<trkpt lat="43.0949320000" lon="-1.0128250000"><ele>968</ele><time>2026-04-26T12:03:31Z</time></trkpt>
<trkpt lat="43.0949270000" lon="-1.0128520000"><ele>968</ele><time>2026-04-26T12:03:33Z</time></trkpt>
<trkpt lat="43.0949250000" lon="-1.0128820000"><ele>968</ele><time>2026-04-26T12:03:35Z</time></trkpt>
<trkpt lat="43.0949170000" lon="-1.0129120000"><ele>968</ele><time>2026-04-26T12:03:37Z</time></trkpt>
<trkpt lat="43.0949120000" lon="-1.0129420000"><ele>968</ele><time>2026-04-26T12:03:39Z</time></trkpt>
<trkpt lat="43.0949020000" lon="-1.0129720000"><ele>968</ele><time>2026-04-26T12:03:41Z</time></trkpt>
<trkpt lat="43.0948970000" lon="-1.0130020000"><ele>968</ele><time>2026-04-26T12:03:43Z</time></trkpt>
<trkpt lat="43.0948900000" lon="-1.0130320000"><ele>968</ele><time>2026-04-26T12:03:45Z</time></trkpt>
<trkpt lat="43.0948850000" lon="-1.0130620000"><ele>968</ele><time>2026-04-26T12:03:47Z</time></trkpt>
<trkpt lat="43.0948800000" lon="-1.0130920000"><ele>968</ele><time>2026-04-26T12:03:49Z</time></trkpt>
<trkpt lat="43.0948750000" lon="-1.0131270000"><ele>968</ele><time>2026-04-26T12:03:51Z</time></trkpt>
<trkpt lat="43.0948700000" lon="-1.0131570000"><ele>968</ele><time>2026-04-26T12:03:53Z</time></trkpt>
<trkpt lat="43.0948650000" lon="-1.0131870000"><ele>969</ele><time>2026-04-26T12:03:55Z</time></trkpt>
<trkpt lat="43.0948600000" lon="-1.0132220000"><ele>969</ele><time>2026-04-26T12:03:57Z</time></trkpt>
<trkpt lat="43.0948620000" lon="-1.0132550000"><ele>969</ele><time>2026-04-26T12:03:59Z</time></trkpt>
<trkpt lat="43.0948620000" lon="-1.0132820000"><ele>969</ele><time>2026-04-26T12:04:01Z</time></trkpt>
<trkpt lat="43.0948570000" lon="-1.0133120000"><ele>969</ele><time>2026-04-26T12:04:03Z</time></trkpt>
<trkpt lat="43.0948500000" lon="-1.0133420000"><ele>969</ele><time>2026-04-26T12:04:05Z</time></trkpt>
<trkpt lat="43.0948380000" lon="-1.0133700000"><ele>969</ele><time>2026-04-26T12:04:07Z</time></trkpt>
<trkpt lat="43.0948270000" lon="-1.0134020000"><ele>969</ele><time>2026-04-26T12:04:09Z</time></trkpt>
<trkpt lat="43.0948070000" lon="-1.0134320000"><ele>969</ele><time>2026-04-26T12:04:11Z</time></trkpt>
<trkpt lat="43.0947950000" lon="-1.0134600000"><ele>969</ele><time>2026-04-26T12:04:13Z</time></trkpt>
<trkpt lat="43.0947870000" lon="-1.0134850000"><ele>969</ele><time>2026-04-26T12:04:15Z</time></trkpt>
<trkpt lat="43.0947770000" lon="-1.0135120000"><ele>969</ele><time>2026-04-26T12:04:17Z</time></trkpt>
<trkpt lat="43.0947720000" lon="-1.0135420000"><ele>969</ele><time>2026-04-26T12:04:19Z</time></trkpt>
<trkpt lat="43.0947680000" lon="-1.0135700000"><ele>969</ele><time>2026-04-26T12:04:21Z</time></trkpt>
<trkpt lat="43.0947670000" lon="-1.0135970000"><ele>969</ele><time>2026-04-26T12:04:23Z</time></trkpt>
<trkpt lat="43.0947670000" lon="-1.0136220000"><ele>970</ele><time>2026-04-26T12:04:25Z</time></trkpt>
<trkpt lat="43.0947670000" lon="-1.0136520000"><ele>970</ele><time>2026-04-26T12:04:27Z</time></trkpt>
<trkpt lat="43.0947720000" lon="-1.0136820000"><ele>970</ele><time>2026-04-26T12:04:29Z</time></trkpt>
<trkpt lat="43.0947720000" lon="-1.0137120000"><ele>970</ele><time>2026-04-26T12:04:31Z</time></trkpt>
<trkpt lat="43.0947620000" lon="-1.0137470000"><ele>970</ele><time>2026-04-26T12:04:34Z</time></trkpt>
<trkpt lat="43.0947520000" lon="-1.0137750000"><ele>970</ele><time>2026-04-26T12:04:36Z</time></trkpt>
<trkpt lat="43.0947450000" lon="-1.0138020000"><ele>970</ele><time>2026-04-26T12:04:38Z</time></trkpt>
<trkpt lat="43.0947420000" lon="-1.0138320000"><ele>970</ele><time>2026-04-26T12:04:41Z</time></trkpt>
<trkpt lat="43.0947370000" lon="-1.0138570000"><ele>970</ele><time>2026-04-26T12:04:43Z</time></trkpt>
<trkpt lat="43.0947370000" lon="-1.0138950000"><ele>971</ele><time>2026-04-26T12:04:46Z</time></trkpt>
<trkpt lat="43.0947270000" lon="-1.0139300000"><ele>971</ele><time>2026-04-26T12:04:49Z</time></trkpt>
<trkpt lat="43.0947200000" lon="-1.0139550000"><ele>971</ele><time>2026-04-26T12:04:52Z</time></trkpt>
<trkpt lat="43.0947170000" lon="-1.0139920000"><ele>972</ele><time>2026-04-26T12:04:55Z</time></trkpt>
<trkpt lat="43.0947170000" lon="-1.0140170000"><ele>972</ele><time>2026-04-26T12:04:57Z</time></trkpt>
<trkpt lat="43.0947220000" lon="-1.0140420000"><ele>972</ele><time>2026-04-26T12:04:59Z</time></trkpt>
<trkpt lat="43.0947250000" lon="-1.0140700000"><ele>972</ele><time>2026-04-26T12:05:01Z</time></trkpt>
<trkpt lat="43.0947250000" lon="-1.0140970000"><ele>972</ele><time>2026-04-26T12:05:03Z</time></trkpt>
<trkpt lat="43.0947250000" lon="-1.0141250000"><ele>972</ele><time>2026-04-26T12:05:05Z</time></trkpt>
<trkpt lat="43.0947270000" lon="-1.0141500000"><ele>973</ele><time>2026-04-26T12:05:07Z</time></trkpt>
<trkpt lat="43.0947270000" lon="-1.0141770000"><ele>973</ele><time>2026-04-26T12:05:09Z</time></trkpt>
<trkpt lat="43.0947220000" lon="-1.0142050000"><ele>973</ele><time>2026-04-26T12:05:11Z</time></trkpt>
<trkpt lat="43.0947170000" lon="-1.0142320000"><ele>973</ele><time>2026-04-26T12:05:13Z</time></trkpt>
<trkpt lat="43.0947170000" lon="-1.0142570000"><ele>973</ele><time>2026-04-26T12:05:15Z</time></trkpt>
<trkpt lat="43.0947150000" lon="-1.0142850000"><ele>973</ele><time>2026-04-26T12:05:17Z</time></trkpt>
<trkpt lat="43.0947020000" lon="-1.0143170000"><ele>973</ele><time>2026-04-26T12:05:19Z</time></trkpt>
<trkpt lat="43.0946920000" lon="-1.0143450000"><ele>973</ele><time>2026-04-26T12:05:21Z</time></trkpt>
<trkpt lat="43.0946900000" lon="-1.0143680000"><ele>973</ele><time>2026-04-26T12:05:24Z</time></trkpt>
<trkpt lat="43.0946920000" lon="-1.0144000000"><ele>973</ele><time>2026-04-26T12:05:27Z</time></trkpt>
<trkpt lat="43.0946920000" lon="-1.0144320000"><ele>973</ele><time>2026-04-26T12:05:30Z</time></trkpt>
<trkpt lat="43.0946830000" lon="-1.0144580000"><ele>974</ele><time>2026-04-26T12:05:32Z</time></trkpt>
<trkpt lat="43.0946700000" lon="-1.0144820000"><ele>973</ele><time>2026-04-26T12:05:35Z</time></trkpt>
<trkpt lat="43.0946620000" lon="-1.0145070000"><ele>973</ele><time>2026-04-26T12:06:48Z</time></trkpt>
<trkpt lat="43.0946570000" lon="-1.0145420000"><ele>973</ele><time>2026-04-26T12:06:50Z</time></trkpt>
<trkpt lat="43.0946600000" lon="-1.0145720000"><ele>973</ele><time>2026-04-26T12:07:59Z</time></trkpt>
<trkpt lat="43.0946620000" lon="-1.0146120000"><ele>973</ele><time>2026-04-26T12:08:01Z</time></trkpt>
<trkpt lat="43.0946670000" lon="-1.0146420000"><ele>973</ele><time>2026-04-26T12:08:03Z</time></trkpt>
<trkpt lat="43.0946870000" lon="-1.0146150000"><ele>974</ele><time>2026-04-26T12:10:16Z</time></trkpt>
<trkpt lat="43.0947050000" lon="-1.0145820000"><ele>974</ele><time>2026-04-26T12:10:18Z</time></trkpt>
<trkpt lat="43.0947220000" lon="-1.0145580000"><ele>974</ele><time>2026-04-26T12:10:20Z</time></trkpt>
<trkpt lat="43.0947220000" lon="-1.0145220000"><ele>973</ele><time>2026-04-26T12:10:31Z</time></trkpt>
<trkpt lat="43.0947320000" lon="-1.0144800000"><ele>974</ele><time>2026-04-26T12:10:33Z</time></trkpt>
<trkpt lat="43.0947370000" lon="-1.0144400000"><ele>974</ele><time>2026-04-26T12:10:35Z</time></trkpt>
<trkpt lat="43.0947370000" lon="-1.0144050000"><ele>974</ele><time>2026-04-26T12:10:37Z</time></trkpt>
<trkpt lat="43.0947400000" lon="-1.0143770000"><ele>974</ele><time>2026-04-26T12:10:39Z</time></trkpt>
<trkpt lat="43.0947420000" lon="-1.0143470000"><ele>974</ele><time>2026-04-26T12:10:41Z</time></trkpt>
<trkpt lat="43.0947470000" lon="-1.0143170000"><ele>973</ele><time>2026-04-26T12:10:43Z</time></trkpt>
<trkpt lat="43.0947500000" lon="-1.0142870000"><ele>973</ele><time>2026-04-26T12:10:45Z</time></trkpt>
<trkpt lat="43.0947570000" lon="-1.0142600000"><ele>973</ele><time>2026-04-26T12:10:47Z</time></trkpt>
<trkpt lat="43.0947720000" lon="-1.0142320000"><ele>973</ele><time>2026-04-26T12:10:49Z</time></trkpt>
<trkpt lat="43.0947820000" lon="-1.0142070000"><ele>973</ele><time>2026-04-26T12:10:51Z</time></trkpt>
<trkpt lat="43.0947920000" lon="-1.0141820000"><ele>973</ele><time>2026-04-26T12:10:53Z</time></trkpt>
<trkpt lat="43.0947920000" lon="-1.0141520000"><ele>973</ele><time>2026-04-26T12:10:55Z</time></trkpt>
<trkpt lat="43.0947920000" lon="-1.0141220000"><ele>972</ele><time>2026-04-26T12:10:57Z</time></trkpt>
<trkpt lat="43.0947970000" lon="-1.0140920000"><ele>972</ele><time>2026-04-26T12:10:59Z</time></trkpt>
<trkpt lat="43.0948020000" lon="-1.0140620000"><ele>972</ele><time>2026-04-26T12:11:01Z</time></trkpt>
<trkpt lat="43.0948070000" lon="-1.0140350000"><ele>972</ele><time>2026-04-26T12:11:03Z</time></trkpt>
<trkpt lat="43.0948120000" lon="-1.0140020000"><ele>972</ele><time>2026-04-26T12:11:05Z</time></trkpt>
<trkpt lat="43.0948120000" lon="-1.0139750000"><ele>971</ele><time>2026-04-26T12:11:07Z</time></trkpt>
<trkpt lat="43.0948120000" lon="-1.0139470000"><ele>971</ele><time>2026-04-26T12:11:10Z</time></trkpt>
<trkpt lat="43.0948350000" lon="-1.0139400000"><ele>970</ele><time>2026-04-26T12:11:38Z</time></trkpt>
<trkpt lat="43.0948520000" lon="-1.0139370000"><ele>970</ele><time>2026-04-26T12:11:41Z</time></trkpt>
<trkpt lat="43.0948320000" lon="-1.0139320000"><ele>970</ele><time>2026-04-26T12:12:09Z</time></trkpt>
<trkpt lat="43.0948170000" lon="-1.0139000000"><ele>970</ele><time>2026-04-26T12:12:11Z</time></trkpt>
<trkpt lat="43.0948220000" lon="-1.0138600000"><ele>970</ele><time>2026-04-26T12:12:13Z</time></trkpt>
<trkpt lat="43.0948320000" lon="-1.0138230000"><ele>970</ele><time>2026-04-26T12:12:15Z</time></trkpt>
<trkpt lat="43.0948350000" lon="-1.0137950000"><ele>970</ele><time>2026-04-26T12:12:17Z</time></trkpt>
<trkpt lat="43.0948370000" lon="-1.0137600000"><ele>970</ele><time>2026-04-26T12:12:20Z</time></trkpt>
<trkpt lat="43.0948370000" lon="-1.0137300000"><ele>970</ele><time>2026-04-26T12:12:22Z</time></trkpt>
<trkpt lat="43.0948450000" lon="-1.0137000000"><ele>969</ele><time>2026-04-26T12:12:24Z</time></trkpt>
<trkpt lat="43.0948550000" lon="-1.0136700000"><ele>969</ele><time>2026-04-26T12:12:26Z</time></trkpt>
<trkpt lat="43.0948670000" lon="-1.0136370000"><ele>969</ele><time>2026-04-26T12:12:28Z</time></trkpt>
<trkpt lat="43.0948750000" lon="-1.0136070000"><ele>969</ele><time>2026-04-26T12:12:30Z</time></trkpt>
<trkpt lat="43.0948820000" lon="-1.0135730000"><ele>969</ele><time>2026-04-26T12:12:32Z</time></trkpt>
<trkpt lat="43.0948870000" lon="-1.0135470000"><ele>969</ele><time>2026-04-26T12:12:34Z</time></trkpt>
<trkpt lat="43.0948870000" lon="-1.0135220000"><ele>968</ele><time>2026-04-26T12:12:36Z</time></trkpt>
<trkpt lat="43.0948900000" lon="-1.0134950000"><ele>968</ele><time>2026-04-26T12:12:38Z</time></trkpt>
<trkpt lat="43.0948920000" lon="-1.0134700000"><ele>968</ele><time>2026-04-26T12:12:40Z</time></trkpt>
<trkpt lat="43.0948950000" lon="-1.0134420000"><ele>968</ele><time>2026-04-26T12:12:42Z</time></trkpt>
<trkpt lat="43.0949050000" lon="-1.0134120000"><ele>968</ele><time>2026-04-26T12:12:44Z</time></trkpt>
<trkpt lat="43.0949170000" lon="-1.0133820000"><ele>968</ele><time>2026-04-26T12:12:46Z</time></trkpt>
<trkpt lat="43.0949320000" lon="-1.0133500000"><ele>967</ele><time>2026-04-26T12:12:48Z</time></trkpt>
<trkpt lat="43.0949470000" lon="-1.0133170000"><ele>967</ele><time>2026-04-26T12:12:50Z</time></trkpt>
<trkpt lat="43.0949620000" lon="-1.0132820000"><ele>967</ele><time>2026-04-26T12:12:52Z</time></trkpt>
<trkpt lat="43.0949670000" lon="-1.0132520000"><ele>967</ele><time>2026-04-26T12:12:54Z</time></trkpt>
<trkpt lat="43.0949750000" lon="-1.0132220000"><ele>967</ele><time>2026-04-26T12:12:56Z</time></trkpt>
<trkpt lat="43.0949800000" lon="-1.0131950000"><ele>967</ele><time>2026-04-26T12:12:58Z</time></trkpt>
<trkpt lat="43.0949870000" lon="-1.0131670000"><ele>967</ele><time>2026-04-26T12:13:00Z</time></trkpt>
<trkpt lat="43.0949970000" lon="-1.0131370000"><ele>966</ele><time>2026-04-26T12:13:02Z</time></trkpt>
<trkpt lat="43.0950100000" lon="-1.0131120000"><ele>966</ele><time>2026-04-26T12:13:04Z</time></trkpt>
<trkpt lat="43.0950170000" lon="-1.0130820000"><ele>966</ele><time>2026-04-26T12:13:06Z</time></trkpt>
<trkpt lat="43.0950220000" lon="-1.0130520000"><ele>966</ele><time>2026-04-26T12:13:08Z</time></trkpt>
<trkpt lat="43.0950300000" lon="-1.0130220000"><ele>966</ele><time>2026-04-26T12:13:10Z</time></trkpt>
<trkpt lat="43.0950420000" lon="-1.0129950000"><ele>966</ele><time>2026-04-26T12:13:12Z</time></trkpt>
<trkpt lat="43.0950520000" lon="-1.0129620000"><ele>966</ele><time>2026-04-26T12:13:14Z</time></trkpt>
<trkpt lat="43.0950630000" lon="-1.0129320000"><ele>966</ele><time>2026-04-26T12:13:16Z</time></trkpt>
<trkpt lat="43.0950750000" lon="-1.0128980000"><ele>965</ele><time>2026-04-26T12:13:18Z</time></trkpt>
<trkpt lat="43.0950870000" lon="-1.0128670000"><ele>965</ele><time>2026-04-26T12:13:20Z</time></trkpt>
<trkpt lat="43.0950970000" lon="-1.0128370000"><ele>965</ele><time>2026-04-26T12:13:22Z</time></trkpt>
<trkpt lat="43.0951070000" lon="-1.0128030000"><ele>965</ele><time>2026-04-26T12:13:24Z</time></trkpt>
<trkpt lat="43.0951200000" lon="-1.0127720000"><ele>965</ele><time>2026-04-26T12:13:26Z</time></trkpt>
<trkpt lat="43.0951300000" lon="-1.0127420000"><ele>964</ele><time>2026-04-26T12:13:28Z</time></trkpt>
<trkpt lat="43.0951400000" lon="-1.0127070000"><ele>964</ele><time>2026-04-26T12:13:30Z</time></trkpt>
<trkpt lat="43.0951470000" lon="-1.0126750000"><ele>964</ele><time>2026-04-26T12:13:32Z</time></trkpt>
<trkpt lat="43.0951570000" lon="-1.0126420000"><ele>964</ele><time>2026-04-26T12:13:34Z</time></trkpt>
<trkpt lat="43.0951670000" lon="-1.0126120000"><ele>964</ele><time>2026-04-26T12:13:36Z</time></trkpt>
<trkpt lat="43.0951750000" lon="-1.0125820000"><ele>964</ele><time>2026-04-26T12:13:38Z</time></trkpt>
<trkpt lat="43.0951850000" lon="-1.0125470000"><ele>963</ele><time>2026-04-26T12:13:40Z</time></trkpt>
<trkpt lat="43.0951920000" lon="-1.0125170000"><ele>963</ele><time>2026-04-26T12:13:42Z</time></trkpt>
<trkpt lat="43.0952020000" lon="-1.0124820000"><ele>963</ele><time>2026-04-26T12:13:44Z</time></trkpt>
<trkpt lat="43.0952100000" lon="-1.0124520000"><ele>963</ele><time>2026-04-26T12:13:46Z</time></trkpt>
<trkpt lat="43.0952170000" lon="-1.0124170000"><ele>962</ele><time>2026-04-26T12:13:48Z</time></trkpt>
<trkpt lat="43.0952220000" lon="-1.0123870000"><ele>962</ele><time>2026-04-26T12:13:50Z</time></trkpt>
<trkpt lat="43.0952300000" lon="-1.0123520000"><ele>962</ele><time>2026-04-26T12:13:52Z</time></trkpt>
<trkpt lat="43.0952350000" lon="-1.0123220000"><ele>962</ele><time>2026-04-26T12:13:54Z</time></trkpt>
<trkpt lat="43.0952450000" lon="-1.0122900000"><ele>962</ele><time>2026-04-26T12:13:56Z</time></trkpt>
<trkpt lat="43.0952520000" lon="-1.0122570000"><ele>961</ele><time>2026-04-26T12:13:58Z</time></trkpt>
<trkpt lat="43.0952650000" lon="-1.0122220000"><ele>961</ele><time>2026-04-26T12:14:00Z</time></trkpt>
<trkpt lat="43.0952770000" lon="-1.0121900000"><ele>961</ele><time>2026-04-26T12:14:02Z</time></trkpt>
<trkpt lat="43.0952820000" lon="-1.0121570000"><ele>961</ele><time>2026-04-26T12:14:04Z</time></trkpt>
<trkpt lat="43.0952920000" lon="-1.0121220000"><ele>960</ele><time>2026-04-26T12:14:06Z</time></trkpt>
<trkpt lat="43.0953020000" lon="-1.0120870000"><ele>960</ele><time>2026-04-26T12:14:08Z</time></trkpt>
<trkpt lat="43.0953120000" lon="-1.0120520000"><ele>960</ele><time>2026-04-26T12:14:12Z</time></trkpt>
<trkpt lat="43.0953270000" lon="-1.0120220000"><ele>960</ele><time>2026-04-26T12:14:14Z</time></trkpt>
<trkpt lat="43.0953400000" lon="-1.0119930000"><ele>960</ele><time>2026-04-26T12:14:16Z</time></trkpt>
<trkpt lat="43.0953470000" lon="-1.0119620000"><ele>960</ele><time>2026-04-26T12:14:18Z</time></trkpt>
<trkpt lat="43.0953570000" lon="-1.0119320000"><ele>960</ele><time>2026-04-26T12:14:20Z</time></trkpt>
<trkpt lat="43.0953620000" lon="-1.0119020000"><ele>959</ele><time>2026-04-26T12:14:22Z</time></trkpt>
<trkpt lat="43.0953700000" lon="-1.0118720000"><ele>959</ele><time>2026-04-26T12:14:24Z</time></trkpt>
<trkpt lat="43.0953820000" lon="-1.0118400000"><ele>959</ele><time>2026-04-26T12:14:26Z</time></trkpt>
<trkpt lat="43.0953870000" lon="-1.0118100000"><ele>959</ele><time>2026-04-26T12:14:28Z</time></trkpt>
<trkpt lat="43.0954000000" lon="-1.0117820000"><ele>958</ele><time>2026-04-26T12:14:30Z</time></trkpt>
<trkpt lat="43.0954100000" lon="-1.0117570000"><ele>958</ele><time>2026-04-26T12:14:32Z</time></trkpt>
<trkpt lat="43.0954320000" lon="-1.0117320000"><ele>958</ele><time>2026-04-26T12:14:35Z</time></trkpt>
<trkpt lat="43.0954470000" lon="-1.0117070000"><ele>958</ele><time>2026-04-26T12:14:37Z</time></trkpt>
<trkpt lat="43.0954600000" lon="-1.0116770000"><ele>957</ele><time>2026-04-26T12:14:39Z</time></trkpt>
<trkpt lat="43.0954770000" lon="-1.0116470000"><ele>957</ele><time>2026-04-26T12:14:41Z</time></trkpt>
<trkpt lat="43.0954920000" lon="-1.0116170000"><ele>957</ele><time>2026-04-26T12:14:43Z</time></trkpt>
<trkpt lat="43.0955020000" lon="-1.0115870000"><ele>956</ele><time>2026-04-26T12:14:45Z</time></trkpt>
<trkpt lat="43.0955120000" lon="-1.0115600000"><ele>956</ele><time>2026-04-26T12:14:47Z</time></trkpt>
<trkpt lat="43.0955270000" lon="-1.0115300000"><ele>956</ele><time>2026-04-26T12:14:49Z</time></trkpt>
<trkpt lat="43.0955370000" lon="-1.0115020000"><ele>956</ele><time>2026-04-26T12:14:51Z</time></trkpt>
<trkpt lat="43.0955520000" lon="-1.0114770000"><ele>956</ele><time>2026-04-26T12:14:53Z</time></trkpt>
<trkpt lat="43.0955650000" lon="-1.0114530000"><ele>955</ele><time>2026-04-26T12:14:55Z</time></trkpt>
<trkpt lat="43.0955770000" lon="-1.0114270000"><ele>955</ele><time>2026-04-26T12:14:57Z</time></trkpt>
<trkpt lat="43.0955870000" lon="-1.0113970000"><ele>955</ele><time>2026-04-26T12:14:59Z</time></trkpt>
<trkpt lat="43.0956020000" lon="-1.0113700000"><ele>955</ele><time>2026-04-26T12:15:01Z</time></trkpt>
<trkpt lat="43.0956170000" lon="-1.0113420000"><ele>955</ele><time>2026-04-26T12:15:03Z</time></trkpt>
<trkpt lat="43.0956250000" lon="-1.0113120000"><ele>954</ele><time>2026-04-26T12:15:05Z</time></trkpt>
<trkpt lat="43.0956370000" lon="-1.0112820000"><ele>954</ele><time>2026-04-26T12:15:07Z</time></trkpt>
<trkpt lat="43.0956500000" lon="-1.0112520000"><ele>954</ele><time>2026-04-26T12:15:09Z</time></trkpt>
<trkpt lat="43.0956520000" lon="-1.0112200000"><ele>954</ele><time>2026-04-26T12:15:11Z</time></trkpt>
<trkpt lat="43.0956620000" lon="-1.0111870000"><ele>954</ele><time>2026-04-26T12:15:13Z</time></trkpt>
<trkpt lat="43.0956820000" lon="-1.0111570000"><ele>954</ele><time>2026-04-26T12:15:15Z</time></trkpt>
<trkpt lat="43.0956950000" lon="-1.0111270000"><ele>953</ele><time>2026-04-26T12:15:17Z</time></trkpt>
<trkpt lat="43.0957070000" lon="-1.0110970000"><ele>953</ele><time>2026-04-26T12:15:19Z</time></trkpt>
<trkpt lat="43.0957200000" lon="-1.0110700000"><ele>953</ele><time>2026-04-26T12:15:21Z</time></trkpt>
<trkpt lat="43.0957320000" lon="-1.0110420000"><ele>953</ele><time>2026-04-26T12:15:23Z</time></trkpt>
<trkpt lat="43.0957420000" lon="-1.0110150000"><ele>953</ele><time>2026-04-26T12:15:25Z</time></trkpt>
<trkpt lat="43.0957520000" lon="-1.0109870000"><ele>953</ele><time>2026-04-26T12:15:27Z</time></trkpt>
<trkpt lat="43.0957620000" lon="-1.0109530000"><ele>953</ele><time>2026-04-26T12:15:29Z</time></trkpt>
<trkpt lat="43.0957700000" lon="-1.0109270000"><ele>952</ele><time>2026-04-26T12:15:31Z</time></trkpt>
<trkpt lat="43.0957750000" lon="-1.0108970000"><ele>952</ele><time>2026-04-26T12:15:33Z</time></trkpt>
<trkpt lat="43.0957870000" lon="-1.0108670000"><ele>952</ele><time>2026-04-26T12:15:35Z</time></trkpt>
<trkpt lat="43.0957970000" lon="-1.0108330000"><ele>952</ele><time>2026-04-26T12:15:37Z</time></trkpt>
<trkpt lat="43.0958100000" lon="-1.0108070000"><ele>952</ele><time>2026-04-26T12:15:39Z</time></trkpt>
<trkpt lat="43.0958200000" lon="-1.0107720000"><ele>952</ele><time>2026-04-26T12:15:41Z</time></trkpt>
<trkpt lat="43.0958270000" lon="-1.0107380000"><ele>951</ele><time>2026-04-26T12:15:43Z</time></trkpt>
<trkpt lat="43.0958370000" lon="-1.0107100000"><ele>951</ele><time>2026-04-26T12:15:45Z</time></trkpt>
<trkpt lat="43.0958420000" lon="-1.0106800000"><ele>951</ele><time>2026-04-26T12:15:47Z</time></trkpt>
<trkpt lat="43.0958520000" lon="-1.0106500000"><ele>950</ele><time>2026-04-26T12:15:49Z</time></trkpt>
<trkpt lat="43.0958600000" lon="-1.0106170000"><ele>950</ele><time>2026-04-26T12:15:51Z</time></trkpt>
<trkpt lat="43.0958670000" lon="-1.0105900000"><ele>950</ele><time>2026-04-26T12:15:53Z</time></trkpt>
<trkpt lat="43.0958750000" lon="-1.0105570000"><ele>950</ele><time>2026-04-26T12:15:55Z</time></trkpt>
<trkpt lat="43.0958800000" lon="-1.0105220000"><ele>950</ele><time>2026-04-26T12:15:57Z</time></trkpt>
<trkpt lat="43.0958920000" lon="-1.0104870000"><ele>949</ele><time>2026-04-26T12:15:59Z</time></trkpt>
<trkpt lat="43.0959070000" lon="-1.0104620000"><ele>949</ele><time>2026-04-26T12:16:01Z</time></trkpt>
<trkpt lat="43.0959250000" lon="-1.0104420000"><ele>949</ele><time>2026-04-26T12:16:03Z</time></trkpt>
<trkpt lat="43.0959320000" lon="-1.0104170000"><ele>948</ele><time>2026-04-26T12:16:05Z</time></trkpt>
<trkpt lat="43.0959420000" lon="-1.0103870000"><ele>948</ele><time>2026-04-26T12:16:07Z</time></trkpt>
<trkpt lat="43.0959500000" lon="-1.0103620000"><ele>948</ele><time>2026-04-26T12:16:09Z</time></trkpt>
<trkpt lat="43.0959620000" lon="-1.0103320000"><ele>947</ele><time>2026-04-26T12:16:11Z</time></trkpt>
<trkpt lat="43.0959720000" lon="-1.0103020000"><ele>947</ele><time>2026-04-26T12:16:13Z</time></trkpt>
<trkpt lat="43.0959770000" lon="-1.0102720000"><ele>947</ele><time>2026-04-26T12:16:15Z</time></trkpt>
<trkpt lat="43.0959820000" lon="-1.0102450000"><ele>947</ele><time>2026-04-26T12:16:17Z</time></trkpt>
<trkpt lat="43.0959900000" lon="-1.0102120000"><ele>947</ele><time>2026-04-26T12:16:19Z</time></trkpt>
<trkpt lat="43.0960000000" lon="-1.0101820000"><ele>946</ele><time>2026-04-26T12:16:21Z</time></trkpt>
<trkpt lat="43.0960050000" lon="-1.0101520000"><ele>946</ele><time>2026-04-26T12:16:23Z</time></trkpt>
<trkpt lat="43.0960170000" lon="-1.0101220000"><ele>946</ele><time>2026-04-26T12:16:25Z</time></trkpt>
<trkpt lat="43.0960320000" lon="-1.0100900000"><ele>946</ele><time>2026-04-26T12:16:27Z</time></trkpt>
<trkpt lat="43.0960470000" lon="-1.0100580000"><ele>945</ele><time>2026-04-26T12:16:29Z</time></trkpt>
<trkpt lat="43.0960600000" lon="-1.0100320000"><ele>945</ele><time>2026-04-26T12:16:31Z</time></trkpt>
<trkpt lat="43.0960670000" lon="-1.0100020000"><ele>945</ele><time>2026-04-26T12:16:33Z</time></trkpt>
<trkpt lat="43.0960770000" lon="-1.0099680000"><ele>945</ele><time>2026-04-26T12:16:35Z</time></trkpt>
<trkpt lat="43.0960920000" lon="-1.0099320000"><ele>945</ele><time>2026-04-26T12:16:37Z</time></trkpt>
<trkpt lat="43.0961170000" lon="-1.0099020000"><ele>944</ele><time>2026-04-26T12:16:39Z</time></trkpt>
<trkpt lat="43.0961300000" lon="-1.0098830000"><ele>944</ele><time>2026-04-26T12:16:40Z</time></trkpt>
<trkpt lat="43.0961450000" lon="-1.0098550000"><ele>944</ele><time>2026-04-26T12:16:42Z</time></trkpt>
<trkpt lat="43.0961520000" lon="-1.0098250000"><ele>944</ele><time>2026-04-26T12:16:44Z</time></trkpt>
<trkpt lat="43.0961650000" lon="-1.0097920000"><ele>944</ele><time>2026-04-26T12:16:46Z</time></trkpt>
<trkpt lat="43.0961750000" lon="-1.0097600000"><ele>943</ele><time>2026-04-26T12:16:48Z</time></trkpt>
<trkpt lat="43.0961820000" lon="-1.0097250000"><ele>943</ele><time>2026-04-26T12:16:50Z</time></trkpt>
<trkpt lat="43.0961920000" lon="-1.0096970000"><ele>943</ele><time>2026-04-26T12:16:52Z</time></trkpt>
<trkpt lat="43.0962070000" lon="-1.0096720000"><ele>942</ele><time>2026-04-26T12:16:54Z</time></trkpt>
<trkpt lat="43.0962150000" lon="-1.0096470000"><ele>942</ele><time>2026-04-26T12:16:56Z</time></trkpt>
<trkpt lat="43.0962270000" lon="-1.0096180000"><ele>942</ele><time>2026-04-26T12:16:58Z</time></trkpt>
<trkpt lat="43.0962350000" lon="-1.0095900000"><ele>941</ele><time>2026-04-26T12:17:00Z</time></trkpt>
<trkpt lat="43.0962370000" lon="-1.0095600000"><ele>941</ele><time>2026-04-26T12:17:02Z</time></trkpt>
<trkpt lat="43.0962400000" lon="-1.0095300000"><ele>941</ele><time>2026-04-26T12:17:04Z</time></trkpt>
<trkpt lat="43.0962450000" lon="-1.0094970000"><ele>940</ele><time>2026-04-26T12:17:06Z</time></trkpt>
<trkpt lat="43.0962470000" lon="-1.0094620000"><ele>940</ele><time>2026-04-26T12:17:08Z</time></trkpt>
<trkpt lat="43.0962570000" lon="-1.0094280000"><ele>940</ele><time>2026-04-26T12:17:10Z</time></trkpt>
<trkpt lat="43.0962720000" lon="-1.0094020000"><ele>939</ele><time>2026-04-26T12:17:12Z</time></trkpt>
<trkpt lat="43.0962870000" lon="-1.0093720000"><ele>939</ele><time>2026-04-26T12:17:14Z</time></trkpt>
<trkpt lat="43.0962970000" lon="-1.0093370000"><ele>939</ele><time>2026-04-26T12:17:16Z</time></trkpt>
<trkpt lat="43.0963020000" lon="-1.0093070000"><ele>939</ele><time>2026-04-26T12:17:18Z</time></trkpt>
<trkpt lat="43.0963020000" lon="-1.0092720000"><ele>938</ele><time>2026-04-26T12:17:20Z</time></trkpt>
<trkpt lat="43.0963070000" lon="-1.0092370000"><ele>938</ele><time>2026-04-26T12:17:22Z</time></trkpt>
<trkpt lat="43.0963120000" lon="-1.0092070000"><ele>938</ele><time>2026-04-26T12:17:24Z</time></trkpt>
<trkpt lat="43.0963200000" lon="-1.0091720000"><ele>937</ele><time>2026-04-26T12:17:26Z</time></trkpt>
<trkpt lat="43.0963270000" lon="-1.0091400000"><ele>937</ele><time>2026-04-26T12:17:28Z</time></trkpt>
<trkpt lat="43.0963400000" lon="-1.0091070000"><ele>937</ele><time>2026-04-26T12:17:30Z</time></trkpt>
<trkpt lat="43.0963500000" lon="-1.0090820000"><ele>936</ele><time>2026-04-26T12:17:32Z</time></trkpt>
<trkpt lat="43.0963580000" lon="-1.0090500000"><ele>936</ele><time>2026-04-26T12:17:34Z</time></trkpt>
<trkpt lat="43.0963700000" lon="-1.0090200000"><ele>936</ele><time>2026-04-26T12:17:36Z</time></trkpt>
<trkpt lat="43.0963770000" lon="-1.0089920000"><ele>935</ele><time>2026-04-26T12:17:38Z</time></trkpt>
<trkpt lat="43.0963820000" lon="-1.0089600000"><ele>935</ele><time>2026-04-26T12:17:40Z</time></trkpt>
<trkpt lat="43.0963850000" lon="-1.0089320000"><ele>935</ele><time>2026-04-26T12:17:42Z</time></trkpt>
<trkpt lat="43.0963870000" lon="-1.0088970000"><ele>935</ele><time>2026-04-26T12:17:44Z</time></trkpt>
<trkpt lat="43.0963920000" lon="-1.0088630000"><ele>934</ele><time>2026-04-26T12:17:46Z</time></trkpt>
<trkpt lat="43.0963970000" lon="-1.0088370000"><ele>934</ele><time>2026-04-26T12:17:48Z</time></trkpt>
<trkpt lat="43.0964100000" lon="-1.0088070000"><ele>934</ele><time>2026-04-26T12:17:50Z</time></trkpt>
<trkpt lat="43.0964320000" lon="-1.0087770000"><ele>933</ele><time>2026-04-26T12:17:52Z</time></trkpt>
<trkpt lat="43.0964520000" lon="-1.0087520000"><ele>933</ele><time>2026-04-26T12:17:54Z</time></trkpt>
<trkpt lat="43.0964750000" lon="-1.0087250000"><ele>933</ele><time>2026-04-26T12:17:56Z</time></trkpt>
<trkpt lat="43.0964900000" lon="-1.0086970000"><ele>933</ele><time>2026-04-26T12:17:58Z</time></trkpt>
<trkpt lat="43.0965050000" lon="-1.0086670000"><ele>932</ele><time>2026-04-26T12:18:00Z</time></trkpt>
<trkpt lat="43.0965170000" lon="-1.0086400000"><ele>932</ele><time>2026-04-26T12:18:02Z</time></trkpt>
<trkpt lat="43.0965220000" lon="-1.0086100000"><ele>932</ele><time>2026-04-26T12:18:04Z</time></trkpt>
<trkpt lat="43.0965350000" lon="-1.0085870000"><ele>932</ele><time>2026-04-26T12:18:06Z</time></trkpt>
<trkpt lat="43.0965500000" lon="-1.0085620000"><ele>932</ele><time>2026-04-26T12:18:08Z</time></trkpt>
<trkpt lat="43.0965650000" lon="-1.0085370000"><ele>931</ele><time>2026-04-26T12:18:10Z</time></trkpt>
<trkpt lat="43.0965750000" lon="-1.0085100000"><ele>931</ele><time>2026-04-26T12:18:12Z</time></trkpt>
<trkpt lat="43.0965870000" lon="-1.0084820000"><ele>931</ele><time>2026-04-26T12:18:14Z</time></trkpt>
<trkpt lat="43.0966020000" lon="-1.0084580000"><ele>931</ele><time>2026-04-26T12:18:16Z</time></trkpt>
<trkpt lat="43.0966200000" lon="-1.0084400000"><ele>931</ele><time>2026-04-26T12:18:18Z</time></trkpt>
<trkpt lat="43.0966320000" lon="-1.0084120000"><ele>931</ele><time>2026-04-26T12:18:20Z</time></trkpt>
<trkpt lat="43.0966420000" lon="-1.0083850000"><ele>930</ele><time>2026-04-26T12:18:22Z</time></trkpt>
<trkpt lat="43.0966600000" lon="-1.0083620000"><ele>930</ele><time>2026-04-26T12:18:24Z</time></trkpt>
<trkpt lat="43.0966720000" lon="-1.0083370000"><ele>930</ele><time>2026-04-26T12:18:26Z</time></trkpt>
<trkpt lat="43.0966820000" lon="-1.0083020000"><ele>930</ele><time>2026-04-26T12:18:28Z</time></trkpt>
<trkpt lat="43.0966970000" lon="-1.0082770000"><ele>930</ele><time>2026-04-26T12:18:30Z</time></trkpt>
<trkpt lat="43.0967170000" lon="-1.0082520000"><ele>930</ele><time>2026-04-26T12:18:32Z</time></trkpt>
<trkpt lat="43.0967300000" lon="-1.0082270000"><ele>929</ele><time>2026-04-26T12:18:34Z</time></trkpt>
<trkpt lat="43.0967420000" lon="-1.0082020000"><ele>929</ele><time>2026-04-26T12:18:36Z</time></trkpt>
<trkpt lat="43.0967570000" lon="-1.0081770000"><ele>929</ele><time>2026-04-26T12:18:38Z</time></trkpt>
<trkpt lat="43.0967720000" lon="-1.0081520000"><ele>928</ele><time>2026-04-26T12:18:40Z</time></trkpt>
<trkpt lat="43.0967870000" lon="-1.0081270000"><ele>928</ele><time>2026-04-26T12:18:42Z</time></trkpt>
<trkpt lat="43.0967970000" lon="-1.0080880000"><ele>928</ele><time>2026-04-26T12:18:45Z</time></trkpt>
<trkpt lat="43.0968120000" lon="-1.0080620000"><ele>928</ele><time>2026-04-26T12:18:47Z</time></trkpt>
<trkpt lat="43.0968300000" lon="-1.0080320000"><ele>928</ele><time>2026-04-26T12:18:49Z</time></trkpt>
<trkpt lat="43.0968450000" lon="-1.0080070000"><ele>927</ele><time>2026-04-26T12:18:51Z</time></trkpt>
<trkpt lat="43.0968570000" lon="-1.0079770000"><ele>927</ele><time>2026-04-26T12:18:53Z</time></trkpt>
<trkpt lat="43.0968650000" lon="-1.0079470000"><ele>927</ele><time>2026-04-26T12:18:55Z</time></trkpt>
<trkpt lat="43.0968670000" lon="-1.0079180000"><ele>926</ele><time>2026-04-26T12:18:57Z</time></trkpt>
<trkpt lat="43.0968720000" lon="-1.0078920000"><ele>926</ele><time>2026-04-26T12:18:59Z</time></trkpt>
<trkpt lat="43.0968800000" lon="-1.0078630000"><ele>926</ele><time>2026-04-26T12:19:01Z</time></trkpt>
<trkpt lat="43.0968950000" lon="-1.0078420000"><ele>925</ele><time>2026-04-26T12:19:03Z</time></trkpt>
<trkpt lat="43.0969170000" lon="-1.0078120000"><ele>925</ele><time>2026-04-26T12:19:05Z</time></trkpt>
<trkpt lat="43.0969370000" lon="-1.0077870000"><ele>925</ele><time>2026-04-26T12:19:07Z</time></trkpt>
<trkpt lat="43.0969570000" lon="-1.0077620000"><ele>924</ele><time>2026-04-26T12:19:09Z</time></trkpt>
<trkpt lat="43.0969670000" lon="-1.0077320000"><ele>924</ele><time>2026-04-26T12:19:11Z</time></trkpt>
<trkpt lat="43.0969770000" lon="-1.0077050000"><ele>924</ele><time>2026-04-26T12:19:13Z</time></trkpt>
<trkpt lat="43.0969850000" lon="-1.0076770000"><ele>923</ele><time>2026-04-26T12:19:15Z</time></trkpt>
<trkpt lat="43.0969900000" lon="-1.0076480000"><ele>923</ele><time>2026-04-26T12:19:17Z</time></trkpt>
<trkpt lat="43.0970020000" lon="-1.0076220000"><ele>923</ele><time>2026-04-26T12:19:19Z</time></trkpt>
<trkpt lat="43.0970170000" lon="-1.0075970000"><ele>923</ele><time>2026-04-26T12:19:21Z</time></trkpt>
<trkpt lat="43.0970320000" lon="-1.0075670000"><ele>922</ele><time>2026-04-26T12:19:23Z</time></trkpt>
<trkpt lat="43.0970470000" lon="-1.0075420000"><ele>922</ele><time>2026-04-26T12:19:25Z</time></trkpt>
<trkpt lat="43.0970620000" lon="-1.0075170000"><ele>922</ele><time>2026-04-26T12:19:27Z</time></trkpt>
<trkpt lat="43.0970720000" lon="-1.0074870000"><ele>921</ele><time>2026-04-26T12:19:29Z</time></trkpt>
<trkpt lat="43.0970900000" lon="-1.0074570000"><ele>921</ele><time>2026-04-26T12:19:31Z</time></trkpt>
<trkpt lat="43.0971050000" lon="-1.0074250000"><ele>921</ele><time>2026-04-26T12:19:33Z</time></trkpt>
<trkpt lat="43.0971180000" lon="-1.0073970000"><ele>921</ele><time>2026-04-26T12:19:35Z</time></trkpt>
<trkpt lat="43.0971300000" lon="-1.0073720000"><ele>920</ele><time>2026-04-26T12:19:37Z</time></trkpt>
<trkpt lat="43.0971500000" lon="-1.0073520000"><ele>920</ele><time>2026-04-26T12:19:39Z</time></trkpt>
<trkpt lat="43.0971650000" lon="-1.0073350000"><ele>920</ele><time>2026-04-26T12:19:41Z</time></trkpt>
<trkpt lat="43.0971770000" lon="-1.0073120000"><ele>919</ele><time>2026-04-26T12:19:43Z</time></trkpt>
<trkpt lat="43.0971970000" lon="-1.0072830000"><ele>919</ele><time>2026-04-26T12:19:45Z</time></trkpt>
<trkpt lat="43.0972120000" lon="-1.0072570000"><ele>919</ele><time>2026-04-26T12:19:47Z</time></trkpt>
<trkpt lat="43.0972220000" lon="-1.0072300000"><ele>918</ele><time>2026-04-26T12:19:49Z</time></trkpt>
<trkpt lat="43.0972420000" lon="-1.0072020000"><ele>918</ele><time>2026-04-26T12:19:51Z</time></trkpt>
<trkpt lat="43.0972650000" lon="-1.0071770000"><ele>918</ele><time>2026-04-26T12:19:53Z</time></trkpt>
<trkpt lat="43.0972770000" lon="-1.0071470000"><ele>918</ele><time>2026-04-26T12:19:55Z</time></trkpt>
<trkpt lat="43.0972920000" lon="-1.0071170000"><ele>917</ele><time>2026-04-26T12:19:57Z</time></trkpt>
<trkpt lat="43.0973070000" lon="-1.0070950000"><ele>917</ele><time>2026-04-26T12:19:59Z</time></trkpt>
<trkpt lat="43.0973200000" lon="-1.0070670000"><ele>917</ele><time>2026-04-26T12:20:01Z</time></trkpt>
<trkpt lat="43.0973320000" lon="-1.0070270000"><ele>916</ele><time>2026-04-26T12:20:04Z</time></trkpt>
<trkpt lat="43.0973420000" lon="-1.0070020000"><ele>916</ele><time>2026-04-26T12:20:06Z</time></trkpt>
<trkpt lat="43.0973520000" lon="-1.0069770000"><ele>916</ele><time>2026-04-26T12:20:08Z</time></trkpt>
<trkpt lat="43.0973500000" lon="-1.0069450000"><ele>916</ele><time>2026-04-26T12:20:10Z</time></trkpt>
<trkpt lat="43.0973400000" lon="-1.0069170000"><ele>915</ele><time>2026-04-26T12:20:12Z</time></trkpt>
<trkpt lat="43.0973420000" lon="-1.0068920000"><ele>915</ele><time>2026-04-26T12:20:14Z</time></trkpt>
<trkpt lat="43.0973550000" lon="-1.0068670000"><ele>915</ele><time>2026-04-26T12:20:16Z</time></trkpt>
<trkpt lat="43.0973770000" lon="-1.0068450000"><ele>915</ele><time>2026-04-26T12:20:18Z</time></trkpt>
<trkpt lat="43.0974050000" lon="-1.0068220000"><ele>915</ele><time>2026-04-26T12:20:20Z</time></trkpt>
<trkpt lat="43.0974300000" lon="-1.0067980000"><ele>915</ele><time>2026-04-26T12:20:22Z</time></trkpt>
<trkpt lat="43.0974470000" lon="-1.0067720000"><ele>915</ele><time>2026-04-26T12:20:24Z</time></trkpt>
<trkpt lat="43.0974570000" lon="-1.0067430000"><ele>914</ele><time>2026-04-26T12:20:26Z</time></trkpt>
<trkpt lat="43.0974670000" lon="-1.0067170000"><ele>914</ele><time>2026-04-26T12:20:28Z</time></trkpt>
<trkpt lat="43.0974770000" lon="-1.0066870000"><ele>914</ele><time>2026-04-26T12:20:30Z</time></trkpt>
<trkpt lat="43.0974900000" lon="-1.0066630000"><ele>913</ele><time>2026-04-26T12:20:32Z</time></trkpt>
<trkpt lat="43.0974970000" lon="-1.0066320000"><ele>913</ele><time>2026-04-26T12:20:34Z</time></trkpt>
<trkpt lat="43.0975050000" lon="-1.0066030000"><ele>913</ele><time>2026-04-26T12:20:36Z</time></trkpt>
<trkpt lat="43.0975170000" lon="-1.0065750000"><ele>913</ele><time>2026-04-26T12:20:38Z</time></trkpt>
<trkpt lat="43.0975300000" lon="-1.0065520000"><ele>912</ele><time>2026-04-26T12:20:40Z</time></trkpt>
<trkpt lat="43.0975470000" lon="-1.0065270000"><ele>912</ele><time>2026-04-26T12:20:42Z</time></trkpt>
<trkpt lat="43.0975650000" lon="-1.0065020000"><ele>912</ele><time>2026-04-26T12:20:44Z</time></trkpt>
<trkpt lat="43.0975820000" lon="-1.0064730000"><ele>912</ele><time>2026-04-26T12:20:46Z</time></trkpt>
<trkpt lat="43.0975900000" lon="-1.0064470000"><ele>911</ele><time>2026-04-26T12:20:48Z</time></trkpt>
<trkpt lat="43.0976020000" lon="-1.0064170000"><ele>911</ele><time>2026-04-26T12:20:50Z</time></trkpt>
<trkpt lat="43.0976200000" lon="-1.0063970000"><ele>911</ele><time>2026-04-26T12:20:52Z</time></trkpt>
<trkpt lat="43.0976370000" lon="-1.0063700000"><ele>910</ele><time>2026-04-26T12:20:54Z</time></trkpt>
<trkpt lat="43.0976520000" lon="-1.0063450000"><ele>910</ele><time>2026-04-26T12:20:56Z</time></trkpt>
<trkpt lat="43.0976720000" lon="-1.0063200000"><ele>910</ele><time>2026-04-26T12:20:59Z</time></trkpt>
<trkpt lat="43.0976920000" lon="-1.0063050000"><ele>909</ele><time>2026-04-26T12:21:01Z</time></trkpt>
<trkpt lat="43.0977120000" lon="-1.0062820000"><ele>909</ele><time>2026-04-26T12:21:03Z</time></trkpt>
<trkpt lat="43.0977320000" lon="-1.0062620000"><ele>909</ele><time>2026-04-26T12:21:05Z</time></trkpt>
<trkpt lat="43.0977520000" lon="-1.0062420000"><ele>909</ele><time>2026-04-26T12:21:07Z</time></trkpt>
<trkpt lat="43.0977720000" lon="-1.0062170000"><ele>908</ele><time>2026-04-26T12:21:09Z</time></trkpt>
<trkpt lat="43.0977900000" lon="-1.0061920000"><ele>908</ele><time>2026-04-26T12:21:11Z</time></trkpt>
<trkpt lat="43.0978050000" lon="-1.0061630000"><ele>908</ele><time>2026-04-26T12:21:13Z</time></trkpt>
<trkpt lat="43.0978250000" lon="-1.0061420000"><ele>908</ele><time>2026-04-26T12:21:15Z</time></trkpt>
<trkpt lat="43.0978420000" lon="-1.0061170000"><ele>907</ele><time>2026-04-26T12:21:17Z</time></trkpt>
<trkpt lat="43.0978470000" lon="-1.0060920000"><ele>907</ele><time>2026-04-26T12:21:19Z</time></trkpt>
<trkpt lat="43.0978600000" lon="-1.0060550000"><ele>907</ele><time>2026-04-26T12:21:22Z</time></trkpt>
<trkpt lat="43.0978670000" lon="-1.0060270000"><ele>907</ele><time>2026-04-26T12:21:24Z</time></trkpt>
<trkpt lat="43.0978750000" lon="-1.0060020000"><ele>906</ele><time>2026-04-26T12:21:26Z</time></trkpt>
<trkpt lat="43.0978870000" lon="-1.0059750000"><ele>906</ele><time>2026-04-26T12:21:28Z</time></trkpt>
<trkpt lat="43.0979020000" lon="-1.0059480000"><ele>906</ele><time>2026-04-26T12:21:30Z</time></trkpt>
<trkpt lat="43.0979120000" lon="-1.0059250000"><ele>905</ele><time>2026-04-26T12:21:32Z</time></trkpt>
<trkpt lat="43.0979250000" lon="-1.0059020000"><ele>905</ele><time>2026-04-26T12:21:34Z</time></trkpt>
<trkpt lat="43.0979420000" lon="-1.0058770000"><ele>905</ele><time>2026-04-26T12:21:36Z</time></trkpt>
<trkpt lat="43.0979570000" lon="-1.0058520000"><ele>905</ele><time>2026-04-26T12:21:38Z</time></trkpt>
<trkpt lat="43.0979770000" lon="-1.0058220000"><ele>904</ele><time>2026-04-26T12:21:40Z</time></trkpt>
<trkpt lat="43.0979870000" lon="-1.0057900000"><ele>904</ele><time>2026-04-26T12:21:42Z</time></trkpt>
<trkpt lat="43.0980070000" lon="-1.0057620000"><ele>904</ele><time>2026-04-26T12:21:44Z</time></trkpt>
<trkpt lat="43.0980170000" lon="-1.0057370000"><ele>904</ele><time>2026-04-26T12:21:46Z</time></trkpt>
<trkpt lat="43.0980250000" lon="-1.0057070000"><ele>903</ele><time>2026-04-26T12:21:48Z</time></trkpt>
<trkpt lat="43.0980420000" lon="-1.0056820000"><ele>903</ele><time>2026-04-26T12:21:50Z</time></trkpt>
<trkpt lat="43.0980570000" lon="-1.0056570000"><ele>903</ele><time>2026-04-26T12:21:52Z</time></trkpt>
<trkpt lat="43.0980720000" lon="-1.0056300000"><ele>903</ele><time>2026-04-26T12:21:54Z</time></trkpt>
<trkpt lat="43.0980820000" lon="-1.0056020000"><ele>902</ele><time>2026-04-26T12:21:56Z</time></trkpt>
<trkpt lat="43.0980970000" lon="-1.0055780000"><ele>902</ele><time>2026-04-26T12:21:58Z</time></trkpt>
<trkpt lat="43.0981070000" lon="-1.0055520000"><ele>902</ele><time>2026-04-26T12:22:00Z</time></trkpt>
<trkpt lat="43.0981220000" lon="-1.0055220000"><ele>902</ele><time>2026-04-26T12:22:02Z</time></trkpt>
<trkpt lat="43.0981320000" lon="-1.0054920000"><ele>901</ele><time>2026-04-26T12:22:04Z</time></trkpt>
<trkpt lat="43.0981520000" lon="-1.0054670000"><ele>901</ele><time>2026-04-26T12:22:06Z</time></trkpt>
<trkpt lat="43.0981650000" lon="-1.0054380000"><ele>901</ele><time>2026-04-26T12:22:08Z</time></trkpt>
<trkpt lat="43.0981800000" lon="-1.0054120000"><ele>901</ele><time>2026-04-26T12:22:10Z</time></trkpt>
<trkpt lat="43.0981950000" lon="-1.0053870000"><ele>900</ele><time>2026-04-26T12:22:12Z</time></trkpt>
<trkpt lat="43.0982120000" lon="-1.0053570000"><ele>900</ele><time>2026-04-26T12:22:14Z</time></trkpt>
<trkpt lat="43.0982250000" lon="-1.0053300000"><ele>900</ele><time>2026-04-26T12:22:16Z</time></trkpt>
<trkpt lat="43.0982370000" lon="-1.0053000000"><ele>900</ele><time>2026-04-26T12:22:18Z</time></trkpt>
<trkpt lat="43.0982470000" lon="-1.0052720000"><ele>900</ele><time>2026-04-26T12:22:20Z</time></trkpt>
<trkpt lat="43.0982620000" lon="-1.0052450000"><ele>899</ele><time>2026-04-26T12:22:22Z</time></trkpt>
<trkpt lat="43.0982770000" lon="-1.0052180000"><ele>899</ele><time>2026-04-26T12:22:24Z</time></trkpt>
<trkpt lat="43.0982900000" lon="-1.0051920000"><ele>899</ele><time>2026-04-26T12:22:26Z</time></trkpt>
<trkpt lat="43.0983050000" lon="-1.0051650000"><ele>899</ele><time>2026-04-26T12:22:28Z</time></trkpt>
<trkpt lat="43.0983200000" lon="-1.0051380000"><ele>899</ele><time>2026-04-26T12:22:30Z</time></trkpt>
<trkpt lat="43.0983320000" lon="-1.0051120000"><ele>899</ele><time>2026-04-26T12:22:32Z</time></trkpt>
<trkpt lat="43.0983470000" lon="-1.0050870000"><ele>899</ele><time>2026-04-26T12:22:34Z</time></trkpt>
<trkpt lat="43.0983620000" lon="-1.0050620000"><ele>898</ele><time>2026-04-26T12:22:36Z</time></trkpt>
<trkpt lat="43.0983700000" lon="-1.0050320000"><ele>898</ele><time>2026-04-26T12:22:38Z</time></trkpt>
<trkpt lat="43.0983720000" lon="-1.0050070000"><ele>898</ele><time>2026-04-26T12:22:42Z</time></trkpt>
<trkpt lat="43.0983870000" lon="-1.0049970000"><ele>898</ele><time>2026-04-26T12:22:46Z</time></trkpt>
<trkpt lat="43.0984120000" lon="-1.0050070000"><ele>897</ele><time>2026-04-26T12:23:18Z</time></trkpt>
<trkpt lat="43.0984270000" lon="-1.0049870000"><ele>897</ele><time>2026-04-26T12:23:21Z</time></trkpt>
<trkpt lat="43.0984400000" lon="-1.0049520000"><ele>897</ele><time>2026-04-26T12:23:23Z</time></trkpt>
<trkpt lat="43.0984520000" lon="-1.0049170000"><ele>897</ele><time>2026-04-26T12:23:25Z</time></trkpt>
<trkpt lat="43.0984650000" lon="-1.0048820000"><ele>897</ele><time>2026-04-26T12:23:27Z</time></trkpt>
<trkpt lat="43.0984750000" lon="-1.0048520000"><ele>897</ele><time>2026-04-26T12:23:29Z</time></trkpt>
<trkpt lat="43.0984870000" lon="-1.0048250000"><ele>897</ele><time>2026-04-26T12:23:31Z</time></trkpt>
<trkpt lat="43.0985020000" lon="-1.0047970000"><ele>896</ele><time>2026-04-26T12:23:33Z</time></trkpt>
<trkpt lat="43.0985170000" lon="-1.0047720000"><ele>896</ele><time>2026-04-26T12:23:35Z</time></trkpt>
<trkpt lat="43.0985320000" lon="-1.0047420000"><ele>896</ele><time>2026-04-26T12:23:37Z</time></trkpt>
<trkpt lat="43.0985450000" lon="-1.0047150000"><ele>896</ele><time>2026-04-26T12:23:39Z</time></trkpt>
<trkpt lat="43.0985620000" lon="-1.0046870000"><ele>896</ele><time>2026-04-26T12:23:41Z</time></trkpt>
<trkpt lat="43.0985750000" lon="-1.0046570000"><ele>896</ele><time>2026-04-26T12:23:43Z</time></trkpt>
<trkpt lat="43.0985870000" lon="-1.0046270000"><ele>896</ele><time>2026-04-26T12:23:45Z</time></trkpt>
<trkpt lat="43.0985970000" lon="-1.0045930000"><ele>896</ele><time>2026-04-26T12:23:47Z</time></trkpt>
<trkpt lat="43.0986100000" lon="-1.0045620000"><ele>896</ele><time>2026-04-26T12:23:49Z</time></trkpt>
<trkpt lat="43.0986220000" lon="-1.0045320000"><ele>895</ele><time>2026-04-26T12:23:51Z</time></trkpt>
<trkpt lat="43.0986320000" lon="-1.0045030000"><ele>895</ele><time>2026-04-26T12:23:53Z</time></trkpt>
<trkpt lat="43.0986420000" lon="-1.0044750000"><ele>895</ele><time>2026-04-26T12:23:55Z</time></trkpt>
<trkpt lat="43.0986520000" lon="-1.0044470000"><ele>895</ele><time>2026-04-26T12:23:57Z</time></trkpt>
<trkpt lat="43.0986650000" lon="-1.0044170000"><ele>895</ele><time>2026-04-26T12:23:59Z</time></trkpt>
<trkpt lat="43.0986750000" lon="-1.0043870000"><ele>895</ele><time>2026-04-26T12:24:01Z</time></trkpt>
<trkpt lat="43.0986900000" lon="-1.0043550000"><ele>895</ele><time>2026-04-26T12:24:03Z</time></trkpt>
<trkpt lat="43.0987050000" lon="-1.0043230000"><ele>895</ele><time>2026-04-26T12:24:05Z</time></trkpt>
<trkpt lat="43.0987170000" lon="-1.0042920000"><ele>895</ele><time>2026-04-26T12:24:07Z</time></trkpt>
<trkpt lat="43.0987320000" lon="-1.0042670000"><ele>895</ele><time>2026-04-26T12:24:09Z</time></trkpt>
<trkpt lat="43.0987470000" lon="-1.0042370000"><ele>895</ele><time>2026-04-26T12:24:11Z</time></trkpt>
<trkpt lat="43.0987570000" lon="-1.0042120000"><ele>895</ele><time>2026-04-26T12:24:13Z</time></trkpt>
<trkpt lat="43.0987720000" lon="-1.0041820000"><ele>895</ele><time>2026-04-26T12:24:15Z</time></trkpt>
<trkpt lat="43.0987850000" lon="-1.0041520000"><ele>895</ele><time>2026-04-26T12:24:17Z</time></trkpt>
<trkpt lat="43.0987970000" lon="-1.0041270000"><ele>895</ele><time>2026-04-26T12:24:19Z</time></trkpt>
<trkpt lat="43.0988100000" lon="-1.0041020000"><ele>895</ele><time>2026-04-26T12:24:21Z</time></trkpt>
<trkpt lat="43.0988200000" lon="-1.0040720000"><ele>895</ele><time>2026-04-26T12:24:23Z</time></trkpt>
<trkpt lat="43.0988300000" lon="-1.0040420000"><ele>895</ele><time>2026-04-26T12:24:25Z</time></trkpt>
<trkpt lat="43.0988420000" lon="-1.0040150000"><ele>895</ele><time>2026-04-26T12:24:27Z</time></trkpt>
<trkpt lat="43.0988500000" lon="-1.0039820000"><ele>895</ele><time>2026-04-26T12:24:29Z</time></trkpt>
<trkpt lat="43.0988550000" lon="-1.0039520000"><ele>895</ele><time>2026-04-26T12:24:31Z</time></trkpt>
<trkpt lat="43.0988670000" lon="-1.0039220000"><ele>895</ele><time>2026-04-26T12:24:33Z</time></trkpt>
<trkpt lat="43.0988720000" lon="-1.0038920000"><ele>895</ele><time>2026-04-26T12:24:35Z</time></trkpt>
<trkpt lat="43.0988770000" lon="-1.0038620000"><ele>894</ele><time>2026-04-26T12:24:37Z</time></trkpt>
<trkpt lat="43.0988800000" lon="-1.0038320000"><ele>894</ele><time>2026-04-26T12:24:39Z</time></trkpt>
<trkpt lat="43.0988850000" lon="-1.0038020000"><ele>894</ele><time>2026-04-26T12:24:41Z</time></trkpt>
<trkpt lat="43.0988920000" lon="-1.0037720000"><ele>894</ele><time>2026-04-26T12:24:43Z</time></trkpt>
<trkpt lat="43.0989070000" lon="-1.0037400000"><ele>894</ele><time>2026-04-26T12:24:45Z</time></trkpt>
<trkpt lat="43.0989170000" lon="-1.0037070000"><ele>894</ele><time>2026-04-26T12:24:47Z</time></trkpt>
<trkpt lat="43.0989220000" lon="-1.0036750000"><ele>894</ele><time>2026-04-26T12:24:49Z</time></trkpt>
<trkpt lat="43.0989270000" lon="-1.0036430000"><ele>894</ele><time>2026-04-26T12:24:51Z</time></trkpt>
<trkpt lat="43.0989320000" lon="-1.0036170000"><ele>894</ele><time>2026-04-26T12:24:53Z</time></trkpt>
<trkpt lat="43.0989370000" lon="-1.0035870000"><ele>894</ele><time>2026-04-26T12:24:55Z</time></trkpt>
<trkpt lat="43.0989500000" lon="-1.0035570000"><ele>894</ele><time>2026-04-26T12:24:57Z</time></trkpt>
<trkpt lat="43.0989620000" lon="-1.0035320000"><ele>893</ele><time>2026-04-26T12:25:00Z</time></trkpt>
<trkpt lat="43.0989670000" lon="-1.0035020000"><ele>893</ele><time>2026-04-26T12:25:02Z</time></trkpt>
<trkpt lat="43.0989800000" lon="-1.0034720000"><ele>893</ele><time>2026-04-26T12:25:04Z</time></trkpt>
<trkpt lat="43.0989970000" lon="-1.0034500000"><ele>893</ele><time>2026-04-26T12:25:06Z</time></trkpt>
<trkpt lat="43.0990150000" lon="-1.0034150000"><ele>893</ele><time>2026-04-26T12:25:09Z</time></trkpt>
<trkpt lat="43.0990170000" lon="-1.0033820000"><ele>892</ele><time>2026-04-26T12:25:12Z</time></trkpt>
<trkpt lat="43.0990250000" lon="-1.0033550000"><ele>892</ele><time>2026-04-26T12:25:14Z</time></trkpt>
<trkpt lat="43.0990320000" lon="-1.0033070000"><ele>892</ele><time>2026-04-26T12:25:16Z</time></trkpt>
<trkpt lat="43.0990370000" lon="-1.0032820000"><ele>892</ele><time>2026-04-26T12:25:17Z</time></trkpt>
<trkpt lat="43.0990450000" lon="-1.0032570000"><ele>892</ele><time>2026-04-26T12:25:18Z</time></trkpt>
<trkpt lat="43.0990620000" lon="-1.0032200000"><ele>892</ele><time>2026-04-26T12:25:20Z</time></trkpt>
<trkpt lat="43.0990750000" lon="-1.0031800000"><ele>892</ele><time>2026-04-26T12:25:22Z</time></trkpt>
<trkpt lat="43.0990850000" lon="-1.0031470000"><ele>891</ele><time>2026-04-26T12:25:24Z</time></trkpt>
<trkpt lat="43.0990880000" lon="-1.0031200000"><ele>891</ele><time>2026-04-26T12:25:26Z</time></trkpt>
<trkpt lat="43.0990970000" lon="-1.0030920000"><ele>891</ele><time>2026-04-26T12:25:28Z</time></trkpt>
<trkpt lat="43.0991070000" lon="-1.0030620000"><ele>891</ele><time>2026-04-26T12:25:30Z</time></trkpt>
<trkpt lat="43.0991120000" lon="-1.0030300000"><ele>891</ele><time>2026-04-26T12:25:32Z</time></trkpt>
<trkpt lat="43.0991200000" lon="-1.0029970000"><ele>891</ele><time>2026-04-26T12:25:34Z</time></trkpt>
<trkpt lat="43.0991270000" lon="-1.0029650000"><ele>890</ele><time>2026-04-26T12:25:36Z</time></trkpt>
<trkpt lat="43.0991320000" lon="-1.0029320000"><ele>890</ele><time>2026-04-26T12:25:38Z</time></trkpt>
<trkpt lat="43.0991350000" lon="-1.0028980000"><ele>890</ele><time>2026-04-26T12:25:40Z</time></trkpt>
<trkpt lat="43.0991470000" lon="-1.0028620000"><ele>890</ele><time>2026-04-26T12:25:42Z</time></trkpt>
<trkpt lat="43.0991570000" lon="-1.0028300000"><ele>890</ele><time>2026-04-26T12:25:44Z</time></trkpt>
<trkpt lat="43.0991670000" lon="-1.0027970000"><ele>889</ele><time>2026-04-26T12:25:46Z</time></trkpt>
<trkpt lat="43.0991670000" lon="-1.0027670000"><ele>889</ele><time>2026-04-26T12:25:48Z</time></trkpt>
<trkpt lat="43.0991770000" lon="-1.0027420000"><ele>889</ele><time>2026-04-26T12:25:50Z</time></trkpt>
<trkpt lat="43.0991870000" lon="-1.0027170000"><ele>889</ele><time>2026-04-26T12:25:52Z</time></trkpt>
<trkpt lat="43.0991920000" lon="-1.0026920000"><ele>889</ele><time>2026-04-26T12:25:54Z</time></trkpt>
<trkpt lat="43.0992000000" lon="-1.0026600000"><ele>889</ele><time>2026-04-26T12:25:56Z</time></trkpt>
<trkpt lat="43.0992070000" lon="-1.0026220000"><ele>888</ele><time>2026-04-26T12:25:58Z</time></trkpt>
<trkpt lat="43.0992170000" lon="-1.0025900000"><ele>888</ele><time>2026-04-26T12:26:00Z</time></trkpt>
<trkpt lat="43.0992350000" lon="-1.0025620000"><ele>888</ele><time>2026-04-26T12:26:02Z</time></trkpt>
<trkpt lat="43.0992420000" lon="-1.0025270000"><ele>888</ele><time>2026-04-26T12:26:04Z</time></trkpt>
<trkpt lat="43.0992500000" lon="-1.0024970000"><ele>888</ele><time>2026-04-26T12:26:06Z</time></trkpt>
<trkpt lat="43.0992600000" lon="-1.0024670000"><ele>887</ele><time>2026-04-26T12:26:08Z</time></trkpt>
<trkpt lat="43.0992670000" lon="-1.0024370000"><ele>887</ele><time>2026-04-26T12:26:10Z</time></trkpt>
<trkpt lat="43.0992650000" lon="-1.0024020000"><ele>887</ele><time>2026-04-26T12:26:12Z</time></trkpt>
<trkpt lat="43.0992750000" lon="-1.0023700000"><ele>887</ele><time>2026-04-26T12:26:14Z</time></trkpt>
<trkpt lat="43.0992770000" lon="-1.0023370000"><ele>887</ele><time>2026-04-26T12:26:16Z</time></trkpt>
<trkpt lat="43.0992800000" lon="-1.0023020000"><ele>886</ele><time>2026-04-26T12:26:18Z</time></trkpt>
<trkpt lat="43.0992870000" lon="-1.0022770000"><ele>886</ele><time>2026-04-26T12:26:20Z</time></trkpt>
<trkpt lat="43.0992970000" lon="-1.0022500000"><ele>886</ele><time>2026-04-26T12:26:23Z</time></trkpt>
<trkpt lat="43.0993070000" lon="-1.0022150000"><ele>886</ele><time>2026-04-26T12:26:26Z</time></trkpt>
<trkpt lat="43.0993100000" lon="-1.0021770000"><ele>886</ele><time>2026-04-26T12:26:28Z</time></trkpt>
<trkpt lat="43.0993070000" lon="-1.0021270000"><ele>885</ele><time>2026-04-26T12:26:30Z</time></trkpt>
<trkpt lat="43.0993000000" lon="-1.0020820000"><ele>885</ele><time>2026-04-26T12:26:32Z</time></trkpt>
<trkpt lat="43.0993020000" lon="-1.0020450000"><ele>885</ele><time>2026-04-26T12:26:34Z</time></trkpt>
<trkpt lat="43.0993020000" lon="-1.0020150000"><ele>885</ele><time>2026-04-26T12:26:36Z</time></trkpt>
<trkpt lat="43.0993020000" lon="-1.0019820000"><ele>885</ele><time>2026-04-26T12:26:38Z</time></trkpt>
<trkpt lat="43.0993120000" lon="-1.0019420000"><ele>884</ele><time>2026-04-26T12:26:40Z</time></trkpt>
<trkpt lat="43.0993170000" lon="-1.0018980000"><ele>884</ele><time>2026-04-26T12:26:42Z</time></trkpt>
<trkpt lat="43.0993200000" lon="-1.0018620000"><ele>884</ele><time>2026-04-26T12:26:44Z</time></trkpt>
<trkpt lat="43.0993200000" lon="-1.0018270000"><ele>884</ele><time>2026-04-26T12:26:46Z</time></trkpt>
<trkpt lat="43.0993130000" lon="-1.0017920000"><ele>884</ele><time>2026-04-26T12:26:48Z</time></trkpt>
<trkpt lat="43.0993170000" lon="-1.0017570000"><ele>884</ele><time>2026-04-26T12:26:50Z</time></trkpt>
<trkpt lat="43.0993170000" lon="-1.0017220000"><ele>884</ele><time>2026-04-26T12:26:52Z</time></trkpt>
<trkpt lat="43.0993170000" lon="-1.0016920000"><ele>883</ele><time>2026-04-26T12:26:54Z</time></trkpt>
<trkpt lat="43.0993170000" lon="-1.0016600000"><ele>883</ele><time>2026-04-26T12:26:56Z</time></trkpt>
<trkpt lat="43.0993170000" lon="-1.0016270000"><ele>883</ele><time>2026-04-26T12:26:58Z</time></trkpt>
<trkpt lat="43.0993170000" lon="-1.0015950000"><ele>883</ele><time>2026-04-26T12:27:00Z</time></trkpt>
<trkpt lat="43.0993170000" lon="-1.0015670000"><ele>883</ele><time>2026-04-26T12:27:02Z</time></trkpt>
<trkpt lat="43.0993170000" lon="-1.0015350000"><ele>883</ele><time>2026-04-26T12:27:04Z</time></trkpt>
<trkpt lat="43.0993130000" lon="-1.0015020000"><ele>883</ele><time>2026-04-26T12:27:06Z</time></trkpt>
<trkpt lat="43.0993120000" lon="-1.0014670000"><ele>883</ele><time>2026-04-26T12:27:08Z</time></trkpt>
<trkpt lat="43.0993130000" lon="-1.0014350000"><ele>882</ele><time>2026-04-26T12:27:10Z</time></trkpt>
<trkpt lat="43.0993120000" lon="-1.0014050000"><ele>882</ele><time>2026-04-26T12:27:12Z</time></trkpt>
<trkpt lat="43.0993100000" lon="-1.0013720000"><ele>882</ele><time>2026-04-26T12:27:14Z</time></trkpt>
<trkpt lat="43.0993070000" lon="-1.0013420000"><ele>882</ele><time>2026-04-26T12:27:16Z</time></trkpt>
<trkpt lat="43.0993070000" lon="-1.0013120000"><ele>882</ele><time>2026-04-26T12:27:18Z</time></trkpt>
<trkpt lat="43.0993070000" lon="-1.0012870000"><ele>881</ele><time>2026-04-26T12:27:20Z</time></trkpt>
<trkpt lat="43.0993070000" lon="-1.0012570000"><ele>881</ele><time>2026-04-26T12:27:22Z</time></trkpt>
<trkpt lat="43.0993070000" lon="-1.0012230000"><ele>881</ele><time>2026-04-26T12:27:24Z</time></trkpt>
<trkpt lat="43.0993100000" lon="-1.0011950000"><ele>881</ele><time>2026-04-26T12:27:26Z</time></trkpt>
<trkpt lat="43.0993100000" lon="-1.0011620000"><ele>880</ele><time>2026-04-26T12:27:28Z</time></trkpt>
<trkpt lat="43.0993070000" lon="-1.0011320000"><ele>880</ele><time>2026-04-26T12:27:30Z</time></trkpt>
<trkpt lat="43.0993070000" lon="-1.0010970000"><ele>880</ele><time>2026-04-26T12:27:32Z</time></trkpt>
<trkpt lat="43.0993120000" lon="-1.0010720000"><ele>880</ele><time>2026-04-26T12:27:34Z</time></trkpt>
<trkpt lat="43.0993120000" lon="-1.0010430000"><ele>879</ele><time>2026-04-26T12:27:43Z</time></trkpt>
<trkpt lat="43.0993020000" lon="-1.0010120000"><ele>879</ele><time>2026-04-26T12:27:45Z</time></trkpt>
<trkpt lat="43.0992970000" lon="-1.0009680000"><ele>879</ele><time>2026-04-26T12:27:47Z</time></trkpt>
<trkpt lat="43.0992970000" lon="-1.0009320000"><ele>879</ele><time>2026-04-26T12:27:49Z</time></trkpt>
<trkpt lat="43.0992970000" lon="-1.0008950000"><ele>879</ele><time>2026-04-26T12:27:51Z</time></trkpt>
<trkpt lat="43.0992970000" lon="-1.0008600000"><ele>879</ele><time>2026-04-26T12:27:53Z</time></trkpt>
<trkpt lat="43.0992970000" lon="-1.0008220000"><ele>879</ele><time>2026-04-26T12:27:55Z</time></trkpt>
<trkpt lat="43.0992970000" lon="-1.0007870000"><ele>878</ele><time>2026-04-26T12:27:57Z</time></trkpt>
<trkpt lat="43.0992920000" lon="-1.0007500000"><ele>878</ele><time>2026-04-26T12:27:59Z</time></trkpt>
<trkpt lat="43.0992820000" lon="-1.0007170000"><ele>878</ele><time>2026-04-26T12:28:01Z</time></trkpt>
<trkpt lat="43.0992770000" lon="-1.0006870000"><ele>878</ele><time>2026-04-26T12:28:03Z</time></trkpt>
<trkpt lat="43.0992700000" lon="-1.0006620000"><ele>878</ele><time>2026-04-26T12:28:05Z</time></trkpt>
<trkpt lat="43.0992670000" lon="-1.0006300000"><ele>878</ele><time>2026-04-26T12:28:07Z</time></trkpt>
<trkpt lat="43.0992670000" lon="-1.0005980000"><ele>877</ele><time>2026-04-26T12:28:09Z</time></trkpt>
<trkpt lat="43.0992620000" lon="-1.0005670000"><ele>877</ele><time>2026-04-26T12:28:11Z</time></trkpt>
<trkpt lat="43.0992570000" lon="-1.0005350000"><ele>877</ele><time>2026-04-26T12:28:13Z</time></trkpt>
<trkpt lat="43.0992520000" lon="-1.0005050000"><ele>877</ele><time>2026-04-26T12:28:15Z</time></trkpt>
<trkpt lat="43.0992470000" lon="-1.0004720000"><ele>877</ele><time>2026-04-26T12:28:17Z</time></trkpt>
<trkpt lat="43.0992370000" lon="-1.0004400000"><ele>877</ele><time>2026-04-26T12:28:19Z</time></trkpt>
<trkpt lat="43.0992300000" lon="-1.0004070000"><ele>876</ele><time>2026-04-26T12:28:21Z</time></trkpt>
<trkpt lat="43.0992250000" lon="-1.0003730000"><ele>876</ele><time>2026-04-26T12:28:23Z</time></trkpt>
<trkpt lat="43.0992200000" lon="-1.0003420000"><ele>876</ele><time>2026-04-26T12:28:25Z</time></trkpt>
<trkpt lat="43.0992150000" lon="-1.0003070000"><ele>876</ele><time>2026-04-26T12:28:27Z</time></trkpt>
<trkpt lat="43.0992070000" lon="-1.0002770000"><ele>875</ele><time>2026-04-26T12:28:29Z</time></trkpt>
<trkpt lat="43.0992020000" lon="-1.0002420000"><ele>875</ele><time>2026-04-26T12:28:31Z</time></trkpt>
<trkpt lat="43.0991950000" lon="-1.0002070000"><ele>875</ele><time>2026-04-26T12:28:33Z</time></trkpt>
<trkpt lat="43.0991900000" lon="-1.0001770000"><ele>875</ele><time>2026-04-26T12:28:35Z</time></trkpt>
<trkpt lat="43.0991850000" lon="-1.0001450000"><ele>875</ele><time>2026-04-26T12:28:37Z</time></trkpt>
<trkpt lat="43.0991820000" lon="-1.0001120000"><ele>874</ele><time>2026-04-26T12:28:39Z</time></trkpt>
<trkpt lat="43.0991770000" lon="-1.0000820000"><ele>874</ele><time>2026-04-26T12:28:41Z</time></trkpt>
<trkpt lat="43.0991670000" lon="-1.0000470000"><ele>874</ele><time>2026-04-26T12:28:43Z</time></trkpt>
<trkpt lat="43.0991620000" lon="-1.0000170000"><ele>874</ele><time>2026-04-26T12:28:45Z</time></trkpt>
<trkpt lat="43.0991570000" lon="-0.9999870000"><ele>874</ele><time>2026-04-26T12:28:47Z</time></trkpt>
<trkpt lat="43.0991520000" lon="-0.9999550000"><ele>873</ele><time>2026-04-26T12:28:49Z</time></trkpt>
<trkpt lat="43.0991450000" lon="-0.9999230000"><ele>873</ele><time>2026-04-26T12:28:51Z</time></trkpt>
<trkpt lat="43.0991350000" lon="-0.9998970000"><ele>873</ele><time>2026-04-26T12:28:53Z</time></trkpt>
<trkpt lat="43.0991220000" lon="-0.9998670000"><ele>873</ele><time>2026-04-26T12:28:55Z</time></trkpt>
<trkpt lat="43.0991150000" lon="-0.9998370000"><ele>872</ele><time>2026-04-26T12:28:57Z</time></trkpt>
<trkpt lat="43.0991070000" lon="-0.9998020000"><ele>872</ele><time>2026-04-26T12:28:59Z</time></trkpt>
<trkpt lat="43.0991020000" lon="-0.9997670000"><ele>872</ele><time>2026-04-26T12:29:01Z</time></trkpt>
<trkpt lat="43.0990970000" lon="-0.9997320000"><ele>872</ele><time>2026-04-26T12:29:03Z</time></trkpt>
<trkpt lat="43.0990970000" lon="-0.9996900000"><ele>871</ele><time>2026-04-26T12:29:05Z</time></trkpt>
<trkpt lat="43.0990920000" lon="-0.9996520000"><ele>871</ele><time>2026-04-26T12:29:07Z</time></trkpt>
<trkpt lat="43.0990820000" lon="-0.9996170000"><ele>871</ele><time>2026-04-26T12:29:09Z</time></trkpt>
<trkpt lat="43.0990750000" lon="-0.9995870000"><ele>871</ele><time>2026-04-26T12:29:11Z</time></trkpt>
<trkpt lat="43.0990670000" lon="-0.9995520000"><ele>870</ele><time>2026-04-26T12:29:13Z</time></trkpt>
<trkpt lat="43.0990570000" lon="-0.9995180000"><ele>870</ele><time>2026-04-26T12:29:15Z</time></trkpt>
<trkpt lat="43.0990470000" lon="-0.9994900000"><ele>870</ele><time>2026-04-26T12:29:17Z</time></trkpt>
<trkpt lat="43.0990400000" lon="-0.9994570000"><ele>870</ele><time>2026-04-26T12:29:19Z</time></trkpt>
<trkpt lat="43.0990300000" lon="-0.9994270000"><ele>870</ele><time>2026-04-26T12:29:21Z</time></trkpt>
<trkpt lat="43.0990220000" lon="-0.9993970000"><ele>869</ele><time>2026-04-26T12:29:23Z</time></trkpt>
<trkpt lat="43.0990120000" lon="-0.9993630000"><ele>869</ele><time>2026-04-26T12:29:25Z</time></trkpt>
<trkpt lat="43.0990070000" lon="-0.9993320000"><ele>869</ele><time>2026-04-26T12:29:27Z</time></trkpt>
<trkpt lat="43.0990020000" lon="-0.9992970000"><ele>869</ele><time>2026-04-26T12:29:29Z</time></trkpt>
<trkpt lat="43.0989950000" lon="-0.9992670000"><ele>869</ele><time>2026-04-26T12:29:31Z</time></trkpt>
<trkpt lat="43.0989870000" lon="-0.9992350000"><ele>868</ele><time>2026-04-26T12:29:33Z</time></trkpt>
<trkpt lat="43.0989850000" lon="-0.9992020000"><ele>868</ele><time>2026-04-26T12:29:35Z</time></trkpt>
<trkpt lat="43.0989800000" lon="-0.9991670000"><ele>868</ele><time>2026-04-26T12:29:37Z</time></trkpt>
<trkpt lat="43.0989750000" lon="-0.9991330000"><ele>868</ele><time>2026-04-26T12:29:39Z</time></trkpt>
<trkpt lat="43.0989670000" lon="-0.9990970000"><ele>867</ele><time>2026-04-26T12:29:41Z</time></trkpt>
<trkpt lat="43.0989620000" lon="-0.9990670000"><ele>867</ele><time>2026-04-26T12:29:43Z</time></trkpt>
<trkpt lat="43.0989570000" lon="-0.9990350000"><ele>867</ele><time>2026-04-26T12:29:45Z</time></trkpt>
<trkpt lat="43.0989520000" lon="-0.9989980000"><ele>867</ele><time>2026-04-26T12:29:47Z</time></trkpt>
<trkpt lat="43.0989470000" lon="-0.9989670000"><ele>867</ele><time>2026-04-26T12:29:49Z</time></trkpt>
<trkpt lat="43.0989420000" lon="-0.9989320000"><ele>867</ele><time>2026-04-26T12:29:51Z</time></trkpt>
<trkpt lat="43.0989370000" lon="-0.9988970000"><ele>866</ele><time>2026-04-26T12:29:53Z</time></trkpt>
<trkpt lat="43.0989330000" lon="-0.9988670000"><ele>866</ele><time>2026-04-26T12:29:55Z</time></trkpt>
<trkpt lat="43.0989300000" lon="-0.9988370000"><ele>866</ele><time>2026-04-26T12:29:57Z</time></trkpt>
<trkpt lat="43.0989250000" lon="-0.9988020000"><ele>866</ele><time>2026-04-26T12:29:59Z</time></trkpt>
<trkpt lat="43.0989170000" lon="-0.9987670000"><ele>866</ele><time>2026-04-26T12:30:01Z</time></trkpt>
<trkpt lat="43.0989120000" lon="-0.9987370000"><ele>865</ele><time>2026-04-26T12:30:03Z</time></trkpt>
<trkpt lat="43.0989100000" lon="-0.9987050000"><ele>865</ele><time>2026-04-26T12:30:05Z</time></trkpt>
<trkpt lat="43.0989070000" lon="-0.9986750000"><ele>865</ele><time>2026-04-26T12:30:07Z</time></trkpt>
<trkpt lat="43.0989000000" lon="-0.9986420000"><ele>865</ele><time>2026-04-26T12:30:09Z</time></trkpt>
<trkpt lat="43.0988900000" lon="-0.9986100000"><ele>865</ele><time>2026-04-26T12:30:11Z</time></trkpt>
<trkpt lat="43.0988820000" lon="-0.9985770000"><ele>865</ele><time>2026-04-26T12:30:13Z</time></trkpt>
<trkpt lat="43.0988800000" lon="-0.9985420000"><ele>864</ele><time>2026-04-26T12:30:15Z</time></trkpt>
<trkpt lat="43.0988770000" lon="-0.9985030000"><ele>864</ele><time>2026-04-26T12:30:17Z</time></trkpt>
<trkpt lat="43.0988800000" lon="-0.9984700000"><ele>864</ele><time>2026-04-26T12:30:19Z</time></trkpt>
<trkpt lat="43.0988750000" lon="-0.9984350000"><ele>864</ele><time>2026-04-26T12:30:21Z</time></trkpt>
<trkpt lat="43.0988700000" lon="-0.9983980000"><ele>864</ele><time>2026-04-26T12:30:23Z</time></trkpt>
<trkpt lat="43.0988670000" lon="-0.9983670000"><ele>863</ele><time>2026-04-26T12:30:25Z</time></trkpt>
<trkpt lat="43.0988650000" lon="-0.9983350000"><ele>863</ele><time>2026-04-26T12:30:27Z</time></trkpt>
<trkpt lat="43.0988600000" lon="-0.9983020000"><ele>863</ele><time>2026-04-26T12:30:29Z</time></trkpt>
<trkpt lat="43.0988550000" lon="-0.9982700000"><ele>863</ele><time>2026-04-26T12:30:31Z</time></trkpt>
<trkpt lat="43.0988520000" lon="-0.9982350000"><ele>863</ele><time>2026-04-26T12:30:33Z</time></trkpt>
<trkpt lat="43.0988520000" lon="-0.9982020000"><ele>862</ele><time>2026-04-26T12:30:35Z</time></trkpt>
<trkpt lat="43.0988520000" lon="-0.9981680000"><ele>862</ele><time>2026-04-26T12:30:37Z</time></trkpt>
<trkpt lat="43.0988420000" lon="-0.9981350000"><ele>862</ele><time>2026-04-26T12:30:39Z</time></trkpt>
<trkpt lat="43.0988370000" lon="-0.9980970000"><ele>862</ele><time>2026-04-26T12:30:41Z</time></trkpt>
<trkpt lat="43.0988370000" lon="-0.9980620000"><ele>862</ele><time>2026-04-26T12:30:43Z</time></trkpt>
<trkpt lat="43.0988420000" lon="-0.9980270000"><ele>861</ele><time>2026-04-26T12:30:45Z</time></trkpt>
<trkpt lat="43.0988420000" lon="-0.9979920000"><ele>861</ele><time>2026-04-26T12:30:47Z</time></trkpt>
<trkpt lat="43.0988470000" lon="-0.9979570000"><ele>861</ele><time>2026-04-26T12:30:49Z</time></trkpt>
<trkpt lat="43.0988450000" lon="-0.9979230000"><ele>861</ele><time>2026-04-26T12:30:51Z</time></trkpt>
<trkpt lat="43.0988420000" lon="-0.9978900000"><ele>861</ele><time>2026-04-26T12:30:53Z</time></trkpt>
<trkpt lat="43.0988420000" lon="-0.9978550000"><ele>860</ele><time>2026-04-26T12:30:55Z</time></trkpt>
<trkpt lat="43.0988470000" lon="-0.9978170000"><ele>860</ele><time>2026-04-26T12:30:57Z</time></trkpt>
<trkpt lat="43.0988520000" lon="-0.9977820000"><ele>860</ele><time>2026-04-26T12:30:59Z</time></trkpt>
<trkpt lat="43.0988520000" lon="-0.9977520000"><ele>860</ele><time>2026-04-26T12:31:01Z</time></trkpt>
<trkpt lat="43.0988550000" lon="-0.9977170000"><ele>860</ele><time>2026-04-26T12:31:03Z</time></trkpt>
<trkpt lat="43.0988570000" lon="-0.9976870000"><ele>860</ele><time>2026-04-26T12:31:05Z</time></trkpt>
<trkpt lat="43.0988620000" lon="-0.9976530000"><ele>859</ele><time>2026-04-26T12:31:07Z</time></trkpt>
<trkpt lat="43.0988620000" lon="-0.9976220000"><ele>859</ele><time>2026-04-26T12:31:09Z</time></trkpt>
<trkpt lat="43.0988620000" lon="-0.9975880000"><ele>859</ele><time>2026-04-26T12:31:11Z</time></trkpt>
<trkpt lat="43.0988620000" lon="-0.9975570000"><ele>859</ele><time>2026-04-26T12:31:13Z</time></trkpt>
<trkpt lat="43.0988620000" lon="-0.9975250000"><ele>859</ele><time>2026-04-26T12:31:15Z</time></trkpt>
<trkpt lat="43.0988620000" lon="-0.9974970000"><ele>859</ele><time>2026-04-26T12:31:17Z</time></trkpt>
<trkpt lat="43.0988620000" lon="-0.9974650000"><ele>859</ele><time>2026-04-26T12:31:19Z</time></trkpt>
<trkpt lat="43.0988570000" lon="-0.9974320000"><ele>859</ele><time>2026-04-26T12:31:21Z</time></trkpt>
<trkpt lat="43.0988570000" lon="-0.9974020000"><ele>859</ele><time>2026-04-26T12:31:23Z</time></trkpt>
<trkpt lat="43.0988620000" lon="-0.9973770000"><ele>858</ele><time>2026-04-26T12:31:25Z</time></trkpt>
<trkpt lat="43.0988670000" lon="-0.9973370000"><ele>858</ele><time>2026-04-26T12:31:27Z</time></trkpt>
<trkpt lat="43.0988700000" lon="-0.9973050000"><ele>858</ele><time>2026-04-26T12:31:29Z</time></trkpt>
<trkpt lat="43.0988750000" lon="-0.9972720000"><ele>858</ele><time>2026-04-26T12:31:31Z</time></trkpt>
<trkpt lat="43.0988820000" lon="-0.9972350000"><ele>858</ele><time>2026-04-26T12:31:33Z</time></trkpt>
<trkpt lat="43.0988920000" lon="-0.9971970000"><ele>857</ele><time>2026-04-26T12:31:35Z</time></trkpt>
<trkpt lat="43.0989070000" lon="-0.9971620000"><ele>857</ele><time>2026-04-26T12:31:37Z</time></trkpt>
<trkpt lat="43.0989270000" lon="-0.9971270000"><ele>857</ele><time>2026-04-26T12:31:39Z</time></trkpt>
<trkpt lat="43.0989420000" lon="-0.9970920000"><ele>857</ele><time>2026-04-26T12:31:41Z</time></trkpt>
<trkpt lat="43.0989570000" lon="-0.9970650000"><ele>856</ele><time>2026-04-26T12:31:43Z</time></trkpt>
<trkpt lat="43.0989750000" lon="-0.9970400000"><ele>856</ele><time>2026-04-26T12:31:45Z</time></trkpt>
<trkpt lat="43.0989870000" lon="-0.9970120000"><ele>856</ele><time>2026-04-26T12:31:47Z</time></trkpt>
<trkpt lat="43.0989970000" lon="-0.9969870000"><ele>855</ele><time>2026-04-26T12:31:49Z</time></trkpt>
<trkpt lat="43.0990120000" lon="-0.9969580000"><ele>855</ele><time>2026-04-26T12:31:51Z</time></trkpt>
<trkpt lat="43.0990320000" lon="-0.9969420000"><ele>855</ele><time>2026-04-26T12:31:53Z</time></trkpt>
<trkpt lat="43.0990470000" lon="-0.9969130000"><ele>854</ele><time>2026-04-26T12:31:55Z</time></trkpt>
<trkpt lat="43.0990600000" lon="-0.9968870000"><ele>854</ele><time>2026-04-26T12:31:57Z</time></trkpt>
<trkpt lat="43.0990720000" lon="-0.9968570000"><ele>854</ele><time>2026-04-26T12:31:59Z</time></trkpt>
<trkpt lat="43.0990800000" lon="-0.9968270000"><ele>854</ele><time>2026-04-26T12:32:01Z</time></trkpt>
<trkpt lat="43.0990850000" lon="-0.9967970000"><ele>854</ele><time>2026-04-26T12:32:03Z</time></trkpt>
<trkpt lat="43.0990920000" lon="-0.9967700000"><ele>853</ele><time>2026-04-26T12:32:05Z</time></trkpt>
<trkpt lat="43.0990950000" lon="-0.9967380000"><ele>853</ele><time>2026-04-26T12:32:07Z</time></trkpt>
<trkpt lat="43.0990950000" lon="-0.9967070000"><ele>853</ele><time>2026-04-26T12:32:09Z</time></trkpt>
<trkpt lat="43.0990950000" lon="-0.9966770000"><ele>853</ele><time>2026-04-26T12:32:11Z</time></trkpt>
<trkpt lat="43.0990950000" lon="-0.9966420000"><ele>853</ele><time>2026-04-26T12:32:13Z</time></trkpt>
<trkpt lat="43.0990950000" lon="-0.9966120000"><ele>852</ele><time>2026-04-26T12:32:15Z</time></trkpt>
<trkpt lat="43.0990970000" lon="-0.9965800000"><ele>852</ele><time>2026-04-26T12:32:17Z</time></trkpt>
<trkpt lat="43.0990880000" lon="-0.9965470000"><ele>852</ele><time>2026-04-26T12:32:20Z</time></trkpt>
<trkpt lat="43.0990850000" lon="-0.9965150000"><ele>852</ele><time>2026-04-26T12:32:22Z</time></trkpt>
<trkpt lat="43.0990870000" lon="-0.9964770000"><ele>851</ele><time>2026-04-26T12:32:24Z</time></trkpt>
<trkpt lat="43.0990870000" lon="-0.9964450000"><ele>851</ele><time>2026-04-26T12:32:26Z</time></trkpt>
<trkpt lat="43.0990870000" lon="-0.9964120000"><ele>851</ele><time>2026-04-26T12:32:28Z</time></trkpt>
<trkpt lat="43.0990870000" lon="-0.9963770000"><ele>851</ele><time>2026-04-26T12:32:30Z</time></trkpt>
<trkpt lat="43.0990850000" lon="-0.9963450000"><ele>851</ele><time>2026-04-26T12:32:32Z</time></trkpt>
<trkpt lat="43.0990870000" lon="-0.9963100000"><ele>851</ele><time>2026-04-26T12:32:34Z</time></trkpt>
<trkpt lat="43.0990870000" lon="-0.9962750000"><ele>850</ele><time>2026-04-26T12:32:36Z</time></trkpt>
<trkpt lat="43.0990870000" lon="-0.9962450000"><ele>850</ele><time>2026-04-26T12:32:38Z</time></trkpt>
<trkpt lat="43.0990850000" lon="-0.9962170000"><ele>850</ele><time>2026-04-26T12:32:40Z</time></trkpt>
<trkpt lat="43.0990820000" lon="-0.9961900000"><ele>850</ele><time>2026-04-26T12:32:42Z</time></trkpt>
<trkpt lat="43.0990770000" lon="-0.9961620000"><ele>850</ele><time>2026-04-26T12:32:44Z</time></trkpt>
<trkpt lat="43.0990720000" lon="-0.9961370000"><ele>849</ele><time>2026-04-26T12:32:46Z</time></trkpt>
<trkpt lat="43.0990700000" lon="-0.9961020000"><ele>849</ele><time>2026-04-26T12:32:48Z</time></trkpt>
<trkpt lat="43.0990720000" lon="-0.9960620000"><ele>849</ele><time>2026-04-26T12:32:50Z</time></trkpt>
<trkpt lat="43.0990770000" lon="-0.9960250000"><ele>849</ele><time>2026-04-26T12:32:52Z</time></trkpt>
<trkpt lat="43.0990770000" lon="-0.9959850000"><ele>849</ele><time>2026-04-26T12:32:54Z</time></trkpt>
<trkpt lat="43.0990800000" lon="-0.9959470000"><ele>849</ele><time>2026-04-26T12:32:56Z</time></trkpt>
<trkpt lat="43.0990770000" lon="-0.9959120000"><ele>849</ele><time>2026-04-26T12:32:58Z</time></trkpt>
<trkpt lat="43.0990800000" lon="-0.9958770000"><ele>848</ele><time>2026-04-26T12:33:00Z</time></trkpt>
<trkpt lat="43.0990820000" lon="-0.9958470000"><ele>848</ele><time>2026-04-26T12:33:02Z</time></trkpt>
<trkpt lat="43.0990750000" lon="-0.9958120000"><ele>848</ele><time>2026-04-26T12:33:04Z</time></trkpt>
<trkpt lat="43.0990720000" lon="-0.9957800000"><ele>848</ele><time>2026-04-26T12:33:06Z</time></trkpt>
<trkpt lat="43.0990700000" lon="-0.9957470000"><ele>848</ele><time>2026-04-26T12:33:08Z</time></trkpt>
<trkpt lat="43.0990720000" lon="-0.9957150000"><ele>848</ele><time>2026-04-26T12:33:10Z</time></trkpt>
<trkpt lat="43.0990700000" lon="-0.9956780000"><ele>848</ele><time>2026-04-26T12:33:12Z</time></trkpt>
<trkpt lat="43.0990700000" lon="-0.9956470000"><ele>847</ele><time>2026-04-26T12:33:14Z</time></trkpt>
<trkpt lat="43.0990620000" lon="-0.9956150000"><ele>847</ele><time>2026-04-26T12:33:16Z</time></trkpt>
<trkpt lat="43.0990620000" lon="-0.9955850000"><ele>847</ele><time>2026-04-26T12:33:18Z</time></trkpt>
<trkpt lat="43.0990650000" lon="-0.9955470000"><ele>847</ele><time>2026-04-26T12:33:20Z</time></trkpt>
<trkpt lat="43.0990670000" lon="-0.9955120000"><ele>847</ele><time>2026-04-26T12:33:22Z</time></trkpt>
<trkpt lat="43.0990670000" lon="-0.9954770000"><ele>847</ele><time>2026-04-26T12:33:24Z</time></trkpt>
<trkpt lat="43.0990670000" lon="-0.9954450000"><ele>846</ele><time>2026-04-26T12:33:26Z</time></trkpt>
<trkpt lat="43.0990670000" lon="-0.9954100000"><ele>846</ele><time>2026-04-26T12:33:28Z</time></trkpt>
<trkpt lat="43.0990700000" lon="-0.9953750000"><ele>846</ele><time>2026-04-26T12:33:30Z</time></trkpt>
<trkpt lat="43.0990670000" lon="-0.9953420000"><ele>846</ele><time>2026-04-26T12:33:32Z</time></trkpt>
<trkpt lat="43.0990650000" lon="-0.9953070000"><ele>846</ele><time>2026-04-26T12:33:34Z</time></trkpt>
<trkpt lat="43.0990620000" lon="-0.9952750000"><ele>845</ele><time>2026-04-26T12:33:36Z</time></trkpt>
<trkpt lat="43.0990620000" lon="-0.9952400000"><ele>845</ele><time>2026-04-26T12:33:38Z</time></trkpt>
<trkpt lat="43.0990620000" lon="-0.9952070000"><ele>845</ele><time>2026-04-26T12:33:40Z</time></trkpt>
<trkpt lat="43.0990600000" lon="-0.9951700000"><ele>845</ele><time>2026-04-26T12:33:42Z</time></trkpt>
<trkpt lat="43.0990620000" lon="-0.9951320000"><ele>845</ele><time>2026-04-26T12:33:44Z</time></trkpt>
<trkpt lat="43.0990670000" lon="-0.9950980000"><ele>844</ele><time>2026-04-26T12:33:46Z</time></trkpt>
<trkpt lat="43.0990670000" lon="-0.9950650000"><ele>844</ele><time>2026-04-26T12:33:48Z</time></trkpt>
<trkpt lat="43.0990670000" lon="-0.9950320000"><ele>844</ele><time>2026-04-26T12:33:50Z</time></trkpt>
<trkpt lat="43.0990620000" lon="-0.9950000000"><ele>844</ele><time>2026-04-26T12:33:52Z</time></trkpt>
<trkpt lat="43.0990620000" lon="-0.9949620000"><ele>844</ele><time>2026-04-26T12:33:54Z</time></trkpt>
<trkpt lat="43.0990600000" lon="-0.9949300000"><ele>843</ele><time>2026-04-26T12:33:56Z</time></trkpt>
<trkpt lat="43.0990570000" lon="-0.9948970000"><ele>843</ele><time>2026-04-26T12:33:58Z</time></trkpt>
<trkpt lat="43.0990570000" lon="-0.9948620000"><ele>843</ele><time>2026-04-26T12:34:00Z</time></trkpt>
<trkpt lat="43.0990600000" lon="-0.9948220000"><ele>843</ele><time>2026-04-26T12:34:02Z</time></trkpt>
<trkpt lat="43.0990620000" lon="-0.9947800000"><ele>843</ele><time>2026-04-26T12:34:04Z</time></trkpt>
<trkpt lat="43.0990600000" lon="-0.9947470000"><ele>842</ele><time>2026-04-26T12:34:06Z</time></trkpt>
<trkpt lat="43.0990570000" lon="-0.9947150000"><ele>842</ele><time>2026-04-26T12:34:08Z</time></trkpt>
<trkpt lat="43.0990470000" lon="-0.9946820000"><ele>842</ele><time>2026-04-26T12:34:10Z</time></trkpt>
<trkpt lat="43.0990400000" lon="-0.9946470000"><ele>842</ele><time>2026-04-26T12:34:12Z</time></trkpt>
<trkpt lat="43.0990320000" lon="-0.9946120000"><ele>842</ele><time>2026-04-26T12:34:14Z</time></trkpt>
<trkpt lat="43.0990200000" lon="-0.9945800000"><ele>842</ele><time>2026-04-26T12:34:16Z</time></trkpt>
<trkpt lat="43.0990070000" lon="-0.9945470000"><ele>842</ele><time>2026-04-26T12:34:18Z</time></trkpt>
<trkpt lat="43.0989970000" lon="-0.9945170000"><ele>842</ele><time>2026-04-26T12:34:20Z</time></trkpt>
<trkpt lat="43.0989900000" lon="-0.9944850000"><ele>841</ele><time>2026-04-26T12:34:22Z</time></trkpt>
<trkpt lat="43.0989820000" lon="-0.9944520000"><ele>841</ele><time>2026-04-26T12:34:24Z</time></trkpt>
<trkpt lat="43.0989770000" lon="-0.9944220000"><ele>841</ele><time>2026-04-26T12:34:26Z</time></trkpt>
<trkpt lat="43.0989670000" lon="-0.9943920000"><ele>841</ele><time>2026-04-26T12:34:28Z</time></trkpt>
<trkpt lat="43.0989600000" lon="-0.9943620000"><ele>841</ele><time>2026-04-26T12:34:30Z</time></trkpt>
<trkpt lat="43.0989500000" lon="-0.9943320000"><ele>841</ele><time>2026-04-26T12:34:32Z</time></trkpt>
<trkpt lat="43.0989420000" lon="-0.9943000000"><ele>840</ele><time>2026-04-26T12:34:34Z</time></trkpt>
<trkpt lat="43.0989370000" lon="-0.9942670000"><ele>840</ele><time>2026-04-26T12:34:36Z</time></trkpt>
<trkpt lat="43.0989300000" lon="-0.9942420000"><ele>840</ele><time>2026-04-26T12:34:38Z</time></trkpt>
<trkpt lat="43.0989200000" lon="-0.9942100000"><ele>840</ele><time>2026-04-26T12:34:40Z</time></trkpt>
<trkpt lat="43.0989120000" lon="-0.9941750000"><ele>840</ele><time>2026-04-26T12:34:42Z</time></trkpt>
<trkpt lat="43.0989020000" lon="-0.9941450000"><ele>840</ele><time>2026-04-26T12:34:44Z</time></trkpt>
<trkpt lat="43.0988920000" lon="-0.9941130000"><ele>839</ele><time>2026-04-26T12:34:46Z</time></trkpt>
<trkpt lat="43.0988820000" lon="-0.9940800000"><ele>839</ele><time>2026-04-26T12:34:48Z</time></trkpt>
<trkpt lat="43.0988720000" lon="-0.9940470000"><ele>839</ele><time>2026-04-26T12:34:50Z</time></trkpt>
<trkpt lat="43.0988620000" lon="-0.9940120000"><ele>839</ele><time>2026-04-26T12:34:52Z</time></trkpt>
<trkpt lat="43.0988520000" lon="-0.9939820000"><ele>839</ele><time>2026-04-26T12:34:54Z</time></trkpt>
<trkpt lat="43.0988370000" lon="-0.9939520000"><ele>839</ele><time>2026-04-26T12:34:56Z</time></trkpt>
<trkpt lat="43.0988270000" lon="-0.9939170000"><ele>839</ele><time>2026-04-26T12:34:58Z</time></trkpt>
<trkpt lat="43.0988170000" lon="-0.9938870000"><ele>839</ele><time>2026-04-26T12:35:00Z</time></trkpt>
<trkpt lat="43.0988070000" lon="-0.9938550000"><ele>838</ele><time>2026-04-26T12:35:02Z</time></trkpt>
<trkpt lat="43.0987970000" lon="-0.9938270000"><ele>838</ele><time>2026-04-26T12:35:04Z</time></trkpt>
<trkpt lat="43.0987820000" lon="-0.9938020000"><ele>838</ele><time>2026-04-26T12:35:06Z</time></trkpt>
<trkpt lat="43.0987700000" lon="-0.9937770000"><ele>838</ele><time>2026-04-26T12:35:08Z</time></trkpt>
<trkpt lat="43.0987570000" lon="-0.9937500000"><ele>838</ele><time>2026-04-26T12:35:10Z</time></trkpt>
<trkpt lat="43.0987500000" lon="-0.9937200000"><ele>838</ele><time>2026-04-26T12:35:12Z</time></trkpt>
<trkpt lat="43.0987400000" lon="-0.9936870000"><ele>838</ele><time>2026-04-26T12:35:14Z</time></trkpt>
<trkpt lat="43.0987320000" lon="-0.9936520000"><ele>837</ele><time>2026-04-26T12:35:16Z</time></trkpt>
<trkpt lat="43.0987220000" lon="-0.9936170000"><ele>837</ele><time>2026-04-26T12:35:18Z</time></trkpt>
<trkpt lat="43.0987050000" lon="-0.9935870000"><ele>837</ele><time>2026-04-26T12:35:20Z</time></trkpt>
<trkpt lat="43.0986970000" lon="-0.9935500000"><ele>837</ele><time>2026-04-26T12:35:22Z</time></trkpt>
<trkpt lat="43.0986920000" lon="-0.9935170000"><ele>837</ele><time>2026-04-26T12:35:24Z</time></trkpt>
<trkpt lat="43.0986820000" lon="-0.9934820000"><ele>837</ele><time>2026-04-26T12:35:26Z</time></trkpt>
<trkpt lat="43.0986700000" lon="-0.9934470000"><ele>837</ele><time>2026-04-26T12:35:28Z</time></trkpt>
<trkpt lat="43.0986600000" lon="-0.9934150000"><ele>836</ele><time>2026-04-26T12:35:30Z</time></trkpt>
<trkpt lat="43.0986470000" lon="-0.9933820000"><ele>836</ele><time>2026-04-26T12:35:32Z</time></trkpt>
<trkpt lat="43.0986370000" lon="-0.9933520000"><ele>836</ele><time>2026-04-26T12:35:34Z</time></trkpt>
<trkpt lat="43.0986230000" lon="-0.9933220000"><ele>836</ele><time>2026-04-26T12:35:36Z</time></trkpt>
<trkpt lat="43.0986150000" lon="-0.9932920000"><ele>836</ele><time>2026-04-26T12:35:38Z</time></trkpt>
<trkpt lat="43.0986050000" lon="-0.9932620000"><ele>836</ele><time>2026-04-26T12:35:40Z</time></trkpt>
<trkpt lat="43.0985970000" lon="-0.9932320000"><ele>836</ele><time>2026-04-26T12:35:42Z</time></trkpt>
<trkpt lat="43.0985900000" lon="-0.9932000000"><ele>835</ele><time>2026-04-26T12:35:44Z</time></trkpt>
<trkpt lat="43.0985820000" lon="-0.9931670000"><ele>835</ele><time>2026-04-26T12:35:46Z</time></trkpt>
<trkpt lat="43.0985750000" lon="-0.9931370000"><ele>835</ele><time>2026-04-26T12:35:48Z</time></trkpt>
<trkpt lat="43.0985670000" lon="-0.9931050000"><ele>835</ele><time>2026-04-26T12:35:50Z</time></trkpt>
<trkpt lat="43.0985620000" lon="-0.9930720000"><ele>835</ele><time>2026-04-26T12:35:52Z</time></trkpt>
<trkpt lat="43.0985530000" lon="-0.9930370000"><ele>834</ele><time>2026-04-26T12:35:54Z</time></trkpt>
<trkpt lat="43.0985470000" lon="-0.9930070000"><ele>834</ele><time>2026-04-26T12:35:56Z</time></trkpt>
<trkpt lat="43.0985400000" lon="-0.9929720000"><ele>834</ele><time>2026-04-26T12:35:58Z</time></trkpt>
<trkpt lat="43.0985350000" lon="-0.9929370000"><ele>834</ele><time>2026-04-26T12:36:00Z</time></trkpt>
<trkpt lat="43.0985300000" lon="-0.9929020000"><ele>834</ele><time>2026-04-26T12:36:02Z</time></trkpt>
<trkpt lat="43.0985220000" lon="-0.9928700000"><ele>833</ele><time>2026-04-26T12:36:04Z</time></trkpt>
<trkpt lat="43.0985170000" lon="-0.9928370000"><ele>833</ele><time>2026-04-26T12:36:06Z</time></trkpt>
<trkpt lat="43.0985120000" lon="-0.9928020000"><ele>833</ele><time>2026-04-26T12:36:08Z</time></trkpt>
<trkpt lat="43.0985070000" lon="-0.9927670000"><ele>833</ele><time>2026-04-26T12:36:10Z</time></trkpt>
<trkpt lat="43.0985070000" lon="-0.9927370000"><ele>833</ele><time>2026-04-26T12:36:12Z</time></trkpt>
<trkpt lat="43.0985070000" lon="-0.9927000000"><ele>833</ele><time>2026-04-26T12:36:14Z</time></trkpt>
<trkpt lat="43.0985020000" lon="-0.9926670000"><ele>833</ele><time>2026-04-26T12:36:16Z</time></trkpt>
<trkpt lat="43.0985000000" lon="-0.9926350000"><ele>832</ele><time>2026-04-26T12:36:18Z</time></trkpt>
<trkpt lat="43.0984970000" lon="-0.9926020000"><ele>832</ele><time>2026-04-26T12:36:20Z</time></trkpt>
<trkpt lat="43.0984920000" lon="-0.9925680000"><ele>832</ele><time>2026-04-26T12:36:22Z</time></trkpt>
<trkpt lat="43.0984920000" lon="-0.9925350000"><ele>832</ele><time>2026-04-26T12:36:24Z</time></trkpt>
<trkpt lat="43.0984900000" lon="-0.9925000000"><ele>832</ele><time>2026-04-26T12:36:26Z</time></trkpt>
<trkpt lat="43.0984920000" lon="-0.9924620000"><ele>832</ele><time>2026-04-26T12:36:28Z</time></trkpt>
<trkpt lat="43.0984920000" lon="-0.9924300000"><ele>831</ele><time>2026-04-26T12:36:30Z</time></trkpt>
<trkpt lat="43.0984900000" lon="-0.9923970000"><ele>831</ele><time>2026-04-26T12:36:32Z</time></trkpt>
<trkpt lat="43.0984870000" lon="-0.9923650000"><ele>831</ele><time>2026-04-26T12:36:34Z</time></trkpt>
<trkpt lat="43.0984870000" lon="-0.9923300000"><ele>831</ele><time>2026-04-26T12:36:36Z</time></trkpt>
<trkpt lat="43.0984900000" lon="-0.9922920000"><ele>831</ele><time>2026-04-26T12:36:38Z</time></trkpt>
<trkpt lat="43.0984870000" lon="-0.9922550000"><ele>831</ele><time>2026-04-26T12:36:40Z</time></trkpt>
<trkpt lat="43.0984820000" lon="-0.9922220000"><ele>830</ele><time>2026-04-26T12:36:42Z</time></trkpt>
<trkpt lat="43.0984830000" lon="-0.9921830000"><ele>830</ele><time>2026-04-26T12:36:44Z</time></trkpt>
<trkpt lat="43.0984870000" lon="-0.9921470000"><ele>830</ele><time>2026-04-26T12:36:46Z</time></trkpt>
<trkpt lat="43.0984870000" lon="-0.9921120000"><ele>830</ele><time>2026-04-26T12:36:48Z</time></trkpt>
<trkpt lat="43.0984870000" lon="-0.9920800000"><ele>830</ele><time>2026-04-26T12:36:50Z</time></trkpt>
<trkpt lat="43.0984830000" lon="-0.9920470000"><ele>830</ele><time>2026-04-26T12:36:52Z</time></trkpt>
<trkpt lat="43.0984820000" lon="-0.9920120000"><ele>830</ele><time>2026-04-26T12:36:54Z</time></trkpt>
<trkpt lat="43.0984770000" lon="-0.9919770000"><ele>830</ele><time>2026-04-26T12:36:56Z</time></trkpt>
<trkpt lat="43.0984770000" lon="-0.9919420000"><ele>830</ele><time>2026-04-26T12:36:58Z</time></trkpt>
<trkpt lat="43.0984770000" lon="-0.9919120000"><ele>830</ele><time>2026-04-26T12:37:00Z</time></trkpt>
<trkpt lat="43.0984750000" lon="-0.9918770000"><ele>830</ele><time>2026-04-26T12:37:02Z</time></trkpt>
<trkpt lat="43.0984720000" lon="-0.9918420000"><ele>829</ele><time>2026-04-26T12:37:04Z</time></trkpt>
<trkpt lat="43.0984700000" lon="-0.9918070000"><ele>829</ele><time>2026-04-26T12:37:06Z</time></trkpt>
<trkpt lat="43.0984720000" lon="-0.9917750000"><ele>829</ele><time>2026-04-26T12:37:08Z</time></trkpt>
<trkpt lat="43.0984750000" lon="-0.9917370000"><ele>829</ele><time>2026-04-26T12:37:10Z</time></trkpt>
<trkpt lat="43.0984750000" lon="-0.9917020000"><ele>829</ele><time>2026-04-26T12:37:12Z</time></trkpt>
<trkpt lat="43.0984700000" lon="-0.9916670000"><ele>828</ele><time>2026-04-26T12:37:14Z</time></trkpt>
<trkpt lat="43.0984670000" lon="-0.9916320000"><ele>828</ele><time>2026-04-26T12:37:16Z</time></trkpt>
<trkpt lat="43.0984620000" lon="-0.9916000000"><ele>828</ele><time>2026-04-26T12:37:18Z</time></trkpt>
<trkpt lat="43.0984600000" lon="-0.9915700000"><ele>828</ele><time>2026-04-26T12:37:20Z</time></trkpt>
<trkpt lat="43.0984550000" lon="-0.9915350000"><ele>827</ele><time>2026-04-26T12:37:22Z</time></trkpt>
<trkpt lat="43.0984470000" lon="-0.9915020000"><ele>827</ele><time>2026-04-26T12:37:24Z</time></trkpt>
<trkpt lat="43.0984470000" lon="-0.9914720000"><ele>827</ele><time>2026-04-26T12:37:26Z</time></trkpt>
<trkpt lat="43.0984470000" lon="-0.9914370000"><ele>827</ele><time>2026-04-26T12:37:28Z</time></trkpt>
<trkpt lat="43.0984450000" lon="-0.9914020000"><ele>827</ele><time>2026-04-26T12:37:30Z</time></trkpt>
<trkpt lat="43.0984420000" lon="-0.9913720000"><ele>827</ele><time>2026-04-26T12:37:32Z</time></trkpt>
<trkpt lat="43.0984370000" lon="-0.9913370000"><ele>827</ele><time>2026-04-26T12:37:34Z</time></trkpt>
<trkpt lat="43.0984350000" lon="-0.9913000000"><ele>827</ele><time>2026-04-26T12:37:36Z</time></trkpt>
<trkpt lat="43.0984350000" lon="-0.9912620000"><ele>827</ele><time>2026-04-26T12:37:38Z</time></trkpt>
<trkpt lat="43.0984320000" lon="-0.9912320000"><ele>827</ele><time>2026-04-26T12:37:40Z</time></trkpt>
<trkpt lat="43.0984270000" lon="-0.9912050000"><ele>826</ele><time>2026-04-26T12:37:42Z</time></trkpt>
<trkpt lat="43.0984270000" lon="-0.9911720000"><ele>826</ele><time>2026-04-26T12:37:44Z</time></trkpt>
<trkpt lat="43.0984250000" lon="-0.9911420000"><ele>826</ele><time>2026-04-26T12:37:46Z</time></trkpt>
<trkpt lat="43.0984270000" lon="-0.9911120000"><ele>826</ele><time>2026-04-26T12:37:48Z</time></trkpt>
<trkpt lat="43.0984320000" lon="-0.9910770000"><ele>825</ele><time>2026-04-26T12:37:50Z</time></trkpt>
<trkpt lat="43.0984370000" lon="-0.9910420000"><ele>825</ele><time>2026-04-26T12:37:52Z</time></trkpt>
<trkpt lat="43.0984450000" lon="-0.9910070000"><ele>825</ele><time>2026-04-26T12:37:54Z</time></trkpt>
<trkpt lat="43.0984470000" lon="-0.9909670000"><ele>825</ele><time>2026-04-26T12:37:56Z</time></trkpt>
<trkpt lat="43.0984470000" lon="-0.9909370000"><ele>824</ele><time>2026-04-26T12:37:58Z</time></trkpt>
<trkpt lat="43.0984470000" lon="-0.9909050000"><ele>824</ele><time>2026-04-26T12:38:00Z</time></trkpt>
<trkpt lat="43.0984520000" lon="-0.9908720000"><ele>824</ele><time>2026-04-26T12:38:02Z</time></trkpt>
<trkpt lat="43.0984550000" lon="-0.9908420000"><ele>824</ele><time>2026-04-26T12:38:04Z</time></trkpt>
<trkpt lat="43.0984570000" lon="-0.9908070000"><ele>824</ele><time>2026-04-26T12:38:06Z</time></trkpt>
<trkpt lat="43.0984620000" lon="-0.9907720000"><ele>824</ele><time>2026-04-26T12:38:08Z</time></trkpt>
<trkpt lat="43.0984650000" lon="-0.9907370000"><ele>824</ele><time>2026-04-26T12:38:10Z</time></trkpt>
<trkpt lat="43.0984670000" lon="-0.9907030000"><ele>824</ele><time>2026-04-26T12:38:12Z</time></trkpt>
<trkpt lat="43.0984750000" lon="-0.9906720000"><ele>824</ele><time>2026-04-26T12:38:14Z</time></trkpt>
<trkpt lat="43.0984770000" lon="-0.9906380000"><ele>824</ele><time>2026-04-26T12:38:16Z</time></trkpt>
<trkpt lat="43.0984820000" lon="-0.9906120000"><ele>823</ele><time>2026-04-26T12:38:18Z</time></trkpt>
<trkpt lat="43.0984870000" lon="-0.9905800000"><ele>823</ele><time>2026-04-26T12:38:20Z</time></trkpt>
<trkpt lat="43.0984900000" lon="-0.9905470000"><ele>823</ele><time>2026-04-26T12:38:22Z</time></trkpt>
<trkpt lat="43.0984870000" lon="-0.9905120000"><ele>823</ele><time>2026-04-26T12:38:24Z</time></trkpt>
<trkpt lat="43.0984900000" lon="-0.9904770000"><ele>823</ele><time>2026-04-26T12:38:26Z</time></trkpt>
<trkpt lat="43.0984830000" lon="-0.9904400000"><ele>823</ele><time>2026-04-26T12:38:28Z</time></trkpt>
<trkpt lat="43.0984820000" lon="-0.9904070000"><ele>823</ele><time>2026-04-26T12:38:30Z</time></trkpt>
<trkpt lat="43.0984820000" lon="-0.9903720000"><ele>823</ele><time>2026-04-26T12:38:32Z</time></trkpt>
<trkpt lat="43.0984820000" lon="-0.9903370000"><ele>823</ele><time>2026-04-26T12:38:34Z</time></trkpt>
<trkpt lat="43.0984820000" lon="-0.9903050000"><ele>823</ele><time>2026-04-26T12:38:36Z</time></trkpt>
<trkpt lat="43.0984800000" lon="-0.9902720000"><ele>823</ele><time>2026-04-26T12:38:38Z</time></trkpt>
<trkpt lat="43.0984770000" lon="-0.9902370000"><ele>823</ele><time>2026-04-26T12:38:40Z</time></trkpt>
<trkpt lat="43.0984720000" lon="-0.9902020000"><ele>823</ele><time>2026-04-26T12:38:42Z</time></trkpt>
<trkpt lat="43.0984670000" lon="-0.9901670000"><ele>823</ele><time>2026-04-26T12:38:44Z</time></trkpt>
<trkpt lat="43.0984670000" lon="-0.9901350000"><ele>823</ele><time>2026-04-26T12:38:46Z</time></trkpt>
<trkpt lat="43.0984670000" lon="-0.9901020000"><ele>823</ele><time>2026-04-26T12:38:48Z</time></trkpt>
<trkpt lat="43.0984670000" lon="-0.9900720000"><ele>823</ele><time>2026-04-26T12:38:50Z</time></trkpt>
<trkpt lat="43.0984620000" lon="-0.9900400000"><ele>823</ele><time>2026-04-26T12:38:52Z</time></trkpt>
<trkpt lat="43.0984570000" lon="-0.9900070000"><ele>823</ele><time>2026-04-26T12:38:54Z</time></trkpt>
<trkpt lat="43.0984550000" lon="-0.9899750000"><ele>823</ele><time>2026-04-26T12:38:56Z</time></trkpt>
<trkpt lat="43.0984520000" lon="-0.9899420000"><ele>822</ele><time>2026-04-26T12:38:58Z</time></trkpt>
<trkpt lat="43.0984550000" lon="-0.9899070000"><ele>822</ele><time>2026-04-26T12:39:00Z</time></trkpt>
<trkpt lat="43.0984620000" lon="-0.9898700000"><ele>822</ele><time>2026-04-26T12:39:02Z</time></trkpt>
<trkpt lat="43.0984650000" lon="-0.9898270000"><ele>822</ele><time>2026-04-26T12:39:04Z</time></trkpt>
<trkpt lat="43.0984720000" lon="-0.9897820000"><ele>822</ele><time>2026-04-26T12:39:06Z</time></trkpt>
<trkpt lat="43.0984720000" lon="-0.9897450000"><ele>822</ele><time>2026-04-26T12:39:08Z</time></trkpt>
<trkpt lat="43.0984720000" lon="-0.9897070000"><ele>822</ele><time>2026-04-26T12:39:10Z</time></trkpt>
<trkpt lat="43.0984700000" lon="-0.9896720000"><ele>822</ele><time>2026-04-26T12:39:12Z</time></trkpt>
<trkpt lat="43.0984670000" lon="-0.9896370000"><ele>821</ele><time>2026-04-26T12:39:14Z</time></trkpt>
<trkpt lat="43.0984670000" lon="-0.9896020000"><ele>821</ele><time>2026-04-26T12:39:16Z</time></trkpt>
<trkpt lat="43.0984670000" lon="-0.9895670000"><ele>821</ele><time>2026-04-26T12:39:18Z</time></trkpt>
<trkpt lat="43.0984670000" lon="-0.9895370000"><ele>821</ele><time>2026-04-26T12:39:20Z</time></trkpt>
<trkpt lat="43.0984670000" lon="-0.9895020000"><ele>821</ele><time>2026-04-26T12:39:22Z</time></trkpt>
<trkpt lat="43.0984670000" lon="-0.9894670000"><ele>821</ele><time>2026-04-26T12:39:24Z</time></trkpt>
<trkpt lat="43.0984650000" lon="-0.9894350000"><ele>821</ele><time>2026-04-26T12:39:26Z</time></trkpt>
<trkpt lat="43.0984650000" lon="-0.9894030000"><ele>821</ele><time>2026-04-26T12:39:28Z</time></trkpt>
<trkpt lat="43.0984620000" lon="-0.9893720000"><ele>821</ele><time>2026-04-26T12:39:30Z</time></trkpt>
<trkpt lat="43.0984620000" lon="-0.9893370000"><ele>820</ele><time>2026-04-26T12:39:32Z</time></trkpt>
<trkpt lat="43.0984620000" lon="-0.9893020000"><ele>820</ele><time>2026-04-26T12:39:34Z</time></trkpt>
<trkpt lat="43.0984600000" lon="-0.9892620000"><ele>820</ele><time>2026-04-26T12:39:36Z</time></trkpt>
<trkpt lat="43.0984570000" lon="-0.9892300000"><ele>820</ele><time>2026-04-26T12:39:38Z</time></trkpt>
<trkpt lat="43.0984550000" lon="-0.9891950000"><ele>820</ele><time>2026-04-26T12:39:40Z</time></trkpt>
<trkpt lat="43.0984500000" lon="-0.9891600000"><ele>820</ele><time>2026-04-26T12:39:42Z</time></trkpt>
<trkpt lat="43.0984420000" lon="-0.9891250000"><ele>820</ele><time>2026-04-26T12:39:44Z</time></trkpt>
<trkpt lat="43.0984370000" lon="-0.9890900000"><ele>820</ele><time>2026-04-26T12:39:46Z</time></trkpt>
<trkpt lat="43.0984300000" lon="-0.9890550000"><ele>820</ele><time>2026-04-26T12:39:48Z</time></trkpt>
<trkpt lat="43.0984220000" lon="-0.9890180000"><ele>820</ele><time>2026-04-26T12:39:50Z</time></trkpt>
<trkpt lat="43.0984200000" lon="-0.9889870000"><ele>820</ele><time>2026-04-26T12:39:52Z</time></trkpt>
<trkpt lat="43.0984150000" lon="-0.9889550000"><ele>819</ele><time>2026-04-26T12:39:54Z</time></trkpt>
<trkpt lat="43.0984120000" lon="-0.9889200000"><ele>819</ele><time>2026-04-26T12:39:56Z</time></trkpt>
<trkpt lat="43.0984070000" lon="-0.9888870000"><ele>819</ele><time>2026-04-26T12:39:58Z</time></trkpt>
<trkpt lat="43.0984020000" lon="-0.9888520000"><ele>819</ele><time>2026-04-26T12:40:00Z</time></trkpt>
<trkpt lat="43.0983920000" lon="-0.9888170000"><ele>819</ele><time>2026-04-26T12:40:02Z</time></trkpt>
<trkpt lat="43.0983820000" lon="-0.9887870000"><ele>819</ele><time>2026-04-26T12:40:04Z</time></trkpt>
<trkpt lat="43.0983720000" lon="-0.9887600000"><ele>819</ele><time>2026-04-26T12:40:06Z</time></trkpt>
<trkpt lat="43.0983650000" lon="-0.9887320000"><ele>819</ele><time>2026-04-26T12:40:08Z</time></trkpt>
<trkpt lat="43.0983550000" lon="-0.9886970000"><ele>819</ele><time>2026-04-26T12:40:10Z</time></trkpt>
<trkpt lat="43.0983420000" lon="-0.9886670000"><ele>818</ele><time>2026-04-26T12:40:12Z</time></trkpt>
<trkpt lat="43.0983420000" lon="-0.9886300000"><ele>818</ele><time>2026-04-26T12:40:14Z</time></trkpt>
<trkpt lat="43.0983420000" lon="-0.9885900000"><ele>818</ele><time>2026-04-26T12:40:16Z</time></trkpt>
<trkpt lat="43.0983370000" lon="-0.9885520000"><ele>818</ele><time>2026-04-26T12:40:18Z</time></trkpt>
<trkpt lat="43.0983270000" lon="-0.9885170000"><ele>818</ele><time>2026-04-26T12:40:20Z</time></trkpt>
<trkpt lat="43.0983220000" lon="-0.9884870000"><ele>817</ele><time>2026-04-26T12:40:22Z</time></trkpt>
<trkpt lat="43.0983170000" lon="-0.9884570000"><ele>817</ele><time>2026-04-26T12:40:24Z</time></trkpt>
<trkpt lat="43.0983100000" lon="-0.9884270000"><ele>817</ele><time>2026-04-26T12:40:26Z</time></trkpt>
<trkpt lat="43.0983050000" lon="-0.9883900000"><ele>817</ele><time>2026-04-26T12:40:28Z</time></trkpt>
<trkpt lat="43.0983000000" lon="-0.9883570000"><ele>817</ele><time>2026-04-26T12:40:30Z</time></trkpt>
<trkpt lat="43.0982950000" lon="-0.9883270000"><ele>817</ele><time>2026-04-26T12:40:32Z</time></trkpt>
<trkpt lat="43.0982900000" lon="-0.9882950000"><ele>816</ele><time>2026-04-26T12:40:34Z</time></trkpt>
<trkpt lat="43.0982870000" lon="-0.9882620000"><ele>816</ele><time>2026-04-26T12:40:36Z</time></trkpt>
<trkpt lat="43.0982820000" lon="-0.9882270000"><ele>816</ele><time>2026-04-26T12:40:38Z</time></trkpt>
<trkpt lat="43.0982770000" lon="-0.9881920000"><ele>816</ele><time>2026-04-26T12:40:40Z</time></trkpt>
<trkpt lat="43.0982750000" lon="-0.9881570000"><ele>816</ele><time>2026-04-26T12:40:42Z</time></trkpt>
<trkpt lat="43.0982720000" lon="-0.9881270000"><ele>816</ele><time>2026-04-26T12:40:44Z</time></trkpt>
<trkpt lat="43.0982720000" lon="-0.9880920000"><ele>816</ele><time>2026-04-26T12:40:46Z</time></trkpt>
<trkpt lat="43.0982670000" lon="-0.9880570000"><ele>815</ele><time>2026-04-26T12:40:48Z</time></trkpt>
<trkpt lat="43.0982670000" lon="-0.9880220000"><ele>815</ele><time>2026-04-26T12:40:50Z</time></trkpt>
<trkpt lat="43.0982670000" lon="-0.9879870000"><ele>815</ele><time>2026-04-26T12:40:52Z</time></trkpt>
<trkpt lat="43.0982620000" lon="-0.9879570000"><ele>815</ele><time>2026-04-26T12:40:54Z</time></trkpt>
<trkpt lat="43.0982620000" lon="-0.9879220000"><ele>814</ele><time>2026-04-26T12:40:56Z</time></trkpt>
<trkpt lat="43.0982570000" lon="-0.9878870000"><ele>814</ele><time>2026-04-26T12:40:58Z</time></trkpt>
<trkpt lat="43.0982520000" lon="-0.9878520000"><ele>814</ele><time>2026-04-26T12:41:00Z</time></trkpt>
<trkpt lat="43.0982500000" lon="-0.9878170000"><ele>814</ele><time>2026-04-26T12:41:02Z</time></trkpt>
<trkpt lat="43.0982470000" lon="-0.9877850000"><ele>814</ele><time>2026-04-26T12:41:04Z</time></trkpt>
<trkpt lat="43.0982470000" lon="-0.9877520000"><ele>813</ele><time>2026-04-26T12:41:06Z</time></trkpt>
<trkpt lat="43.0982420000" lon="-0.9877150000"><ele>813</ele><time>2026-04-26T12:41:08Z</time></trkpt>
<trkpt lat="43.0982420000" lon="-0.9876820000"><ele>813</ele><time>2026-04-26T12:41:10Z</time></trkpt>
<trkpt lat="43.0982420000" lon="-0.9876450000"><ele>813</ele><time>2026-04-26T12:41:12Z</time></trkpt>
<trkpt lat="43.0982400000" lon="-0.9876070000"><ele>813</ele><time>2026-04-26T12:41:14Z</time></trkpt>
<trkpt lat="43.0982370000" lon="-0.9875720000"><ele>813</ele><time>2026-04-26T12:41:16Z</time></trkpt>
<trkpt lat="43.0982320000" lon="-0.9875420000"><ele>812</ele><time>2026-04-26T12:41:18Z</time></trkpt>
<trkpt lat="43.0982270000" lon="-0.9875100000"><ele>812</ele><time>2026-04-26T12:41:20Z</time></trkpt>
<trkpt lat="43.0982220000" lon="-0.9874800000"><ele>812</ele><time>2026-04-26T12:41:22Z</time></trkpt>
<trkpt lat="43.0982170000" lon="-0.9874470000"><ele>812</ele><time>2026-04-26T12:41:24Z</time></trkpt>
<trkpt lat="43.0982100000" lon="-0.9874170000"><ele>812</ele><time>2026-04-26T12:41:26Z</time></trkpt>
<trkpt lat="43.0982020000" lon="-0.9873820000"><ele>811</ele><time>2026-04-26T12:41:28Z</time></trkpt>
<trkpt lat="43.0981950000" lon="-0.9873500000"><ele>811</ele><time>2026-04-26T12:41:30Z</time></trkpt>
<trkpt lat="43.0981870000" lon="-0.9873170000"><ele>811</ele><time>2026-04-26T12:41:32Z</time></trkpt>
<trkpt lat="43.0981800000" lon="-0.9872800000"><ele>811</ele><time>2026-04-26T12:41:34Z</time></trkpt>
<trkpt lat="43.0981700000" lon="-0.9872450000"><ele>811</ele><time>2026-04-26T12:41:36Z</time></trkpt>
<trkpt lat="43.0981620000" lon="-0.9872070000"><ele>811</ele><time>2026-04-26T12:41:38Z</time></trkpt>
<trkpt lat="43.0981550000" lon="-0.9871700000"><ele>811</ele><time>2026-04-26T12:41:40Z</time></trkpt>
<trkpt lat="43.0981420000" lon="-0.9871420000"><ele>811</ele><time>2026-04-26T12:41:42Z</time></trkpt>
<trkpt lat="43.0981320000" lon="-0.9871120000"><ele>811</ele><time>2026-04-26T12:41:44Z</time></trkpt>
<trkpt lat="43.0981170000" lon="-0.9870850000"><ele>811</ele><time>2026-04-26T12:41:46Z</time></trkpt>
<trkpt lat="43.0981020000" lon="-0.9870570000"><ele>811</ele><time>2026-04-26T12:41:48Z</time></trkpt>
<trkpt lat="43.0980850000" lon="-0.9870280000"><ele>811</ele><time>2026-04-26T12:41:50Z</time></trkpt>
<trkpt lat="43.0980670000" lon="-0.9870050000"><ele>811</ele><time>2026-04-26T12:41:52Z</time></trkpt>
<trkpt lat="43.0980500000" lon="-0.9869820000"><ele>811</ele><time>2026-04-26T12:41:54Z</time></trkpt>
<trkpt lat="43.0980320000" lon="-0.9869550000"><ele>811</ele><time>2026-04-26T12:41:56Z</time></trkpt>
<trkpt lat="43.0980120000" lon="-0.9869320000"><ele>811</ele><time>2026-04-26T12:41:58Z</time></trkpt>
<trkpt lat="43.0979950000" lon="-0.9869070000"><ele>810</ele><time>2026-04-26T12:42:00Z</time></trkpt>
<trkpt lat="43.0979750000" lon="-0.9868770000"><ele>810</ele><time>2026-04-26T12:42:02Z</time></trkpt>
<trkpt lat="43.0979570000" lon="-0.9868550000"><ele>810</ele><time>2026-04-26T12:42:04Z</time></trkpt>
<trkpt lat="43.0979400000" lon="-0.9868320000"><ele>810</ele><time>2026-04-26T12:42:06Z</time></trkpt>
<trkpt lat="43.0979270000" lon="-0.9868020000"><ele>810</ele><time>2026-04-26T12:42:08Z</time></trkpt>
<trkpt lat="43.0979150000" lon="-0.9867770000"><ele>810</ele><time>2026-04-26T12:42:10Z</time></trkpt>
<trkpt lat="43.0978970000" lon="-0.9867470000"><ele>810</ele><time>2026-04-26T12:42:12Z</time></trkpt>
<trkpt lat="43.0978920000" lon="-0.9867170000"><ele>810</ele><time>2026-04-26T12:42:14Z</time></trkpt>
<trkpt lat="43.0978920000" lon="-0.9866880000"><ele>810</ele><time>2026-04-26T12:42:16Z</time></trkpt>
<trkpt lat="43.0979020000" lon="-0.9866570000"><ele>810</ele><time>2026-04-26T12:42:19Z</time></trkpt>
<trkpt lat="43.0979070000" lon="-0.9866300000"><ele>810</ele><time>2026-04-26T12:42:24Z</time></trkpt>
<trkpt lat="43.0978770000" lon="-0.9866220000"><ele>809</ele><time>2026-04-26T12:43:12Z</time></trkpt>
<trkpt lat="43.0978620000" lon="-0.9866020000"><ele>809</ele><time>2026-04-26T12:43:13Z</time></trkpt>
<trkpt lat="43.0978470000" lon="-0.9865850000"><ele>809</ele><time>2026-04-26T12:43:14Z</time></trkpt>
<trkpt lat="43.0978320000" lon="-0.9865670000"><ele>809</ele><time>2026-04-26T12:43:15Z</time></trkpt>
<trkpt lat="43.0978120000" lon="-0.9865300000"><ele>809</ele><time>2026-04-26T12:43:17Z</time></trkpt>
<trkpt lat="43.0978000000" lon="-0.9864920000"><ele>809</ele><time>2026-04-26T12:43:19Z</time></trkpt>
<trkpt lat="43.0977870000" lon="-0.9864570000"><ele>809</ele><time>2026-04-26T12:43:21Z</time></trkpt>
<trkpt lat="43.0977720000" lon="-0.9864270000"><ele>809</ele><time>2026-04-26T12:43:23Z</time></trkpt>
<trkpt lat="43.0977600000" lon="-0.9864000000"><ele>808</ele><time>2026-04-26T12:43:25Z</time></trkpt>
<trkpt lat="43.0977470000" lon="-0.9863700000"><ele>808</ele><time>2026-04-26T12:43:27Z</time></trkpt>
<trkpt lat="43.0977320000" lon="-0.9863400000"><ele>808</ele><time>2026-04-26T12:43:29Z</time></trkpt>
<trkpt lat="43.0977170000" lon="-0.9863100000"><ele>808</ele><time>2026-04-26T12:43:31Z</time></trkpt>
<trkpt lat="43.0977020000" lon="-0.9862830000"><ele>808</ele><time>2026-04-26T12:43:33Z</time></trkpt>
<trkpt lat="43.0976970000" lon="-0.9862550000"><ele>808</ele><time>2026-04-26T12:43:35Z</time></trkpt>
<trkpt lat="43.0976870000" lon="-0.9862220000"><ele>808</ele><time>2026-04-26T12:43:37Z</time></trkpt>
<trkpt lat="43.0976750000" lon="-0.9862020000"><ele>808</ele><time>2026-04-26T12:43:39Z</time></trkpt>
<trkpt lat="43.0976570000" lon="-0.9861770000"><ele>808</ele><time>2026-04-26T12:43:41Z</time></trkpt>
<trkpt lat="43.0976370000" lon="-0.9861620000"><ele>808</ele><time>2026-04-26T12:43:43Z</time></trkpt>
<trkpt lat="43.0976250000" lon="-0.9861350000"><ele>808</ele><time>2026-04-26T12:43:45Z</time></trkpt>
<trkpt lat="43.0976070000" lon="-0.9861070000"><ele>807</ele><time>2026-04-26T12:43:47Z</time></trkpt>
<trkpt lat="43.0975900000" lon="-0.9860720000"><ele>807</ele><time>2026-04-26T12:43:49Z</time></trkpt>
<trkpt lat="43.0975770000" lon="-0.9860470000"><ele>807</ele><time>2026-04-26T12:43:51Z</time></trkpt>
<trkpt lat="43.0975600000" lon="-0.9860270000"><ele>807</ele><time>2026-04-26T12:43:53Z</time></trkpt>
<trkpt lat="43.0975450000" lon="-0.9860050000"><ele>807</ele><time>2026-04-26T12:43:55Z</time></trkpt>
<trkpt lat="43.0975320000" lon="-0.9859770000"><ele>807</ele><time>2026-04-26T12:43:57Z</time></trkpt>
<trkpt lat="43.0975200000" lon="-0.9859550000"><ele>807</ele><time>2026-04-26T12:43:59Z</time></trkpt>
<trkpt lat="43.0975070000" lon="-0.9859250000"><ele>807</ele><time>2026-04-26T12:44:01Z</time></trkpt>
<trkpt lat="43.0974970000" lon="-0.9859050000"><ele>807</ele><time>2026-04-26T12:44:02Z</time></trkpt>
<trkpt lat="43.0974850000" lon="-0.9858850000"><ele>807</ele><time>2026-04-26T12:44:03Z</time></trkpt>
<trkpt lat="43.0974670000" lon="-0.9858550000"><ele>807</ele><time>2026-04-26T12:44:05Z</time></trkpt>
<trkpt lat="43.0974670000" lon="-0.9858220000"><ele>807</ele><time>2026-04-26T12:44:07Z</time></trkpt>
<trkpt lat="43.0974550000" lon="-0.9858000000"><ele>807</ele><time>2026-04-26T12:44:09Z</time></trkpt>
<trkpt lat="43.0974370000" lon="-0.9857720000"><ele>807</ele><time>2026-04-26T12:44:11Z</time></trkpt>
<trkpt lat="43.0974270000" lon="-0.9857450000"><ele>807</ele><time>2026-04-26T12:44:13Z</time></trkpt>
<trkpt lat="43.0974070000" lon="-0.9857150000"><ele>807</ele><time>2026-04-26T12:44:15Z</time></trkpt>
<trkpt lat="43.0973870000" lon="-0.9856920000"><ele>807</ele><time>2026-04-26T12:44:17Z</time></trkpt>
<trkpt lat="43.0973770000" lon="-0.9856550000"><ele>807</ele><time>2026-04-26T12:44:19Z</time></trkpt>
<trkpt lat="43.0973550000" lon="-0.9856300000"><ele>807</ele><time>2026-04-26T12:44:21Z</time></trkpt>
<trkpt lat="43.0973400000" lon="-0.9856070000"><ele>807</ele><time>2026-04-26T12:44:23Z</time></trkpt>
<trkpt lat="43.0973220000" lon="-0.9855820000"><ele>806</ele><time>2026-04-26T12:44:25Z</time></trkpt>
<trkpt lat="43.0973120000" lon="-0.9855600000"><ele>806</ele><time>2026-04-26T12:44:27Z</time></trkpt>
<trkpt lat="43.0973000000" lon="-0.9855370000"><ele>806</ele><time>2026-04-26T12:44:29Z</time></trkpt>
<trkpt lat="43.0972850000" lon="-0.9855120000"><ele>806</ele><time>2026-04-26T12:44:31Z</time></trkpt>
<trkpt lat="43.0972670000" lon="-0.9854870000"><ele>806</ele><time>2026-04-26T12:44:33Z</time></trkpt>
<trkpt lat="43.0972450000" lon="-0.9854650000"><ele>806</ele><time>2026-04-26T12:44:35Z</time></trkpt>
<trkpt lat="43.0972300000" lon="-0.9854470000"><ele>806</ele><time>2026-04-26T12:44:37Z</time></trkpt>
<trkpt lat="43.0972100000" lon="-0.9854170000"><ele>806</ele><time>2026-04-26T12:44:40Z</time></trkpt>
<trkpt lat="43.0971770000" lon="-0.9853920000"><ele>806</ele><time>2026-04-26T12:44:42Z</time></trkpt>
<trkpt lat="43.0971570000" lon="-0.9853670000"><ele>806</ele><time>2026-04-26T12:44:44Z</time></trkpt>
<trkpt lat="43.0971470000" lon="-0.9853300000"><ele>806</ele><time>2026-04-26T12:44:46Z</time></trkpt>
<trkpt lat="43.0971470000" lon="-0.9852920000"><ele>805</ele><time>2026-04-26T12:44:48Z</time></trkpt>
<trkpt lat="43.0971470000" lon="-0.9852570000"><ele>805</ele><time>2026-04-26T12:44:50Z</time></trkpt>
<trkpt lat="43.0971400000" lon="-0.9852300000"><ele>805</ele><time>2026-04-26T12:44:52Z</time></trkpt>
<trkpt lat="43.0971420000" lon="-0.9852000000"><ele>805</ele><time>2026-04-26T12:44:54Z</time></trkpt>
<trkpt lat="43.0971470000" lon="-0.9851700000"><ele>805</ele><time>2026-04-26T12:44:56Z</time></trkpt>
<trkpt lat="43.0971570000" lon="-0.9851420000"><ele>805</ele><time>2026-04-26T12:44:58Z</time></trkpt>
<trkpt lat="43.0971700000" lon="-0.9851170000"><ele>806</ele><time>2026-04-26T12:45:00Z</time></trkpt>
<trkpt lat="43.0971820000" lon="-0.9850970000"><ele>806</ele><time>2026-04-26T12:45:02Z</time></trkpt>
<trkpt lat="43.0972000000" lon="-0.9850870000"><ele>806</ele><time>2026-04-26T12:45:04Z</time></trkpt>
</trkseg>
</trk>
</gpx>